<?xml version='1.0' encoding='UTF-8'?><gpx version="1.1" creator="JPX - https://github.com/jenetics/jpx" xmlns="http://www.topografix.com/GPX/1/1"><trk><trkseg><trkpt lat="42.4448592" lon="11.1133955"><ele>7.0</ele><time>2026-04-04T06:42:34.238Z</time></trkpt><trkpt lat="42.4448003" lon="11.1132813"><ele>6.999999999999999</ele><time>2026-04-04T06:42:37.245Z</time></trkpt><trkpt lat="42.4446928" lon="11.1132605"><ele>6.999999999999999</ele><time>2026-04-04T06:42:39.241Z</time></trkpt><trkpt lat="42.444607" lon="11.1132588"><ele>7.0</ele><time>2026-04-04T06:42:41.247Z</time></trkpt><trkpt lat="42.444539" lon="11.1133682"><ele>7.0</ele><time>2026-04-04T06:42:43.246Z</time></trkpt><trkpt lat="42.444495" lon="11.1135176"><ele>8.0</ele><time>2026-04-04T06:42:45.248Z</time></trkpt><trkpt lat="42.4444161" lon="11.1136307"><ele>9.0</ele><time>2026-04-04T06:42:47.249Z</time></trkpt><trkpt lat="42.4443136" lon="11.1137344"><ele>10.0</ele><time>2026-04-04T06:42:49.241Z</time></trkpt><trkpt lat="42.4442529" lon="11.1137798"><ele>11.0</ele><time>2026-04-04T06:42:50.252Z</time></trkpt><trkpt lat="42.4441868" lon="11.1138161"><ele>12.0</ele><time>2026-04-04T06:42:51.243Z</time></trkpt><trkpt lat="42.4441255" lon="11.1138617"><ele>11.999999999999998</ele><time>2026-04-04T06:42:52.246Z</time></trkpt><trkpt lat="42.4440638" lon="11.1139126"><ele>12.0</ele><time>2026-04-04T06:42:53.244Z</time></trkpt><trkpt lat="42.4440017" lon="11.1139599"><ele>12.0</ele><time>2026-04-04T06:42:54.254Z</time></trkpt><trkpt lat="42.4439462" lon="11.1140071"><ele>12.0</ele><time>2026-04-04T06:42:55.249Z</time></trkpt><trkpt lat="42.4438887" lon="11.1140556"><ele>12.0</ele><time>2026-04-04T06:42:56.243Z</time></trkpt><trkpt lat="42.4438331" lon="11.1141163"><ele>11.999999999999998</ele><time>2026-04-04T06:42:57.24Z</time></trkpt><trkpt lat="42.443783" lon="11.1141885"><ele>12.0</ele><time>2026-04-04T06:42:58.245Z</time></trkpt><trkpt lat="42.4437367" lon="11.1142664"><ele>12.0</ele><time>2026-04-04T06:42:59.246Z</time></trkpt><trkpt lat="42.4436896" lon="11.1143428"><ele>12.0</ele><time>2026-04-04T06:43:00.245Z</time></trkpt><trkpt lat="42.4436395" lon="11.1144041"><ele>12.0</ele><time>2026-04-04T06:43:01.245Z</time></trkpt><trkpt lat="42.4435758" lon="11.1144494"><ele>12.0</ele><time>2026-04-04T06:43:02.25Z</time></trkpt><trkpt lat="42.4434998" lon="11.1144836"><ele>12.0</ele><time>2026-04-04T06:43:03.25Z</time></trkpt><trkpt lat="42.4434116" lon="11.1145186"><ele>12.0</ele><time>2026-04-04T06:43:04.249Z</time></trkpt><trkpt lat="42.4433195" lon="11.114547"><ele>12.0</ele><time>2026-04-04T06:43:05.239Z</time></trkpt><trkpt lat="42.4432322" lon="11.1145712"><ele>12.0</ele><time>2026-04-04T06:43:06.244Z</time></trkpt><trkpt lat="42.4431512" lon="11.1146013"><ele>12.0</ele><time>2026-04-04T06:43:07.243Z</time></trkpt><trkpt lat="42.4430746" lon="11.1146426"><ele>12.0</ele><time>2026-04-04T06:43:08.243Z</time></trkpt><trkpt lat="42.4430018" lon="11.1146865"><ele>12.0</ele><time>2026-04-04T06:43:09.248Z</time></trkpt><trkpt lat="42.4429292" lon="11.1147248"><ele>12.0</ele><time>2026-04-04T06:43:10.243Z</time></trkpt><trkpt lat="42.4428567" lon="11.1147661"><ele>11.833333333333334</ele><time>2026-04-04T06:43:11.241Z</time></trkpt><trkpt lat="42.4427839" lon="11.1148218"><ele>11.666666666666666</ele><time>2026-04-04T06:43:12.247Z</time></trkpt><trkpt lat="42.4427165" lon="11.114886"><ele>11.5</ele><time>2026-04-04T06:43:13.242Z</time></trkpt><trkpt lat="42.442659" lon="11.1149521"><ele>11.333333333333332</ele><time>2026-04-04T06:43:14.244Z</time></trkpt><trkpt lat="42.4426031" lon="11.1150126"><ele>11.166666666666666</ele><time>2026-04-04T06:43:15.247Z</time></trkpt><trkpt lat="42.4425182" lon="11.1151113"><ele>11.0</ele><time>2026-04-04T06:43:17.245Z</time></trkpt><trkpt lat="42.442461" lon="11.1151957"><ele>11.0</ele><time>2026-04-04T06:43:19.241Z</time></trkpt><trkpt lat="42.4423983" lon="11.1152739"><ele>11.0</ele><time>2026-04-04T06:43:21.243Z</time></trkpt><trkpt lat="42.4423227" lon="11.1153594"><ele>11.0</ele><time>2026-04-04T06:43:23.249Z</time></trkpt><trkpt lat="42.4422564" lon="11.1154231"><ele>11.0</ele><time>2026-04-04T06:43:25.236Z</time></trkpt><trkpt lat="42.4421552" lon="11.1154993"><ele>11.0</ele><time>2026-04-04T06:43:28.251Z</time></trkpt><trkpt lat="42.442083" lon="11.1155069"><ele>13.0</ele><time>2026-04-04T06:43:29.242Z</time></trkpt><trkpt lat="42.4420017" lon="11.1154947"><ele>15.0</ele><time>2026-04-04T06:43:30.253Z</time></trkpt><trkpt lat="42.4419229" lon="11.1154788"><ele>17.0</ele><time>2026-04-04T06:43:31.242Z</time></trkpt><trkpt lat="42.441837" lon="11.1154766"><ele>19.0</ele><time>2026-04-04T06:43:32.252Z</time></trkpt><trkpt lat="42.4417427" lon="11.1154904"><ele>21.0</ele><time>2026-04-04T06:43:33.249Z</time></trkpt><trkpt lat="42.4416456" lon="11.1155099"><ele>23.0</ele><time>2026-04-04T06:43:34.239Z</time></trkpt><trkpt lat="42.4415446" lon="11.1155352"><ele>23.0</ele><time>2026-04-04T06:43:35.241Z</time></trkpt><trkpt lat="42.4414415" lon="11.1155576"><ele>23.0</ele><time>2026-04-04T06:43:36.242Z</time></trkpt><trkpt lat="42.4413382" lon="11.1155672"><ele>23.0</ele><time>2026-04-04T06:43:37.241Z</time></trkpt><trkpt lat="42.4412326" lon="11.1155676"><ele>23.0</ele><time>2026-04-04T06:43:38.246Z</time></trkpt><trkpt lat="42.4411281" lon="11.115569"><ele>23.0</ele><time>2026-04-04T06:43:39.237Z</time></trkpt><trkpt lat="42.4410263" lon="11.1155759"><ele>23.333333333333336</ele><time>2026-04-04T06:43:40.253Z</time></trkpt><trkpt lat="42.4409311" lon="11.1155889"><ele>23.666666666666668</ele><time>2026-04-04T06:43:41.244Z</time></trkpt><trkpt lat="42.4408432" lon="11.1156011"><ele>24.0</ele><time>2026-04-04T06:43:42.239Z</time></trkpt><trkpt lat="42.4407609" lon="11.1156066"><ele>24.333333333333336</ele><time>2026-04-04T06:43:43.243Z</time></trkpt><trkpt lat="42.4406798" lon="11.1156098"><ele>24.666666666666668</ele><time>2026-04-04T06:43:44.241Z</time></trkpt><trkpt lat="42.4406021" lon="11.1156079"><ele>25.0</ele><time>2026-04-04T06:43:45.244Z</time></trkpt><trkpt lat="42.4405304" lon="11.1156058"><ele>23.857142857142858</ele><time>2026-04-04T06:43:46.245Z</time></trkpt><trkpt lat="42.4404634" lon="11.1156099"><ele>22.714285714285715</ele><time>2026-04-04T06:43:47.252Z</time></trkpt><trkpt lat="42.4403983" lon="11.1156092"><ele>21.57142857142857</ele><time>2026-04-04T06:43:48.244Z</time></trkpt><trkpt lat="42.4403289" lon="11.1156087"><ele>20.42857142857143</ele><time>2026-04-04T06:43:49.239Z</time></trkpt><trkpt lat="42.4402559" lon="11.1156027"><ele>19.285714285714285</ele><time>2026-04-04T06:43:50.248Z</time></trkpt><trkpt lat="42.4401842" lon="11.1155882"><ele>18.142857142857142</ele><time>2026-04-04T06:43:51.247Z</time></trkpt><trkpt lat="42.440117" lon="11.1155522"><ele>17.0</ele><time>2026-04-04T06:43:52.248Z</time></trkpt><trkpt lat="42.4400504" lon="11.1155058"><ele>17.0</ele><time>2026-04-04T06:43:53.239Z</time></trkpt><trkpt lat="42.4399797" lon="11.1154581"><ele>17.0</ele><time>2026-04-04T06:43:54.249Z</time></trkpt><trkpt lat="42.4399073" lon="11.1154192"><ele>17.0</ele><time>2026-04-04T06:43:55.245Z</time></trkpt><trkpt lat="42.4398396" lon="11.115393"><ele>17.0</ele><time>2026-04-04T06:43:56.241Z</time></trkpt><trkpt lat="42.4397755" lon="11.1153807"><ele>17.0</ele><time>2026-04-04T06:43:57.25Z</time></trkpt><trkpt lat="42.4396634" lon="11.115361"><ele>17.0</ele><time>2026-04-04T06:43:59.245Z</time></trkpt><trkpt lat="42.4395545" lon="11.1153899"><ele>16.166666666666668</ele><time>2026-04-04T06:44:01.246Z</time></trkpt><trkpt lat="42.4394961" lon="11.1154426"><ele>15.333333333333334</ele><time>2026-04-04T06:44:02.238Z</time></trkpt><trkpt lat="42.4394357" lon="11.1155065"><ele>14.5</ele><time>2026-04-04T06:44:03.239Z</time></trkpt><trkpt lat="42.4393727" lon="11.1155773"><ele>13.666666666666668</ele><time>2026-04-04T06:44:04.238Z</time></trkpt><trkpt lat="42.4393088" lon="11.1156448"><ele>12.833333333333334</ele><time>2026-04-04T06:44:05.24Z</time></trkpt><trkpt lat="42.4392458" lon="11.1157065"><ele>12.0</ele><time>2026-04-04T06:44:06.249Z</time></trkpt><trkpt lat="42.439186" lon="11.1157719"><ele>11.166666666666666</ele><time>2026-04-04T06:44:07.238Z</time></trkpt><trkpt lat="42.439127" lon="11.1158427"><ele>10.333333333333334</ele><time>2026-04-04T06:44:08.243Z</time></trkpt><trkpt lat="42.4390757" lon="11.1159233"><ele>9.5</ele><time>2026-04-04T06:44:09.239Z</time></trkpt><trkpt lat="42.4390334" lon="11.1160155"><ele>8.666666666666668</ele><time>2026-04-04T06:44:10.237Z</time></trkpt><trkpt lat="42.4390055" lon="11.1161095"><ele>7.833333333333334</ele><time>2026-04-04T06:44:11.245Z</time></trkpt><trkpt lat="42.4389799" lon="11.1161972"><ele>7.0</ele><time>2026-04-04T06:44:12.239Z</time></trkpt><trkpt lat="42.4389509" lon="11.1162808"><ele>7.000000000000001</ele><time>2026-04-04T06:44:13.245Z</time></trkpt><trkpt lat="42.438923" lon="11.116362"><ele>7.0</ele><time>2026-04-04T06:44:14.242Z</time></trkpt><trkpt lat="42.4388812" lon="11.1165006"><ele>7.0</ele><time>2026-04-04T06:44:16.239Z</time></trkpt><trkpt lat="42.4388572" lon="11.1166219"><ele>7.0</ele><time>2026-04-04T06:44:18.247Z</time></trkpt><trkpt lat="42.4388463" lon="11.1167072"><ele>7.000000000000001</ele><time>2026-04-04T06:44:20.246Z</time></trkpt><trkpt lat="42.4388283" lon="11.1168066"><ele>7.0</ele><time>2026-04-04T06:44:22.234Z</time></trkpt><trkpt lat="42.4387743" lon="11.1168611"><ele>39.0</ele><time>2026-04-04T06:44:24.238Z</time></trkpt><trkpt lat="42.4398626" lon="11.1142844"><ele>39.0</ele><time>2026-04-04T06:46:49.233Z</time></trkpt><trkpt lat="42.4399168" lon="11.1143439"><ele>39.0</ele><time>2026-04-04T06:46:50.252Z</time></trkpt><trkpt lat="42.4399941" lon="11.1143661"><ele>39.0</ele><time>2026-04-04T06:46:51.246Z</time></trkpt><trkpt lat="42.4400794" lon="11.1143632"><ele>39.0</ele><time>2026-04-04T06:46:52.241Z</time></trkpt><trkpt lat="42.4401775" lon="11.1143553"><ele>39.0</ele><time>2026-04-04T06:46:53.244Z</time></trkpt><trkpt lat="42.4403031" lon="11.1143573"><ele>39.0</ele><time>2026-04-04T06:46:54.244Z</time></trkpt><trkpt lat="42.4404333" lon="11.1143611"><ele>39.0</ele><time>2026-04-04T06:46:55.245Z</time></trkpt><trkpt lat="42.440547" lon="11.1143504"><ele>39.0</ele><time>2026-04-04T06:46:56.244Z</time></trkpt><trkpt lat="42.4406464" lon="11.1143405"><ele>39.0</ele><time>2026-04-04T06:46:57.242Z</time></trkpt><trkpt lat="42.4407302" lon="11.1143328"><ele>39.0</ele><time>2026-04-04T06:46:58.244Z</time></trkpt><trkpt lat="42.4407802" lon="11.1142702"><ele>40.5</ele><time>2026-04-04T06:46:59.244Z</time></trkpt><trkpt lat="42.4408079" lon="11.1141827"><ele>42.0</ele><time>2026-04-04T06:47:00.241Z</time></trkpt><trkpt lat="42.4408262" lon="11.1140734"><ele>43.5</ele><time>2026-04-04T06:47:01.244Z</time></trkpt><trkpt lat="42.4408257" lon="11.1139428"><ele>45.0</ele><time>2026-04-04T06:47:02.25Z</time></trkpt><trkpt lat="42.4408103" lon="11.1138091"><ele>46.5</ele><time>2026-04-04T06:47:03.244Z</time></trkpt><trkpt lat="42.440788" lon="11.113701"><ele>48.0</ele><time>2026-04-04T06:47:04.247Z</time></trkpt><trkpt lat="42.4407379" lon="11.1136033"><ele>50.25</ele><time>2026-04-04T06:47:07.24Z</time></trkpt><trkpt lat="42.4406446" lon="11.1135314"><ele>52.5</ele><time>2026-04-04T06:47:09.242Z</time></trkpt><trkpt lat="42.4405498" lon="11.1134868"><ele>54.75</ele><time>2026-04-04T06:47:10.249Z</time></trkpt><trkpt lat="42.4404232" lon="11.1134437"><ele>57.0</ele><time>2026-04-04T06:47:11.243Z</time></trkpt><trkpt lat="42.4402989" lon="11.113413"><ele>57.0</ele><time>2026-04-04T06:47:12.24Z</time></trkpt><trkpt lat="42.4401784" lon="11.113384"><ele>57.0</ele><time>2026-04-04T06:47:13.245Z</time></trkpt><trkpt lat="42.4400528" lon="11.1133435"><ele>57.0</ele><time>2026-04-04T06:47:14.244Z</time></trkpt><trkpt lat="42.4399304" lon="11.1133195"><ele>57.0</ele><time>2026-04-04T06:47:15.247Z</time></trkpt><trkpt lat="42.4397982" lon="11.1132993"><ele>57.0</ele><time>2026-04-04T06:47:16.242Z</time></trkpt><trkpt lat="42.4396702" lon="11.1132648"><ele>57.0</ele><time>2026-04-04T06:47:17.247Z</time></trkpt><trkpt lat="42.4395463" lon="11.1132282"><ele>57.0</ele><time>2026-04-04T06:47:18.245Z</time></trkpt><trkpt lat="42.4394224" lon="11.1131984"><ele>57.0</ele><time>2026-04-04T06:47:19.25Z</time></trkpt><trkpt lat="42.4392976" lon="11.1131654"><ele>62.5</ele><time>2026-04-04T06:47:20.245Z</time></trkpt><trkpt lat="42.4391826" lon="11.1131273"><ele>68.0</ele><time>2026-04-04T06:47:21.257Z</time></trkpt><trkpt lat="42.4390698" lon="11.1130915"><ele>73.5</ele><time>2026-04-04T06:47:22.239Z</time></trkpt><trkpt lat="42.4389571" lon="11.1130609"><ele>79.0</ele><time>2026-04-04T06:47:23.243Z</time></trkpt><trkpt lat="42.4388554" lon="11.1130389"><ele>79.80000000000001</ele><time>2026-04-04T06:47:24.246Z</time></trkpt><trkpt lat="42.4387571" lon="11.1130436"><ele>80.60000000000001</ele><time>2026-04-04T06:47:25.235Z</time></trkpt><trkpt lat="42.4386641" lon="11.1130686"><ele>81.4</ele><time>2026-04-04T06:47:26.239Z</time></trkpt><trkpt lat="42.4385796" lon="11.1131305"><ele>82.2</ele><time>2026-04-04T06:47:27.237Z</time></trkpt><trkpt lat="42.4384827" lon="11.113272"><ele>83.0</ele><time>2026-04-04T06:47:28.244Z</time></trkpt><trkpt lat="42.4383537" lon="11.1134456"><ele>83.66666666666667</ele><time>2026-04-04T06:47:29.246Z</time></trkpt><trkpt lat="42.438212" lon="11.1136549"><ele>84.33333333333333</ele><time>2026-04-04T06:47:30.239Z</time></trkpt><trkpt lat="42.4380505" lon="11.1138709"><ele>85.0</ele><time>2026-04-04T06:47:31.244Z</time></trkpt><trkpt lat="42.437913" lon="11.1140535"><ele>80.25</ele><time>2026-04-04T06:47:32.243Z</time></trkpt><trkpt lat="42.4377984" lon="11.1142022"><ele>75.5</ele><time>2026-04-04T06:47:33.237Z</time></trkpt><trkpt lat="42.4377054" lon="11.1143157"><ele>70.75</ele><time>2026-04-04T06:47:34.238Z</time></trkpt><trkpt lat="42.4376241" lon="11.1144173"><ele>66.0</ele><time>2026-04-04T06:47:35.245Z</time></trkpt><trkpt lat="42.4375492" lon="11.1144997"><ele>66.0</ele><time>2026-04-04T06:47:36.24Z</time></trkpt><trkpt lat="42.4374817" lon="11.1145938"><ele>66.0</ele><time>2026-04-04T06:47:37.241Z</time></trkpt><trkpt lat="42.4374225" lon="11.1147338"><ele>66.0</ele><time>2026-04-04T06:47:38.241Z</time></trkpt><trkpt lat="42.437351" lon="11.1149119"><ele>66.0</ele><time>2026-04-04T06:47:39.243Z</time></trkpt><trkpt lat="42.4372783" lon="11.1150856"><ele>64.0</ele><time>2026-04-04T06:47:40.248Z</time></trkpt><trkpt lat="42.4372317" lon="11.1152415"><ele>61.99999999999999</ele><time>2026-04-04T06:47:41.237Z</time></trkpt><trkpt lat="42.4372075" lon="11.1153781"><ele>59.99999999999999</ele><time>2026-04-04T06:47:42.245Z</time></trkpt><trkpt lat="42.4372005" lon="11.1155116"><ele>58.0</ele><time>2026-04-04T06:47:43.244Z</time></trkpt><trkpt lat="42.4372171" lon="11.1156367"><ele>56.0</ele><time>2026-04-04T06:47:44.247Z</time></trkpt><trkpt lat="42.4372484" lon="11.1157395"><ele>55.599999999999994</ele><time>2026-04-04T06:47:45.242Z</time></trkpt><trkpt lat="42.4372878" lon="11.1158388"><ele>55.199999999999996</ele><time>2026-04-04T06:47:46.237Z</time></trkpt><trkpt lat="42.4372793" lon="11.1159793"><ele>54.800000000000004</ele><time>2026-04-04T06:47:48.253Z</time></trkpt><trkpt lat="42.4371752" lon="11.1160628"><ele>54.400000000000006</ele><time>2026-04-04T06:47:50.247Z</time></trkpt><trkpt lat="42.4371116" lon="11.1160845"><ele>54.0</ele><time>2026-04-04T06:47:51.24Z</time></trkpt><trkpt lat="42.4369967" lon="11.1160382"><ele>60.5</ele><time>2026-04-04T06:47:53.248Z</time></trkpt><trkpt lat="42.4369407" lon="11.1159687"><ele>67.0</ele><time>2026-04-04T06:47:54.236Z</time></trkpt><trkpt lat="42.4368662" lon="11.1158745"><ele>73.5</ele><time>2026-04-04T06:47:55.245Z</time></trkpt><trkpt lat="42.4367961" lon="11.1157378"><ele>80.0</ele><time>2026-04-04T06:47:56.244Z</time></trkpt><trkpt lat="42.4367275" lon="11.1155585"><ele>80.5</ele><time>2026-04-04T06:47:57.241Z</time></trkpt><trkpt lat="42.4366573" lon="11.1153657"><ele>81.0</ele><time>2026-04-04T06:47:58.242Z</time></trkpt><trkpt lat="42.4365977" lon="11.1151972"><ele>81.5</ele><time>2026-04-04T06:47:59.247Z</time></trkpt><trkpt lat="42.4365563" lon="11.1150794"><ele>82.0</ele><time>2026-04-04T06:48:00.244Z</time></trkpt><trkpt lat="42.4365333" lon="11.1149856"><ele>82.0</ele><time>2026-04-04T06:48:01.242Z</time></trkpt><trkpt lat="42.4364559" lon="11.1149176"><ele>82.0</ele><time>2026-04-04T06:48:03.245Z</time></trkpt><trkpt lat="42.4363214" lon="11.1149806"><ele>82.0</ele><time>2026-04-04T06:48:05.24Z</time></trkpt><trkpt lat="42.4362439" lon="11.1150369"><ele>82.0</ele><time>2026-04-04T06:48:06.245Z</time></trkpt><trkpt lat="42.436157" lon="11.115115"><ele>82.0</ele><time>2026-04-04T06:48:07.245Z</time></trkpt><trkpt lat="42.4360712" lon="11.1152106"><ele>85.16666666666666</ele><time>2026-04-04T06:48:08.242Z</time></trkpt><trkpt lat="42.4359979" lon="11.1152797"><ele>88.33333333333333</ele><time>2026-04-04T06:48:09.248Z</time></trkpt><trkpt lat="42.4359377" lon="11.1153244"><ele>91.5</ele><time>2026-04-04T06:48:10.24Z</time></trkpt><trkpt lat="42.4358739" lon="11.1153381"><ele>94.66666666666666</ele><time>2026-04-04T06:48:11.244Z</time></trkpt><trkpt lat="42.4357902" lon="11.1153228"><ele>97.83333333333333</ele><time>2026-04-04T06:48:12.239Z</time></trkpt><trkpt lat="42.4356889" lon="11.1152925"><ele>101.0</ele><time>2026-04-04T06:48:13.241Z</time></trkpt><trkpt lat="42.4355769" lon="11.1152641"><ele>103.75</ele><time>2026-04-04T06:48:14.241Z</time></trkpt><trkpt lat="42.4354437" lon="11.1152325"><ele>106.5</ele><time>2026-04-04T06:48:15.247Z</time></trkpt><trkpt lat="42.4353141" lon="11.115199"><ele>109.25</ele><time>2026-04-04T06:48:16.245Z</time></trkpt><trkpt lat="42.4352181" lon="11.1151876"><ele>112.0</ele><time>2026-04-04T06:48:17.244Z</time></trkpt><trkpt lat="42.4351502" lon="11.1150981"><ele>112.00000000000001</ele><time>2026-04-04T06:48:19.238Z</time></trkpt><trkpt lat="42.4351416" lon="11.1150081"><ele>112.0</ele><time>2026-04-04T06:48:20.242Z</time></trkpt><trkpt lat="42.4351448" lon="11.1149074"><ele>112.0</ele><time>2026-04-04T06:48:21.246Z</time></trkpt><trkpt lat="42.435138" lon="11.1148048"><ele>112.0</ele><time>2026-04-04T06:48:22.248Z</time></trkpt><trkpt lat="42.435121" lon="11.1146455"><ele>112.00000000000001</ele><time>2026-04-04T06:48:24.251Z</time></trkpt><trkpt lat="42.4351206" lon="11.1145496"><ele>112.0</ele><time>2026-04-04T06:48:26.249Z</time></trkpt><trkpt lat="42.4351404" lon="11.1144542"><ele>115.33333333333334</ele><time>2026-04-04T06:48:28.242Z</time></trkpt><trkpt lat="42.4351574" lon="11.1143599"><ele>118.66666666666667</ele><time>2026-04-04T06:48:29.256Z</time></trkpt><trkpt lat="42.4351839" lon="11.1142464"><ele>122.0</ele><time>2026-04-04T06:48:30.247Z</time></trkpt><trkpt lat="42.4352285" lon="11.1141309"><ele>125.33333333333334</ele><time>2026-04-04T06:48:31.242Z</time></trkpt><trkpt lat="42.4352808" lon="11.1140128"><ele>128.66666666666666</ele><time>2026-04-04T06:48:32.249Z</time></trkpt><trkpt lat="42.4353214" lon="11.1139045"><ele>132.0</ele><time>2026-04-04T06:48:33.243Z</time></trkpt><trkpt lat="42.4353579" lon="11.1138055"><ele>132.0</ele><time>2026-04-04T06:48:34.252Z</time></trkpt><trkpt lat="42.4353893" lon="11.113707"><ele>132.0</ele><time>2026-04-04T06:48:35.247Z</time></trkpt><trkpt lat="42.4354152" lon="11.1136267"><ele>132.0</ele><time>2026-04-04T06:48:36.236Z</time></trkpt><trkpt lat="42.4354413" lon="11.1135168"><ele>132.0</ele><time>2026-04-04T06:48:38.247Z</time></trkpt><trkpt lat="42.4354713" lon="11.1134047"><ele>132.0</ele><time>2026-04-04T06:48:45.249Z</time></trkpt><trkpt lat="42.4355082" lon="11.1133093"><ele>132.0</ele><time>2026-04-04T06:48:46.25Z</time></trkpt><trkpt lat="42.4355547" lon="11.1132314"><ele>135.16666666666666</ele><time>2026-04-04T06:48:47.251Z</time></trkpt><trkpt lat="42.4355966" lon="11.1131514"><ele>138.33333333333334</ele><time>2026-04-04T06:48:48.245Z</time></trkpt><trkpt lat="42.4356438" lon="11.1130812"><ele>141.5</ele><time>2026-04-04T06:48:49.255Z</time></trkpt><trkpt lat="42.4357055" lon="11.1129978"><ele>144.66666666666669</ele><time>2026-04-04T06:48:50.249Z</time></trkpt><trkpt lat="42.4357787" lon="11.1129069"><ele>147.83333333333334</ele><time>2026-04-04T06:48:51.241Z</time></trkpt><trkpt lat="42.4358598" lon="11.1127907"><ele>151.0</ele><time>2026-04-04T06:48:52.243Z</time></trkpt><trkpt lat="42.4359382" lon="11.1126709"><ele>151.0</ele><time>2026-04-04T06:48:53.245Z</time></trkpt><trkpt lat="42.4360026" lon="11.1125666"><ele>151.0</ele><time>2026-04-04T06:48:54.255Z</time></trkpt><trkpt lat="42.436046" lon="11.1124491"><ele>151.0</ele><time>2026-04-04T06:48:55.251Z</time></trkpt><trkpt lat="42.4360688" lon="11.1123283"><ele>151.0</ele><time>2026-04-04T06:48:56.26Z</time></trkpt><trkpt lat="42.4361008" lon="11.11222"><ele>151.0</ele><time>2026-04-04T06:48:57.24Z</time></trkpt><trkpt lat="42.4361519" lon="11.112144"><ele>151.71428571428572</ele><time>2026-04-04T06:48:58.251Z</time></trkpt><trkpt lat="42.4362102" lon="11.112086"><ele>152.42857142857144</ele><time>2026-04-04T06:48:59.245Z</time></trkpt><trkpt lat="42.4362672" lon="11.1120323"><ele>153.14285714285717</ele><time>2026-04-04T06:49:00.24Z</time></trkpt><trkpt lat="42.4363205" lon="11.111975"><ele>153.85714285714286</ele><time>2026-04-04T06:49:01.252Z</time></trkpt><trkpt lat="42.4363754" lon="11.1119098"><ele>154.57142857142856</ele><time>2026-04-04T06:49:02.234Z</time></trkpt><trkpt lat="42.4364247" lon="11.1118506"><ele>155.2857142857143</ele><time>2026-04-04T06:49:03.239Z</time></trkpt><trkpt lat="42.4364727" lon="11.111789"><ele>156.0</ele><time>2026-04-04T06:49:04.259Z</time></trkpt><trkpt lat="42.4365191" lon="11.1117286"><ele>156.0</ele><time>2026-04-04T06:49:05.26Z</time></trkpt><trkpt lat="42.4365858" lon="11.1116512"><ele>156.0</ele><time>2026-04-04T06:49:06.263Z</time></trkpt><trkpt lat="42.4366922" lon="11.1115429"><ele>156.0</ele><time>2026-04-04T06:49:07.242Z</time></trkpt><trkpt lat="42.4368066" lon="11.1114294"><ele>156.0</ele><time>2026-04-04T06:49:08.263Z</time></trkpt><trkpt lat="42.4369226" lon="11.1113059"><ele>158.33333333333334</ele><time>2026-04-04T06:49:09.257Z</time></trkpt><trkpt lat="42.4370526" lon="11.111156"><ele>160.66666666666669</ele><time>2026-04-04T06:49:10.259Z</time></trkpt><trkpt lat="42.437194" lon="11.1109884"><ele>163.0</ele><time>2026-04-04T06:49:11.236Z</time></trkpt><trkpt lat="42.4373122" lon="11.1108481"><ele>163.0</ele><time>2026-04-04T06:49:12.256Z</time></trkpt><trkpt lat="42.4373986" lon="11.1107493"><ele>163.0</ele><time>2026-04-04T06:49:13.261Z</time></trkpt><trkpt lat="42.4374634" lon="11.1106621"><ele>163.0</ele><time>2026-04-04T06:49:14.257Z</time></trkpt><trkpt lat="42.4375071" lon="11.1105625"><ele>163.0</ele><time>2026-04-04T06:49:15.257Z</time></trkpt><trkpt lat="42.4375378" lon="11.1104496"><ele>163.0</ele><time>2026-04-04T06:49:16.246Z</time></trkpt><trkpt lat="42.4375627" lon="11.110331"><ele>167.5</ele><time>2026-04-04T06:49:17.257Z</time></trkpt><trkpt lat="42.4375873" lon="11.1101962"><ele>172.0</ele><time>2026-04-04T06:49:18.261Z</time></trkpt><trkpt lat="42.4375965" lon="11.1100525"><ele>176.5</ele><time>2026-04-04T06:49:19.257Z</time></trkpt><trkpt lat="42.4376058" lon="11.1098803"><ele>181.0</ele><time>2026-04-04T06:49:20.239Z</time></trkpt><trkpt lat="42.4376249" lon="11.1097095"><ele>181.60000000000002</ele><time>2026-04-04T06:49:21.26Z</time></trkpt><trkpt lat="42.4376354" lon="11.1095649"><ele>182.2</ele><time>2026-04-04T06:49:22.257Z</time></trkpt><trkpt lat="42.4376535" lon="11.109453"><ele>182.8</ele><time>2026-04-04T06:49:23.239Z</time></trkpt><trkpt lat="42.4376557" lon="11.1093571"><ele>183.39999999999998</ele><time>2026-04-04T06:49:24.248Z</time></trkpt><trkpt lat="42.4376188" lon="11.1091898"><ele>184.0</ele><time>2026-04-04T06:49:26.247Z</time></trkpt><trkpt lat="42.4375904" lon="11.109101"><ele>183.6</ele><time>2026-04-04T06:49:27.252Z</time></trkpt><trkpt lat="42.4375365" lon="11.1089637"><ele>183.2</ele><time>2026-04-04T06:49:29.259Z</time></trkpt><trkpt lat="42.4374725" lon="11.1088586"><ele>182.79999999999998</ele><time>2026-04-04T06:49:31.263Z</time></trkpt><trkpt lat="42.4374357" lon="11.1087867"><ele>182.39999999999998</ele><time>2026-04-04T06:49:34.274Z</time></trkpt><trkpt lat="42.4373606" lon="11.108643"><ele>182.0</ele><time>2026-04-04T06:50:20.245Z</time></trkpt><trkpt lat="42.4373414" lon="11.1085369"><ele>182.0</ele><time>2026-04-04T06:50:21.245Z</time></trkpt><trkpt lat="42.4373254" lon="11.1083876"><ele>182.0</ele><time>2026-04-04T06:50:22.246Z</time></trkpt><trkpt lat="42.4373212" lon="11.1082234"><ele>182.0</ele><time>2026-04-04T06:50:23.239Z</time></trkpt><trkpt lat="42.4373156" lon="11.1080589"><ele>182.0</ele><time>2026-04-04T06:50:24.253Z</time></trkpt><trkpt lat="42.4373083" lon="11.1078935"><ele>182.83333333333331</ele><time>2026-04-04T06:50:25.241Z</time></trkpt><trkpt lat="42.4372896" lon="11.107755"><ele>183.66666666666666</ele><time>2026-04-04T06:50:26.249Z</time></trkpt><trkpt lat="42.4372583" lon="11.1076527"><ele>184.5</ele><time>2026-04-04T06:50:27.242Z</time></trkpt><trkpt lat="42.437217" lon="11.1075642"><ele>185.33333333333334</ele><time>2026-04-04T06:50:28.246Z</time></trkpt><trkpt lat="42.4371541" lon="11.1074977"><ele>186.16666666666669</ele><time>2026-04-04T06:50:31.25Z</time></trkpt><trkpt lat="42.4370883" lon="11.1075129"><ele>187.0</ele><time>2026-04-04T06:50:35.244Z</time></trkpt><trkpt lat="42.437018" lon="11.1075367"><ele>187.75</ele><time>2026-04-04T06:50:36.242Z</time></trkpt><trkpt lat="42.4369261" lon="11.1075785"><ele>188.5</ele><time>2026-04-04T06:50:37.249Z</time></trkpt><trkpt lat="42.4368302" lon="11.1076473"><ele>189.25</ele><time>2026-04-04T06:50:38.247Z</time></trkpt><trkpt lat="42.4366978" lon="11.1077371"><ele>190.0</ele><time>2026-04-04T06:50:39.251Z</time></trkpt><trkpt lat="42.4365753" lon="11.1078221"><ele>190.0</ele><time>2026-04-04T06:50:40.246Z</time></trkpt><trkpt lat="42.4364511" lon="11.1079249"><ele>190.0</ele><time>2026-04-04T06:50:41.252Z</time></trkpt><trkpt lat="42.4363357" lon="11.1080233"><ele>190.0</ele><time>2026-04-04T06:50:42.24Z</time></trkpt><trkpt lat="42.4362334" lon="11.108118"><ele>190.0</ele><time>2026-04-04T06:50:43.249Z</time></trkpt><trkpt lat="42.4361424" lon="11.1081912"><ele>188.6</ele><time>2026-04-04T06:50:44.244Z</time></trkpt><trkpt lat="42.4360605" lon="11.1082422"><ele>187.2</ele><time>2026-04-04T06:50:45.242Z</time></trkpt><trkpt lat="42.4359786" lon="11.1082872"><ele>185.8</ele><time>2026-04-04T06:50:46.245Z</time></trkpt><trkpt lat="42.4358751" lon="11.1083198"><ele>184.4</ele><time>2026-04-04T06:50:47.246Z</time></trkpt><trkpt lat="42.4357443" lon="11.1083467"><ele>183.0</ele><time>2026-04-04T06:50:48.247Z</time></trkpt><trkpt lat="42.4355979" lon="11.1083886"><ele>187.0</ele><time>2026-04-04T06:50:49.247Z</time></trkpt><trkpt lat="42.4354696" lon="11.1084237"><ele>191.0</ele><time>2026-04-04T06:50:50.259Z</time></trkpt><trkpt lat="42.4353833" lon="11.1084485"><ele>195.0</ele><time>2026-04-04T06:50:51.246Z</time></trkpt><trkpt lat="42.4352764" lon="11.1085175"><ele>199.0</ele><time>2026-04-04T06:50:53.245Z</time></trkpt><trkpt lat="42.4352229" lon="11.1085732"><ele>203.0</ele><time>2026-04-04T06:50:54.24Z</time></trkpt><trkpt lat="42.4351765" lon="11.1086414"><ele>203.0</ele><time>2026-04-04T06:50:55.242Z</time></trkpt><trkpt lat="42.4351829" lon="11.1087358"><ele>203.0</ele><time>2026-04-04T06:50:58.248Z</time></trkpt><trkpt lat="42.4352174" lon="11.1088604"><ele>203.0</ele><time>2026-04-04T06:51:02.246Z</time></trkpt><trkpt lat="42.4351631" lon="11.1090155"><ele>203.0</ele><time>2026-04-04T06:51:04.243Z</time></trkpt><trkpt lat="42.4351124" lon="11.1091233"><ele>203.0</ele><time>2026-04-04T06:51:05.245Z</time></trkpt><trkpt lat="42.4350551" lon="11.1092409"><ele>205.2</ele><time>2026-04-04T06:51:06.245Z</time></trkpt><trkpt lat="42.4350017" lon="11.1093411"><ele>207.4</ele><time>2026-04-04T06:51:07.248Z</time></trkpt><trkpt lat="42.4349448" lon="11.1094428"><ele>209.59999999999997</ele><time>2026-04-04T06:51:08.244Z</time></trkpt><trkpt lat="42.434881" lon="11.1095444"><ele>211.79999999999998</ele><time>2026-04-04T06:51:09.244Z</time></trkpt><trkpt lat="42.4348239" lon="11.1096363"><ele>214.0</ele><time>2026-04-04T06:51:10.242Z</time></trkpt><trkpt lat="42.4347768" lon="11.1097218"><ele>214.0</ele><time>2026-04-04T06:51:11.252Z</time></trkpt><trkpt lat="42.434729" lon="11.1097882"><ele>213.99999999999997</ele><time>2026-04-04T06:51:12.25Z</time></trkpt><trkpt lat="42.4346394" lon="11.1099079"><ele>213.99999999999997</ele><time>2026-04-04T06:51:14.245Z</time></trkpt><trkpt lat="42.4345425" lon="11.1100111"><ele>214.0</ele><time>2026-04-04T06:51:16.246Z</time></trkpt><trkpt lat="42.4344583" lon="11.1101007"><ele>214.0</ele><time>2026-04-04T06:51:18.25Z</time></trkpt><trkpt lat="42.4343727" lon="11.1101816"><ele>212.6</ele><time>2026-04-04T06:51:20.243Z</time></trkpt><trkpt lat="42.4343198" lon="11.110271"><ele>211.2</ele><time>2026-04-04T06:51:22.244Z</time></trkpt><trkpt lat="42.4343245" lon="11.1103875"><ele>209.79999999999998</ele><time>2026-04-04T06:51:24.242Z</time></trkpt><trkpt lat="42.4343672" lon="11.1105212"><ele>208.39999999999998</ele><time>2026-04-04T06:51:26.25Z</time></trkpt><trkpt lat="42.4344381" lon="11.1106697"><ele>207.0</ele><time>2026-04-04T06:51:28.251Z</time></trkpt><trkpt lat="42.4345106" lon="11.1107885"><ele>205.83333333333334</ele><time>2026-04-04T06:51:30.251Z</time></trkpt><trkpt lat="42.4345485" lon="11.1109299"><ele>204.66666666666669</ele><time>2026-04-04T06:51:32.252Z</time></trkpt><trkpt lat="42.434554" lon="11.1110361"><ele>203.5</ele><time>2026-04-04T06:51:33.249Z</time></trkpt><trkpt lat="42.434559" lon="11.1111414"><ele>202.33333333333334</ele><time>2026-04-04T06:51:34.244Z</time></trkpt><trkpt lat="42.4345601" lon="11.1112306"><ele>201.16666666666669</ele><time>2026-04-04T06:51:35.253Z</time></trkpt><trkpt lat="42.4345319" lon="11.1113752"><ele>200.0</ele><time>2026-04-04T06:51:37.25Z</time></trkpt><trkpt lat="42.4344592" lon="11.1115223"><ele>198.33333333333334</ele><time>2026-04-04T06:51:39.245Z</time></trkpt><trkpt lat="42.4344036" lon="11.1115818"><ele>196.66666666666669</ele><time>2026-04-04T06:51:40.251Z</time></trkpt><trkpt lat="42.4342865" lon="11.1116398"><ele>195.0</ele><time>2026-04-04T06:51:42.247Z</time></trkpt><trkpt lat="42.434218" lon="11.1116451"><ele>193.33333333333334</ele><time>2026-04-04T06:51:43.25Z</time></trkpt><trkpt lat="42.434117" lon="11.1116579"><ele>191.66666666666669</ele><time>2026-04-04T06:51:45.246Z</time></trkpt><trkpt lat="42.4340529" lon="11.1116472"><ele>190.0</ele><time>2026-04-04T06:53:50.245Z</time></trkpt><trkpt lat="42.4341276" lon="11.1116842"><ele>190.0</ele><time>2026-04-04T06:53:57.246Z</time></trkpt><trkpt lat="42.4342474" lon="11.1116621"><ele>190.0</ele><time>2026-04-04T06:53:59.247Z</time></trkpt><trkpt lat="42.4343104" lon="11.111639"><ele>190.0</ele><time>2026-04-04T06:54:00.245Z</time></trkpt><trkpt lat="42.4343735" lon="11.1116118"><ele>190.0</ele><time>2026-04-04T06:54:01.242Z</time></trkpt><trkpt lat="42.434424" lon="11.1115519"><ele>190.0</ele><time>2026-04-04T06:54:02.253Z</time></trkpt><trkpt lat="42.4344698" lon="11.111488"><ele>190.0</ele><time>2026-04-04T06:54:03.238Z</time></trkpt><trkpt lat="42.4345309" lon="11.1113576"><ele>191.66666666666669</ele><time>2026-04-04T06:54:05.255Z</time></trkpt><trkpt lat="42.4345565" lon="11.1112067"><ele>193.33333333333334</ele><time>2026-04-04T06:54:07.251Z</time></trkpt><trkpt lat="42.4345588" lon="11.1111204"><ele>195.0</ele><time>2026-04-04T06:54:08.247Z</time></trkpt><trkpt lat="42.4345563" lon="11.1110341"><ele>196.66666666666669</ele><time>2026-04-04T06:54:09.246Z</time></trkpt><trkpt lat="42.4345527" lon="11.1109457"><ele>198.33333333333334</ele><time>2026-04-04T06:54:10.247Z</time></trkpt><trkpt lat="42.4345232" lon="11.1108123"><ele>200.0</ele><time>2026-04-04T06:54:12.256Z</time></trkpt><trkpt lat="42.4344615" lon="11.1107328"><ele>201.16666666666669</ele><time>2026-04-04T06:54:14.237Z</time></trkpt><trkpt lat="42.4343782" lon="11.1106114"><ele>202.33333333333334</ele><time>2026-04-04T06:54:16.247Z</time></trkpt><trkpt lat="42.434347" lon="11.1105314"><ele>203.5</ele><time>2026-04-04T06:54:17.239Z</time></trkpt><trkpt lat="42.4343205" lon="11.1104519"><ele>204.66666666666669</ele><time>2026-04-04T06:54:18.248Z</time></trkpt><trkpt lat="42.4343052" lon="11.1103468"><ele>205.83333333333334</ele><time>2026-04-04T06:54:20.248Z</time></trkpt><trkpt lat="42.4343157" lon="11.1102536"><ele>207.0</ele><time>2026-04-04T06:54:22.248Z</time></trkpt><trkpt lat="42.4343727" lon="11.1101719"><ele>207.0</ele><time>2026-04-04T06:55:15.254Z</time></trkpt><trkpt lat="42.4344602" lon="11.1100945"><ele>207.0</ele><time>2026-04-04T06:55:17.248Z</time></trkpt><trkpt lat="42.4345135" lon="11.1100459"><ele>207.0</ele><time>2026-04-04T06:55:18.247Z</time></trkpt><trkpt lat="42.4345739" lon="11.1099896"><ele>207.0</ele><time>2026-04-04T06:55:19.248Z</time></trkpt><trkpt lat="42.4346357" lon="11.1099263"><ele>207.0</ele><time>2026-04-04T06:55:20.254Z</time></trkpt><trkpt lat="42.4346936" lon="11.1098507"><ele>207.0</ele><time>2026-04-04T06:55:21.249Z</time></trkpt><trkpt lat="42.434739" lon="11.1097833"><ele>207.0</ele><time>2026-04-04T06:55:22.251Z</time></trkpt><trkpt lat="42.434777" lon="11.1097146"><ele>207.0</ele><time>2026-04-04T06:55:24.248Z</time></trkpt><trkpt lat="42.4348239" lon="11.1096535"><ele>207.0</ele><time>2026-04-04T06:55:27.256Z</time></trkpt><trkpt lat="42.4347573" lon="11.1097285"><ele>207.0</ele><time>2026-04-04T06:55:35.247Z</time></trkpt><trkpt lat="42.434691" lon="11.1098439"><ele>207.0</ele><time>2026-04-04T06:55:37.249Z</time></trkpt><trkpt lat="42.4346289" lon="11.1099323"><ele>207.0</ele><time>2026-04-04T06:55:39.25Z</time></trkpt><trkpt lat="42.434572" lon="11.1099993"><ele>207.00000000000003</ele><time>2026-04-04T06:55:41.247Z</time></trkpt><trkpt lat="42.4345125" lon="11.1100641"><ele>207.0</ele><time>2026-04-04T06:55:43.24Z</time></trkpt><trkpt lat="42.4344512" lon="11.110114"><ele>207.0</ele><time>2026-04-04T06:55:45.247Z</time></trkpt><trkpt lat="42.4343886" lon="11.1101681"><ele>207.0</ele><time>2026-04-04T06:55:47.254Z</time></trkpt><trkpt lat="42.4343338" lon="11.1102227"><ele>207.0</ele><time>2026-04-04T06:56:16.244Z</time></trkpt><trkpt lat="42.4343025" lon="11.1103092"><ele>207.00000000000003</ele><time>2026-04-04T06:56:21.257Z</time></trkpt><trkpt lat="42.4343121" lon="11.1104012"><ele>207.0</ele><time>2026-04-04T06:57:03.246Z</time></trkpt><trkpt lat="42.4343386" lon="11.1105033"><ele>207.0</ele><time>2026-04-04T06:57:07.254Z</time></trkpt><trkpt lat="42.4343747" lon="11.1105938"><ele>207.0</ele><time>2026-04-04T06:57:10.249Z</time></trkpt><trkpt lat="42.4344249" lon="11.1107048"><ele>207.0</ele><time>2026-04-04T06:57:13.247Z</time></trkpt><trkpt lat="42.4344777" lon="11.1107828"><ele>207.0</ele><time>2026-04-04T06:57:15.242Z</time></trkpt><trkpt lat="42.4345335" lon="11.1108788"><ele>207.0</ele><time>2026-04-04T06:57:17.243Z</time></trkpt><trkpt lat="42.4345433" lon="11.1109784"><ele>207.0</ele><time>2026-04-04T06:57:19.246Z</time></trkpt><trkpt lat="42.4345454" lon="11.1110965"><ele>205.83333333333334</ele><time>2026-04-04T06:57:21.246Z</time></trkpt><trkpt lat="42.4345425" lon="11.1112141"><ele>204.66666666666669</ele><time>2026-04-04T06:57:23.245Z</time></trkpt><trkpt lat="42.4345483" lon="11.1112994"><ele>203.5</ele><time>2026-04-04T06:57:26.244Z</time></trkpt><trkpt lat="42.4345187" lon="11.1113841"><ele>202.33333333333334</ele><time>2026-04-04T06:57:51.25Z</time></trkpt><trkpt lat="42.4344626" lon="11.1114771"><ele>201.16666666666669</ele><time>2026-04-04T06:57:53.252Z</time></trkpt><trkpt lat="42.4343825" lon="11.1115593"><ele>200.0</ele><time>2026-04-04T06:57:55.247Z</time></trkpt><trkpt lat="42.4343016" lon="11.1116236"><ele>200.00000000000003</ele><time>2026-04-04T06:57:57.246Z</time></trkpt><trkpt lat="42.4342084" lon="11.1116335"><ele>200.0</ele><time>2026-04-04T06:57:59.245Z</time></trkpt><trkpt lat="42.4341326" lon="11.1116579"><ele>200.0</ele><time>2026-04-04T06:58:01.254Z</time></trkpt><trkpt lat="42.4340692" lon="11.11164"><ele>200.0</ele><time>2026-04-04T06:58:04.255Z</time></trkpt><trkpt lat="42.4340545" lon="11.1114859"><ele>200.00000000000003</ele><time>2026-04-04T06:58:12.249Z</time></trkpt><trkpt lat="42.4340328" lon="11.1113914"><ele>200.0</ele><time>2026-04-04T06:58:13.245Z</time></trkpt><trkpt lat="42.4340104" lon="11.1112373"><ele>200.0</ele><time>2026-04-04T06:58:14.248Z</time></trkpt><trkpt lat="42.4339778" lon="11.1110524"><ele>200.0</ele><time>2026-04-04T06:58:15.243Z</time></trkpt><trkpt lat="42.4339389" lon="11.1108653"><ele>200.0</ele><time>2026-04-04T06:58:16.25Z</time></trkpt><trkpt lat="42.4339017" lon="11.1107461"><ele>200.0</ele><time>2026-04-04T06:58:17.242Z</time></trkpt><trkpt lat="42.433859" lon="11.1106745"><ele>200.0</ele><time>2026-04-04T06:58:18.243Z</time></trkpt><trkpt lat="42.4338136" lon="11.1106117"><ele>201.0</ele><time>2026-04-04T06:58:19.247Z</time></trkpt><trkpt lat="42.4337179" lon="11.1105038"><ele>202.0</ele><time>2026-04-04T06:58:21.246Z</time></trkpt><trkpt lat="42.4336568" lon="11.110362"><ele>203.0</ele><time>2026-04-04T06:58:23.249Z</time></trkpt><trkpt lat="42.4336366" lon="11.1102095"><ele>204.0</ele><time>2026-04-04T06:58:25.25Z</time></trkpt><trkpt lat="42.4336327" lon="11.110106"><ele>205.0</ele><time>2026-04-04T06:58:26.253Z</time></trkpt><trkpt lat="42.4336462" lon="11.1099718"><ele>206.2</ele><time>2026-04-04T06:58:27.245Z</time></trkpt><trkpt lat="42.4336542" lon="11.1098133"><ele>207.4</ele><time>2026-04-04T06:58:28.246Z</time></trkpt><trkpt lat="42.4336668" lon="11.1096588"><ele>208.60000000000002</ele><time>2026-04-04T06:58:29.249Z</time></trkpt><trkpt lat="42.4336783" lon="11.1095069"><ele>209.8</ele><time>2026-04-04T06:58:30.249Z</time></trkpt><trkpt lat="42.4336767" lon="11.1093848"><ele>211.0</ele><time>2026-04-04T06:58:31.245Z</time></trkpt><trkpt lat="42.4336594" lon="11.1092719"><ele>211.0</ele><time>2026-04-04T06:58:32.244Z</time></trkpt><trkpt lat="42.4336312" lon="11.1091665"><ele>211.0</ele><time>2026-04-04T06:58:33.255Z</time></trkpt><trkpt lat="42.4335705" lon="11.1090642"><ele>211.0</ele><time>2026-04-04T06:58:34.248Z</time></trkpt><trkpt lat="42.4335086" lon="11.1089551"><ele>211.0</ele><time>2026-04-04T06:58:35.246Z</time></trkpt><trkpt lat="42.4334414" lon="11.1088555"><ele>211.0</ele><time>2026-04-04T06:58:36.241Z</time></trkpt><trkpt lat="42.4333782" lon="11.1087679"><ele>211.4</ele><time>2026-04-04T06:58:37.251Z</time></trkpt><trkpt lat="42.4332963" lon="11.1087157"><ele>211.8</ele><time>2026-04-04T06:58:38.254Z</time></trkpt><trkpt lat="42.4332031" lon="11.1086724"><ele>212.20000000000002</ele><time>2026-04-04T06:58:39.257Z</time></trkpt><trkpt lat="42.4330976" lon="11.1086483"><ele>212.60000000000002</ele><time>2026-04-04T06:58:40.242Z</time></trkpt><trkpt lat="42.4329866" lon="11.1086224"><ele>213.0</ele><time>2026-04-04T06:58:41.258Z</time></trkpt><trkpt lat="42.4328583" lon="11.1085744"><ele>214.0</ele><time>2026-04-04T06:58:42.249Z</time></trkpt><trkpt lat="42.4327434" lon="11.1085166"><ele>215.0</ele><time>2026-04-04T06:58:43.249Z</time></trkpt><trkpt lat="42.4326143" lon="11.108462"><ele>216.0</ele><time>2026-04-04T06:58:44.248Z</time></trkpt><trkpt lat="42.4324688" lon="11.1084245"><ele>217.0</ele><time>2026-04-04T06:58:45.249Z</time></trkpt><trkpt lat="42.4323136" lon="11.1083846"><ele>217.0</ele><time>2026-04-04T06:58:46.273Z</time></trkpt><trkpt lat="42.4321871" lon="11.1083419"><ele>217.0</ele><time>2026-04-04T06:58:47.243Z</time></trkpt><trkpt lat="42.4320775" lon="11.1083012"><ele>217.0</ele><time>2026-04-04T06:58:48.241Z</time></trkpt><trkpt lat="42.4319849" lon="11.1082523"><ele>217.0</ele><time>2026-04-04T06:58:49.246Z</time></trkpt><trkpt lat="42.4318957" lon="11.1081983"><ele>217.0</ele><time>2026-04-04T06:58:50.253Z</time></trkpt><trkpt lat="42.4318119" lon="11.1081464"><ele>218.33333333333331</ele><time>2026-04-04T06:58:51.251Z</time></trkpt><trkpt lat="42.4317259" lon="11.1080927"><ele>219.66666666666666</ele><time>2026-04-04T06:58:52.254Z</time></trkpt><trkpt lat="42.4316524" lon="11.1080367"><ele>221.0</ele><time>2026-04-04T06:58:53.26Z</time></trkpt><trkpt lat="42.4315803" lon="11.1079862"><ele>222.33333333333331</ele><time>2026-04-04T06:58:54.251Z</time></trkpt><trkpt lat="42.4315176" lon="11.1079311"><ele>223.66666666666666</ele><time>2026-04-04T06:58:55.247Z</time></trkpt><trkpt lat="42.4314612" lon="11.1078682"><ele>225.0</ele><time>2026-04-04T06:58:56.269Z</time></trkpt><trkpt lat="42.4314099" lon="11.1078128"><ele>225.0</ele><time>2026-04-04T06:58:57.253Z</time></trkpt><trkpt lat="42.4313387" lon="11.1077403"><ele>225.0</ele><time>2026-04-04T06:58:59.248Z</time></trkpt><trkpt lat="42.4312614" lon="11.1076757"><ele>225.0</ele><time>2026-04-04T06:59:02.246Z</time></trkpt><trkpt lat="42.431211" lon="11.1075853"><ele>225.0</ele><time>2026-04-04T06:59:10.248Z</time></trkpt><trkpt lat="42.431111" lon="11.1075063"><ele>225.0</ele><time>2026-04-04T06:59:12.247Z</time></trkpt><trkpt lat="42.4310287" lon="11.1074358"><ele>225.5</ele><time>2026-04-04T06:59:13.252Z</time></trkpt><trkpt lat="42.430927" lon="11.1073847"><ele>226.0</ele><time>2026-04-04T06:59:14.252Z</time></trkpt><trkpt lat="42.4307973" lon="11.1073439"><ele>226.5</ele><time>2026-04-04T06:59:15.25Z</time></trkpt><trkpt lat="42.4306544" lon="11.1073018"><ele>227.0</ele><time>2026-04-04T06:59:16.252Z</time></trkpt><trkpt lat="42.4305033" lon="11.1072695"><ele>225.75</ele><time>2026-04-04T06:59:17.243Z</time></trkpt><trkpt lat="42.4303613" lon="11.1072441"><ele>224.5</ele><time>2026-04-04T06:59:18.248Z</time></trkpt><trkpt lat="42.4302296" lon="11.1072125"><ele>223.25</ele><time>2026-04-04T06:59:19.243Z</time></trkpt><trkpt lat="42.4300983" lon="11.1072019"><ele>222.0</ele><time>2026-04-04T06:59:20.253Z</time></trkpt><trkpt lat="42.429953" lon="11.1072041"><ele>222.0</ele><time>2026-04-04T06:59:21.244Z</time></trkpt><trkpt lat="42.4297803" lon="11.1072086"><ele>222.0</ele><time>2026-04-04T06:59:22.251Z</time></trkpt><trkpt lat="42.4296313" lon="11.1072033"><ele>222.0</ele><time>2026-04-04T06:59:23.246Z</time></trkpt><trkpt lat="42.4295236" lon="11.107208"><ele>222.0</ele><time>2026-04-04T06:59:24.245Z</time></trkpt><trkpt lat="42.4294431" lon="11.107237"><ele>221.5</ele><time>2026-04-04T06:59:25.242Z</time></trkpt><trkpt lat="42.4293275" lon="11.1073048"><ele>221.0</ele><time>2026-04-04T06:59:26.257Z</time></trkpt><trkpt lat="42.4291991" lon="11.1073706"><ele>220.5</ele><time>2026-04-04T06:59:27.253Z</time></trkpt><trkpt lat="42.4290848" lon="11.1074153"><ele>220.0</ele><time>2026-04-04T06:59:28.246Z</time></trkpt><trkpt lat="42.4289767" lon="11.1074628"><ele>218.66666666666666</ele><time>2026-04-04T06:59:29.245Z</time></trkpt><trkpt lat="42.4288875" lon="11.1074943"><ele>217.33333333333331</ele><time>2026-04-04T06:59:30.256Z</time></trkpt><trkpt lat="42.4287939" lon="11.1075242"><ele>216.0</ele><time>2026-04-04T06:59:31.25Z</time></trkpt><trkpt lat="42.4287179" lon="11.1075563"><ele>214.66666666666669</ele><time>2026-04-04T06:59:32.252Z</time></trkpt><trkpt lat="42.4286432" lon="11.1075802"><ele>213.33333333333334</ele><time>2026-04-04T06:59:33.251Z</time></trkpt><trkpt lat="42.4285747" lon="11.1076046"><ele>212.0</ele><time>2026-04-04T06:59:34.248Z</time></trkpt><trkpt lat="42.4284713" lon="11.1076435"><ele>212.0</ele><time>2026-04-04T06:59:36.253Z</time></trkpt><trkpt lat="42.4283722" lon="11.1075984"><ele>212.0</ele><time>2026-04-04T06:59:38.25Z</time></trkpt><trkpt lat="42.428308" lon="11.1075496"><ele>212.0</ele><time>2026-04-04T06:59:39.251Z</time></trkpt><trkpt lat="42.4282398" lon="11.1074995"><ele>212.0</ele><time>2026-04-04T06:59:40.251Z</time></trkpt><trkpt lat="42.4281563" lon="11.1074454"><ele>212.0</ele><time>2026-04-04T06:59:41.252Z</time></trkpt><trkpt lat="42.4280632" lon="11.1073893"><ele>214.39999999999998</ele><time>2026-04-04T06:59:42.255Z</time></trkpt><trkpt lat="42.4279676" lon="11.1073323"><ele>216.79999999999998</ele><time>2026-04-04T06:59:43.24Z</time></trkpt><trkpt lat="42.4278682" lon="11.1072792"><ele>219.2</ele><time>2026-04-04T06:59:44.259Z</time></trkpt><trkpt lat="42.4277725" lon="11.1072585"><ele>221.6</ele><time>2026-04-04T06:59:45.245Z</time></trkpt><trkpt lat="42.4276718" lon="11.1072595"><ele>224.0</ele><time>2026-04-04T06:59:46.258Z</time></trkpt><trkpt lat="42.4275715" lon="11.1072776"><ele>224.0</ele><time>2026-04-04T06:59:47.249Z</time></trkpt><trkpt lat="42.427474" lon="11.1073111"><ele>223.99999999999997</ele><time>2026-04-04T06:59:48.261Z</time></trkpt><trkpt lat="42.4273808" lon="11.1073617"><ele>223.99999999999997</ele><time>2026-04-04T06:59:49.246Z</time></trkpt><trkpt lat="42.4272881" lon="11.1074252"><ele>224.0</ele><time>2026-04-04T06:59:50.246Z</time></trkpt><trkpt lat="42.4271916" lon="11.1075045"><ele>224.0</ele><time>2026-04-04T06:59:51.249Z</time></trkpt><trkpt lat="42.4271115" lon="11.1075728"><ele>220.39999999999998</ele><time>2026-04-04T06:59:52.248Z</time></trkpt><trkpt lat="42.4270386" lon="11.1076141"><ele>216.79999999999998</ele><time>2026-04-04T06:59:53.252Z</time></trkpt><trkpt lat="42.4269672" lon="11.1076422"><ele>213.2</ele><time>2026-04-04T06:59:54.245Z</time></trkpt><trkpt lat="42.4268975" lon="11.1076647"><ele>209.60000000000002</ele><time>2026-04-04T06:59:55.24Z</time></trkpt><trkpt lat="42.4267726" lon="11.107649"><ele>206.0</ele><time>2026-04-04T06:59:57.249Z</time></trkpt><trkpt lat="42.4266537" lon="11.1075622"><ele>206.0</ele><time>2026-04-04T06:59:59.263Z</time></trkpt><trkpt lat="42.4265954" lon="11.1074826"><ele>206.0</ele><time>2026-04-04T07:00:00.245Z</time></trkpt><trkpt lat="42.4265238" lon="11.1073889"><ele>206.0</ele><time>2026-04-04T07:00:01.252Z</time></trkpt><trkpt lat="42.4264302" lon="11.1072868"><ele>206.0</ele><time>2026-04-04T07:00:02.237Z</time></trkpt><trkpt lat="42.4263258" lon="11.1071751"><ele>206.0</ele><time>2026-04-04T07:00:03.252Z</time></trkpt><trkpt lat="42.4262179" lon="11.1070459"><ele>205.5</ele><time>2026-04-04T07:00:04.252Z</time></trkpt><trkpt lat="42.4261072" lon="11.106913"><ele>205.0</ele><time>2026-04-04T07:00:05.257Z</time></trkpt><trkpt lat="42.4260079" lon="11.1067833"><ele>204.5</ele><time>2026-04-04T07:00:06.247Z</time></trkpt><trkpt lat="42.4259203" lon="11.1066801"><ele>204.0</ele><time>2026-04-04T07:00:07.247Z</time></trkpt><trkpt lat="42.4258432" lon="11.1065861"><ele>206.6</ele><time>2026-04-04T07:00:08.248Z</time></trkpt><trkpt lat="42.4257774" lon="11.1064922"><ele>209.2</ele><time>2026-04-04T07:00:09.25Z</time></trkpt><trkpt lat="42.4257084" lon="11.1063796"><ele>211.79999999999998</ele><time>2026-04-04T07:00:10.251Z</time></trkpt><trkpt lat="42.425638" lon="11.1062543"><ele>214.39999999999998</ele><time>2026-04-04T07:00:11.255Z</time></trkpt><trkpt lat="42.425581" lon="11.1061318"><ele>217.0</ele><time>2026-04-04T07:00:12.251Z</time></trkpt><trkpt lat="42.4255175" lon="11.1060225"><ele>215.5</ele><time>2026-04-04T07:00:13.243Z</time></trkpt><trkpt lat="42.4254521" lon="11.1059272"><ele>214.0</ele><time>2026-04-04T07:00:14.258Z</time></trkpt><trkpt lat="42.4253841" lon="11.1058146"><ele>212.5</ele><time>2026-04-04T07:00:15.248Z</time></trkpt><trkpt lat="42.4253083" lon="11.1056863"><ele>211.0</ele><time>2026-04-04T07:00:16.251Z</time></trkpt><trkpt lat="42.4252269" lon="11.1055529"><ele>211.0</ele><time>2026-04-04T07:00:17.252Z</time></trkpt><trkpt lat="42.4251316" lon="11.1054192"><ele>211.0</ele><time>2026-04-04T07:00:18.25Z</time></trkpt><trkpt lat="42.4250358" lon="11.1052845"><ele>211.0</ele><time>2026-04-04T07:00:19.25Z</time></trkpt><trkpt lat="42.4249322" lon="11.1051486"><ele>211.0</ele><time>2026-04-04T07:00:20.249Z</time></trkpt><trkpt lat="42.4248363" lon="11.1050217"><ele>209.25</ele><time>2026-04-04T07:00:21.247Z</time></trkpt><trkpt lat="42.424747" lon="11.1049002"><ele>207.5</ele><time>2026-04-04T07:00:22.249Z</time></trkpt><trkpt lat="42.4246533" lon="11.104773"><ele>205.75</ele><time>2026-04-04T07:00:23.26Z</time></trkpt><trkpt lat="42.4245579" lon="11.1046546"><ele>204.0</ele><time>2026-04-04T07:00:24.244Z</time></trkpt><trkpt lat="42.4244691" lon="11.1045538"><ele>208.0</ele><time>2026-04-04T07:00:25.252Z</time></trkpt><trkpt lat="42.424378" lon="11.1044763"><ele>212.0</ele><time>2026-04-04T07:00:26.251Z</time></trkpt><trkpt lat="42.4242986" lon="11.1044084"><ele>215.99999999999997</ele><time>2026-04-04T07:00:27.244Z</time></trkpt><trkpt lat="42.4242205" lon="11.1043566"><ele>220.0</ele><time>2026-04-04T07:00:28.26Z</time></trkpt><trkpt lat="42.4241441" lon="11.1043114"><ele>224.0</ele><time>2026-04-04T07:00:29.242Z</time></trkpt><trkpt lat="42.4240578" lon="11.1042669"><ele>224.00000000000003</ele><time>2026-04-04T07:00:30.245Z</time></trkpt><trkpt lat="42.4239639" lon="11.1042096"><ele>224.0</ele><time>2026-04-04T07:00:31.245Z</time></trkpt><trkpt lat="42.4238817" lon="11.104144"><ele>224.0</ele><time>2026-04-04T07:00:32.257Z</time></trkpt><trkpt lat="42.4238219" lon="11.1040944"><ele>224.0</ele><time>2026-04-04T07:00:33.254Z</time></trkpt><trkpt lat="42.4237496" lon="11.104028"><ele>224.00000000000003</ele><time>2026-04-04T07:00:35.239Z</time></trkpt><trkpt lat="42.4236862" lon="11.1039918"><ele>224.0</ele><time>2026-04-04T07:00:38.246Z</time></trkpt><trkpt lat="42.4236131" lon="11.1039588"><ele>224.75</ele><time>2026-04-04T07:00:40.247Z</time></trkpt><trkpt lat="42.4235272" lon="11.1038937"><ele>225.5</ele><time>2026-04-04T07:00:42.249Z</time></trkpt><trkpt lat="42.4234442" lon="11.1037958"><ele>226.25</ele><time>2026-04-04T07:00:44.237Z</time></trkpt><trkpt lat="42.4233792" lon="11.1036531"><ele>227.0</ele><time>2026-04-04T07:00:46.248Z</time></trkpt><trkpt lat="42.4233209" lon="11.1035014"><ele>227.0</ele><time>2026-04-04T07:00:48.244Z</time></trkpt><trkpt lat="42.4232522" lon="11.1033846"><ele>227.0</ele><time>2026-04-04T07:00:50.259Z</time></trkpt><trkpt lat="42.4231551" lon="11.1033278"><ele>227.0</ele><time>2026-04-04T07:00:52.241Z</time></trkpt><trkpt lat="42.4230358" lon="11.1032882"><ele>227.0</ele><time>2026-04-04T07:00:54.245Z</time></trkpt><trkpt lat="42.4229663" lon="11.1032702"><ele>227.0</ele><time>2026-04-04T07:00:55.246Z</time></trkpt><trkpt lat="42.4228926" lon="11.1032444"><ele>226.16666666666669</ele><time>2026-04-04T07:00:56.263Z</time></trkpt><trkpt lat="42.4228093" lon="11.1032066"><ele>225.33333333333334</ele><time>2026-04-04T07:00:57.245Z</time></trkpt><trkpt lat="42.4227341" lon="11.103147"><ele>224.5</ele><time>2026-04-04T07:00:58.251Z</time></trkpt><trkpt lat="42.4226744" lon="11.1031012"><ele>223.66666666666669</ele><time>2026-04-04T07:00:59.247Z</time></trkpt><trkpt lat="42.4225779" lon="11.1030893"><ele>222.83333333333334</ele><time>2026-04-04T07:01:01.244Z</time></trkpt><trkpt lat="42.4225131" lon="11.1031617"><ele>222.0</ele><time>2026-04-04T07:01:03.241Z</time></trkpt><trkpt lat="42.4224521" lon="11.1032763"><ele>222.0</ele><time>2026-04-04T07:01:05.243Z</time></trkpt><trkpt lat="42.4223866" lon="11.1033837"><ele>222.0</ele><time>2026-04-04T07:01:07.254Z</time></trkpt><trkpt lat="42.4223202" lon="11.10344"><ele>222.0</ele><time>2026-04-04T07:01:09.243Z</time></trkpt><trkpt lat="42.4222643" lon="11.1034827"><ele>222.0</ele><time>2026-04-04T07:02:07.252Z</time></trkpt><trkpt lat="42.4221947" lon="11.10352"><ele>222.0</ele><time>2026-04-04T07:02:09.238Z</time></trkpt><trkpt lat="42.4220971" lon="11.1035516"><ele>222.0</ele><time>2026-04-04T07:02:11.254Z</time></trkpt><trkpt lat="42.4219774" lon="11.1035836"><ele>225.0</ele><time>2026-04-04T07:02:13.252Z</time></trkpt><trkpt lat="42.4219093" lon="11.1035956"><ele>228.0</ele><time>2026-04-04T07:02:14.258Z</time></trkpt><trkpt lat="42.4217964" lon="11.1036455"><ele>231.0</ele><time>2026-04-04T07:02:16.248Z</time></trkpt><trkpt lat="42.421711" lon="11.1037329"><ele>234.0</ele><time>2026-04-04T07:02:18.245Z</time></trkpt><trkpt lat="42.4216168" lon="11.1038334"><ele>237.0</ele><time>2026-04-04T07:02:20.273Z</time></trkpt><trkpt lat="42.4215257" lon="11.1039108"><ele>237.0</ele><time>2026-04-04T07:02:22.24Z</time></trkpt><trkpt lat="42.4214565" lon="11.1039536"><ele>237.0</ele><time>2026-04-04T07:02:24.248Z</time></trkpt><trkpt lat="42.4213744" lon="11.1039522"><ele>237.0</ele><time>2026-04-04T07:02:26.245Z</time></trkpt><trkpt lat="42.4212731" lon="11.1039231"><ele>237.0</ele><time>2026-04-04T07:02:28.248Z</time></trkpt><trkpt lat="42.4212137" lon="11.1038883"><ele>237.0</ele><time>2026-04-04T07:02:29.246Z</time></trkpt><trkpt lat="42.4210964" lon="11.1038617"><ele>237.0</ele><time>2026-04-04T07:02:31.249Z</time></trkpt><trkpt lat="42.4210293" lon="11.1038777"><ele>238.66666666666666</ele><time>2026-04-04T07:02:32.244Z</time></trkpt><trkpt lat="42.4209298" lon="11.10392"><ele>240.33333333333331</ele><time>2026-04-04T07:02:34.254Z</time></trkpt><trkpt lat="42.420858" lon="11.1039991"><ele>242.0</ele><time>2026-04-04T07:02:36.246Z</time></trkpt><trkpt lat="42.4208144" lon="11.1040617"><ele>243.66666666666666</ele><time>2026-04-04T07:02:37.239Z</time></trkpt><trkpt lat="42.4207645" lon="11.1041282"><ele>245.33333333333331</ele><time>2026-04-04T07:02:38.243Z</time></trkpt><trkpt lat="42.4207164" lon="11.1041856"><ele>247.0</ele><time>2026-04-04T07:02:39.244Z</time></trkpt><trkpt lat="42.4206178" lon="11.104266"><ele>246.66666666666666</ele><time>2026-04-04T07:02:41.249Z</time></trkpt><trkpt lat="42.4205527" lon="11.1042932"><ele>246.33333333333331</ele><time>2026-04-04T07:02:42.238Z</time></trkpt><trkpt lat="42.4204731" lon="11.104322"><ele>246.0</ele><time>2026-04-04T07:02:43.251Z</time></trkpt><trkpt lat="42.4203857" lon="11.1043549"><ele>245.66666666666669</ele><time>2026-04-04T07:02:44.236Z</time></trkpt><trkpt lat="42.4203154" lon="11.1043968"><ele>245.33333333333334</ele><time>2026-04-04T07:02:45.258Z</time></trkpt><trkpt lat="42.4202551" lon="11.1044447"><ele>245.0</ele><time>2026-04-04T07:02:46.243Z</time></trkpt><trkpt lat="42.4201913" lon="11.1044962"><ele>245.0</ele><time>2026-04-04T07:02:47.247Z</time></trkpt><trkpt lat="42.4201357" lon="11.1045499"><ele>245.0</ele><time>2026-04-04T07:02:48.249Z</time></trkpt><trkpt lat="42.4200881" lon="11.1046173"><ele>245.0</ele><time>2026-04-04T07:02:49.245Z</time></trkpt><trkpt lat="42.4200079" lon="11.1047289"><ele>245.0</ele><time>2026-04-04T07:02:51.258Z</time></trkpt><trkpt lat="42.4199293" lon="11.1048269"><ele>245.0</ele><time>2026-04-04T07:02:53.244Z</time></trkpt><trkpt lat="42.4198609" lon="11.1049481"><ele>247.33333333333334</ele><time>2026-04-04T07:02:55.244Z</time></trkpt><trkpt lat="42.4198107" lon="11.105031"><ele>249.66666666666669</ele><time>2026-04-04T07:02:57.253Z</time></trkpt><trkpt lat="42.4197898" lon="11.1051127"><ele>252.0</ele><time>2026-04-04T07:03:07.24Z</time></trkpt><trkpt lat="42.4197464" lon="11.1051956"><ele>254.33333333333331</ele><time>2026-04-04T07:03:09.245Z</time></trkpt><trkpt lat="42.4196919" lon="11.1052725"><ele>256.66666666666663</ele><time>2026-04-04T07:03:10.239Z</time></trkpt><trkpt lat="42.4196158" lon="11.1053833"><ele>259.0</ele><time>2026-04-04T07:03:11.247Z</time></trkpt><trkpt lat="42.4195441" lon="11.1055034"><ele>259.0</ele><time>2026-04-04T07:03:12.244Z</time></trkpt><trkpt lat="42.4194692" lon="11.1056225"><ele>259.0</ele><time>2026-04-04T07:03:13.251Z</time></trkpt><trkpt lat="42.4194107" lon="11.1057363"><ele>259.0</ele><time>2026-04-04T07:03:14.248Z</time></trkpt><trkpt lat="42.4193737" lon="11.1058564"><ele>259.0</ele><time>2026-04-04T07:03:15.24Z</time></trkpt><trkpt lat="42.4193406" lon="11.1059588"><ele>259.0</ele><time>2026-04-04T07:03:16.242Z</time></trkpt><trkpt lat="42.4193091" lon="11.1060523"><ele>256.3333333333333</ele><time>2026-04-04T07:03:17.24Z</time></trkpt><trkpt lat="42.4192968" lon="11.1061624"><ele>253.66666666666666</ele><time>2026-04-04T07:03:18.244Z</time></trkpt><trkpt lat="42.4192838" lon="11.1062671"><ele>251.0</ele><time>2026-04-04T07:03:19.243Z</time></trkpt><trkpt lat="42.4192706" lon="11.1063637"><ele>248.33333333333331</ele><time>2026-04-04T07:03:20.249Z</time></trkpt><trkpt lat="42.4192287" lon="11.1065218"><ele>245.66666666666666</ele><time>2026-04-04T07:03:22.246Z</time></trkpt><trkpt lat="42.4191986" lon="11.1066039"><ele>243.0</ele><time>2026-04-04T07:03:23.243Z</time></trkpt><trkpt lat="42.4191488" lon="11.1066773"><ele>240.4</ele><time>2026-04-04T07:03:25.245Z</time></trkpt><trkpt lat="42.4190727" lon="11.1066975"><ele>237.8</ele><time>2026-04-04T07:03:27.244Z</time></trkpt><trkpt lat="42.418979" lon="11.106724"><ele>235.2</ele><time>2026-04-04T07:03:29.249Z</time></trkpt><trkpt lat="42.4188876" lon="11.1067401"><ele>232.6</ele><time>2026-04-04T07:03:31.238Z</time></trkpt><trkpt lat="42.418788" lon="11.1067425"><ele>230.0</ele><time>2026-04-04T07:03:33.254Z</time></trkpt><trkpt lat="42.4186942" lon="11.1067392"><ele>228.4</ele><time>2026-04-04T07:03:50.244Z</time></trkpt><trkpt lat="42.4185801" lon="11.1067104"><ele>226.8</ele><time>2026-04-04T07:03:52.256Z</time></trkpt><trkpt lat="42.4184662" lon="11.1066793"><ele>225.2</ele><time>2026-04-04T07:03:54.245Z</time></trkpt><trkpt lat="42.4183692" lon="11.1066613"><ele>223.6</ele><time>2026-04-04T07:03:56.247Z</time></trkpt><trkpt lat="42.4182842" lon="11.1066574"><ele>222.0</ele><time>2026-04-04T07:03:58.255Z</time></trkpt><trkpt lat="42.4182018" lon="11.106609"><ele>220.33333333333334</ele><time>2026-04-04T07:04:00.24Z</time></trkpt><trkpt lat="42.418137" lon="11.1065153"><ele>218.66666666666669</ele><time>2026-04-04T07:04:03.245Z</time></trkpt><trkpt lat="42.4180906" lon="11.1064549"><ele>217.0</ele><time>2026-04-04T07:04:05.258Z</time></trkpt><trkpt lat="42.4180446" lon="11.1063656"><ele>215.33333333333334</ele><time>2026-04-04T07:04:08.247Z</time></trkpt><trkpt lat="42.4180022" lon="11.1062911"><ele>213.66666666666669</ele><time>2026-04-04T07:04:16.243Z</time></trkpt><trkpt lat="42.4179785" lon="11.1061978"><ele>212.0</ele><time>2026-04-04T07:04:20.244Z</time></trkpt><trkpt lat="42.4179533" lon="11.106081"><ele>212.00000000000003</ele><time>2026-04-04T07:04:23.238Z</time></trkpt><trkpt lat="42.417931" lon="11.1059451"><ele>212.0</ele><time>2026-04-04T07:04:26.251Z</time></trkpt><trkpt lat="42.417901" lon="11.1058352"><ele>212.0</ele><time>2026-04-04T07:04:29.239Z</time></trkpt><trkpt lat="42.4178635" lon="11.1057604"><ele>212.0</ele><time>2026-04-04T07:04:31.241Z</time></trkpt><trkpt lat="42.4178104" lon="11.1057132"><ele>212.00000000000003</ele><time>2026-04-04T07:04:33.243Z</time></trkpt><trkpt lat="42.4177236" lon="11.1056686"><ele>212.0</ele><time>2026-04-04T07:05:34.243Z</time></trkpt><trkpt lat="42.4176505" lon="11.1056081"><ele>218.0</ele><time>2026-04-04T07:05:35.241Z</time></trkpt><trkpt lat="42.4175731" lon="11.1055498"><ele>224.0</ele><time>2026-04-04T07:05:36.262Z</time></trkpt><trkpt lat="42.417511" lon="11.1054963"><ele>230.0</ele><time>2026-04-04T07:05:37.243Z</time></trkpt><trkpt lat="42.4174239" lon="11.1054346"><ele>236.0</ele><time>2026-04-04T07:05:39.244Z</time></trkpt><trkpt lat="42.4173029" lon="11.1054436"><ele>242.0</ele><time>2026-04-04T07:05:41.244Z</time></trkpt><trkpt lat="42.4172294" lon="11.1054341"><ele>240.66666666666669</ele><time>2026-04-04T07:05:42.249Z</time></trkpt><trkpt lat="42.4171091" lon="11.1054323"><ele>239.33333333333334</ele><time>2026-04-04T07:05:44.252Z</time></trkpt><trkpt lat="42.4170431" lon="11.105443"><ele>238.0</ele><time>2026-04-04T07:05:45.237Z</time></trkpt><trkpt lat="42.4169703" lon="11.1054446"><ele>236.66666666666669</ele><time>2026-04-04T07:05:46.243Z</time></trkpt><trkpt lat="42.4169" lon="11.1054501"><ele>235.33333333333334</ele><time>2026-04-04T07:05:47.247Z</time></trkpt><trkpt lat="42.4168313" lon="11.105455"><ele>234.0</ele><time>2026-04-04T07:05:48.243Z</time></trkpt><trkpt lat="42.4167082" lon="11.1054842"><ele>234.0</ele><time>2026-04-04T07:05:50.242Z</time></trkpt><trkpt lat="42.4166361" lon="11.1054851"><ele>234.0</ele><time>2026-04-04T07:05:51.235Z</time></trkpt><trkpt lat="42.4165699" lon="11.1054662"><ele>234.0</ele><time>2026-04-04T07:05:52.241Z</time></trkpt><trkpt lat="42.4164779" lon="11.1054541"><ele>234.0</ele><time>2026-04-04T07:05:54.244Z</time></trkpt><trkpt lat="42.4163688" lon="11.1054568"><ele>234.0</ele><time>2026-04-04T07:05:56.245Z</time></trkpt><trkpt lat="42.4162889" lon="11.1054271"><ele>234.0</ele><time>2026-04-04T07:05:58.245Z</time></trkpt><trkpt lat="42.4161686" lon="11.1053998"><ele>233.83333333333334</ele><time>2026-04-04T07:06:04.242Z</time></trkpt><trkpt lat="42.4160844" lon="11.1053658"><ele>233.66666666666669</ele><time>2026-04-04T07:06:05.241Z</time></trkpt><trkpt lat="42.4160096" lon="11.1053369"><ele>233.5</ele><time>2026-04-04T07:06:06.245Z</time></trkpt><trkpt lat="42.415944" lon="11.1053149"><ele>233.33333333333334</ele><time>2026-04-04T07:06:07.246Z</time></trkpt><trkpt lat="42.4158273" lon="11.1053462"><ele>233.16666666666669</ele><time>2026-04-04T07:06:09.248Z</time></trkpt><trkpt lat="42.4157478" lon="11.1053783"><ele>233.0</ele><time>2026-04-04T07:06:10.237Z</time></trkpt><trkpt lat="42.4156535" lon="11.1054284"><ele>233.0</ele><time>2026-04-04T07:06:11.242Z</time></trkpt><trkpt lat="42.4155622" lon="11.105471"><ele>233.0</ele><time>2026-04-04T07:06:12.241Z</time></trkpt><trkpt lat="42.4154853" lon="11.1055016"><ele>233.0</ele><time>2026-04-04T07:06:13.241Z</time></trkpt><trkpt lat="42.4154248" lon="11.1055283"><ele>233.0</ele><time>2026-04-04T07:06:14.245Z</time></trkpt><trkpt lat="42.4153192" lon="11.1055843"><ele>233.0</ele><time>2026-04-04T07:06:16.239Z</time></trkpt><trkpt lat="42.4152214" lon="11.105667"><ele>231.00000000000003</ele><time>2026-04-04T07:06:18.244Z</time></trkpt><trkpt lat="42.4151747" lon="11.1057376"><ele>229.0</ele><time>2026-04-04T07:06:22.246Z</time></trkpt><trkpt lat="42.4151443" lon="11.1058137"><ele>227.0</ele><time>2026-04-04T07:06:24.249Z</time></trkpt><trkpt lat="42.4151215" lon="11.1059321"><ele>225.0</ele><time>2026-04-04T07:06:26.24Z</time></trkpt><trkpt lat="42.4150963" lon="11.1060154"><ele>223.00000000000003</ele><time>2026-04-04T07:06:27.255Z</time></trkpt><trkpt lat="42.4150248" lon="11.1061245"><ele>221.0</ele><time>2026-04-04T07:06:29.251Z</time></trkpt><trkpt lat="42.4149724" lon="11.1061905"><ele>221.00000000000003</ele><time>2026-04-04T07:06:31.253Z</time></trkpt><trkpt lat="42.4149085" lon="11.1061701"><ele>221.0</ele><time>2026-04-04T07:06:34.249Z</time></trkpt><trkpt lat="42.4148582" lon="11.1060893"><ele>221.0</ele><time>2026-04-04T07:07:52.256Z</time></trkpt><trkpt lat="42.4148313" lon="11.1060072"><ele>221.0</ele><time>2026-04-04T07:07:54.246Z</time></trkpt><trkpt lat="42.4147668" lon="11.1059381"><ele>221.00000000000003</ele><time>2026-04-04T07:07:57.245Z</time></trkpt><trkpt lat="42.4147011" lon="11.1058614"><ele>221.0</ele><time>2026-04-04T07:08:00.242Z</time></trkpt><trkpt lat="42.41464" lon="11.1057948"><ele>224.33333333333334</ele><time>2026-04-04T07:08:03.255Z</time></trkpt><trkpt lat="42.4145819" lon="11.1057417"><ele>227.66666666666669</ele><time>2026-04-04T07:08:06.255Z</time></trkpt><trkpt lat="42.4145132" lon="11.1056733"><ele>231.0</ele><time>2026-04-04T07:08:09.252Z</time></trkpt><trkpt lat="42.414456" lon="11.1056147"><ele>234.33333333333331</ele><time>2026-04-04T07:08:10.241Z</time></trkpt><trkpt lat="42.4143956" lon="11.1055401"><ele>237.66666666666666</ele><time>2026-04-04T07:08:11.254Z</time></trkpt><trkpt lat="42.4143219" lon="11.1054468"><ele>241.0</ele><time>2026-04-04T07:08:12.256Z</time></trkpt><trkpt lat="42.4142546" lon="11.1053566"><ele>240.99999999999997</ele><time>2026-04-04T07:08:13.248Z</time></trkpt><trkpt lat="42.414206" lon="11.1052999"><ele>241.0</ele><time>2026-04-04T07:08:14.241Z</time></trkpt><trkpt lat="42.4141199" lon="11.1051825"><ele>241.0</ele><time>2026-04-04T07:08:16.249Z</time></trkpt><trkpt lat="42.4140716" lon="11.1051048"><ele>241.0</ele><time>2026-04-04T07:08:17.24Z</time></trkpt><trkpt lat="42.4140275" lon="11.1050415"><ele>240.99999999999997</ele><time>2026-04-04T07:08:18.244Z</time></trkpt><trkpt lat="42.4139694" lon="11.1049963"><ele>241.0</ele><time>2026-04-04T07:08:19.261Z</time></trkpt><trkpt lat="42.4138608" lon="11.1049355"><ele>241.66666666666666</ele><time>2026-04-04T07:08:21.256Z</time></trkpt><trkpt lat="42.4137958" lon="11.1049132"><ele>242.33333333333331</ele><time>2026-04-04T07:08:22.242Z</time></trkpt><trkpt lat="42.4137238" lon="11.1049035"><ele>243.0</ele><time>2026-04-04T07:08:23.242Z</time></trkpt><trkpt lat="42.4136557" lon="11.1048983"><ele>243.66666666666669</ele><time>2026-04-04T07:08:24.253Z</time></trkpt><trkpt lat="42.4135829" lon="11.1049057"><ele>244.33333333333334</ele><time>2026-04-04T07:08:25.247Z</time></trkpt><trkpt lat="42.4134886" lon="11.1049205"><ele>245.0</ele><time>2026-04-04T07:08:27.243Z</time></trkpt><trkpt lat="42.4134036" lon="11.1049172"><ele>245.0</ele><time>2026-04-04T07:08:29.242Z</time></trkpt><trkpt lat="42.41333" lon="11.1049451"><ele>245.0</ele><time>2026-04-04T07:08:53.239Z</time></trkpt><trkpt lat="42.4132208" lon="11.1050076"><ele>245.0</ele><time>2026-04-04T07:08:55.244Z</time></trkpt><trkpt lat="42.4131375" lon="11.1050517"><ele>245.0</ele><time>2026-04-04T07:08:56.242Z</time></trkpt><trkpt lat="42.4130521" lon="11.1050913"><ele>245.0</ele><time>2026-04-04T07:08:57.252Z</time></trkpt><trkpt lat="42.4129704" lon="11.1051178"><ele>246.2</ele><time>2026-04-04T07:08:58.245Z</time></trkpt><trkpt lat="42.4128832" lon="11.1051107"><ele>247.4</ele><time>2026-04-04T07:08:59.242Z</time></trkpt><trkpt lat="42.4128044" lon="11.1050988"><ele>248.60000000000002</ele><time>2026-04-04T07:09:00.242Z</time></trkpt><trkpt lat="42.4126906" lon="11.1050659"><ele>249.8</ele><time>2026-04-04T07:09:02.263Z</time></trkpt><trkpt lat="42.4125863" lon="11.1049497"><ele>251.0</ele><time>2026-04-04T07:09:04.252Z</time></trkpt><trkpt lat="42.4125402" lon="11.1048871"><ele>256.5</ele><time>2026-04-04T07:09:05.242Z</time></trkpt><trkpt lat="42.4124492" lon="11.1047556"><ele>262.0</ele><time>2026-04-04T07:09:07.251Z</time></trkpt><trkpt lat="42.4123863" lon="11.1046597"><ele>267.5</ele><time>2026-04-04T07:09:08.245Z</time></trkpt><trkpt lat="42.4123143" lon="11.1045442"><ele>273.0</ele><time>2026-04-04T07:09:09.244Z</time></trkpt><trkpt lat="42.4122303" lon="11.1044469"><ele>271.6666666666667</ele><time>2026-04-04T07:09:10.239Z</time></trkpt><trkpt lat="42.4121509" lon="11.1043615"><ele>270.3333333333333</ele><time>2026-04-04T07:09:11.257Z</time></trkpt><trkpt lat="42.4120759" lon="11.1042924"><ele>269.0</ele><time>2026-04-04T07:09:12.249Z</time></trkpt><trkpt lat="42.4120049" lon="11.1042187"><ele>267.66666666666663</ele><time>2026-04-04T07:09:13.243Z</time></trkpt><trkpt lat="42.4119344" lon="11.1041683"><ele>266.3333333333333</ele><time>2026-04-04T07:09:14.244Z</time></trkpt><trkpt lat="42.411863" lon="11.1041493"><ele>265.0</ele><time>2026-04-04T07:09:15.24Z</time></trkpt><trkpt lat="42.4117795" lon="11.1041283"><ele>265.0</ele><time>2026-04-04T07:09:16.247Z</time></trkpt><trkpt lat="42.4116983" lon="11.1041198"><ele>265.0</ele><time>2026-04-04T07:09:17.253Z</time></trkpt><trkpt lat="42.411628" lon="11.1041173"><ele>265.0</ele><time>2026-04-04T07:09:18.248Z</time></trkpt><trkpt lat="42.4115114" lon="11.1041737"><ele>265.0</ele><time>2026-04-04T07:09:20.248Z</time></trkpt><trkpt lat="42.4114392" lon="11.1042336"><ele>265.0</ele><time>2026-04-04T07:09:21.252Z</time></trkpt><trkpt lat="42.4113637" lon="11.1042957"><ele>265.0</ele><time>2026-04-04T07:09:22.243Z</time></trkpt><trkpt lat="42.411299" lon="11.104341"><ele>265.8333333333333</ele><time>2026-04-04T07:09:23.249Z</time></trkpt><trkpt lat="42.4111907" lon="11.1043943"><ele>266.66666666666663</ele><time>2026-04-04T07:09:25.243Z</time></trkpt><trkpt lat="42.4111226" lon="11.1044057"><ele>267.5</ele><time>2026-04-04T07:09:26.24Z</time></trkpt><trkpt lat="42.411049" lon="11.1044257"><ele>268.3333333333333</ele><time>2026-04-04T07:09:27.246Z</time></trkpt><trkpt lat="42.4109764" lon="11.1044468"><ele>269.1666666666667</ele><time>2026-04-04T07:09:28.256Z</time></trkpt><trkpt lat="42.4108995" lon="11.1044545"><ele>270.0</ele><time>2026-04-04T07:09:29.237Z</time></trkpt><trkpt lat="42.4108193" lon="11.1044483"><ele>270.0</ele><time>2026-04-04T07:09:30.243Z</time></trkpt><trkpt lat="42.4107402" lon="11.1044578"><ele>270.0</ele><time>2026-04-04T07:09:31.254Z</time></trkpt><trkpt lat="42.4106687" lon="11.1044706"><ele>270.0</ele><time>2026-04-04T07:09:32.245Z</time></trkpt><trkpt lat="42.410601" lon="11.1044929"><ele>270.0</ele><time>2026-04-04T07:09:33.251Z</time></trkpt><trkpt lat="42.4105361" lon="11.1045323"><ele>270.0</ele><time>2026-04-04T07:09:34.251Z</time></trkpt><trkpt lat="42.4104829" lon="11.1045809"><ele>270.0</ele><time>2026-04-04T07:09:35.243Z</time></trkpt><trkpt lat="42.4104019" lon="11.1047002"><ele>270.8333333333333</ele><time>2026-04-04T07:09:37.249Z</time></trkpt><trkpt lat="42.4103624" lon="11.1047673"><ele>271.6666666666667</ele><time>2026-04-04T07:09:38.259Z</time></trkpt><trkpt lat="42.4103311" lon="11.1048435"><ele>272.5</ele><time>2026-04-04T07:09:39.24Z</time></trkpt><trkpt lat="42.4102828" lon="11.1049662"><ele>273.33333333333337</ele><time>2026-04-04T07:09:41.251Z</time></trkpt><trkpt lat="42.4102389" lon="11.1050855"><ele>274.1666666666667</ele><time>2026-04-04T07:09:43.24Z</time></trkpt><trkpt lat="42.4101746" lon="11.1052051"><ele>275.0</ele><time>2026-04-04T07:09:45.246Z</time></trkpt><trkpt lat="42.4100937" lon="11.1052989"><ele>275.0</ele><time>2026-04-04T07:09:47.254Z</time></trkpt><trkpt lat="42.4100202" lon="11.1053785"><ele>275.0</ele><time>2026-04-04T07:09:49.248Z</time></trkpt><trkpt lat="42.4099587" lon="11.1054133"><ele>275.0</ele><time>2026-04-04T07:09:52.248Z</time></trkpt><trkpt lat="42.4099631" lon="11.1055036"><ele>275.0</ele><time>2026-04-04T07:10:02.245Z</time></trkpt><trkpt lat="42.4099356" lon="11.1055938"><ele>275.0</ele><time>2026-04-04T07:10:03.24Z</time></trkpt><trkpt lat="42.4099112" lon="11.105674"><ele>275.0</ele><time>2026-04-04T07:10:04.253Z</time></trkpt><trkpt lat="42.4098819" lon="11.1057588"><ele>275.0</ele><time>2026-04-04T07:10:05.244Z</time></trkpt><trkpt lat="42.4098458" lon="11.1058748"><ele>273.33333333333337</ele><time>2026-04-04T07:10:06.247Z</time></trkpt><trkpt lat="42.4098121" lon="11.1060092"><ele>271.6666666666667</ele><time>2026-04-04T07:10:07.269Z</time></trkpt><trkpt lat="42.409789" lon="11.1061251"><ele>270.0</ele><time>2026-04-04T07:10:08.244Z</time></trkpt><trkpt lat="42.409769" lon="11.1062376"><ele>268.3333333333333</ele><time>2026-04-04T07:10:09.245Z</time></trkpt><trkpt lat="42.4097429" lon="11.10634"><ele>266.66666666666663</ele><time>2026-04-04T07:10:10.247Z</time></trkpt><trkpt lat="42.4097075" lon="11.1064352"><ele>265.0</ele><time>2026-04-04T07:10:11.261Z</time></trkpt><trkpt lat="42.4096602" lon="11.106532"><ele>267.3333333333333</ele><time>2026-04-04T07:10:12.258Z</time></trkpt><trkpt lat="42.4096031" lon="11.1066281"><ele>269.66666666666663</ele><time>2026-04-04T07:10:13.261Z</time></trkpt><trkpt lat="42.4095392" lon="11.1067231"><ele>272.0</ele><time>2026-04-04T07:10:14.261Z</time></trkpt><trkpt lat="42.4094782" lon="11.1068031"><ele>274.3333333333333</ele><time>2026-04-04T07:10:15.245Z</time></trkpt><trkpt lat="42.4094218" lon="11.1068779"><ele>276.6666666666667</ele><time>2026-04-04T07:10:16.251Z</time></trkpt><trkpt lat="42.4093568" lon="11.1069558"><ele>279.0</ele><time>2026-04-04T07:10:17.255Z</time></trkpt><trkpt lat="42.4092888" lon="11.1070218"><ele>279.0</ele><time>2026-04-04T07:10:18.242Z</time></trkpt><trkpt lat="42.4092203" lon="11.1070954"><ele>279.0</ele><time>2026-04-04T07:10:19.243Z</time></trkpt><trkpt lat="42.4091694" lon="11.107166"><ele>279.0</ele><time>2026-04-04T07:10:20.244Z</time></trkpt><trkpt lat="42.409138" lon="11.1072468"><ele>279.0</ele><time>2026-04-04T07:10:21.242Z</time></trkpt><trkpt lat="42.4091055" lon="11.1073227"><ele>279.0</ele><time>2026-04-04T07:10:22.246Z</time></trkpt><trkpt lat="42.4090726" lon="11.1075061"><ele>279.0</ele><time>2026-04-04T07:10:24.243Z</time></trkpt><trkpt lat="42.4090513" lon="11.1076178"><ele>278.1428571428571</ele><time>2026-04-04T07:10:25.248Z</time></trkpt><trkpt lat="42.4090231" lon="11.1077225"><ele>277.2857142857143</ele><time>2026-04-04T07:10:26.244Z</time></trkpt><trkpt lat="42.4089952" lon="11.1078153"><ele>276.42857142857144</ele><time>2026-04-04T07:10:27.249Z</time></trkpt><trkpt lat="42.4089807" lon="11.1079103"><ele>275.57142857142856</ele><time>2026-04-04T07:10:28.252Z</time></trkpt><trkpt lat="42.4089777" lon="11.1079996"><ele>274.7142857142857</ele><time>2026-04-04T07:10:29.244Z</time></trkpt><trkpt lat="42.4089747" lon="11.1080858"><ele>273.85714285714283</ele><time>2026-04-04T07:10:30.249Z</time></trkpt><trkpt lat="42.408987" lon="11.1081836"><ele>273.0</ele><time>2026-04-04T07:10:31.256Z</time></trkpt><trkpt lat="42.4090063" lon="11.1082859"><ele>272.6666666666667</ele><time>2026-04-04T07:10:32.246Z</time></trkpt><trkpt lat="42.4090275" lon="11.108394"><ele>272.3333333333333</ele><time>2026-04-04T07:10:33.261Z</time></trkpt><trkpt lat="42.4090476" lon="11.1084867"><ele>272.0</ele><time>2026-04-04T07:10:34.254Z</time></trkpt><trkpt lat="42.4090584" lon="11.1085741"><ele>271.66666666666663</ele><time>2026-04-04T07:10:35.252Z</time></trkpt><trkpt lat="42.4090577" lon="11.1087263"><ele>271.3333333333333</ele><time>2026-04-04T07:10:37.244Z</time></trkpt><trkpt lat="42.4090465" lon="11.1088498"><ele>271.0</ele><time>2026-04-04T07:10:39.256Z</time></trkpt><trkpt lat="42.4090301" lon="11.1089948"><ele>270.6</ele><time>2026-04-04T07:10:41.246Z</time></trkpt><trkpt lat="42.4090096" lon="11.109142"><ele>270.20000000000005</ele><time>2026-04-04T07:10:43.243Z</time></trkpt><trkpt lat="42.4089853" lon="11.109252"><ele>269.79999999999995</ele><time>2026-04-04T07:10:45.248Z</time></trkpt><trkpt lat="42.4089049" lon="11.1092912"><ele>269.4</ele><time>2026-04-04T07:10:49.247Z</time></trkpt><trkpt lat="42.4088328" lon="11.1092524"><ele>269.0</ele><time>2026-04-04T07:10:51.249Z</time></trkpt><trkpt lat="42.4087436" lon="11.1091862"><ele>270.0</ele><time>2026-04-04T07:10:53.243Z</time></trkpt><trkpt lat="42.4086698" lon="11.109106"><ele>271.0</ele><time>2026-04-04T07:10:55.254Z</time></trkpt><trkpt lat="42.4086083" lon="11.1090767"><ele>272.0</ele><time>2026-04-04T07:10:57.247Z</time></trkpt><trkpt lat="42.4085434" lon="11.1091569"><ele>273.0</ele><time>2026-04-04T07:11:19.245Z</time></trkpt><trkpt lat="42.4085258" lon="11.1092621"><ele>274.0</ele><time>2026-04-04T07:11:22.25Z</time></trkpt><trkpt lat="42.4085681" lon="11.1093862"><ele>275.0</ele><time>2026-04-04T07:16:31.242Z</time></trkpt><trkpt lat="42.4085771" lon="11.1094879"><ele>275.0</ele><time>2026-04-04T07:16:33.254Z</time></trkpt><trkpt lat="42.4085999" lon="11.1095974"><ele>275.0</ele><time>2026-04-04T07:16:35.247Z</time></trkpt><trkpt lat="42.4086087" lon="11.109718"><ele>275.0</ele><time>2026-04-04T07:16:37.253Z</time></trkpt><trkpt lat="42.4086386" lon="11.10985"><ele>275.0</ele><time>2026-04-04T07:16:39.242Z</time></trkpt><trkpt lat="42.4086642" lon="11.1099291"><ele>275.0</ele><time>2026-04-04T07:16:40.238Z</time></trkpt><trkpt lat="42.4087193" lon="11.1100759"><ele>278.25</ele><time>2026-04-04T07:16:42.259Z</time></trkpt><trkpt lat="42.4087817" lon="11.110222"><ele>281.5</ele><time>2026-04-04T07:16:44.245Z</time></trkpt><trkpt lat="42.4087917" lon="11.1103608"><ele>284.75</ele><time>2026-04-04T07:16:46.248Z</time></trkpt><trkpt lat="42.4087556" lon="11.1104367"><ele>288.0</ele><time>2026-04-04T07:16:48.25Z</time></trkpt><trkpt lat="42.4086188" lon="11.1103181"><ele>288.0</ele><time>2026-04-04T07:18:51.255Z</time></trkpt><trkpt lat="42.4084465" lon="11.1101655"><ele>288.0</ele><time>2026-04-04T07:18:54.247Z</time></trkpt><trkpt lat="42.408374" lon="11.1101334"><ele>288.0</ele><time>2026-04-04T07:18:55.25Z</time></trkpt><trkpt lat="42.4082867" lon="11.1100989"><ele>288.0</ele><time>2026-04-04T07:18:56.242Z</time></trkpt><trkpt lat="42.4081803" lon="11.1100482"><ele>288.0</ele><time>2026-04-04T07:18:57.248Z</time></trkpt><trkpt lat="42.4080577" lon="11.1099827"><ele>288.0</ele><time>2026-04-04T07:18:58.247Z</time></trkpt><trkpt lat="42.4078957" lon="11.1098908"><ele>288.0</ele><time>2026-04-04T07:18:59.254Z</time></trkpt><trkpt lat="42.407712" lon="11.1097841"><ele>287.6666666666667</ele><time>2026-04-04T07:19:00.24Z</time></trkpt><trkpt lat="42.40755" lon="11.1096771"><ele>287.33333333333337</ele><time>2026-04-04T07:19:01.246Z</time></trkpt><trkpt lat="42.4073974" lon="11.1096105"><ele>287.0</ele><time>2026-04-04T07:19:02.248Z</time></trkpt><trkpt lat="42.4072638" lon="11.1095629"><ele>290.75</ele><time>2026-04-04T07:19:03.252Z</time></trkpt><trkpt lat="42.4071298" lon="11.1095227"><ele>294.5</ele><time>2026-04-04T07:19:04.253Z</time></trkpt><trkpt lat="42.4069922" lon="11.1094781"><ele>298.25</ele><time>2026-04-04T07:19:05.241Z</time></trkpt><trkpt lat="42.4068472" lon="11.1094496"><ele>302.0</ele><time>2026-04-04T07:19:06.245Z</time></trkpt><trkpt lat="42.4066905" lon="11.1094372"><ele>302.0</ele><time>2026-04-04T07:19:07.247Z</time></trkpt><trkpt lat="42.4065343" lon="11.1094244"><ele>302.0</ele><time>2026-04-04T07:19:08.253Z</time></trkpt><trkpt lat="42.4063776" lon="11.1094286"><ele>302.0</ele><time>2026-04-04T07:19:09.242Z</time></trkpt><trkpt lat="42.4062289" lon="11.1094531"><ele>305.5</ele><time>2026-04-04T07:19:10.247Z</time></trkpt><trkpt lat="42.406094" lon="11.1094879"><ele>309.0</ele><time>2026-04-04T07:19:11.248Z</time></trkpt><trkpt lat="42.4059672" lon="11.1095252"><ele>312.5</ele><time>2026-04-04T07:19:12.247Z</time></trkpt><trkpt lat="42.4058391" lon="11.1095617"><ele>316.0</ele><time>2026-04-04T07:19:13.24Z</time></trkpt><trkpt lat="42.4057029" lon="11.1095843"><ele>316.0</ele><time>2026-04-04T07:19:14.255Z</time></trkpt><trkpt lat="42.4055586" lon="11.1095822"><ele>316.0</ele><time>2026-04-04T07:19:15.244Z</time></trkpt><trkpt lat="42.405422" lon="11.1095627"><ele>316.0</ele><time>2026-04-04T07:19:16.245Z</time></trkpt><trkpt lat="42.4052827" lon="11.1095479"><ele>316.0</ele><time>2026-04-04T07:19:17.251Z</time></trkpt><trkpt lat="42.405151" lon="11.1095372"><ele>317.5</ele><time>2026-04-04T07:19:18.253Z</time></trkpt><trkpt lat="42.4050203" lon="11.1095231"><ele>319.0</ele><time>2026-04-04T07:19:19.252Z</time></trkpt><trkpt lat="42.4048886" lon="11.1095079"><ele>320.5</ele><time>2026-04-04T07:19:20.255Z</time></trkpt><trkpt lat="42.4047639" lon="11.1095"><ele>322.0</ele><time>2026-04-04T07:19:21.244Z</time></trkpt><trkpt lat="42.4046539" lon="11.109505"><ele>322.8</ele><time>2026-04-04T07:19:22.252Z</time></trkpt><trkpt lat="42.4045511" lon="11.1095341"><ele>323.6</ele><time>2026-04-04T07:19:23.258Z</time></trkpt><trkpt lat="42.4044526" lon="11.1095931"><ele>324.40000000000003</ele><time>2026-04-04T07:19:24.248Z</time></trkpt><trkpt lat="42.4043652" lon="11.1096859"><ele>325.20000000000005</ele><time>2026-04-04T07:19:25.255Z</time></trkpt><trkpt lat="42.404283" lon="11.109803"><ele>326.0</ele><time>2026-04-04T07:19:26.246Z</time></trkpt><trkpt lat="42.4042066" lon="11.1099271"><ele>326.0</ele><time>2026-04-04T07:19:27.25Z</time></trkpt><trkpt lat="42.4041216" lon="11.1100611"><ele>326.0</ele><time>2026-04-04T07:19:28.248Z</time></trkpt><trkpt lat="42.4040319" lon="11.1101918"><ele>326.0</ele><time>2026-04-04T07:19:29.25Z</time></trkpt><trkpt lat="42.4039446" lon="11.1103326"><ele>326.0</ele><time>2026-04-04T07:19:30.243Z</time></trkpt><trkpt lat="42.4038521" lon="11.110448"><ele>328.75</ele><time>2026-04-04T07:19:31.259Z</time></trkpt><trkpt lat="42.4037443" lon="11.110552"><ele>331.5</ele><time>2026-04-04T07:19:32.245Z</time></trkpt><trkpt lat="42.4036278" lon="11.1106488"><ele>334.25</ele><time>2026-04-04T07:19:33.249Z</time></trkpt><trkpt lat="42.4035048" lon="11.1107576"><ele>337.0</ele><time>2026-04-04T07:19:34.248Z</time></trkpt><trkpt lat="42.4033865" lon="11.110866"><ele>337.0</ele><time>2026-04-04T07:19:35.249Z</time></trkpt><trkpt lat="42.4032695" lon="11.1109833"><ele>337.0</ele><time>2026-04-04T07:19:36.25Z</time></trkpt><trkpt lat="42.4031494" lon="11.1110959"><ele>337.0</ele><time>2026-04-04T07:19:37.248Z</time></trkpt><trkpt lat="42.4030242" lon="11.1112105"><ele>337.0</ele><time>2026-04-04T07:19:38.248Z</time></trkpt><trkpt lat="42.4029018" lon="11.1113207"><ele>337.0</ele><time>2026-04-04T07:19:39.244Z</time></trkpt><trkpt lat="42.4027798" lon="11.1114248"><ele>337.0</ele><time>2026-04-04T07:19:40.252Z</time></trkpt><trkpt lat="42.4026583" lon="11.1115247"><ele>337.0</ele><time>2026-04-04T07:19:41.249Z</time></trkpt><trkpt lat="42.4025473" lon="11.1116141"><ele>337.0</ele><time>2026-04-04T07:19:42.249Z</time></trkpt><trkpt lat="42.4024422" lon="11.111688"><ele>337.0</ele><time>2026-04-04T07:19:43.249Z</time></trkpt><trkpt lat="42.402336" lon="11.1117604"><ele>337.0</ele><time>2026-04-04T07:19:44.245Z</time></trkpt><trkpt lat="42.4022167" lon="11.1118294"><ele>337.0</ele><time>2026-04-04T07:19:45.247Z</time></trkpt><trkpt lat="42.4020925" lon="11.1118873"><ele>337.0</ele><time>2026-04-04T07:19:46.243Z</time></trkpt><trkpt lat="42.4019663" lon="11.1119404"><ele>340.75</ele><time>2026-04-04T07:19:47.241Z</time></trkpt><trkpt lat="42.4018463" lon="11.1120191"><ele>344.5</ele><time>2026-04-04T07:19:48.254Z</time></trkpt><trkpt lat="42.4017362" lon="11.1121129"><ele>348.25</ele><time>2026-04-04T07:19:49.24Z</time></trkpt><trkpt lat="42.4016254" lon="11.1122433"><ele>352.0</ele><time>2026-04-04T07:19:50.245Z</time></trkpt><trkpt lat="42.4015113" lon="11.1123872"><ele>350.75</ele><time>2026-04-04T07:19:51.244Z</time></trkpt><trkpt lat="42.401404" lon="11.1125156"><ele>349.5</ele><time>2026-04-04T07:19:52.252Z</time></trkpt><trkpt lat="42.4013027" lon="11.112624"><ele>348.25</ele><time>2026-04-04T07:19:53.25Z</time></trkpt><trkpt lat="42.4012077" lon="11.1127163"><ele>347.0</ele><time>2026-04-04T07:19:54.25Z</time></trkpt><trkpt lat="42.4011241" lon="11.1127773"><ele>347.0</ele><time>2026-04-04T07:19:55.244Z</time></trkpt><trkpt lat="42.401055" lon="11.1128198"><ele>347.0</ele><time>2026-04-04T07:19:56.256Z</time></trkpt><trkpt lat="42.4009516" lon="11.1128755"><ele>347.0</ele><time>2026-04-04T07:19:58.251Z</time></trkpt><trkpt lat="42.4008876" lon="11.1129297"><ele>347.0</ele><time>2026-04-04T07:20:01.248Z</time></trkpt><trkpt lat="42.4009064" lon="11.1130219"><ele>347.0</ele><time>2026-04-04T07:20:03.244Z</time></trkpt><trkpt lat="42.4008972" lon="11.1131086"><ele>347.0</ele><time>2026-04-04T07:25:04.25Z</time></trkpt><trkpt lat="42.4008911" lon="11.113239"><ele>346.8571428571429</ele><time>2026-04-04T07:25:07.24Z</time></trkpt><trkpt lat="42.400891" lon="11.1133391"><ele>346.71428571428567</ele><time>2026-04-04T07:25:08.246Z</time></trkpt><trkpt lat="42.4008805" lon="11.113458"><ele>346.57142857142856</ele><time>2026-04-04T07:25:09.246Z</time></trkpt><trkpt lat="42.4008658" lon="11.1135564"><ele>346.42857142857144</ele><time>2026-04-04T07:25:10.244Z</time></trkpt><trkpt lat="42.4008402" lon="11.1136586"><ele>346.28571428571433</ele><time>2026-04-04T07:25:13.253Z</time></trkpt><trkpt lat="42.4007994" lon="11.1137292"><ele>346.1428571428571</ele><time>2026-04-04T07:25:15.25Z</time></trkpt><trkpt lat="42.4007531" lon="11.1137948"><ele>346.0</ele><time>2026-04-04T07:25:17.242Z</time></trkpt><trkpt lat="42.4006913" lon="11.1139273"><ele>346.0</ele><time>2026-04-04T07:25:19.251Z</time></trkpt><trkpt lat="42.4006739" lon="11.1140121"><ele>346.0</ele><time>2026-04-04T07:25:20.253Z</time></trkpt><trkpt lat="42.4006487" lon="11.1141069"><ele>346.0</ele><time>2026-04-04T07:25:21.257Z</time></trkpt><trkpt lat="42.400612" lon="11.1142375"><ele>346.0</ele><time>2026-04-04T07:25:22.25Z</time></trkpt><trkpt lat="42.4005597" lon="11.1143842"><ele>346.0</ele><time>2026-04-04T07:25:23.255Z</time></trkpt><trkpt lat="42.4005118" lon="11.1145181"><ele>346.4</ele><time>2026-04-04T07:25:24.247Z</time></trkpt><trkpt lat="42.400476" lon="11.1146021"><ele>346.8</ele><time>2026-04-04T07:25:25.25Z</time></trkpt><trkpt lat="42.4004376" lon="11.1147125"><ele>347.2</ele><time>2026-04-04T07:25:27.252Z</time></trkpt><trkpt lat="42.4004289" lon="11.1148354"><ele>347.59999999999997</ele><time>2026-04-04T07:25:29.258Z</time></trkpt><trkpt lat="42.4004355" lon="11.1149721"><ele>348.0</ele><time>2026-04-04T07:25:31.247Z</time></trkpt><trkpt lat="42.4004459" lon="11.115121"><ele>348.0</ele><time>2026-04-04T07:25:33.246Z</time></trkpt><trkpt lat="42.4004464" lon="11.1152398"><ele>348.0</ele><time>2026-04-04T07:25:34.248Z</time></trkpt><trkpt lat="42.4004505" lon="11.1153638"><ele>348.0</ele><time>2026-04-04T07:25:35.259Z</time></trkpt><trkpt lat="42.4004518" lon="11.1154646"><ele>348.0</ele><time>2026-04-04T07:25:36.25Z</time></trkpt><trkpt lat="42.4004182" lon="11.1156223"><ele>348.0</ele><time>2026-04-04T07:25:38.243Z</time></trkpt><trkpt lat="42.4004166" lon="11.1157268"><ele>350.4</ele><time>2026-04-04T07:25:39.247Z</time></trkpt><trkpt lat="42.4004197" lon="11.1158321"><ele>352.79999999999995</ele><time>2026-04-04T07:25:40.257Z</time></trkpt><trkpt lat="42.4004263" lon="11.1159298"><ele>355.2</ele><time>2026-04-04T07:25:41.248Z</time></trkpt><trkpt lat="42.4004557" lon="11.1160481"><ele>357.6</ele><time>2026-04-04T07:25:43.256Z</time></trkpt><trkpt lat="42.4005224" lon="11.1161388"><ele>360.0</ele><time>2026-04-04T07:25:45.245Z</time></trkpt><trkpt lat="42.4006303" lon="11.116242"><ele>362.0</ele><time>2026-04-04T07:25:47.245Z</time></trkpt><trkpt lat="42.4006909" lon="11.1162993"><ele>364.0</ele><time>2026-04-04T07:25:48.248Z</time></trkpt><trkpt lat="42.4007396" lon="11.1163573"><ele>366.0</ele><time>2026-04-04T07:25:49.25Z</time></trkpt><trkpt lat="42.40082" lon="11.1164597"><ele>368.0</ele><time>2026-04-04T07:25:51.246Z</time></trkpt><trkpt lat="42.4009098" lon="11.116574"><ele>370.0</ele><time>2026-04-04T07:25:53.248Z</time></trkpt><trkpt lat="42.4009721" lon="11.1166731"><ele>370.0</ele><time>2026-04-04T07:25:55.254Z</time></trkpt><trkpt lat="42.400995" lon="11.116773"><ele>370.0</ele><time>2026-04-04T07:25:57.246Z</time></trkpt><trkpt lat="42.4010102" lon="11.1168903"><ele>370.0</ele><time>2026-04-04T07:25:58.25Z</time></trkpt><trkpt lat="42.401009" lon="11.1170397"><ele>370.0</ele><time>2026-04-04T07:25:59.243Z</time></trkpt><trkpt lat="42.4010133" lon="11.1171597"><ele>370.0</ele><time>2026-04-04T07:26:00.249Z</time></trkpt><trkpt lat="42.4010312" lon="11.117278"><ele>370.0</ele><time>2026-04-04T07:26:01.244Z</time></trkpt><trkpt lat="42.4010552" lon="11.1174013"><ele>370.0</ele><time>2026-04-04T07:26:02.251Z</time></trkpt><trkpt lat="42.4010846" lon="11.117537"><ele>370.0</ele><time>2026-04-04T07:26:03.245Z</time></trkpt><trkpt lat="42.4011231" lon="11.1176738"><ele>370.0</ele><time>2026-04-04T07:26:04.252Z</time></trkpt><trkpt lat="42.4011628" lon="11.1178042"><ele>370.0</ele><time>2026-04-04T07:26:05.248Z</time></trkpt><trkpt lat="42.4012089" lon="11.1179364"><ele>370.2</ele><time>2026-04-04T07:26:06.25Z</time></trkpt><trkpt lat="42.4012668" lon="11.1180698"><ele>370.4</ele><time>2026-04-04T07:26:07.24Z</time></trkpt><trkpt lat="42.4013242" lon="11.1182018"><ele>370.6</ele><time>2026-04-04T07:26:08.264Z</time></trkpt><trkpt lat="42.4013697" lon="11.118316"><ele>370.8</ele><time>2026-04-04T07:26:09.248Z</time></trkpt><trkpt lat="42.4014025" lon="11.1184367"><ele>371.0</ele><time>2026-04-04T07:26:10.245Z</time></trkpt><trkpt lat="42.4014229" lon="11.1185563"><ele>369.33333333333337</ele><time>2026-04-04T07:26:11.245Z</time></trkpt><trkpt lat="42.4014421" lon="11.1186655"><ele>367.6666666666667</ele><time>2026-04-04T07:26:12.252Z</time></trkpt><trkpt lat="42.4014624" lon="11.1187661"><ele>366.0</ele><time>2026-04-04T07:26:13.245Z</time></trkpt><trkpt lat="42.401478" lon="11.1188717"><ele>364.3333333333333</ele><time>2026-04-04T07:26:14.245Z</time></trkpt><trkpt lat="42.4014873" lon="11.118981"><ele>362.66666666666663</ele><time>2026-04-04T07:26:15.252Z</time></trkpt><trkpt lat="42.401491" lon="11.1190892"><ele>361.0</ele><time>2026-04-04T07:26:16.252Z</time></trkpt><trkpt lat="42.4014915" lon="11.1192124"><ele>361.0</ele><time>2026-04-04T07:26:17.242Z</time></trkpt><trkpt lat="42.4014898" lon="11.1193366"><ele>361.0</ele><time>2026-04-04T07:26:18.253Z</time></trkpt><trkpt lat="42.4014819" lon="11.119434"><ele>361.0</ele><time>2026-04-04T07:26:19.251Z</time></trkpt><trkpt lat="42.4014751" lon="11.1195283"><ele>361.0</ele><time>2026-04-04T07:26:20.248Z</time></trkpt><trkpt lat="42.401496" lon="11.1196879"><ele>361.0</ele><time>2026-04-04T07:26:22.25Z</time></trkpt><trkpt lat="42.4015151" lon="11.1197799"><ele>361.0</ele><time>2026-04-04T07:26:23.254Z</time></trkpt><trkpt lat="42.4015428" lon="11.1198756"><ele>361.4</ele><time>2026-04-04T07:26:24.251Z</time></trkpt><trkpt lat="42.40157" lon="11.1199715"><ele>361.8</ele><time>2026-04-04T07:26:25.25Z</time></trkpt><trkpt lat="42.4016174" lon="11.1200821"><ele>362.2</ele><time>2026-04-04T07:26:27.249Z</time></trkpt><trkpt lat="42.4015984" lon="11.1202396"><ele>362.59999999999997</ele><time>2026-04-04T07:26:30.246Z</time></trkpt><trkpt lat="42.4015594" lon="11.120346"><ele>363.0</ele><time>2026-04-04T07:26:31.246Z</time></trkpt><trkpt lat="42.4015181" lon="11.120461"><ele>363.0</ele><time>2026-04-04T07:26:32.265Z</time></trkpt><trkpt lat="42.4014787" lon="11.1205382"><ele>363.0</ele><time>2026-04-04T07:26:33.244Z</time></trkpt><trkpt lat="42.4014373" lon="11.1206063"><ele>363.0</ele><time>2026-04-04T07:26:34.24Z</time></trkpt><trkpt lat="42.4013746" lon="11.1206899"><ele>363.0</ele><time>2026-04-04T07:26:36.242Z</time></trkpt><trkpt lat="42.4013365" lon="11.1207899"><ele>363.0</ele><time>2026-04-04T07:26:38.243Z</time></trkpt><trkpt lat="42.4013223" lon="11.1209013"><ele>363.0</ele><time>2026-04-04T07:26:39.252Z</time></trkpt><trkpt lat="42.4013109" lon="11.1210273"><ele>360.2</ele><time>2026-04-04T07:26:40.247Z</time></trkpt><trkpt lat="42.4012983" lon="11.1211675"><ele>357.4</ele><time>2026-04-04T07:26:41.243Z</time></trkpt><trkpt lat="42.4012857" lon="11.1213007"><ele>354.59999999999997</ele><time>2026-04-04T07:26:42.25Z</time></trkpt><trkpt lat="42.401262" lon="11.1214305"><ele>351.79999999999995</ele><time>2026-04-04T07:26:43.248Z</time></trkpt><trkpt lat="42.4012389" lon="11.1215467"><ele>349.0</ele><time>2026-04-04T07:26:44.246Z</time></trkpt><trkpt lat="42.4012212" lon="11.1216444"><ele>348.5</ele><time>2026-04-04T07:26:45.249Z</time></trkpt><trkpt lat="42.401204" lon="11.1217591"><ele>348.0</ele><time>2026-04-04T07:26:46.243Z</time></trkpt><trkpt lat="42.4011862" lon="11.1218957"><ele>347.5</ele><time>2026-04-04T07:26:47.245Z</time></trkpt><trkpt lat="42.4011638" lon="11.1220151"><ele>347.0</ele><time>2026-04-04T07:26:48.25Z</time></trkpt><trkpt lat="42.401138" lon="11.1221068"><ele>346.5</ele><time>2026-04-04T07:26:49.25Z</time></trkpt><trkpt lat="42.4011211" lon="11.1221921"><ele>346.0</ele><time>2026-04-04T07:26:50.247Z</time></trkpt><trkpt lat="42.4011017" lon="11.1222799"><ele>346.20000000000005</ele><time>2026-04-04T07:26:51.25Z</time></trkpt><trkpt lat="42.4010926" lon="11.1224671"><ele>346.40000000000003</ele><time>2026-04-04T07:26:53.25Z</time></trkpt><trkpt lat="42.4011095" lon="11.1225674"><ele>346.6</ele><time>2026-04-04T07:26:54.247Z</time></trkpt><trkpt lat="42.4011346" lon="11.1226471"><ele>346.8</ele><time>2026-04-04T07:26:55.249Z</time></trkpt><trkpt lat="42.401179" lon="11.1227529"><ele>347.0</ele><time>2026-04-04T07:26:56.258Z</time></trkpt><trkpt lat="42.4012223" lon="11.1228645"><ele>347.0</ele><time>2026-04-04T07:26:57.248Z</time></trkpt><trkpt lat="42.4012556" lon="11.1229534"><ele>347.0</ele><time>2026-04-04T07:26:58.242Z</time></trkpt><trkpt lat="42.4012843" lon="11.1230423"><ele>347.0</ele><time>2026-04-04T07:26:59.249Z</time></trkpt><trkpt lat="42.401313" lon="11.1231319"><ele>347.0</ele><time>2026-04-04T07:27:00.249Z</time></trkpt><trkpt lat="42.4013415" lon="11.1232533"><ele>347.0</ele><time>2026-04-04T07:27:01.256Z</time></trkpt><trkpt lat="42.4013627" lon="11.1233731"><ele>347.0</ele><time>2026-04-04T07:27:02.248Z</time></trkpt><trkpt lat="42.4013838" lon="11.1234714"><ele>347.40000000000003</ele><time>2026-04-04T07:27:03.246Z</time></trkpt><trkpt lat="42.4014008" lon="11.1235552"><ele>347.8</ele><time>2026-04-04T07:27:04.242Z</time></trkpt><trkpt lat="42.4014297" lon="11.1236953"><ele>348.2</ele><time>2026-04-04T07:27:06.25Z</time></trkpt><trkpt lat="42.4014518" lon="11.1238144"><ele>348.6</ele><time>2026-04-04T07:27:08.245Z</time></trkpt><trkpt lat="42.4014391" lon="11.1239369"><ele>349.0</ele><time>2026-04-04T07:27:10.256Z</time></trkpt><trkpt lat="42.4014248" lon="11.1240844"><ele>349.0</ele><time>2026-04-04T07:27:12.249Z</time></trkpt><trkpt lat="42.4014278" lon="11.1242119"><ele>349.0</ele><time>2026-04-04T07:27:14.248Z</time></trkpt><trkpt lat="42.4014295" lon="11.124321"><ele>349.0</ele><time>2026-04-04T07:27:16.247Z</time></trkpt><trkpt lat="42.4014327" lon="11.1244604"><ele>349.0</ele><time>2026-04-04T07:27:18.246Z</time></trkpt><trkpt lat="42.4014161" lon="11.1246134"><ele>349.0</ele><time>2026-04-04T07:27:20.251Z</time></trkpt><trkpt lat="42.4014094" lon="11.1247451"><ele>349.0</ele><time>2026-04-04T07:27:22.241Z</time></trkpt><trkpt lat="42.4013941" lon="11.124877"><ele>349.0</ele><time>2026-04-04T07:27:24.26Z</time></trkpt><trkpt lat="42.4013568" lon="11.1249765"><ele>349.0</ele><time>2026-04-04T07:27:26.247Z</time></trkpt><trkpt lat="42.4012731" lon="11.1250612"><ele>349.0</ele><time>2026-04-04T07:27:28.247Z</time></trkpt><trkpt lat="42.4012206" lon="11.1251149"><ele>349.0</ele><time>2026-04-04T07:27:29.245Z</time></trkpt><trkpt lat="42.4011685" lon="11.1251853"><ele>349.0</ele><time>2026-04-04T07:27:30.248Z</time></trkpt><trkpt lat="42.4011025" lon="11.1252807"><ele>345.5</ele><time>2026-04-04T07:27:31.25Z</time></trkpt><trkpt lat="42.4010268" lon="11.1254066"><ele>342.0</ele><time>2026-04-04T07:27:32.241Z</time></trkpt><trkpt lat="42.4009416" lon="11.1255504"><ele>338.5</ele><time>2026-04-04T07:27:33.243Z</time></trkpt><trkpt lat="42.4008664" lon="11.1256448"><ele>335.0</ele><time>2026-04-04T07:27:34.252Z</time></trkpt><trkpt lat="42.4008003" lon="11.1257435"><ele>335.0</ele><time>2026-04-04T07:27:35.249Z</time></trkpt><trkpt lat="42.4007294" lon="11.1258335"><ele>335.0</ele><time>2026-04-04T07:27:36.268Z</time></trkpt><trkpt lat="42.4006657" lon="11.1259071"><ele>335.0</ele><time>2026-04-04T07:27:37.249Z</time></trkpt><trkpt lat="42.400611" lon="11.1259848"><ele>335.0</ele><time>2026-04-04T07:27:38.249Z</time></trkpt><trkpt lat="42.4005552" lon="11.1260923"><ele>335.0</ele><time>2026-04-04T07:27:39.253Z</time></trkpt><trkpt lat="42.4005049" lon="11.1262208"><ele>333.83333333333337</ele><time>2026-04-04T07:27:40.244Z</time></trkpt><trkpt lat="42.400469" lon="11.1263223"><ele>332.6666666666667</ele><time>2026-04-04T07:27:41.244Z</time></trkpt><trkpt lat="42.4004356" lon="11.1264063"><ele>331.5</ele><time>2026-04-04T07:27:42.258Z</time></trkpt><trkpt lat="42.4003778" lon="11.1265578"><ele>330.3333333333333</ele><time>2026-04-04T07:27:44.247Z</time></trkpt><trkpt lat="42.4003462" lon="11.1266528"><ele>329.16666666666663</ele><time>2026-04-04T07:27:45.247Z</time></trkpt><trkpt lat="42.400313" lon="11.1267422"><ele>328.0</ele><time>2026-04-04T07:27:46.252Z</time></trkpt><trkpt lat="42.4002796" lon="11.1268199"><ele>328.0</ele><time>2026-04-04T07:27:47.26Z</time></trkpt><trkpt lat="42.4002392" lon="11.1268954"><ele>328.0</ele><time>2026-04-04T07:27:48.241Z</time></trkpt><trkpt lat="42.4001471" lon="11.1270213"><ele>328.0</ele><time>2026-04-04T07:27:50.247Z</time></trkpt><trkpt lat="42.400102" lon="11.1270862"><ele>328.0</ele><time>2026-04-04T07:27:51.246Z</time></trkpt><trkpt lat="42.4000181" lon="11.1271826"><ele>328.0</ele><time>2026-04-04T07:27:53.268Z</time></trkpt><trkpt lat="42.3999285" lon="11.1272603"><ele>328.0</ele><time>2026-04-04T07:27:55.242Z</time></trkpt><trkpt lat="42.3998383" lon="11.1273234"><ele>328.0</ele><time>2026-04-04T07:27:57.243Z</time></trkpt><trkpt lat="42.3997544" lon="11.127394"><ele>328.0</ele><time>2026-04-04T07:27:59.251Z</time></trkpt><trkpt lat="42.3996809" lon="11.1274605"><ele>328.0</ele><time>2026-04-04T07:28:01.252Z</time></trkpt><trkpt lat="42.3996038" lon="11.1275365"><ele>328.0</ele><time>2026-04-04T07:28:03.258Z</time></trkpt><trkpt lat="42.399535" lon="11.1276398"><ele>324.5</ele><time>2026-04-04T07:28:05.243Z</time></trkpt><trkpt lat="42.3994938" lon="11.1277125"><ele>321.0</ele><time>2026-04-04T07:28:06.252Z</time></trkpt><trkpt lat="42.3994544" lon="11.1277802"><ele>317.5</ele><time>2026-04-04T07:28:07.251Z</time></trkpt><trkpt lat="42.399378" lon="11.1279017"><ele>314.0</ele><time>2026-04-04T07:28:09.246Z</time></trkpt><trkpt lat="42.3993153" lon="11.1279947"><ele>310.5</ele><time>2026-04-04T07:28:11.244Z</time></trkpt><trkpt lat="42.3992515" lon="11.1280852"><ele>307.0</ele><time>2026-04-04T07:28:13.238Z</time></trkpt><trkpt lat="42.3991838" lon="11.1281767"><ele>307.0</ele><time>2026-04-04T07:28:15.247Z</time></trkpt><trkpt lat="42.3991358" lon="11.1282649"><ele>307.0</ele><time>2026-04-04T07:28:17.249Z</time></trkpt><trkpt lat="42.3990888" lon="11.1283889"><ele>307.0</ele><time>2026-04-04T07:28:20.243Z</time></trkpt><trkpt lat="42.3990457" lon="11.1284845"><ele>307.0</ele><time>2026-04-04T07:28:22.245Z</time></trkpt><trkpt lat="42.3989927" lon="11.1285818"><ele>307.0</ele><time>2026-04-04T07:28:24.25Z</time></trkpt><trkpt lat="42.3989599" lon="11.1286949"><ele>307.0</ele><time>2026-04-04T07:28:26.241Z</time></trkpt><trkpt lat="42.3989483" lon="11.1288361"><ele>307.0</ele><time>2026-04-04T07:28:28.249Z</time></trkpt><trkpt lat="42.3989589" lon="11.128967"><ele>307.0</ele><time>2026-04-04T07:28:30.246Z</time></trkpt><trkpt lat="42.3989764" lon="11.12906"><ele>307.0</ele><time>2026-04-04T07:28:32.247Z</time></trkpt><trkpt lat="42.3989896" lon="11.1291531"><ele>307.0</ele><time>2026-04-04T07:28:34.251Z</time></trkpt><trkpt lat="42.3990359" lon="11.1292639"><ele>307.0</ele><time>2026-04-04T07:28:36.25Z</time></trkpt><trkpt lat="42.3990877" lon="11.1293664"><ele>307.0</ele><time>2026-04-04T07:28:38.245Z</time></trkpt><trkpt lat="42.399167" lon="11.1294504"><ele>305.8333333333333</ele><time>2026-04-04T07:28:41.25Z</time></trkpt><trkpt lat="42.399248" lon="11.129536"><ele>304.66666666666663</ele><time>2026-04-04T07:28:43.242Z</time></trkpt><trkpt lat="42.3993123" lon="11.1296038"><ele>303.5</ele><time>2026-04-04T07:28:45.248Z</time></trkpt><trkpt lat="42.3993826" lon="11.1296574"><ele>302.3333333333333</ele><time>2026-04-04T07:28:47.249Z</time></trkpt><trkpt lat="42.3994686" lon="11.1296813"><ele>301.1666666666667</ele><time>2026-04-04T07:28:49.246Z</time></trkpt><trkpt lat="42.3995445" lon="11.1296974"><ele>300.0</ele><time>2026-04-04T07:28:51.256Z</time></trkpt><trkpt lat="42.3996303" lon="11.1296886"><ele>300.0</ele><time>2026-04-04T07:28:54.249Z</time></trkpt><trkpt lat="42.3996806" lon="11.1297715"><ele>300.0</ele><time>2026-04-04T07:28:59.249Z</time></trkpt><trkpt lat="42.3996287" lon="11.1298363"><ele>300.0</ele><time>2026-04-04T07:30:02.246Z</time></trkpt><trkpt lat="42.3995378" lon="11.1298941"><ele>300.0</ele><time>2026-04-04T07:30:04.26Z</time></trkpt><trkpt lat="42.3994593" lon="11.1299397"><ele>300.0</ele><time>2026-04-04T07:30:05.242Z</time></trkpt><trkpt lat="42.399371" lon="11.130007"><ele>300.0</ele><time>2026-04-04T07:30:06.253Z</time></trkpt><trkpt lat="42.3992774" lon="11.1300826"><ele>296.8</ele><time>2026-04-04T07:30:07.245Z</time></trkpt><trkpt lat="42.3991882" lon="11.1301394"><ele>293.6</ele><time>2026-04-04T07:30:08.246Z</time></trkpt><trkpt lat="42.3991062" lon="11.1301854"><ele>290.4</ele><time>2026-04-04T07:30:09.26Z</time></trkpt><trkpt lat="42.3990238" lon="11.1302354"><ele>287.2</ele><time>2026-04-04T07:30:10.25Z</time></trkpt><trkpt lat="42.3989609" lon="11.1302679"><ele>284.0</ele><time>2026-04-04T07:30:11.24Z</time></trkpt><trkpt lat="42.3988356" lon="11.1302933"><ele>282.2</ele><time>2026-04-04T07:30:13.25Z</time></trkpt><trkpt lat="42.3987714" lon="11.1302886"><ele>280.4</ele><time>2026-04-04T07:30:14.252Z</time></trkpt><trkpt lat="42.398645" lon="11.1302901"><ele>278.6</ele><time>2026-04-04T07:30:16.252Z</time></trkpt><trkpt lat="42.3985676" lon="11.1302995"><ele>276.8</ele><time>2026-04-04T07:30:17.245Z</time></trkpt><trkpt lat="42.39848" lon="11.1303238"><ele>275.0</ele><time>2026-04-04T07:30:18.24Z</time></trkpt><trkpt lat="42.3983772" lon="11.1303407"><ele>275.0</ele><time>2026-04-04T07:30:19.25Z</time></trkpt><trkpt lat="42.3982796" lon="11.1303688"><ele>275.0</ele><time>2026-04-04T07:30:20.257Z</time></trkpt><trkpt lat="42.3981941" lon="11.1303865"><ele>275.0</ele><time>2026-04-04T07:30:21.277Z</time></trkpt><trkpt lat="42.3980919" lon="11.1303862"><ele>275.0</ele><time>2026-04-04T07:30:22.252Z</time></trkpt><trkpt lat="42.3979799" lon="11.1303767"><ele>275.0</ele><time>2026-04-04T07:30:23.243Z</time></trkpt><trkpt lat="42.3978844" lon="11.1303651"><ele>273.6666666666667</ele><time>2026-04-04T07:30:24.245Z</time></trkpt><trkpt lat="42.3977909" lon="11.1303447"><ele>272.33333333333337</ele><time>2026-04-04T07:30:25.238Z</time></trkpt><trkpt lat="42.3976986" lon="11.1303258"><ele>271.0</ele><time>2026-04-04T07:30:26.244Z</time></trkpt><trkpt lat="42.397618" lon="11.130322"><ele>269.6666666666667</ele><time>2026-04-04T07:30:27.241Z</time></trkpt><trkpt lat="42.3975434" lon="11.1303464"><ele>268.3333333333333</ele><time>2026-04-04T07:30:28.249Z</time></trkpt><trkpt lat="42.3974585" lon="11.1303892"><ele>267.0</ele><time>2026-04-04T07:30:29.244Z</time></trkpt><trkpt lat="42.397385" lon="11.1304436"><ele>267.0</ele><time>2026-04-04T07:30:30.254Z</time></trkpt><trkpt lat="42.397313" lon="11.1305093"><ele>267.0</ele><time>2026-04-04T07:30:31.246Z</time></trkpt><trkpt lat="42.3972287" lon="11.1305829"><ele>267.0</ele><time>2026-04-04T07:30:32.248Z</time></trkpt><trkpt lat="42.3971374" lon="11.1306228"><ele>267.0</ele><time>2026-04-04T07:30:33.244Z</time></trkpt><trkpt lat="42.3970274" lon="11.1306658"><ele>267.0</ele><time>2026-04-04T07:30:34.245Z</time></trkpt><trkpt lat="42.3969043" lon="11.1307136"><ele>265.4</ele><time>2026-04-04T07:30:35.247Z</time></trkpt><trkpt lat="42.396814" lon="11.1307592"><ele>263.79999999999995</ele><time>2026-04-04T07:30:36.242Z</time></trkpt><trkpt lat="42.3967123" lon="11.1308348"><ele>262.2</ele><time>2026-04-04T07:30:38.245Z</time></trkpt><trkpt lat="42.3966697" lon="11.1309543"><ele>260.59999999999997</ele><time>2026-04-04T07:30:40.245Z</time></trkpt><trkpt lat="42.3966349" lon="11.1311219"><ele>259.0</ele><time>2026-04-04T07:30:42.247Z</time></trkpt><trkpt lat="42.3966127" lon="11.1312242"><ele>259.0</ele><time>2026-04-04T07:30:43.247Z</time></trkpt><trkpt lat="42.3965997" lon="11.131333"><ele>259.0</ele><time>2026-04-04T07:30:44.248Z</time></trkpt><trkpt lat="42.396583" lon="11.1314424"><ele>259.0</ele><time>2026-04-04T07:30:45.246Z</time></trkpt><trkpt lat="42.3965567" lon="11.1315453"><ele>259.0</ele><time>2026-04-04T07:30:46.25Z</time></trkpt><trkpt lat="42.3965255" lon="11.1316473"><ele>259.0</ele><time>2026-04-04T07:30:47.253Z</time></trkpt><trkpt lat="42.396467" lon="11.1317851"><ele>259.0</ele><time>2026-04-04T07:30:49.26Z</time></trkpt><trkpt lat="42.3964712" lon="11.1319297"><ele>258.66666666666663</ele><time>2026-04-04T07:30:51.245Z</time></trkpt><trkpt lat="42.3964895" lon="11.1320271"><ele>258.3333333333333</ele><time>2026-04-04T07:30:52.244Z</time></trkpt><trkpt lat="42.396522" lon="11.132126"><ele>258.0</ele><time>2026-04-04T07:30:53.253Z</time></trkpt><trkpt lat="42.3965556" lon="11.1322341"><ele>257.6666666666667</ele><time>2026-04-04T07:30:54.249Z</time></trkpt><trkpt lat="42.3965875" lon="11.1323614"><ele>257.33333333333337</ele><time>2026-04-04T07:30:55.247Z</time></trkpt><trkpt lat="42.3966185" lon="11.1324732"><ele>257.0</ele><time>2026-04-04T07:30:56.252Z</time></trkpt><trkpt lat="42.3966456" lon="11.1325769"><ele>256.33333333333337</ele><time>2026-04-04T07:30:57.243Z</time></trkpt><trkpt lat="42.3966836" lon="11.1326676"><ele>255.66666666666669</ele><time>2026-04-04T07:30:58.247Z</time></trkpt><trkpt lat="42.3967252" lon="11.1327487"><ele>255.0</ele><time>2026-04-04T07:30:59.245Z</time></trkpt><trkpt lat="42.3967791" lon="11.1328141"><ele>254.33333333333331</ele><time>2026-04-04T07:31:00.249Z</time></trkpt><trkpt lat="42.396848" lon="11.1328964"><ele>253.66666666666666</ele><time>2026-04-04T07:31:01.249Z</time></trkpt><trkpt lat="42.3969215" lon="11.1330042"><ele>253.0</ele><time>2026-04-04T07:31:02.248Z</time></trkpt><trkpt lat="42.397006" lon="11.1331447"><ele>252.4</ele><time>2026-04-04T07:31:03.253Z</time></trkpt><trkpt lat="42.3970923" lon="11.133276"><ele>251.8</ele><time>2026-04-04T07:31:04.24Z</time></trkpt><trkpt lat="42.3971669" lon="11.1333947"><ele>251.2</ele><time>2026-04-04T07:31:05.249Z</time></trkpt><trkpt lat="42.397214" lon="11.1334933"><ele>250.6</ele><time>2026-04-04T07:31:06.248Z</time></trkpt><trkpt lat="42.3972618" lon="11.1336237"><ele>250.0</ele><time>2026-04-04T07:31:08.246Z</time></trkpt><trkpt lat="42.3973036" lon="11.1337303"><ele>249.99999999999997</ele><time>2026-04-04T07:31:10.245Z</time></trkpt><trkpt lat="42.3973393" lon="11.1338038"><ele>250.0</ele><time>2026-04-04T07:31:11.243Z</time></trkpt><trkpt lat="42.3973804" lon="11.1338866"><ele>250.0</ele><time>2026-04-04T07:31:12.247Z</time></trkpt><trkpt lat="42.3974316" lon="11.1339745"><ele>250.0</ele><time>2026-04-04T07:31:14.244Z</time></trkpt><trkpt lat="42.3973681" lon="11.133922"><ele>249.99999999999997</ele><time>2026-04-04T07:31:26.246Z</time></trkpt><trkpt lat="42.3973117" lon="11.1338042"><ele>250.0</ele><time>2026-04-04T07:31:28.243Z</time></trkpt><trkpt lat="42.3972758" lon="11.1337321"><ele>250.0</ele><time>2026-04-04T07:31:29.242Z</time></trkpt><trkpt lat="42.3972291" lon="11.1336172"><ele>250.0</ele><time>2026-04-04T07:31:30.243Z</time></trkpt><trkpt lat="42.3971663" lon="11.1335026"><ele>250.0</ele><time>2026-04-04T07:31:31.243Z</time></trkpt><trkpt lat="42.3970994" lon="11.1333976"><ele>250.0</ele><time>2026-04-04T07:31:32.247Z</time></trkpt><trkpt lat="42.3970319" lon="11.1332948"><ele>250.0</ele><time>2026-04-04T07:31:33.235Z</time></trkpt><trkpt lat="42.3969597" lon="11.1331853"><ele>250.6</ele><time>2026-04-04T07:31:34.239Z</time></trkpt><trkpt lat="42.3968923" lon="11.13307"><ele>251.2</ele><time>2026-04-04T07:31:35.24Z</time></trkpt><trkpt lat="42.3968301" lon="11.132959"><ele>251.8</ele><time>2026-04-04T07:31:36.241Z</time></trkpt><trkpt lat="42.3967539" lon="11.132868"><ele>252.4</ele><time>2026-04-04T07:31:37.24Z</time></trkpt><trkpt lat="42.396684" lon="11.1327653"><ele>253.0</ele><time>2026-04-04T07:31:38.245Z</time></trkpt><trkpt lat="42.3966314" lon="11.1326513"><ele>253.0</ele><time>2026-04-04T07:31:39.249Z</time></trkpt><trkpt lat="42.3965996" lon="11.1325223"><ele>253.0</ele><time>2026-04-04T07:31:40.242Z</time></trkpt><trkpt lat="42.3965785" lon="11.1323735"><ele>253.0</ele><time>2026-04-04T07:31:41.24Z</time></trkpt><trkpt lat="42.3965495" lon="11.1322271"><ele>253.0</ele><time>2026-04-04T07:31:42.237Z</time></trkpt><trkpt lat="42.3965251" lon="11.1321098"><ele>253.0</ele><time>2026-04-04T07:31:43.255Z</time></trkpt><trkpt lat="42.396505" lon="11.132011"><ele>253.66666666666666</ele><time>2026-04-04T07:31:44.25Z</time></trkpt><trkpt lat="42.3964994" lon="11.1319208"><ele>254.33333333333331</ele><time>2026-04-04T07:31:45.246Z</time></trkpt><trkpt lat="42.3965002" lon="11.1318353"><ele>255.0</ele><time>2026-04-04T07:31:46.242Z</time></trkpt><trkpt lat="42.3965278" lon="11.1316697"><ele>255.66666666666669</ele><time>2026-04-04T07:31:48.245Z</time></trkpt><trkpt lat="42.3965524" lon="11.1315526"><ele>256.33333333333337</ele><time>2026-04-04T07:31:49.248Z</time></trkpt><trkpt lat="42.39658" lon="11.131422"><ele>257.0</ele><time>2026-04-04T07:31:50.239Z</time></trkpt><trkpt lat="42.396607" lon="11.1312924"><ele>257.33333333333337</ele><time>2026-04-04T07:31:51.251Z</time></trkpt><trkpt lat="42.3966319" lon="11.1311749"><ele>257.6666666666667</ele><time>2026-04-04T07:31:52.24Z</time></trkpt><trkpt lat="42.3966313" lon="11.1310466"><ele>258.0</ele><time>2026-04-04T07:31:54.244Z</time></trkpt><trkpt lat="42.39663" lon="11.1309445"><ele>258.3333333333333</ele><time>2026-04-04T07:31:57.245Z</time></trkpt><trkpt lat="42.3966351" lon="11.1308493"><ele>258.66666666666663</ele><time>2026-04-04T07:32:04.245Z</time></trkpt><trkpt lat="42.3965324" lon="11.1308667"><ele>259.0</ele><time>2026-04-04T07:32:08.252Z</time></trkpt><trkpt lat="42.3964245" lon="11.1308807"><ele>260.5</ele><time>2026-04-04T07:32:10.24Z</time></trkpt><trkpt lat="42.3963138" lon="11.1308723"><ele>262.0</ele><time>2026-04-04T07:32:12.253Z</time></trkpt><trkpt lat="42.3962142" lon="11.1309054"><ele>263.5</ele><time>2026-04-04T07:32:14.255Z</time></trkpt><trkpt lat="42.396129" lon="11.1309842"><ele>265.0</ele><time>2026-04-04T07:32:16.256Z</time></trkpt><trkpt lat="42.3960489" lon="11.1311382"><ele>265.0</ele><time>2026-04-04T07:32:18.242Z</time></trkpt><trkpt lat="42.3960064" lon="11.1312222"><ele>265.0</ele><time>2026-04-04T07:32:19.243Z</time></trkpt><trkpt lat="42.3959677" lon="11.1313093"><ele>265.0</ele><time>2026-04-04T07:32:20.247Z</time></trkpt><trkpt lat="42.3959299" lon="11.1313925"><ele>265.0</ele><time>2026-04-04T07:32:21.248Z</time></trkpt><trkpt lat="42.3958973" lon="11.1314949"><ele>265.0</ele><time>2026-04-04T07:32:22.241Z</time></trkpt><trkpt lat="42.3958664" lon="11.1316085"><ele>265.0</ele><time>2026-04-04T07:32:23.246Z</time></trkpt><trkpt lat="42.395826" lon="11.1317598"><ele>264.25</ele><time>2026-04-04T07:32:24.257Z</time></trkpt><trkpt lat="42.3957727" lon="11.1319222"><ele>263.5</ele><time>2026-04-04T07:32:25.245Z</time></trkpt><trkpt lat="42.3957278" lon="11.1320916"><ele>262.75</ele><time>2026-04-04T07:32:26.245Z</time></trkpt><trkpt lat="42.3956846" lon="11.1322431"><ele>262.0</ele><time>2026-04-04T07:32:27.242Z</time></trkpt><trkpt lat="42.395638" lon="11.1323752"><ele>261.8333333333333</ele><time>2026-04-04T07:32:28.245Z</time></trkpt><trkpt lat="42.3956" lon="11.1324609"><ele>261.66666666666663</ele><time>2026-04-04T07:32:29.243Z</time></trkpt><trkpt lat="42.3955509" lon="11.1325393"><ele>261.5</ele><time>2026-04-04T07:32:30.246Z</time></trkpt><trkpt lat="42.395503" lon="11.1326143"><ele>261.3333333333333</ele><time>2026-04-04T07:32:31.247Z</time></trkpt><trkpt lat="42.3954277" lon="11.1327397"><ele>261.1666666666667</ele><time>2026-04-04T07:32:33.242Z</time></trkpt><trkpt lat="42.3953452" lon="11.1328086"><ele>261.0</ele><time>2026-04-04T07:32:35.244Z</time></trkpt><trkpt lat="42.3952537" lon="11.1328252"><ele>262.8333333333333</ele><time>2026-04-04T07:32:37.247Z</time></trkpt><trkpt lat="42.3951555" lon="11.1328605"><ele>264.6666666666667</ele><time>2026-04-04T07:32:39.264Z</time></trkpt><trkpt lat="42.3950624" lon="11.1329555"><ele>266.5</ele><time>2026-04-04T07:32:41.238Z</time></trkpt><trkpt lat="42.394998" lon="11.133024"><ele>268.33333333333337</ele><time>2026-04-04T07:32:42.245Z</time></trkpt><trkpt lat="42.3949402" lon="11.133085"><ele>270.1666666666667</ele><time>2026-04-04T07:32:43.244Z</time></trkpt><trkpt lat="42.3948896" lon="11.1331396"><ele>272.0</ele><time>2026-04-04T07:32:44.245Z</time></trkpt><trkpt lat="42.3948406" lon="11.1332087"><ele>272.0</ele><time>2026-04-04T07:32:45.26Z</time></trkpt><trkpt lat="42.3947735" lon="11.1332895"><ele>272.0</ele><time>2026-04-04T07:32:47.245Z</time></trkpt><trkpt lat="42.3946978" lon="11.1333246"><ele>272.0</ele><time>2026-04-04T07:32:49.242Z</time></trkpt><trkpt lat="42.3946347" lon="11.1333548"><ele>272.0</ele><time>2026-04-04T07:32:50.241Z</time></trkpt><trkpt lat="42.3945374" lon="11.1333919"><ele>272.0</ele><time>2026-04-04T07:32:52.26Z</time></trkpt><trkpt lat="42.39446" lon="11.133403"><ele>272.0</ele><time>2026-04-04T07:32:55.247Z</time></trkpt><trkpt lat="42.3943839" lon="11.1334292"><ele>272.0</ele><time>2026-04-04T07:33:02.247Z</time></trkpt><trkpt lat="42.3943122" lon="11.1334526"><ele>272.0</ele><time>2026-04-04T07:33:05.253Z</time></trkpt><trkpt lat="42.3942356" lon="11.133451"><ele>272.0</ele><time>2026-04-04T07:33:08.24Z</time></trkpt><trkpt lat="42.394177" lon="11.133486"><ele>272.0</ele><time>2026-04-04T07:33:10.253Z</time></trkpt><trkpt lat="42.3941017" lon="11.1335423"><ele>272.0</ele><time>2026-04-04T07:33:13.244Z</time></trkpt><trkpt lat="42.3940333" lon="11.1336189"><ele>272.0</ele><time>2026-04-04T07:33:16.248Z</time></trkpt><trkpt lat="42.3939878" lon="11.1336811"><ele>271.99999999999994</ele><time>2026-04-04T07:33:18.241Z</time></trkpt><trkpt lat="42.3939381" lon="11.1337433"><ele>272.0</ele><time>2026-04-04T07:33:20.243Z</time></trkpt><trkpt lat="42.3938903" lon="11.133822"><ele>272.0</ele><time>2026-04-04T07:33:23.247Z</time></trkpt><trkpt lat="42.393855" lon="11.1339055"><ele>272.0</ele><time>2026-04-04T07:33:27.251Z</time></trkpt><trkpt lat="42.3937823" lon="11.1339628"><ele>272.0</ele><time>2026-04-04T07:33:31.246Z</time></trkpt><trkpt lat="42.3937234" lon="11.1340059"><ele>271.99999999999994</ele><time>2026-04-04T07:33:33.259Z</time></trkpt><trkpt lat="42.3936549" lon="11.1340602"><ele>272.0</ele><time>2026-04-04T07:33:36.247Z</time></trkpt><trkpt lat="42.3935913" lon="11.1341253"><ele>272.2857142857143</ele><time>2026-04-04T07:33:39.244Z</time></trkpt><trkpt lat="42.3935387" lon="11.1341809"><ele>272.57142857142856</ele><time>2026-04-04T07:33:42.251Z</time></trkpt><trkpt lat="42.3934917" lon="11.1342509"><ele>272.8571428571429</ele><time>2026-04-04T07:33:45.245Z</time></trkpt><trkpt lat="42.3934439" lon="11.1343495"><ele>273.1428571428571</ele><time>2026-04-04T07:33:48.241Z</time></trkpt><trkpt lat="42.3933929" lon="11.1344286"><ele>273.42857142857144</ele><time>2026-04-04T07:33:50.247Z</time></trkpt><trkpt lat="42.3933413" lon="11.1344974"><ele>273.7142857142857</ele><time>2026-04-04T07:33:52.249Z</time></trkpt><trkpt lat="42.3933054" lon="11.1345711"><ele>274.0</ele><time>2026-04-04T07:33:54.244Z</time></trkpt><trkpt lat="42.3932642" lon="11.1346451"><ele>274.00000000000006</ele><time>2026-04-04T07:33:56.248Z</time></trkpt><trkpt lat="42.3932155" lon="11.1347152"><ele>274.0</ele><time>2026-04-04T07:33:59.239Z</time></trkpt><trkpt lat="42.3931559" lon="11.134768"><ele>274.0</ele><time>2026-04-04T07:34:02.245Z</time></trkpt><trkpt lat="42.3930948" lon="11.1348335"><ele>274.0</ele><time>2026-04-04T07:34:05.249Z</time></trkpt><trkpt lat="42.3930361" lon="11.1348981"><ele>274.0</ele><time>2026-04-04T07:34:08.245Z</time></trkpt><trkpt lat="42.392982" lon="11.1349682"><ele>274.00000000000006</ele><time>2026-04-04T07:34:11.248Z</time></trkpt><trkpt lat="42.3929313" lon="11.1350304"><ele>274.0</ele><time>2026-04-04T07:34:14.241Z</time></trkpt><trkpt lat="42.3928906" lon="11.1350999"><ele>272.3333333333333</ele><time>2026-04-04T07:34:18.239Z</time></trkpt><trkpt lat="42.3928118" lon="11.1351506"><ele>270.66666666666663</ele><time>2026-04-04T07:34:23.249Z</time></trkpt><trkpt lat="42.39275" lon="11.1352158"><ele>269.0</ele><time>2026-04-04T07:34:26.239Z</time></trkpt><trkpt lat="42.3926814" lon="11.1352863"><ele>267.3333333333333</ele><time>2026-04-04T07:34:29.24Z</time></trkpt><trkpt lat="42.392603" lon="11.1353613"><ele>265.6666666666667</ele><time>2026-04-04T07:34:32.249Z</time></trkpt><trkpt lat="42.3925367" lon="11.1354323"><ele>264.0</ele><time>2026-04-04T07:34:35.241Z</time></trkpt><trkpt lat="42.3924722" lon="11.1354864"><ele>264.0</ele><time>2026-04-04T07:34:38.24Z</time></trkpt><trkpt lat="42.3924091" lon="11.1355421"><ele>264.0</ele><time>2026-04-04T07:34:41.244Z</time></trkpt><trkpt lat="42.3923443" lon="11.1355936"><ele>264.0</ele><time>2026-04-04T07:34:44.243Z</time></trkpt><trkpt lat="42.3922821" lon="11.1356652"><ele>264.0</ele><time>2026-04-04T07:34:47.244Z</time></trkpt><trkpt lat="42.3922339" lon="11.1357365"><ele>264.0</ele><time>2026-04-04T07:34:50.241Z</time></trkpt><trkpt lat="42.3921751" lon="11.135798"><ele>264.0</ele><time>2026-04-04T07:34:53.245Z</time></trkpt><trkpt lat="42.3921163" lon="11.1358488"><ele>264.0</ele><time>2026-04-04T07:34:56.248Z</time></trkpt><trkpt lat="42.3920515" lon="11.135906"><ele>260.5</ele><time>2026-04-04T07:34:59.244Z</time></trkpt><trkpt lat="42.3919779" lon="11.1359474"><ele>257.0</ele><time>2026-04-04T07:35:02.249Z</time></trkpt><trkpt lat="42.3919011" lon="11.1359842"><ele>253.5</ele><time>2026-04-04T07:35:06.244Z</time></trkpt><trkpt lat="42.3918284" lon="11.1360323"><ele>250.0</ele><time>2026-04-04T07:35:10.249Z</time></trkpt><trkpt lat="42.3917422" lon="11.1360574"><ele>246.5</ele><time>2026-04-04T07:35:14.247Z</time></trkpt><trkpt lat="42.3916745" lon="11.1360792"><ele>243.0</ele><time>2026-04-04T07:35:17.244Z</time></trkpt><trkpt lat="42.3915993" lon="11.136094"><ele>243.0</ele><time>2026-04-04T07:35:20.243Z</time></trkpt><trkpt lat="42.3915307" lon="11.1360956"><ele>243.0</ele><time>2026-04-04T07:35:23.24Z</time></trkpt><trkpt lat="42.3914619" lon="11.136107"><ele>243.0</ele><time>2026-04-04T07:35:26.244Z</time></trkpt><trkpt lat="42.3913917" lon="11.1361098"><ele>243.0</ele><time>2026-04-04T07:35:29.243Z</time></trkpt><trkpt lat="42.3913107" lon="11.1361246"><ele>243.0</ele><time>2026-04-04T07:35:32.241Z</time></trkpt><trkpt lat="42.3912426" lon="11.136137"><ele>243.0</ele><time>2026-04-04T07:35:34.251Z</time></trkpt><trkpt lat="42.3911517" lon="11.1361591"><ele>240.83333333333334</ele><time>2026-04-04T07:35:37.246Z</time></trkpt><trkpt lat="42.3910677" lon="11.1361862"><ele>238.66666666666669</ele><time>2026-04-04T07:35:40.243Z</time></trkpt><trkpt lat="42.3909829" lon="11.1362171"><ele>236.5</ele><time>2026-04-04T07:35:43.261Z</time></trkpt><trkpt lat="42.3909232" lon="11.1362454"><ele>234.33333333333334</ele><time>2026-04-04T07:35:46.247Z</time></trkpt><trkpt lat="42.3908598" lon="11.1362825"><ele>232.16666666666669</ele><time>2026-04-04T07:35:49.253Z</time></trkpt><trkpt lat="42.3907916" lon="11.1362979"><ele>230.0</ele><time>2026-04-04T07:35:53.246Z</time></trkpt><trkpt lat="42.3907208" lon="11.1363452"><ele>229.99999999999997</ele><time>2026-04-04T07:35:57.245Z</time></trkpt><trkpt lat="42.3906675" lon="11.1364017"><ele>230.0</ele><time>2026-04-04T07:36:00.248Z</time></trkpt><trkpt lat="42.390621" lon="11.1364625"><ele>229.99999999999997</ele><time>2026-04-04T07:36:03.243Z</time></trkpt><trkpt lat="42.3905754" lon="11.1365374"><ele>229.99999999999997</ele><time>2026-04-04T07:36:07.257Z</time></trkpt><trkpt lat="42.3905187" lon="11.1366006"><ele>230.0</ele><time>2026-04-04T07:36:10.253Z</time></trkpt><trkpt lat="42.3904622" lon="11.1366767"><ele>229.99999999999997</ele><time>2026-04-04T07:36:13.25Z</time></trkpt><trkpt lat="42.3904152" lon="11.1367615"><ele>229.99999999999997</ele><time>2026-04-04T07:36:16.246Z</time></trkpt><trkpt lat="42.3903546" lon="11.136824"><ele>224.83333333333334</ele><time>2026-04-04T07:36:20.255Z</time></trkpt><trkpt lat="42.3902803" lon="11.1368608"><ele>219.66666666666669</ele><time>2026-04-04T07:36:23.241Z</time></trkpt><trkpt lat="42.3902076" lon="11.1368936"><ele>214.5</ele><time>2026-04-04T07:36:27.246Z</time></trkpt><trkpt lat="42.3901973" lon="11.1369814"><ele>209.33333333333331</ele><time>2026-04-04T07:36:31.242Z</time></trkpt><trkpt lat="42.3901955" lon="11.137088"><ele>204.16666666666666</ele><time>2026-04-04T07:36:35.247Z</time></trkpt><trkpt lat="42.390133" lon="11.1371205"><ele>199.0</ele><time>2026-04-04T07:37:12.244Z</time></trkpt><trkpt lat="42.3900499" lon="11.137133"><ele>198.99999999999997</ele><time>2026-04-04T07:37:17.252Z</time></trkpt><trkpt lat="42.3899906" lon="11.1370777"><ele>199.0</ele><time>2026-04-04T07:37:22.251Z</time></trkpt><trkpt lat="42.3899195" lon="11.137059"><ele>199.0</ele><time>2026-04-04T07:37:29.246Z</time></trkpt><trkpt lat="42.3898619" lon="11.1371117"><ele>199.0</ele><time>2026-04-04T07:37:38.246Z</time></trkpt><trkpt lat="42.3897945" lon="11.1371238"><ele>199.0</ele><time>2026-04-04T07:37:42.249Z</time></trkpt><trkpt lat="42.3897467" lon="11.1371982"><ele>198.99999999999997</ele><time>2026-04-04T07:37:48.244Z</time></trkpt><trkpt lat="42.3896769" lon="11.1372353"><ele>199.0</ele><time>2026-04-04T07:37:53.244Z</time></trkpt><trkpt lat="42.3895962" lon="11.1372533"><ele>195.42857142857142</ele><time>2026-04-04T07:37:57.238Z</time></trkpt><trkpt lat="42.389534" lon="11.1372982"><ele>191.85714285714286</ele><time>2026-04-04T07:38:01.249Z</time></trkpt><trkpt lat="42.3894654" lon="11.1373433"><ele>188.28571428571428</ele><time>2026-04-04T07:38:04.24Z</time></trkpt><trkpt lat="42.3894235" lon="11.1374175"><ele>184.71428571428572</ele><time>2026-04-04T07:38:14.247Z</time></trkpt><trkpt lat="42.3893702" lon="11.1374821"><ele>181.14285714285714</ele><time>2026-04-04T07:38:19.25Z</time></trkpt><trkpt lat="42.3893185" lon="11.1375338"><ele>177.57142857142856</ele><time>2026-04-04T07:38:23.243Z</time></trkpt><trkpt lat="42.389257" lon="11.1375851"><ele>174.0</ele><time>2026-04-04T07:38:32.245Z</time></trkpt><trkpt lat="42.3891865" lon="11.1376432"><ele>174.0</ele><time>2026-04-04T07:38:35.249Z</time></trkpt><trkpt lat="42.3891511" lon="11.1377293"><ele>174.0</ele><time>2026-04-04T07:38:38.246Z</time></trkpt><trkpt lat="42.3891214" lon="11.1378173"><ele>174.0</ele><time>2026-04-04T07:38:43.242Z</time></trkpt><trkpt lat="42.389096" lon="11.1379"><ele>174.0</ele><time>2026-04-04T07:38:47.247Z</time></trkpt><trkpt lat="42.3890737" lon="11.1379872"><ele>174.0</ele><time>2026-04-04T07:38:54.242Z</time></trkpt><trkpt lat="42.389044" lon="11.1380667"><ele>174.0</ele><time>2026-04-04T07:38:58.251Z</time></trkpt><trkpt lat="42.389019" lon="11.138167"><ele>174.0</ele><time>2026-04-04T07:39:03.244Z</time></trkpt><trkpt lat="42.3889726" lon="11.1382268"><ele>174.42857142857142</ele><time>2026-04-04T07:39:06.247Z</time></trkpt><trkpt lat="42.3889153" lon="11.1383019"><ele>174.85714285714286</ele><time>2026-04-04T07:39:10.246Z</time></trkpt><trkpt lat="42.3888691" lon="11.1383624"><ele>175.28571428571428</ele><time>2026-04-04T07:39:13.246Z</time></trkpt><trkpt lat="42.3888162" lon="11.1384314"><ele>175.71428571428572</ele><time>2026-04-04T07:39:17.242Z</time></trkpt><trkpt lat="42.3887617" lon="11.1384826"><ele>176.14285714285714</ele><time>2026-04-04T07:39:20.248Z</time></trkpt><trkpt lat="42.3886829" lon="11.1385304"><ele>176.57142857142858</ele><time>2026-04-04T07:39:24.244Z</time></trkpt><trkpt lat="42.3886118" lon="11.1385582"><ele>177.0</ele><time>2026-04-04T07:39:27.242Z</time></trkpt><trkpt lat="42.3885511" lon="11.138595"><ele>172.85714285714286</ele><time>2026-04-04T07:39:30.246Z</time></trkpt><trkpt lat="42.3884808" lon="11.1385818"><ele>168.7142857142857</ele><time>2026-04-04T07:39:33.252Z</time></trkpt><trkpt lat="42.3884177" lon="11.1385685"><ele>164.57142857142856</ele><time>2026-04-04T07:39:36.249Z</time></trkpt><trkpt lat="42.3883571" lon="11.1386026"><ele>160.42857142857144</ele><time>2026-04-04T07:39:39.251Z</time></trkpt><trkpt lat="42.3882892" lon="11.1386146"><ele>156.28571428571428</ele><time>2026-04-04T07:39:43.245Z</time></trkpt><trkpt lat="42.3882328" lon="11.1386608"><ele>152.14285714285714</ele><time>2026-04-04T07:39:47.246Z</time></trkpt><trkpt lat="42.388157" lon="11.1386312"><ele>148.0</ele><time>2026-04-04T07:39:51.25Z</time></trkpt><trkpt lat="42.3880993" lon="11.1385575"><ele>148.0</ele><time>2026-04-04T07:40:00.248Z</time></trkpt><trkpt lat="42.3880287" lon="11.1385263"><ele>148.0</ele><time>2026-04-04T07:40:03.245Z</time></trkpt><trkpt lat="42.387945" lon="11.1385209"><ele>148.0</ele><time>2026-04-04T07:40:07.241Z</time></trkpt><trkpt lat="42.3878758" lon="11.1385465"><ele>148.0</ele><time>2026-04-04T07:40:10.256Z</time></trkpt><trkpt lat="42.3878153" lon="11.1386052"><ele>148.0</ele><time>2026-04-04T07:41:45.249Z</time></trkpt><trkpt lat="42.3877299" lon="11.1386036"><ele>148.0</ele><time>2026-04-04T07:41:49.245Z</time></trkpt><trkpt lat="42.3876396" lon="11.1386126"><ele>144.66666666666669</ele><time>2026-04-04T07:41:51.247Z</time></trkpt><trkpt lat="42.3875121" lon="11.1386363"><ele>141.33333333333334</ele><time>2026-04-04T07:41:53.259Z</time></trkpt><trkpt lat="42.3874487" lon="11.1386522"><ele>138.0</ele><time>2026-04-04T07:41:54.25Z</time></trkpt><trkpt lat="42.3873861" lon="11.1386713"><ele>134.66666666666666</ele><time>2026-04-04T07:41:55.247Z</time></trkpt><trkpt lat="42.3873179" lon="11.1387"><ele>131.33333333333331</ele><time>2026-04-04T07:41:56.256Z</time></trkpt><trkpt lat="42.3872522" lon="11.1387359"><ele>128.0</ele><time>2026-04-04T07:41:57.25Z</time></trkpt><trkpt lat="42.3871886" lon="11.1387695"><ele>125.49999999999999</ele><time>2026-04-04T07:41:58.245Z</time></trkpt><trkpt lat="42.38712" lon="11.1388068"><ele>123.0</ele><time>2026-04-04T07:41:59.263Z</time></trkpt><trkpt lat="42.3870433" lon="11.1388369"><ele>120.5</ele><time>2026-04-04T07:42:00.243Z</time></trkpt><trkpt lat="42.3869535" lon="11.1388542"><ele>118.0</ele><time>2026-04-04T07:42:01.248Z</time></trkpt><trkpt lat="42.3868616" lon="11.1388658"><ele>115.49999999999999</ele><time>2026-04-04T07:42:02.246Z</time></trkpt><trkpt lat="42.3867667" lon="11.1388774"><ele>113.0</ele><time>2026-04-04T07:42:03.252Z</time></trkpt><trkpt lat="42.3866748" lon="11.138891"><ele>112.99999999999999</ele><time>2026-04-04T07:42:04.253Z</time></trkpt><trkpt lat="42.3865999" lon="11.1389076"><ele>113.0</ele><time>2026-04-04T07:42:05.247Z</time></trkpt><trkpt lat="42.386528" lon="11.138926"><ele>113.0</ele><time>2026-04-04T07:42:06.25Z</time></trkpt><trkpt lat="42.3864407" lon="11.1389679"><ele>113.0</ele><time>2026-04-04T07:42:07.245Z</time></trkpt><trkpt lat="42.3863436" lon="11.1390137"><ele>112.99999999999999</ele><time>2026-04-04T07:42:08.248Z</time></trkpt><trkpt lat="42.3862484" lon="11.1390419"><ele>113.0</ele><time>2026-04-04T07:42:09.244Z</time></trkpt><trkpt lat="42.3861483" lon="11.1390537"><ele>111.60000000000001</ele><time>2026-04-04T07:42:10.247Z</time></trkpt><trkpt lat="42.3860362" lon="11.1390569"><ele>110.20000000000002</ele><time>2026-04-04T07:42:11.25Z</time></trkpt><trkpt lat="42.3859311" lon="11.1390617"><ele>108.8</ele><time>2026-04-04T07:42:12.244Z</time></trkpt><trkpt lat="42.3858367" lon="11.1390666"><ele>107.4</ele><time>2026-04-04T07:42:13.253Z</time></trkpt><trkpt lat="42.3857445" lon="11.1390583"><ele>106.0</ele><time>2026-04-04T07:42:14.241Z</time></trkpt><trkpt lat="42.3856611" lon="11.139043"><ele>106.0</ele><time>2026-04-04T07:42:15.24Z</time></trkpt><trkpt lat="42.3855833" lon="11.1390208"><ele>106.0</ele><time>2026-04-04T07:42:16.243Z</time></trkpt><trkpt lat="42.3855116" lon="11.1390049"><ele>106.0</ele><time>2026-04-04T07:42:17.246Z</time></trkpt><trkpt lat="42.3854437" lon="11.1389953"><ele>106.0</ele><time>2026-04-04T07:42:18.246Z</time></trkpt><trkpt lat="42.3853783" lon="11.1389798"><ele>106.0</ele><time>2026-04-04T07:42:19.247Z</time></trkpt><trkpt lat="42.3853094" lon="11.1389536"><ele>106.0</ele><time>2026-04-04T07:42:20.25Z</time></trkpt><trkpt lat="42.3852472" lon="11.1389381"><ele>106.0</ele><time>2026-04-04T07:42:21.245Z</time></trkpt><trkpt lat="42.3851852" lon="11.1389598"><ele>105.19999999999999</ele><time>2026-04-04T07:42:22.258Z</time></trkpt><trkpt lat="42.3851147" lon="11.1389971"><ele>104.39999999999999</ele><time>2026-04-04T07:42:23.247Z</time></trkpt><trkpt lat="42.3850198" lon="11.1390487"><ele>103.6</ele><time>2026-04-04T07:42:24.265Z</time></trkpt><trkpt lat="42.3849192" lon="11.1391043"><ele>102.8</ele><time>2026-04-04T07:42:25.249Z</time></trkpt><trkpt lat="42.3848146" lon="11.1391583"><ele>102.0</ele><time>2026-04-04T07:42:26.251Z</time></trkpt><trkpt lat="42.3847126" lon="11.1392123"><ele>104.75</ele><time>2026-04-04T07:42:27.249Z</time></trkpt><trkpt lat="42.3846095" lon="11.139271"><ele>107.5</ele><time>2026-04-04T07:42:28.252Z</time></trkpt><trkpt lat="42.3845079" lon="11.1393221"><ele>110.25</ele><time>2026-04-04T07:42:29.26Z</time></trkpt><trkpt lat="42.3844034" lon="11.1393697"><ele>113.0</ele><time>2026-04-04T07:42:30.254Z</time></trkpt><trkpt lat="42.3842858" lon="11.139396"><ele>113.0</ele><time>2026-04-04T07:42:31.244Z</time></trkpt><trkpt lat="42.3841657" lon="11.1394113"><ele>113.0</ele><time>2026-04-04T07:42:32.247Z</time></trkpt><trkpt lat="42.3840424" lon="11.1394147"><ele>113.0</ele><time>2026-04-04T07:42:33.244Z</time></trkpt><trkpt lat="42.38392" lon="11.1394202"><ele>113.0</ele><time>2026-04-04T07:42:34.27Z</time></trkpt><trkpt lat="42.3838009" lon="11.1394122"><ele>110.25</ele><time>2026-04-04T07:42:35.248Z</time></trkpt><trkpt lat="42.3836783" lon="11.1394165"><ele>107.5</ele><time>2026-04-04T07:42:36.251Z</time></trkpt><trkpt lat="42.3835499" lon="11.139422"><ele>104.75</ele><time>2026-04-04T07:42:37.248Z</time></trkpt><trkpt lat="42.3834278" lon="11.1394309"><ele>102.0</ele><time>2026-04-04T07:42:38.242Z</time></trkpt><trkpt lat="42.3833242" lon="11.1394371"><ele>102.0</ele><time>2026-04-04T07:42:39.248Z</time></trkpt><trkpt lat="42.3832407" lon="11.139436"><ele>102.0</ele><time>2026-04-04T07:42:40.248Z</time></trkpt><trkpt lat="42.3831528" lon="11.1394316"><ele>102.0</ele><time>2026-04-04T07:42:41.251Z</time></trkpt><trkpt lat="42.3830593" lon="11.1394113"><ele>102.0</ele><time>2026-04-04T07:42:42.256Z</time></trkpt><trkpt lat="42.3829625" lon="11.139401"><ele>102.0</ele><time>2026-04-04T07:42:43.247Z</time></trkpt><trkpt lat="42.3828587" lon="11.1393852"><ele>100.33333333333333</ele><time>2026-04-04T07:42:44.251Z</time></trkpt><trkpt lat="42.3827625" lon="11.1393674"><ele>98.66666666666667</ele><time>2026-04-04T07:42:45.245Z</time></trkpt><trkpt lat="42.3826745" lon="11.1393544"><ele>97.0</ele><time>2026-04-04T07:42:46.251Z</time></trkpt><trkpt lat="42.3825932" lon="11.1393363"><ele>95.33333333333334</ele><time>2026-04-04T07:42:47.248Z</time></trkpt><trkpt lat="42.3825299" lon="11.1393207"><ele>93.66666666666667</ele><time>2026-04-04T07:42:48.251Z</time></trkpt><trkpt lat="42.3824665" lon="11.1393203"><ele>92.0</ele><time>2026-04-04T07:42:49.247Z</time></trkpt><trkpt lat="42.3823906" lon="11.139337"><ele>92.0</ele><time>2026-04-04T07:42:50.252Z</time></trkpt><trkpt lat="42.3823199" lon="11.1393707"><ele>92.0</ele><time>2026-04-04T07:42:51.247Z</time></trkpt><trkpt lat="42.3822559" lon="11.1393886"><ele>92.0</ele><time>2026-04-04T07:42:52.26Z</time></trkpt><trkpt lat="42.3821927" lon="11.1393991"><ele>92.0</ele><time>2026-04-04T07:42:53.248Z</time></trkpt><trkpt lat="42.3821167" lon="11.1393906"><ele>92.0</ele><time>2026-04-04T07:42:54.247Z</time></trkpt><trkpt lat="42.3820304" lon="11.139355"><ele>92.0</ele><time>2026-04-04T07:42:55.252Z</time></trkpt><trkpt lat="42.3819376" lon="11.1393107"><ele>89.83333333333334</ele><time>2026-04-04T07:42:56.244Z</time></trkpt><trkpt lat="42.3818493" lon="11.1392681"><ele>87.66666666666667</ele><time>2026-04-04T07:42:57.252Z</time></trkpt><trkpt lat="42.3817695" lon="11.1392249"><ele>85.5</ele><time>2026-04-04T07:42:58.248Z</time></trkpt><trkpt lat="42.3817026" lon="11.1391991"><ele>83.33333333333333</ele><time>2026-04-04T07:42:59.249Z</time></trkpt><trkpt lat="42.381635" lon="11.1391964"><ele>81.16666666666666</ele><time>2026-04-04T07:43:00.253Z</time></trkpt><trkpt lat="42.3815489" lon="11.1392316"><ele>79.0</ele><time>2026-04-04T07:43:01.243Z</time></trkpt><trkpt lat="42.381446" lon="11.1392727"><ele>79.0</ele><time>2026-04-04T07:43:02.249Z</time></trkpt><trkpt lat="42.3813588" lon="11.1393126"><ele>79.0</ele><time>2026-04-04T07:43:03.252Z</time></trkpt><trkpt lat="42.3812929" lon="11.1393507"><ele>79.0</ele><time>2026-04-04T07:43:04.25Z</time></trkpt><trkpt lat="42.3812269" lon="11.1394191"><ele>79.0</ele><time>2026-04-04T07:43:06.247Z</time></trkpt><trkpt lat="42.3811993" lon="11.1395363"><ele>79.0</ele><time>2026-04-04T07:43:09.247Z</time></trkpt><trkpt lat="42.381197" lon="11.1396432"><ele>79.0</ele><time>2026-04-04T07:43:10.244Z</time></trkpt><trkpt lat="42.3811476" lon="11.1397729"><ele>75.5</ele><time>2026-04-04T07:43:11.249Z</time></trkpt><trkpt lat="42.381092" lon="11.1399092"><ele>72.0</ele><time>2026-04-04T07:43:12.247Z</time></trkpt><trkpt lat="42.3810282" lon="11.1400561"><ele>68.5</ele><time>2026-04-04T07:43:13.254Z</time></trkpt><trkpt lat="42.3809592" lon="11.1401947"><ele>65.0</ele><time>2026-04-04T07:43:14.245Z</time></trkpt><trkpt lat="42.3808914" lon="11.1403032"><ele>65.0</ele><time>2026-04-04T07:43:15.25Z</time></trkpt><trkpt lat="42.3808367" lon="11.1403893"><ele>65.0</ele><time>2026-04-04T07:43:16.248Z</time></trkpt><trkpt lat="42.3807752" lon="11.140472"><ele>65.0</ele><time>2026-04-04T07:43:17.252Z</time></trkpt><trkpt lat="42.3807149" lon="11.1405324"><ele>65.0</ele><time>2026-04-04T07:43:18.243Z</time></trkpt><trkpt lat="42.3806618" lon="11.140592"><ele>65.0</ele><time>2026-04-04T07:43:20.249Z</time></trkpt><trkpt lat="42.3807015" lon="11.1406628"><ele>65.0</ele><time>2026-04-04T07:43:23.253Z</time></trkpt><trkpt lat="42.3808156" lon="11.1406748"><ele>62.00000000000001</ele><time>2026-04-04T07:43:25.251Z</time></trkpt><trkpt lat="42.3808918" lon="11.1407424"><ele>59.0</ele><time>2026-04-04T07:43:27.249Z</time></trkpt><trkpt lat="42.3808969" lon="11.1408356"><ele>56.0</ele><time>2026-04-04T07:43:33.262Z</time></trkpt><trkpt lat="42.3809592" lon="11.1408959"><ele>53.0</ele><time>2026-04-04T07:43:36.25Z</time></trkpt><trkpt lat="42.3810273" lon="11.1409399"><ele>50.0</ele><time>2026-04-04T07:43:37.247Z</time></trkpt><trkpt lat="42.3810926" lon="11.1409938"><ele>47.0</ele><time>2026-04-04T07:43:38.26Z</time></trkpt><trkpt lat="42.381155" lon="11.1410571"><ele>47.0</ele><time>2026-04-04T07:43:40.247Z</time></trkpt><trkpt lat="42.3812401" lon="11.14109"><ele>47.0</ele><time>2026-04-04T07:48:21.253Z</time></trkpt><trkpt lat="42.3813218" lon="11.141133"><ele>47.0</ele><time>2026-04-04T07:48:22.252Z</time></trkpt><trkpt lat="42.3814136" lon="11.1411617"><ele>47.0</ele><time>2026-04-04T07:48:23.245Z</time></trkpt><trkpt lat="42.3815195" lon="11.1411866"><ele>47.0</ele><time>2026-04-04T07:48:24.251Z</time></trkpt><trkpt lat="42.3816285" lon="11.1412136"><ele>49.0</ele><time>2026-04-04T07:48:25.24Z</time></trkpt><trkpt lat="42.3817326" lon="11.1412504"><ele>51.0</ele><time>2026-04-04T07:48:26.243Z</time></trkpt><trkpt lat="42.381823" lon="11.1412944"><ele>53.0</ele><time>2026-04-04T07:48:27.246Z</time></trkpt><trkpt lat="42.3819203" lon="11.14136"><ele>55.0</ele><time>2026-04-04T07:48:28.25Z</time></trkpt><trkpt lat="42.3820125" lon="11.1414404"><ele>57.0</ele><time>2026-04-04T07:48:29.241Z</time></trkpt><trkpt lat="42.3821072" lon="11.1415271"><ele>57.8</ele><time>2026-04-04T07:48:30.245Z</time></trkpt><trkpt lat="42.3822049" lon="11.1416467"><ele>58.6</ele><time>2026-04-04T07:48:31.248Z</time></trkpt><trkpt lat="42.3822926" lon="11.1417559"><ele>59.39999999999999</ele><time>2026-04-04T07:48:32.253Z</time></trkpt><trkpt lat="42.3823593" lon="11.1418612"><ele>60.199999999999996</ele><time>2026-04-04T07:48:33.255Z</time></trkpt><trkpt lat="42.3824201" lon="11.1419549"><ele>61.0</ele><time>2026-04-04T07:48:34.243Z</time></trkpt><trkpt lat="42.3824769" lon="11.1420476"><ele>60.99999999999999</ele><time>2026-04-04T07:48:35.247Z</time></trkpt><trkpt lat="42.382538" lon="11.1421336"><ele>61.0</ele><time>2026-04-04T07:48:36.243Z</time></trkpt><trkpt lat="42.3826053" lon="11.1422075"><ele>61.0</ele><time>2026-04-04T07:48:37.24Z</time></trkpt><trkpt lat="42.3826838" lon="11.1422669"><ele>61.0</ele><time>2026-04-04T07:48:38.244Z</time></trkpt><trkpt lat="42.3827625" lon="11.1423031"><ele>60.99999999999999</ele><time>2026-04-04T07:48:39.248Z</time></trkpt><trkpt lat="42.3828483" lon="11.1423267"><ele>61.0</ele><time>2026-04-04T07:48:40.249Z</time></trkpt><trkpt lat="42.3829406" lon="11.1423303"><ele>63.199999999999996</ele><time>2026-04-04T07:48:41.237Z</time></trkpt><trkpt lat="42.3830358" lon="11.1423055"><ele>65.39999999999999</ele><time>2026-04-04T07:48:42.248Z</time></trkpt><trkpt lat="42.3831271" lon="11.1422633"><ele>67.6</ele><time>2026-04-04T07:48:43.236Z</time></trkpt><trkpt lat="42.3832193" lon="11.1422112"><ele>69.8</ele><time>2026-04-04T07:48:44.247Z</time></trkpt><trkpt lat="42.3833179" lon="11.1421547"><ele>72.0</ele><time>2026-04-04T07:48:45.242Z</time></trkpt><trkpt lat="42.3834102" lon="11.1421024"><ele>72.0</ele><time>2026-04-04T07:48:46.242Z</time></trkpt><trkpt lat="42.3835137" lon="11.1420419"><ele>72.0</ele><time>2026-04-04T07:48:47.245Z</time></trkpt><trkpt lat="42.3836124" lon="11.1419832"><ele>72.0</ele><time>2026-04-04T07:48:48.243Z</time></trkpt><trkpt lat="42.383723" lon="11.1419465"><ele>72.0</ele><time>2026-04-04T07:48:49.244Z</time></trkpt><trkpt lat="42.3838418" lon="11.1419371"><ele>70.4</ele><time>2026-04-04T07:48:50.247Z</time></trkpt><trkpt lat="42.3839579" lon="11.1419522"><ele>68.80000000000001</ele><time>2026-04-04T07:48:51.239Z</time></trkpt><trkpt lat="42.3840717" lon="11.1419549"><ele>67.2</ele><time>2026-04-04T07:48:52.239Z</time></trkpt><trkpt lat="42.3841726" lon="11.1419439"><ele>65.60000000000001</ele><time>2026-04-04T07:48:53.24Z</time></trkpt><trkpt lat="42.3842723" lon="11.1419143"><ele>64.0</ele><time>2026-04-04T07:48:54.241Z</time></trkpt><trkpt lat="42.3843767" lon="11.141875"><ele>64.0</ele><time>2026-04-04T07:48:55.244Z</time></trkpt><trkpt lat="42.3844739" lon="11.1418307"><ele>64.0</ele><time>2026-04-04T07:48:56.246Z</time></trkpt><trkpt lat="42.3845743" lon="11.1417921"><ele>64.0</ele><time>2026-04-04T07:48:57.245Z</time></trkpt><trkpt lat="42.3846789" lon="11.1417667"><ele>64.0</ele><time>2026-04-04T07:48:58.245Z</time></trkpt><trkpt lat="42.3847909" lon="11.1417357"><ele>64.0</ele><time>2026-04-04T07:48:59.243Z</time></trkpt><trkpt lat="42.3849006" lon="11.1417288"><ele>63.800000000000004</ele><time>2026-04-04T07:49:00.248Z</time></trkpt><trkpt lat="42.3850038" lon="11.1417358"><ele>63.60000000000001</ele><time>2026-04-04T07:49:01.241Z</time></trkpt><trkpt lat="42.3851038" lon="11.1417621"><ele>63.4</ele><time>2026-04-04T07:49:02.238Z</time></trkpt><trkpt lat="42.3852081" lon="11.1418036"><ele>63.2</ele><time>2026-04-04T07:49:03.243Z</time></trkpt><trkpt lat="42.3853192" lon="11.1418547"><ele>63.0</ele><time>2026-04-04T07:49:04.254Z</time></trkpt><trkpt lat="42.3854201" lon="11.1419027"><ele>65.8</ele><time>2026-04-04T07:49:05.248Z</time></trkpt><trkpt lat="42.3855196" lon="11.14194"><ele>68.6</ele><time>2026-04-04T07:49:06.251Z</time></trkpt><trkpt lat="42.3856109" lon="11.141993"><ele>71.4</ele><time>2026-04-04T07:49:07.24Z</time></trkpt><trkpt lat="42.3856869" lon="11.1420431"><ele>74.2</ele><time>2026-04-04T07:49:08.239Z</time></trkpt><trkpt lat="42.3857614" lon="11.1420944"><ele>77.0</ele><time>2026-04-04T07:49:09.238Z</time></trkpt><trkpt lat="42.3858177" lon="11.1421701"><ele>77.0</ele><time>2026-04-04T07:49:10.244Z</time></trkpt><trkpt lat="42.3858459" lon="11.1422583"><ele>77.0</ele><time>2026-04-04T07:49:11.238Z</time></trkpt><trkpt lat="42.3858635" lon="11.1423616"><ele>77.0</ele><time>2026-04-04T07:49:12.252Z</time></trkpt><trkpt lat="42.3858668" lon="11.142481"><ele>77.0</ele><time>2026-04-04T07:49:13.247Z</time></trkpt><trkpt lat="42.3858584" lon="11.1426151"><ele>77.0</ele><time>2026-04-04T07:49:14.245Z</time></trkpt><trkpt lat="42.3858511" lon="11.1427646"><ele>77.0</ele><time>2026-04-04T07:49:15.241Z</time></trkpt><trkpt lat="42.3858491" lon="11.1429157"><ele>76.0</ele><time>2026-04-04T07:49:16.246Z</time></trkpt><trkpt lat="42.3858648" lon="11.1430647"><ele>75.0</ele><time>2026-04-04T07:49:17.247Z</time></trkpt><trkpt lat="42.3858938" lon="11.1432011"><ele>74.0</ele><time>2026-04-04T07:49:18.242Z</time></trkpt><trkpt lat="42.3859348" lon="11.1433367"><ele>73.0</ele><time>2026-04-04T07:49:19.241Z</time></trkpt><trkpt lat="42.3859872" lon="11.1434647"><ele>72.0</ele><time>2026-04-04T07:49:20.242Z</time></trkpt><trkpt lat="42.3860447" lon="11.14359"><ele>72.0</ele><time>2026-04-04T07:49:21.239Z</time></trkpt><trkpt lat="42.3861112" lon="11.1437048"><ele>72.0</ele><time>2026-04-04T07:49:22.261Z</time></trkpt><trkpt lat="42.3861701" lon="11.1438241"><ele>72.0</ele><time>2026-04-04T07:49:23.254Z</time></trkpt><trkpt lat="42.3862277" lon="11.1439527"><ele>72.0</ele><time>2026-04-04T07:49:24.245Z</time></trkpt><trkpt lat="42.3862713" lon="11.1440791"><ele>72.0</ele><time>2026-04-04T07:49:25.259Z</time></trkpt><trkpt lat="42.3863238" lon="11.1442032"><ele>73.16666666666667</ele><time>2026-04-04T07:49:26.252Z</time></trkpt><trkpt lat="42.3863739" lon="11.1443183"><ele>74.33333333333333</ele><time>2026-04-04T07:49:27.257Z</time></trkpt><trkpt lat="42.3864147" lon="11.1444184"><ele>75.5</ele><time>2026-04-04T07:49:28.247Z</time></trkpt><trkpt lat="42.3864397" lon="11.1445236"><ele>76.66666666666666</ele><time>2026-04-04T07:49:29.241Z</time></trkpt><trkpt lat="42.3864446" lon="11.1446434"><ele>77.83333333333333</ele><time>2026-04-04T07:49:30.244Z</time></trkpt><trkpt lat="42.3864215" lon="11.1447571"><ele>79.0</ele><time>2026-04-04T07:49:31.249Z</time></trkpt><trkpt lat="42.3863829" lon="11.1448728"><ele>80.0</ele><time>2026-04-04T07:49:32.241Z</time></trkpt><trkpt lat="42.3863544" lon="11.144988"><ele>81.0</ele><time>2026-04-04T07:49:33.248Z</time></trkpt><trkpt lat="42.3863369" lon="11.1450746"><ele>82.0</ele><time>2026-04-04T07:49:34.245Z</time></trkpt><trkpt lat="42.3863225" lon="11.1451803"><ele>83.0</ele><time>2026-04-04T07:49:36.246Z</time></trkpt><trkpt lat="42.3863459" lon="11.1452674"><ele>84.0</ele><time>2026-04-04T07:49:39.251Z</time></trkpt><trkpt lat="42.3864058" lon="11.1453113"><ele>85.0</ele><time>2026-04-04T07:50:43.25Z</time></trkpt><trkpt lat="42.3864946" lon="11.1453836"><ele>85.0</ele><time>2026-04-04T07:50:45.242Z</time></trkpt><trkpt lat="42.3865865" lon="11.1455125"><ele>85.0</ele><time>2026-04-04T07:50:47.245Z</time></trkpt><trkpt lat="42.3866447" lon="11.1455904"><ele>85.0</ele><time>2026-04-04T07:50:48.24Z</time></trkpt><trkpt lat="42.3866969" lon="11.1456706"><ele>85.0</ele><time>2026-04-04T07:50:49.25Z</time></trkpt><trkpt lat="42.386733" lon="11.1457529"><ele>85.0</ele><time>2026-04-04T07:50:50.244Z</time></trkpt><trkpt lat="42.3867642" lon="11.1458513"><ele>85.0</ele><time>2026-04-04T07:50:51.245Z</time></trkpt><trkpt lat="42.3867907" lon="11.1459476"><ele>87.8</ele><time>2026-04-04T07:50:52.244Z</time></trkpt><trkpt lat="42.3868221" lon="11.1460311"><ele>90.6</ele><time>2026-04-04T07:50:53.244Z</time></trkpt><trkpt lat="42.3868526" lon="11.14611"><ele>93.4</ele><time>2026-04-04T07:50:54.247Z</time></trkpt><trkpt lat="42.3868846" lon="11.1462476"><ele>96.2</ele><time>2026-04-04T07:50:56.239Z</time></trkpt><trkpt lat="42.3868896" lon="11.146387"><ele>99.0</ele><time>2026-04-04T07:50:58.248Z</time></trkpt><trkpt lat="42.3868929" lon="11.1465901"><ele>102.4</ele><time>2026-04-04T07:51:01.244Z</time></trkpt><trkpt lat="42.3869168" lon="11.1467737"><ele>105.80000000000001</ele><time>2026-04-04T07:51:03.249Z</time></trkpt><trkpt lat="42.3869381" lon="11.1469072"><ele>109.19999999999999</ele><time>2026-04-04T07:51:04.239Z</time></trkpt><trkpt lat="42.3869685" lon="11.1470287"><ele>112.6</ele><time>2026-04-04T07:51:05.25Z</time></trkpt><trkpt lat="42.3869938" lon="11.1471416"><ele>116.0</ele><time>2026-04-04T07:51:06.241Z</time></trkpt><trkpt lat="42.3870248" lon="11.1472416"><ele>115.99999999999999</ele><time>2026-04-04T07:51:07.25Z</time></trkpt><trkpt lat="42.3870587" lon="11.1473416"><ele>116.0</ele><time>2026-04-04T07:51:08.242Z</time></trkpt><trkpt lat="42.3870928" lon="11.1474157"><ele>116.0</ele><time>2026-04-04T07:51:09.249Z</time></trkpt><trkpt lat="42.3871384" lon="11.1474949"><ele>116.0</ele><time>2026-04-04T07:51:12.256Z</time></trkpt><trkpt lat="42.3870944" lon="11.1475943"><ele>115.99999999999999</ele><time>2026-04-04T07:51:33.243Z</time></trkpt><trkpt lat="42.3870069" lon="11.1476089"><ele>116.0</ele><time>2026-04-04T07:51:35.244Z</time></trkpt><trkpt lat="42.3869043" lon="11.1476106"><ele>117.49999999999999</ele><time>2026-04-04T07:51:37.246Z</time></trkpt><trkpt lat="42.386803" lon="11.1476301"><ele>119.0</ele><time>2026-04-04T07:51:39.248Z</time></trkpt><trkpt lat="42.3866747" lon="11.1476506"><ele>120.5</ele><time>2026-04-04T07:51:41.243Z</time></trkpt><trkpt lat="42.3866074" lon="11.147669"><ele>122.0</ele><time>2026-04-04T07:51:42.251Z</time></trkpt><trkpt lat="42.3865397" lon="11.1476875"><ele>123.49999999999999</ele><time>2026-04-04T07:51:43.244Z</time></trkpt><trkpt lat="42.3864603" lon="11.1476889"><ele>125.0</ele><time>2026-04-04T07:51:45.246Z</time></trkpt><trkpt lat="42.3863806" lon="11.1477257"><ele>124.99999999999999</ele><time>2026-04-04T07:51:48.243Z</time></trkpt><trkpt lat="42.3863642" lon="11.1478143"><ele>125.0</ele><time>2026-04-04T07:51:51.244Z</time></trkpt><trkpt lat="42.3862973" lon="11.1479228"><ele>125.0</ele><time>2026-04-04T07:51:54.245Z</time></trkpt><trkpt lat="42.3862672" lon="11.1480003"><ele>125.0</ele><time>2026-04-04T07:51:56.24Z</time></trkpt><trkpt lat="42.3862536" lon="11.1481089"><ele>124.99999999999999</ele><time>2026-04-04T07:51:58.249Z</time></trkpt><trkpt lat="42.3862347" lon="11.148237"><ele>125.0</ele><time>2026-04-04T07:52:00.245Z</time></trkpt><trkpt lat="42.3862124" lon="11.1483289"><ele>131.5</ele><time>2026-04-04T07:52:02.247Z</time></trkpt><trkpt lat="42.3861857" lon="11.1484496"><ele>138.0</ele><time>2026-04-04T07:52:05.247Z</time></trkpt><trkpt lat="42.3861874" lon="11.1485555"><ele>144.5</ele><time>2026-04-04T07:52:07.245Z</time></trkpt><trkpt lat="42.3861959" lon="11.1486741"><ele>151.0</ele><time>2026-04-04T07:52:09.242Z</time></trkpt><trkpt lat="42.3862016" lon="11.1487745"><ele>157.5</ele><time>2026-04-04T07:52:11.245Z</time></trkpt><trkpt lat="42.3862076" lon="11.1489052"><ele>164.0</ele><time>2026-04-04T07:52:14.25Z</time></trkpt><trkpt lat="42.3862297" lon="11.1489912"><ele>165.42857142857142</ele><time>2026-04-04T07:52:18.249Z</time></trkpt><trkpt lat="42.3862848" lon="11.1490547"><ele>166.85714285714286</ele><time>2026-04-04T07:52:44.248Z</time></trkpt><trkpt lat="42.3863087" lon="11.1491399"><ele>168.28571428571428</ele><time>2026-04-04T07:52:57.241Z</time></trkpt><trkpt lat="42.3863415" lon="11.1492229"><ele>169.71428571428572</ele><time>2026-04-04T07:53:01.239Z</time></trkpt><trkpt lat="42.3863511" lon="11.1493331"><ele>171.14285714285714</ele><time>2026-04-04T07:53:10.25Z</time></trkpt><trkpt lat="42.3863297" lon="11.1494331"><ele>172.57142857142856</ele><time>2026-04-04T07:53:12.236Z</time></trkpt><trkpt lat="42.3863049" lon="11.1495182"><ele>174.0</ele><time>2026-04-04T07:53:14.247Z</time></trkpt><trkpt lat="42.3862581" lon="11.149609"><ele>174.0</ele><time>2026-04-04T07:53:17.248Z</time></trkpt><trkpt lat="42.3862238" lon="11.1496854"><ele>174.0</ele><time>2026-04-04T07:53:19.241Z</time></trkpt><trkpt lat="42.3861945" lon="11.1497619"><ele>174.0</ele><time>2026-04-04T07:53:22.246Z</time></trkpt><trkpt lat="42.386163" lon="11.1498704"><ele>174.0</ele><time>2026-04-04T07:53:27.247Z</time></trkpt><trkpt lat="42.3861206" lon="11.1499343"><ele>174.0</ele><time>2026-04-04T07:53:30.24Z</time></trkpt><trkpt lat="42.3860719" lon="11.1498399"><ele>174.0</ele><time>2026-04-04T07:53:59.245Z</time></trkpt><trkpt lat="42.3860987" lon="11.1499304"><ele>174.0</ele><time>2026-04-04T07:55:18.243Z</time></trkpt><trkpt lat="42.3861656" lon="11.14989"><ele>174.0</ele><time>2026-04-04T07:55:39.251Z</time></trkpt><trkpt lat="42.3862057" lon="11.1497955"><ele>174.0</ele><time>2026-04-04T07:55:42.248Z</time></trkpt><trkpt lat="42.3862242" lon="11.149709"><ele>174.0</ele><time>2026-04-04T07:55:48.247Z</time></trkpt><trkpt lat="42.386256" lon="11.1496242"><ele>174.0</ele><time>2026-04-04T07:55:51.247Z</time></trkpt><trkpt lat="42.3862992" lon="11.1495328"><ele>174.0</ele><time>2026-04-04T07:55:54.244Z</time></trkpt><trkpt lat="42.3863192" lon="11.1494518"><ele>174.0</ele><time>2026-04-04T07:55:58.244Z</time></trkpt><trkpt lat="42.3863472" lon="11.1493618"><ele>174.0</ele><time>2026-04-04T07:56:01.242Z</time></trkpt><trkpt lat="42.3863434" lon="11.1492737"><ele>174.0</ele><time>2026-04-04T07:56:04.257Z</time></trkpt><trkpt lat="42.3863133" lon="11.1491955"><ele>174.0</ele><time>2026-04-04T07:56:09.245Z</time></trkpt><trkpt lat="42.3862857" lon="11.14911"><ele>174.0</ele><time>2026-04-04T07:56:14.246Z</time></trkpt><trkpt lat="42.3862487" lon="11.1490266"><ele>174.0</ele><time>2026-04-04T07:56:20.25Z</time></trkpt><trkpt lat="42.3862126" lon="11.1489459"><ele>174.0</ele><time>2026-04-04T07:56:23.248Z</time></trkpt><trkpt lat="42.3861913" lon="11.1488498"><ele>174.0</ele><time>2026-04-04T07:56:29.243Z</time></trkpt><trkpt lat="42.3861493" lon="11.1487723"><ele>174.0</ele><time>2026-04-04T07:56:32.252Z</time></trkpt><trkpt lat="42.3861032" lon="11.1486859"><ele>172.0</ele><time>2026-04-04T07:56:35.241Z</time></trkpt><trkpt lat="42.3860755" lon="11.1485989"><ele>170.0</ele><time>2026-04-04T07:56:37.245Z</time></trkpt><trkpt lat="42.3860305" lon="11.1484744"><ele>168.0</ele><time>2026-04-04T07:56:39.249Z</time></trkpt><trkpt lat="42.3859753" lon="11.1483413"><ele>166.0</ele><time>2026-04-04T07:56:41.246Z</time></trkpt><trkpt lat="42.3859048" lon="11.1482278"><ele>164.0</ele><time>2026-04-04T07:56:43.254Z</time></trkpt><trkpt lat="42.3858054" lon="11.1480941"><ele>162.7142857142857</ele><time>2026-04-04T07:56:45.245Z</time></trkpt><trkpt lat="42.3857529" lon="11.1480263"><ele>161.42857142857142</ele><time>2026-04-04T07:56:46.246Z</time></trkpt><trkpt lat="42.385687" lon="11.1479395"><ele>160.14285714285714</ele><time>2026-04-04T07:56:48.245Z</time></trkpt><trkpt lat="42.3856257" lon="11.1478903"><ele>158.85714285714283</ele><time>2026-04-04T07:56:51.243Z</time></trkpt><trkpt lat="42.3855561" lon="11.1478853"><ele>157.57142857142856</ele><time>2026-04-04T07:56:55.248Z</time></trkpt><trkpt lat="42.385479" lon="11.1478614"><ele>156.28571428571428</ele><time>2026-04-04T07:56:58.244Z</time></trkpt><trkpt lat="42.3854154" lon="11.1478699"><ele>155.0</ele><time>2026-04-04T07:57:00.247Z</time></trkpt><trkpt lat="42.3853521" lon="11.1479026"><ele>160.33333333333331</ele><time>2026-04-04T07:57:03.246Z</time></trkpt><trkpt lat="42.3853354" lon="11.1479856"><ele>165.66666666666666</ele><time>2026-04-04T07:57:05.244Z</time></trkpt><trkpt lat="42.3853176" lon="11.1480982"><ele>171.0</ele><time>2026-04-04T07:57:07.245Z</time></trkpt><trkpt lat="42.3852971" lon="11.1482149"><ele>176.33333333333334</ele><time>2026-04-04T07:57:09.249Z</time></trkpt><trkpt lat="42.385282" lon="11.1483453"><ele>181.66666666666669</ele><time>2026-04-04T07:57:11.24Z</time></trkpt><trkpt lat="42.3852761" lon="11.1484355"><ele>187.0</ele><time>2026-04-04T07:57:12.263Z</time></trkpt><trkpt lat="42.3852661" lon="11.1485487"><ele>187.83333333333334</ele><time>2026-04-04T07:57:13.248Z</time></trkpt><trkpt lat="42.3852667" lon="11.1486411"><ele>188.66666666666669</ele><time>2026-04-04T07:57:14.241Z</time></trkpt><trkpt lat="42.3852745" lon="11.1487627"><ele>189.5</ele><time>2026-04-04T07:57:16.256Z</time></trkpt><trkpt lat="42.3852779" lon="11.1489124"><ele>190.33333333333334</ele><time>2026-04-04T07:57:18.253Z</time></trkpt><trkpt lat="42.3852573" lon="11.1490411"><ele>191.16666666666666</ele><time>2026-04-04T07:57:20.249Z</time></trkpt><trkpt lat="42.3852447" lon="11.1491266"><ele>192.0</ele><time>2026-04-04T07:57:21.254Z</time></trkpt><trkpt lat="42.3852203" lon="11.1492976"><ele>193.8</ele><time>2026-04-04T07:57:23.254Z</time></trkpt><trkpt lat="42.3852128" lon="11.1494572"><ele>195.6</ele><time>2026-04-04T07:57:25.246Z</time></trkpt><trkpt lat="42.3851962" lon="11.1495848"><ele>197.4</ele><time>2026-04-04T07:57:27.249Z</time></trkpt><trkpt lat="42.3852048" lon="11.1497323"><ele>199.20000000000002</ele><time>2026-04-04T07:57:29.243Z</time></trkpt><trkpt lat="42.3852296" lon="11.1498674"><ele>201.0</ele><time>2026-04-04T07:57:31.247Z</time></trkpt><trkpt lat="42.3852602" lon="11.1499907"><ele>202.60000000000002</ele><time>2026-04-04T07:57:33.252Z</time></trkpt><trkpt lat="42.3853093" lon="11.1501296"><ele>204.2</ele><time>2026-04-04T07:57:35.243Z</time></trkpt><trkpt lat="42.3853622" lon="11.150258"><ele>205.8</ele><time>2026-04-04T07:57:37.247Z</time></trkpt><trkpt lat="42.3853636" lon="11.1503849"><ele>207.39999999999998</ele><time>2026-04-04T07:57:39.25Z</time></trkpt><trkpt lat="42.385311" lon="11.150468"><ele>209.0</ele><time>2026-04-04T07:57:41.24Z</time></trkpt><trkpt lat="42.3852269" lon="11.1505467"><ele>209.0</ele><time>2026-04-04T07:57:43.253Z</time></trkpt><trkpt lat="42.3851748" lon="11.1506167"><ele>209.0</ele><time>2026-04-04T07:57:46.252Z</time></trkpt><trkpt lat="42.3851128" lon="11.1506941"><ele>209.0</ele><time>2026-04-04T07:57:49.249Z</time></trkpt><trkpt lat="42.3850605" lon="11.1508156"><ele>209.0</ele><time>2026-04-04T07:57:51.244Z</time></trkpt><trkpt lat="42.3849734" lon="11.1509108"><ele>209.0</ele><time>2026-04-04T07:57:53.247Z</time></trkpt><trkpt lat="42.3848966" lon="11.1510312"><ele>210.39999999999998</ele><time>2026-04-04T07:57:55.255Z</time></trkpt><trkpt lat="42.3848237" lon="11.1511281"><ele>211.8</ele><time>2026-04-04T07:57:57.244Z</time></trkpt><trkpt lat="42.3847572" lon="11.1511827"><ele>213.20000000000002</ele><time>2026-04-04T07:57:59.245Z</time></trkpt><trkpt lat="42.3846971" lon="11.1512579"><ele>214.60000000000002</ele><time>2026-04-04T07:58:01.246Z</time></trkpt><trkpt lat="42.3846059" lon="11.1513447"><ele>216.0</ele><time>2026-04-04T07:58:03.237Z</time></trkpt><trkpt lat="42.3845329" lon="11.1514181"><ele>216.0</ele><time>2026-04-04T07:58:05.244Z</time></trkpt><trkpt lat="42.3844728" lon="11.1514561"><ele>216.00000000000003</ele><time>2026-04-04T07:58:07.256Z</time></trkpt><trkpt lat="42.3844004" lon="11.1514744"><ele>216.00000000000003</ele><time>2026-04-04T07:58:09.245Z</time></trkpt><trkpt lat="42.38427" lon="11.1514698"><ele>216.0</ele><time>2026-04-04T07:58:11.248Z</time></trkpt><trkpt lat="42.3841691" lon="11.1514875"><ele>216.0</ele><time>2026-04-04T07:58:13.253Z</time></trkpt><trkpt lat="42.3840747" lon="11.1515441"><ele>212.8</ele><time>2026-04-04T07:58:15.248Z</time></trkpt><trkpt lat="42.3840022" lon="11.1516555"><ele>209.60000000000002</ele><time>2026-04-04T07:58:17.247Z</time></trkpt><trkpt lat="42.3839454" lon="11.1518234"><ele>206.4</ele><time>2026-04-04T07:58:19.245Z</time></trkpt><trkpt lat="42.3839167" lon="11.1519032"><ele>203.2</ele><time>2026-04-04T07:58:20.247Z</time></trkpt><trkpt lat="42.3838743" lon="11.1520238"><ele>200.0</ele><time>2026-04-04T07:58:22.242Z</time></trkpt><trkpt lat="42.3838319" lon="11.1521459"><ele>199.83333333333334</ele><time>2026-04-04T07:58:24.242Z</time></trkpt><trkpt lat="42.3838035" lon="11.1522234"><ele>199.66666666666669</ele><time>2026-04-04T07:58:26.245Z</time></trkpt><trkpt lat="42.3837598" lon="11.1523326"><ele>199.5</ele><time>2026-04-04T07:58:28.247Z</time></trkpt><trkpt lat="42.3837168" lon="11.1524281"><ele>199.33333333333331</ele><time>2026-04-04T07:58:29.247Z</time></trkpt><trkpt lat="42.3836687" lon="11.1525371"><ele>199.16666666666666</ele><time>2026-04-04T07:58:30.249Z</time></trkpt><trkpt lat="42.383618" lon="11.152653"><ele>199.0</ele><time>2026-04-04T07:58:31.248Z</time></trkpt><trkpt lat="42.3835729" lon="11.1527625"><ele>199.0</ele><time>2026-04-04T07:58:32.245Z</time></trkpt><trkpt lat="42.3835398" lon="11.1528662"><ele>199.0</ele><time>2026-04-04T07:58:33.241Z</time></trkpt><trkpt lat="42.3835348" lon="11.1529988"><ele>199.0</ele><time>2026-04-04T07:58:35.246Z</time></trkpt><trkpt lat="42.3835585" lon="11.1531106"><ele>199.0</ele><time>2026-04-04T07:58:37.245Z</time></trkpt><trkpt lat="42.3836162" lon="11.1532554"><ele>199.0</ele><time>2026-04-04T07:58:39.246Z</time></trkpt><trkpt lat="42.3836583" lon="11.1533227"><ele>199.6</ele><time>2026-04-04T07:58:40.253Z</time></trkpt><trkpt lat="42.3837116" lon="11.153431"><ele>200.2</ele><time>2026-04-04T07:58:42.245Z</time></trkpt><trkpt lat="42.3837402" lon="11.1535691"><ele>200.79999999999998</ele><time>2026-04-04T07:59:06.244Z</time></trkpt><trkpt lat="42.3837466" lon="11.1536636"><ele>201.39999999999998</ele><time>2026-04-04T07:59:07.245Z</time></trkpt><trkpt lat="42.3837452" lon="11.1537553"><ele>202.0</ele><time>2026-04-04T07:59:08.249Z</time></trkpt><trkpt lat="42.3837004" lon="11.1539065"><ele>202.0</ele><time>2026-04-04T07:59:10.246Z</time></trkpt><trkpt lat="42.3836576" lon="11.1539726"><ele>202.0</ele><time>2026-04-04T07:59:11.24Z</time></trkpt><trkpt lat="42.383587" lon="11.1540501"><ele>202.0</ele><time>2026-04-04T07:59:13.246Z</time></trkpt><trkpt lat="42.3835752" lon="11.154194"><ele>202.0</ele><time>2026-04-04T07:59:15.243Z</time></trkpt><trkpt lat="42.3836289" lon="11.1543661"><ele>202.0</ele><time>2026-04-04T07:59:17.245Z</time></trkpt><trkpt lat="42.3836699" lon="11.1544787"><ele>202.66666666666666</ele><time>2026-04-04T07:59:18.252Z</time></trkpt><trkpt lat="42.3837072" lon="11.1545799"><ele>203.33333333333331</ele><time>2026-04-04T07:59:19.242Z</time></trkpt><trkpt lat="42.3837413" lon="11.1546626"><ele>204.0</ele><time>2026-04-04T07:59:20.246Z</time></trkpt><trkpt lat="42.3837778" lon="11.1547378"><ele>204.66666666666669</ele><time>2026-04-04T07:59:21.244Z</time></trkpt><trkpt lat="42.3838228" lon="11.1548156"><ele>205.33333333333334</ele><time>2026-04-04T07:59:22.243Z</time></trkpt><trkpt lat="42.383875" lon="11.1548957"><ele>206.0</ele><time>2026-04-04T07:59:23.246Z</time></trkpt><trkpt lat="42.3839258" lon="11.1549842"><ele>210.00000000000003</ele><time>2026-04-04T07:59:24.249Z</time></trkpt><trkpt lat="42.3839698" lon="11.1550779"><ele>214.0</ele><time>2026-04-04T07:59:25.243Z</time></trkpt><trkpt lat="42.384007" lon="11.1551505"><ele>218.0</ele><time>2026-04-04T07:59:26.243Z</time></trkpt><trkpt lat="42.3840515" lon="11.1552925"><ele>222.0</ele><time>2026-04-04T07:59:28.262Z</time></trkpt><trkpt lat="42.3840672" lon="11.1553821"><ele>226.00000000000003</ele><time>2026-04-04T07:59:29.241Z</time></trkpt><trkpt lat="42.3840705" lon="11.1554839"><ele>230.0</ele><time>2026-04-04T07:59:30.247Z</time></trkpt><trkpt lat="42.3840696" lon="11.1555938"><ele>229.99999999999997</ele><time>2026-04-04T07:59:31.239Z</time></trkpt><trkpt lat="42.3840788" lon="11.155695"><ele>230.0</ele><time>2026-04-04T07:59:32.247Z</time></trkpt><trkpt lat="42.3840942" lon="11.1557878"><ele>229.99999999999997</ele><time>2026-04-04T07:59:33.261Z</time></trkpt><trkpt lat="42.3841079" lon="11.1558743"><ele>229.99999999999997</ele><time>2026-04-04T07:59:34.247Z</time></trkpt><trkpt lat="42.3841324" lon="11.1559583"><ele>230.0</ele><time>2026-04-04T07:59:35.242Z</time></trkpt><trkpt lat="42.3841613" lon="11.1560401"><ele>229.99999999999997</ele><time>2026-04-04T07:59:36.243Z</time></trkpt><trkpt lat="42.3841804" lon="11.1561645"><ele>229.99999999999997</ele><time>2026-04-04T07:59:38.24Z</time></trkpt><trkpt lat="42.3841058" lon="11.1562794"><ele>228.7142857142857</ele><time>2026-04-04T07:59:40.242Z</time></trkpt><trkpt lat="42.3840489" lon="11.1563221"><ele>227.42857142857142</ele><time>2026-04-04T07:59:41.248Z</time></trkpt><trkpt lat="42.3839827" lon="11.1563633"><ele>226.14285714285714</ele><time>2026-04-04T07:59:42.244Z</time></trkpt><trkpt lat="42.3839175" lon="11.1564054"><ele>224.85714285714283</ele><time>2026-04-04T07:59:43.242Z</time></trkpt><trkpt lat="42.383854" lon="11.1564539"><ele>223.57142857142856</ele><time>2026-04-04T07:59:44.248Z</time></trkpt><trkpt lat="42.3837842" lon="11.1565031"><ele>222.2857142857143</ele><time>2026-04-04T07:59:45.249Z</time></trkpt><trkpt lat="42.3837203" lon="11.1565471"><ele>221.0</ele><time>2026-04-04T07:59:46.248Z</time></trkpt><trkpt lat="42.3836586" lon="11.156589"><ele>220.2857142857143</ele><time>2026-04-04T07:59:47.247Z</time></trkpt><trkpt lat="42.3835905" lon="11.1566253"><ele>219.57142857142858</ele><time>2026-04-04T07:59:48.244Z</time></trkpt><trkpt lat="42.3835149" lon="11.1566557"><ele>218.85714285714286</ele><time>2026-04-04T07:59:49.242Z</time></trkpt><trkpt lat="42.3834423" lon="11.1566794"><ele>218.14285714285717</ele><time>2026-04-04T07:59:50.241Z</time></trkpt><trkpt lat="42.3833707" lon="11.1567127"><ele>217.42857142857142</ele><time>2026-04-04T07:59:51.251Z</time></trkpt><trkpt lat="42.3833061" lon="11.1567486"><ele>216.71428571428572</ele><time>2026-04-04T07:59:52.247Z</time></trkpt><trkpt lat="42.3832319" lon="11.1567742"><ele>216.0</ele><time>2026-04-04T07:59:53.246Z</time></trkpt><trkpt lat="42.3831515" lon="11.1568023"><ele>216.0</ele><time>2026-04-04T07:59:54.246Z</time></trkpt><trkpt lat="42.3830711" lon="11.1568231"><ele>216.0</ele><time>2026-04-04T07:59:55.248Z</time></trkpt><trkpt lat="42.3829907" lon="11.1568435"><ele>216.0</ele><time>2026-04-04T07:59:56.245Z</time></trkpt><trkpt lat="42.3829295" lon="11.156864"><ele>216.0</ele><time>2026-04-04T07:59:57.253Z</time></trkpt><trkpt lat="42.3829961" lon="11.1569331"><ele>216.0</ele><time>2026-04-04T08:00:06.248Z</time></trkpt><trkpt lat="42.3830748" lon="11.1569284"><ele>216.0</ele><time>2026-04-04T08:00:07.246Z</time></trkpt><trkpt lat="42.3831598" lon="11.1569049"><ele>216.0</ele><time>2026-04-04T08:00:08.262Z</time></trkpt><trkpt lat="42.3832232" lon="11.1568899"><ele>216.00000000000003</ele><time>2026-04-04T08:00:09.247Z</time></trkpt><trkpt lat="42.3833407" lon="11.1569144"><ele>216.00000000000003</ele><time>2026-04-04T08:00:11.255Z</time></trkpt><trkpt lat="42.383423" lon="11.1569335"><ele>216.0</ele><time>2026-04-04T08:00:12.24Z</time></trkpt><trkpt lat="42.3835186" lon="11.1569668"><ele>216.0</ele><time>2026-04-04T08:00:13.255Z</time></trkpt><trkpt lat="42.3836336" lon="11.156982"><ele>216.0</ele><time>2026-04-04T08:00:14.246Z</time></trkpt><trkpt lat="42.3837502" lon="11.1569882"><ele>216.0</ele><time>2026-04-04T08:00:15.255Z</time></trkpt><trkpt lat="42.3838657" lon="11.1569921"><ele>216.0</ele><time>2026-04-04T08:00:16.246Z</time></trkpt><trkpt lat="42.3839859" lon="11.1569765"><ele>216.0</ele><time>2026-04-04T08:00:17.252Z</time></trkpt><trkpt lat="42.3841142" lon="11.1569552"><ele>218.0</ele><time>2026-04-04T08:00:18.252Z</time></trkpt><trkpt lat="42.3842456" lon="11.1569454"><ele>220.00000000000003</ele><time>2026-04-04T08:00:19.254Z</time></trkpt><trkpt lat="42.3843486" lon="11.1569424"><ele>222.00000000000003</ele><time>2026-04-04T08:00:20.249Z</time></trkpt><trkpt lat="42.3844427" lon="11.1569541"><ele>224.0</ele><time>2026-04-04T08:00:21.242Z</time></trkpt><trkpt lat="42.3845488" lon="11.1569838"><ele>226.0</ele><time>2026-04-04T08:00:22.252Z</time></trkpt><trkpt lat="42.3846484" lon="11.1570006"><ele>227.83333333333331</ele><time>2026-04-04T08:00:23.245Z</time></trkpt><trkpt lat="42.3847302" lon="11.1569983"><ele>229.66666666666666</ele><time>2026-04-04T08:00:24.245Z</time></trkpt><trkpt lat="42.3847952" lon="11.1569707"><ele>231.5</ele><time>2026-04-04T08:00:25.264Z</time></trkpt><trkpt lat="42.3848559" lon="11.1569197"><ele>233.33333333333331</ele><time>2026-04-04T08:00:26.253Z</time></trkpt><trkpt lat="42.3849214" lon="11.1568473"><ele>235.16666666666666</ele><time>2026-04-04T08:00:27.243Z</time></trkpt><trkpt lat="42.3849895" lon="11.1568085"><ele>237.0</ele><time>2026-04-04T08:00:28.239Z</time></trkpt><trkpt lat="42.385074" lon="11.1567699"><ele>237.0</ele><time>2026-04-04T08:00:29.25Z</time></trkpt><trkpt lat="42.3851802" lon="11.15672"><ele>237.0</ele><time>2026-04-04T08:00:30.246Z</time></trkpt><trkpt lat="42.3852987" lon="11.1566608"><ele>237.0</ele><time>2026-04-04T08:00:31.245Z</time></trkpt><trkpt lat="42.3853976" lon="11.1566087"><ele>237.0</ele><time>2026-04-04T08:00:32.256Z</time></trkpt><trkpt lat="42.3854783" lon="11.1565411"><ele>237.0</ele><time>2026-04-04T08:00:33.249Z</time></trkpt><trkpt lat="42.3855496" lon="11.1564699"><ele>237.16666666666666</ele><time>2026-04-04T08:00:34.243Z</time></trkpt><trkpt lat="42.3856011" lon="11.1564181"><ele>237.33333333333331</ele><time>2026-04-04T08:00:35.245Z</time></trkpt><trkpt lat="42.3856987" lon="11.1563858"><ele>237.5</ele><time>2026-04-04T08:00:37.242Z</time></trkpt><trkpt lat="42.3857772" lon="11.156387"><ele>237.66666666666666</ele><time>2026-04-04T08:00:38.25Z</time></trkpt><trkpt lat="42.3858625" lon="11.1564144"><ele>237.83333333333331</ele><time>2026-04-04T08:00:39.243Z</time></trkpt><trkpt lat="42.3859504" lon="11.1564485"><ele>238.0</ele><time>2026-04-04T08:00:40.237Z</time></trkpt><trkpt lat="42.3860387" lon="11.1564888"><ele>239.33333333333331</ele><time>2026-04-04T08:00:41.244Z</time></trkpt><trkpt lat="42.3861251" lon="11.1565372"><ele>240.66666666666666</ele><time>2026-04-04T08:00:42.24Z</time></trkpt><trkpt lat="42.386212" lon="11.1565819"><ele>242.0</ele><time>2026-04-04T08:00:43.237Z</time></trkpt><trkpt lat="42.3862935" lon="11.1566118"><ele>243.33333333333331</ele><time>2026-04-04T08:00:44.24Z</time></trkpt><trkpt lat="42.3863747" lon="11.1566165"><ele>244.66666666666666</ele><time>2026-04-04T08:00:45.242Z</time></trkpt><trkpt lat="42.3864588" lon="11.1566072"><ele>246.0</ele><time>2026-04-04T08:00:46.238Z</time></trkpt><trkpt lat="42.3865408" lon="11.1566029"><ele>242.60000000000002</ele><time>2026-04-04T08:00:47.241Z</time></trkpt><trkpt lat="42.3866262" lon="11.1566184"><ele>239.20000000000002</ele><time>2026-04-04T08:00:48.238Z</time></trkpt><trkpt lat="42.3867158" lon="11.1566459"><ele>235.79999999999998</ele><time>2026-04-04T08:00:49.24Z</time></trkpt><trkpt lat="42.3868009" lon="11.1566767"><ele>232.39999999999998</ele><time>2026-04-04T08:00:50.244Z</time></trkpt><trkpt lat="42.3868956" lon="11.1567006"><ele>229.0</ele><time>2026-04-04T08:00:51.247Z</time></trkpt><trkpt lat="42.3869841" lon="11.1567068"><ele>228.99999999999997</ele><time>2026-04-04T08:00:52.237Z</time></trkpt><trkpt lat="42.3870745" lon="11.1566999"><ele>229.0</ele><time>2026-04-04T08:00:53.245Z</time></trkpt><trkpt lat="42.3871566" lon="11.1566878"><ele>229.0</ele><time>2026-04-04T08:00:54.239Z</time></trkpt><trkpt lat="42.3872232" lon="11.1566528"><ele>229.0</ele><time>2026-04-04T08:00:55.251Z</time></trkpt><trkpt lat="42.3872941" lon="11.1566057"><ele>228.99999999999997</ele><time>2026-04-04T08:00:56.248Z</time></trkpt><trkpt lat="42.3873724" lon="11.1565496"><ele>229.0</ele><time>2026-04-04T08:00:57.252Z</time></trkpt><trkpt lat="42.3874447" lon="11.1564881"><ele>223.49999999999997</ele><time>2026-04-04T08:00:58.25Z</time></trkpt><trkpt lat="42.3875171" lon="11.1564399"><ele>218.0</ele><time>2026-04-04T08:00:59.247Z</time></trkpt><trkpt lat="42.3875921" lon="11.1563959"><ele>212.5</ele><time>2026-04-04T08:01:00.247Z</time></trkpt><trkpt lat="42.3876707" lon="11.1563768"><ele>207.0</ele><time>2026-04-04T08:01:01.249Z</time></trkpt><trkpt lat="42.3877531" lon="11.156378"><ele>201.49999999999997</ele><time>2026-04-04T08:01:02.241Z</time></trkpt><trkpt lat="42.3878385" lon="11.1563902"><ele>196.0</ele><time>2026-04-04T08:01:03.249Z</time></trkpt><trkpt lat="42.387924" lon="11.1563947"><ele>195.99999999999997</ele><time>2026-04-04T08:01:04.248Z</time></trkpt><trkpt lat="42.3879962" lon="11.1564162"><ele>196.0</ele><time>2026-04-04T08:01:05.241Z</time></trkpt><trkpt lat="42.3880712" lon="11.1564395"><ele>196.0</ele><time>2026-04-04T08:01:06.246Z</time></trkpt><trkpt lat="42.3881425" lon="11.1564599"><ele>196.0</ele><time>2026-04-04T08:01:07.244Z</time></trkpt><trkpt lat="42.3882133" lon="11.1564905"><ele>195.99999999999997</ele><time>2026-04-04T08:01:08.248Z</time></trkpt><trkpt lat="42.3882884" lon="11.1565236"><ele>196.0</ele><time>2026-04-04T08:01:09.246Z</time></trkpt><trkpt lat="42.3883709" lon="11.1565554"><ele>199.20000000000002</ele><time>2026-04-04T08:01:10.248Z</time></trkpt><trkpt lat="42.3884643" lon="11.1565941"><ele>202.4</ele><time>2026-04-04T08:01:11.252Z</time></trkpt><trkpt lat="42.3885766" lon="11.1566363"><ele>205.6</ele><time>2026-04-04T08:01:12.254Z</time></trkpt><trkpt lat="42.3886818" lon="11.1566844"><ele>208.8</ele><time>2026-04-04T08:01:13.274Z</time></trkpt><trkpt lat="42.3887711" lon="11.1567201"><ele>212.0</ele><time>2026-04-04T08:01:14.241Z</time></trkpt><trkpt lat="42.3888395" lon="11.1567495"><ele>210.50000000000003</ele><time>2026-04-04T08:01:15.24Z</time></trkpt><trkpt lat="42.3888948" lon="11.1567918"><ele>209.0</ele><time>2026-04-04T08:01:16.255Z</time></trkpt><trkpt lat="42.388973" lon="11.1568805"><ele>207.5</ele><time>2026-04-04T08:01:18.251Z</time></trkpt><trkpt lat="42.3890493" lon="11.1569069"><ele>206.0</ele><time>2026-04-04T08:01:20.243Z</time></trkpt><trkpt lat="42.3891151" lon="11.1568371"><ele>204.50000000000003</ele><time>2026-04-04T08:01:23.244Z</time></trkpt><trkpt lat="42.3891809" lon="11.1567534"><ele>203.0</ele><time>2026-04-04T08:01:26.241Z</time></trkpt><trkpt lat="42.3892836" lon="11.1567"><ele>203.00000000000003</ele><time>2026-04-04T08:01:28.239Z</time></trkpt><trkpt lat="42.3893613" lon="11.1566727"><ele>203.0</ele><time>2026-04-04T08:01:29.239Z</time></trkpt><trkpt lat="42.3894412" lon="11.1566542"><ele>203.0</ele><time>2026-04-04T08:01:30.248Z</time></trkpt><trkpt lat="42.3895239" lon="11.1566285"><ele>203.0</ele><time>2026-04-04T08:01:31.244Z</time></trkpt><trkpt lat="42.3895874" lon="11.1565884"><ele>203.00000000000003</ele><time>2026-04-04T08:01:32.239Z</time></trkpt><trkpt lat="42.3896367" lon="11.1565339"><ele>203.0</ele><time>2026-04-04T08:01:33.244Z</time></trkpt><trkpt lat="42.3896806" lon="11.1563964"><ele>202.8</ele><time>2026-04-04T08:01:35.236Z</time></trkpt><trkpt lat="42.3896643" lon="11.1562301"><ele>202.60000000000002</ele><time>2026-04-04T08:01:37.238Z</time></trkpt><trkpt lat="42.3896319" lon="11.1561351"><ele>202.39999999999998</ele><time>2026-04-04T08:01:38.244Z</time></trkpt><trkpt lat="42.3895832" lon="11.1560312"><ele>202.2</ele><time>2026-04-04T08:01:39.248Z</time></trkpt><trkpt lat="42.3895354" lon="11.1559422"><ele>202.0</ele><time>2026-04-04T08:01:40.245Z</time></trkpt><trkpt lat="42.3894954" lon="11.1558503"><ele>202.0</ele><time>2026-04-04T08:01:41.243Z</time></trkpt><trkpt lat="42.3894625" lon="11.1557426"><ele>202.0</ele><time>2026-04-04T08:01:42.242Z</time></trkpt><trkpt lat="42.3894314" lon="11.1556113"><ele>202.0</ele><time>2026-04-04T08:01:43.242Z</time></trkpt><trkpt lat="42.3893951" lon="11.1554774"><ele>202.0</ele><time>2026-04-04T08:01:44.238Z</time></trkpt><trkpt lat="42.3893694" lon="11.1553452"><ele>202.0</ele><time>2026-04-04T08:01:45.242Z</time></trkpt><trkpt lat="42.3893389" lon="11.1552073"><ele>203.2</ele><time>2026-04-04T08:01:46.242Z</time></trkpt><trkpt lat="42.3893109" lon="11.1550757"><ele>204.39999999999998</ele><time>2026-04-04T08:01:47.251Z</time></trkpt><trkpt lat="42.38929" lon="11.1549718"><ele>205.60000000000002</ele><time>2026-04-04T08:01:48.244Z</time></trkpt><trkpt lat="42.3892703" lon="11.154877"><ele>206.8</ele><time>2026-04-04T08:01:49.248Z</time></trkpt><trkpt lat="42.3892557" lon="11.1547893"><ele>208.0</ele><time>2026-04-04T08:01:50.251Z</time></trkpt><trkpt lat="42.3892804" lon="11.1546091"><ele>207.99999999999997</ele><time>2026-04-04T08:01:52.245Z</time></trkpt><trkpt lat="42.3893715" lon="11.154544"><ele>208.0</ele><time>2026-04-04T08:01:54.247Z</time></trkpt><trkpt lat="42.3894384" lon="11.1545602"><ele>208.0</ele><time>2026-04-04T08:01:55.249Z</time></trkpt><trkpt lat="42.3895138" lon="11.1546009"><ele>208.0</ele><time>2026-04-04T08:01:56.247Z</time></trkpt><trkpt lat="42.389593" lon="11.1546514"><ele>207.99999999999997</ele><time>2026-04-04T08:01:57.246Z</time></trkpt><trkpt lat="42.3896779" lon="11.1546745"><ele>208.0</ele><time>2026-04-04T08:01:58.244Z</time></trkpt><trkpt lat="42.3897793" lon="11.1546822"><ele>211.2</ele><time>2026-04-04T08:01:59.237Z</time></trkpt><trkpt lat="42.389909" lon="11.154691"><ele>214.4</ele><time>2026-04-04T08:02:00.241Z</time></trkpt><trkpt lat="42.390027" lon="11.1547177"><ele>217.59999999999997</ele><time>2026-04-04T08:02:01.254Z</time></trkpt><trkpt lat="42.3901029" lon="11.1547657"><ele>220.79999999999998</ele><time>2026-04-04T08:02:02.251Z</time></trkpt><trkpt lat="42.3901782" lon="11.1547988"><ele>224.0</ele><time>2026-04-04T08:02:04.261Z</time></trkpt><trkpt lat="42.3903" lon="11.1548332"><ele>226.2</ele><time>2026-04-04T08:02:06.27Z</time></trkpt><trkpt lat="42.3904005" lon="11.1548715"><ele>228.39999999999998</ele><time>2026-04-04T08:02:07.25Z</time></trkpt><trkpt lat="42.3905124" lon="11.1548829"><ele>230.6</ele><time>2026-04-04T08:02:08.245Z</time></trkpt><trkpt lat="42.3906109" lon="11.1548799"><ele>232.8</ele><time>2026-04-04T08:02:09.241Z</time></trkpt><trkpt lat="42.3906995" lon="11.1548835"><ele>235.0</ele><time>2026-04-04T08:02:10.243Z</time></trkpt><trkpt lat="42.3907774" lon="11.1548826"><ele>233.85714285714283</ele><time>2026-04-04T08:02:11.243Z</time></trkpt><trkpt lat="42.3908458" lon="11.1548831"><ele>232.7142857142857</ele><time>2026-04-04T08:02:12.242Z</time></trkpt><trkpt lat="42.3909149" lon="11.1548791"><ele>231.57142857142856</ele><time>2026-04-04T08:02:13.251Z</time></trkpt><trkpt lat="42.3909904" lon="11.154861"><ele>230.42857142857144</ele><time>2026-04-04T08:02:14.241Z</time></trkpt><trkpt lat="42.3910599" lon="11.1548233"><ele>229.2857142857143</ele><time>2026-04-04T08:02:15.248Z</time></trkpt><trkpt lat="42.3911318" lon="11.1547745"><ele>228.14285714285717</ele><time>2026-04-04T08:02:16.247Z</time></trkpt><trkpt lat="42.3911974" lon="11.1547403"><ele>227.0</ele><time>2026-04-04T08:02:17.248Z</time></trkpt><trkpt lat="42.3912727" lon="11.1547195"><ele>227.66666666666669</ele><time>2026-04-04T08:02:18.246Z</time></trkpt><trkpt lat="42.3913533" lon="11.154701"><ele>228.33333333333334</ele><time>2026-04-04T08:02:19.266Z</time></trkpt><trkpt lat="42.3914317" lon="11.1546867"><ele>229.0</ele><time>2026-04-04T08:02:20.246Z</time></trkpt><trkpt lat="42.3915045" lon="11.1546673"><ele>229.66666666666669</ele><time>2026-04-04T08:02:21.251Z</time></trkpt><trkpt lat="42.3915733" lon="11.154645"><ele>230.33333333333334</ele><time>2026-04-04T08:02:22.247Z</time></trkpt><trkpt lat="42.3916817" lon="11.1546259"><ele>231.0</ele><time>2026-04-04T08:02:24.252Z</time></trkpt><trkpt lat="42.3917933" lon="11.1546598"><ele>231.0</ele><time>2026-04-04T08:02:26.249Z</time></trkpt><trkpt lat="42.3918619" lon="11.1546916"><ele>231.0</ele><time>2026-04-04T08:02:27.249Z</time></trkpt><trkpt lat="42.3919339" lon="11.1547214"><ele>231.0</ele><time>2026-04-04T08:02:28.244Z</time></trkpt><trkpt lat="42.3919974" lon="11.1547318"><ele>231.0</ele><time>2026-04-04T08:02:29.251Z</time></trkpt><trkpt lat="42.3920632" lon="11.1547341"><ele>231.0</ele><time>2026-04-04T08:02:30.266Z</time></trkpt><trkpt lat="42.3921417" lon="11.1546967"><ele>231.0</ele><time>2026-04-04T08:02:32.244Z</time></trkpt><trkpt lat="42.3922284" lon="11.1545244"><ele>234.83333333333334</ele><time>2026-04-04T08:02:34.244Z</time></trkpt><trkpt lat="42.3922726" lon="11.1544168"><ele>238.66666666666669</ele><time>2026-04-04T08:02:35.25Z</time></trkpt><trkpt lat="42.3923121" lon="11.1543355"><ele>242.5</ele><time>2026-04-04T08:02:36.245Z</time></trkpt><trkpt lat="42.3923578" lon="11.1542549"><ele>246.33333333333334</ele><time>2026-04-04T08:02:37.238Z</time></trkpt><trkpt lat="42.3924005" lon="11.154181"><ele>250.16666666666669</ele><time>2026-04-04T08:02:38.245Z</time></trkpt><trkpt lat="42.3924522" lon="11.154114"><ele>254.0</ele><time>2026-04-04T08:02:39.249Z</time></trkpt><trkpt lat="42.392514" lon="11.1540524"><ele>252.79999999999998</ele><time>2026-04-04T08:02:40.245Z</time></trkpt><trkpt lat="42.3925972" lon="11.1539929"><ele>251.59999999999997</ele><time>2026-04-04T08:02:41.239Z</time></trkpt><trkpt lat="42.3926897" lon="11.1539169"><ele>250.4</ele><time>2026-04-04T08:02:42.249Z</time></trkpt><trkpt lat="42.3927786" lon="11.153854"><ele>249.2</ele><time>2026-04-04T08:02:43.244Z</time></trkpt><trkpt lat="42.3928599" lon="11.1538054"><ele>248.0</ele><time>2026-04-04T08:02:44.248Z</time></trkpt><trkpt lat="42.3929306" lon="11.1537576"><ele>253.60000000000002</ele><time>2026-04-04T08:02:45.241Z</time></trkpt><trkpt lat="42.3930067" lon="11.1537081"><ele>259.20000000000005</ele><time>2026-04-04T08:02:46.251Z</time></trkpt><trkpt lat="42.3930586" lon="11.1536539"><ele>264.8</ele><time>2026-04-04T08:02:47.245Z</time></trkpt><trkpt lat="42.3930895" lon="11.1535373"><ele>270.40000000000003</ele><time>2026-04-04T08:02:50.248Z</time></trkpt><trkpt lat="42.3930842" lon="11.1533266"><ele>276.0</ele><time>2026-04-04T08:02:52.244Z</time></trkpt><trkpt lat="42.3930879" lon="11.1532375"><ele>277.40000000000003</ele><time>2026-04-04T08:02:53.247Z</time></trkpt><trkpt lat="42.3931181" lon="11.1530942"><ele>278.8</ele><time>2026-04-04T08:02:55.246Z</time></trkpt><trkpt lat="42.3931505" lon="11.1529686"><ele>280.20000000000005</ele><time>2026-04-04T08:02:57.247Z</time></trkpt><trkpt lat="42.3931388" lon="11.1528683"><ele>281.6</ele><time>2026-04-04T08:02:59.242Z</time></trkpt><trkpt lat="42.3930687" lon="11.1527243"><ele>283.0</ele><time>2026-04-04T08:03:01.247Z</time></trkpt><trkpt lat="42.3930211" lon="11.1526155"><ele>278.57142857142856</ele><time>2026-04-04T08:03:03.249Z</time></trkpt><trkpt lat="42.3929913" lon="11.1524824"><ele>274.14285714285717</ele><time>2026-04-04T08:03:05.247Z</time></trkpt><trkpt lat="42.3929858" lon="11.1523901"><ele>269.7142857142857</ele><time>2026-04-04T08:03:06.245Z</time></trkpt><trkpt lat="42.3929752" lon="11.1523048"><ele>265.2857142857143</ele><time>2026-04-04T08:03:07.242Z</time></trkpt><trkpt lat="42.3929616" lon="11.1522193"><ele>260.8571428571429</ele><time>2026-04-04T08:03:08.252Z</time></trkpt><trkpt lat="42.3929426" lon="11.1521316"><ele>256.42857142857144</ele><time>2026-04-04T08:03:09.246Z</time></trkpt><trkpt lat="42.3929286" lon="11.1520456"><ele>252.0</ele><time>2026-04-04T08:03:10.245Z</time></trkpt><trkpt lat="42.3929097" lon="11.1519426"><ele>252.0</ele><time>2026-04-04T08:03:12.242Z</time></trkpt><trkpt lat="42.3929081" lon="11.1518438"><ele>252.0</ele><time>2026-04-04T08:03:15.247Z</time></trkpt><trkpt lat="42.3929663" lon="11.151708"><ele>252.0</ele><time>2026-04-04T08:03:17.244Z</time></trkpt><trkpt lat="42.3930139" lon="11.1516137"><ele>252.0</ele><time>2026-04-04T08:03:18.251Z</time></trkpt><trkpt lat="42.3930568" lon="11.1515217"><ele>252.0</ele><time>2026-04-04T08:03:19.251Z</time></trkpt><trkpt lat="42.3930896" lon="11.1514359"><ele>252.0</ele><time>2026-04-04T08:03:20.248Z</time></trkpt><trkpt lat="42.3931207" lon="11.151351"><ele>254.33333333333334</ele><time>2026-04-04T08:03:21.249Z</time></trkpt><trkpt lat="42.3931503" lon="11.1512687"><ele>256.6666666666667</ele><time>2026-04-04T08:03:22.247Z</time></trkpt><trkpt lat="42.3931813" lon="11.1511915"><ele>259.0</ele><time>2026-04-04T08:03:23.243Z</time></trkpt><trkpt lat="42.3932745" lon="11.1510711"><ele>261.33333333333337</ele><time>2026-04-04T08:03:25.247Z</time></trkpt><trkpt lat="42.3933345" lon="11.1509946"><ele>263.6666666666667</ele><time>2026-04-04T08:03:26.247Z</time></trkpt><trkpt lat="42.393374" lon="11.1508806"><ele>266.0</ele><time>2026-04-04T08:03:27.251Z</time></trkpt><trkpt lat="42.3934126" lon="11.1507548"><ele>265.0</ele><time>2026-04-04T08:03:28.249Z</time></trkpt><trkpt lat="42.3934502" lon="11.1506491"><ele>264.0</ele><time>2026-04-04T08:03:29.247Z</time></trkpt><trkpt lat="42.3934845" lon="11.1505514"><ele>263.0</ele><time>2026-04-04T08:03:30.25Z</time></trkpt><trkpt lat="42.3935238" lon="11.1504705"><ele>262.0</ele><time>2026-04-04T08:03:31.249Z</time></trkpt><trkpt lat="42.3935805" lon="11.1503611"><ele>261.0</ele><time>2026-04-04T08:03:33.251Z</time></trkpt><trkpt lat="42.3936475" lon="11.1503249"><ele>260.0</ele><time>2026-04-04T08:03:42.248Z</time></trkpt><trkpt lat="42.3937146" lon="11.1503879"><ele>260.0</ele><time>2026-04-04T08:03:47.248Z</time></trkpt><trkpt lat="42.3937651" lon="11.1504729"><ele>260.0</ele><time>2026-04-04T08:03:49.246Z</time></trkpt><trkpt lat="42.393809" lon="11.1505444"><ele>260.0</ele><time>2026-04-04T08:03:50.246Z</time></trkpt><trkpt lat="42.393856" lon="11.1506152"><ele>260.0</ele><time>2026-04-04T08:03:51.248Z</time></trkpt><trkpt lat="42.393904" lon="11.1506762"><ele>260.0</ele><time>2026-04-04T08:03:52.25Z</time></trkpt><trkpt lat="42.3940026" lon="11.1507775"><ele>260.0</ele><time>2026-04-04T08:03:54.242Z</time></trkpt><trkpt lat="42.3940943" lon="11.1508515"><ele>261.5</ele><time>2026-04-04T08:03:56.248Z</time></trkpt><trkpt lat="42.3941576" lon="11.1508842"><ele>263.0</ele><time>2026-04-04T08:03:58.254Z</time></trkpt><trkpt lat="42.3942262" lon="11.1509189"><ele>264.5</ele><time>2026-04-04T08:04:00.249Z</time></trkpt><trkpt lat="42.3943025" lon="11.150987"><ele>266.0</ele><time>2026-04-04T08:04:01.246Z</time></trkpt><trkpt lat="42.3943942" lon="11.1510667"><ele>267.5</ele><time>2026-04-04T08:04:02.25Z</time></trkpt><trkpt lat="42.394475" lon="11.1511423"><ele>269.0</ele><time>2026-04-04T08:04:03.239Z</time></trkpt><trkpt lat="42.394547" lon="11.1511992"><ele>269.0</ele><time>2026-04-04T08:04:04.245Z</time></trkpt><trkpt lat="42.3946106" lon="11.1512525"><ele>269.0</ele><time>2026-04-04T08:04:05.246Z</time></trkpt><trkpt lat="42.3946655" lon="11.1513059"><ele>269.0</ele><time>2026-04-04T08:04:06.242Z</time></trkpt><trkpt lat="42.3947799" lon="11.1513355"><ele>269.0</ele><time>2026-04-04T08:04:08.245Z</time></trkpt><trkpt lat="42.394888" lon="11.1513349"><ele>269.0</ele><time>2026-04-04T08:04:10.253Z</time></trkpt><trkpt lat="42.3949805" lon="11.151376"><ele>269.2</ele><time>2026-04-04T08:04:12.242Z</time></trkpt><trkpt lat="42.3950742" lon="11.151466"><ele>269.4</ele><time>2026-04-04T08:04:14.246Z</time></trkpt><trkpt lat="42.3951564" lon="11.151561"><ele>269.6</ele><time>2026-04-04T08:04:16.244Z</time></trkpt><trkpt lat="42.39521" lon="11.1516562"><ele>269.8</ele><time>2026-04-04T08:04:19.244Z</time></trkpt><trkpt lat="42.3952243" lon="11.1517796"><ele>270.0</ele><time>2026-04-04T08:04:22.246Z</time></trkpt><trkpt lat="42.3952393" lon="11.1518923"><ele>270.5</ele><time>2026-04-04T08:04:24.25Z</time></trkpt><trkpt lat="42.395263" lon="11.152005"><ele>271.0</ele><time>2026-04-04T08:04:26.242Z</time></trkpt><trkpt lat="42.3952908" lon="11.1521258"><ele>271.5</ele><time>2026-04-04T08:04:28.243Z</time></trkpt><trkpt lat="42.3953516" lon="11.1522212"><ele>272.0</ele><time>2026-04-04T08:04:30.249Z</time></trkpt><trkpt lat="42.3954244" lon="11.1522715"><ele>272.5</ele><time>2026-04-04T08:04:32.245Z</time></trkpt><trkpt lat="42.3954974" lon="11.1523155"><ele>273.0</ele><time>2026-04-04T08:04:34.25Z</time></trkpt><trkpt lat="42.3955733" lon="11.152363"><ele>274.6666666666667</ele><time>2026-04-04T08:04:36.243Z</time></trkpt><trkpt lat="42.3956443" lon="11.1524206"><ele>276.3333333333333</ele><time>2026-04-04T08:04:38.239Z</time></trkpt><trkpt lat="42.3957237" lon="11.1524709"><ele>278.0</ele><time>2026-04-04T08:04:40.248Z</time></trkpt><trkpt lat="42.3958119" lon="11.1524782"><ele>279.66666666666663</ele><time>2026-04-04T08:04:43.244Z</time></trkpt><trkpt lat="42.39588" lon="11.152459"><ele>281.3333333333333</ele><time>2026-04-04T08:04:45.245Z</time></trkpt><trkpt lat="42.395962" lon="11.1524565"><ele>283.0</ele><time>2026-04-04T08:04:47.247Z</time></trkpt><trkpt lat="42.3960486" lon="11.1524938"><ele>283.0</ele><time>2026-04-04T08:04:49.245Z</time></trkpt><trkpt lat="42.3961052" lon="11.1525517"><ele>283.0</ele><time>2026-04-04T08:04:51.243Z</time></trkpt><trkpt lat="42.3961751" lon="11.152599"><ele>283.0</ele><time>2026-04-04T08:04:53.244Z</time></trkpt><trkpt lat="42.3962548" lon="11.152643"><ele>283.0</ele><time>2026-04-04T08:04:55.248Z</time></trkpt><trkpt lat="42.3963342" lon="11.1527265"><ele>283.0</ele><time>2026-04-04T08:04:57.245Z</time></trkpt><trkpt lat="42.3964139" lon="11.1528063"><ele>283.0</ele><time>2026-04-04T08:04:59.246Z</time></trkpt><trkpt lat="42.3964838" lon="11.1529003"><ele>286.5</ele><time>2026-04-04T08:05:01.261Z</time></trkpt><trkpt lat="42.39654" lon="11.1529863"><ele>290.0</ele><time>2026-04-04T08:05:03.246Z</time></trkpt><trkpt lat="42.3965816" lon="11.1530903"><ele>293.5</ele><time>2026-04-04T08:05:06.247Z</time></trkpt><trkpt lat="42.3966404" lon="11.1531606"><ele>297.0</ele><time>2026-04-04T08:05:08.247Z</time></trkpt><trkpt lat="42.396708" lon="11.1532331"><ele>300.5</ele><time>2026-04-04T08:05:10.246Z</time></trkpt><trkpt lat="42.3967799" lon="11.1532603"><ele>304.0</ele><time>2026-04-04T08:05:12.253Z</time></trkpt><trkpt lat="42.3968484" lon="11.1532995"><ele>304.3333333333333</ele><time>2026-04-04T08:05:14.24Z</time></trkpt><trkpt lat="42.3969272" lon="11.153352"><ele>304.66666666666663</ele><time>2026-04-04T08:05:16.252Z</time></trkpt><trkpt lat="42.3969972" lon="11.153422"><ele>305.0</ele><time>2026-04-04T08:05:18.255Z</time></trkpt><trkpt lat="42.3970709" lon="11.1534905"><ele>305.3333333333333</ele><time>2026-04-04T08:05:20.247Z</time></trkpt><trkpt lat="42.3971318" lon="11.1535648"><ele>305.6666666666667</ele><time>2026-04-04T08:05:22.248Z</time></trkpt><trkpt lat="42.3971736" lon="11.1536652"><ele>306.0</ele><time>2026-04-04T08:05:24.255Z</time></trkpt><trkpt lat="42.3972265" lon="11.1537386"><ele>308.6666666666667</ele><time>2026-04-04T08:05:26.244Z</time></trkpt><trkpt lat="42.3972842" lon="11.1538351"><ele>311.3333333333333</ele><time>2026-04-04T08:05:29.247Z</time></trkpt><trkpt lat="42.3973528" lon="11.1539032"><ele>314.0</ele><time>2026-04-04T08:05:31.244Z</time></trkpt><trkpt lat="42.397407" lon="11.1539651"><ele>316.66666666666663</ele><time>2026-04-04T08:05:33.248Z</time></trkpt><trkpt lat="42.3974549" lon="11.154036"><ele>319.3333333333333</ele><time>2026-04-04T08:05:35.242Z</time></trkpt><trkpt lat="42.3975113" lon="11.154104"><ele>322.0</ele><time>2026-04-04T08:05:38.242Z</time></trkpt><trkpt lat="42.3975846" lon="11.1541582"><ele>322.0</ele><time>2026-04-04T08:05:42.249Z</time></trkpt><trkpt lat="42.3976714" lon="11.154199"><ele>322.0</ele><time>2026-04-04T08:05:45.244Z</time></trkpt><trkpt lat="42.3977597" lon="11.1542299"><ele>322.0</ele><time>2026-04-04T08:05:48.249Z</time></trkpt><trkpt lat="42.3978308" lon="11.1542376"><ele>322.0</ele><time>2026-04-04T08:05:50.245Z</time></trkpt><trkpt lat="42.3979194" lon="11.1542533"><ele>322.0</ele><time>2026-04-04T08:05:53.247Z</time></trkpt><trkpt lat="42.3980108" lon="11.1542749"><ele>322.0</ele><time>2026-04-04T08:05:56.244Z</time></trkpt><trkpt lat="42.3981058" lon="11.1543108"><ele>324.14285714285717</ele><time>2026-04-04T08:05:59.245Z</time></trkpt><trkpt lat="42.3981697" lon="11.1543526"><ele>326.2857142857143</ele><time>2026-04-04T08:06:01.244Z</time></trkpt><trkpt lat="42.3982288" lon="11.1544186"><ele>328.42857142857144</ele><time>2026-04-04T08:06:03.247Z</time></trkpt><trkpt lat="42.3982568" lon="11.1544985"><ele>330.57142857142856</ele><time>2026-04-04T08:06:05.248Z</time></trkpt><trkpt lat="42.3983024" lon="11.1545962"><ele>332.7142857142857</ele><time>2026-04-04T08:06:07.248Z</time></trkpt><trkpt lat="42.3983463" lon="11.1546586"><ele>334.8571428571429</ele><time>2026-04-04T08:06:09.24Z</time></trkpt><trkpt lat="42.3984128" lon="11.1547311"><ele>337.0</ele><time>2026-04-04T08:06:11.26Z</time></trkpt><trkpt lat="42.3984865" lon="11.1548102"><ele>337.3333333333333</ele><time>2026-04-04T08:06:13.247Z</time></trkpt><trkpt lat="42.398546" lon="11.1548827"><ele>337.66666666666663</ele><time>2026-04-04T08:06:15.248Z</time></trkpt><trkpt lat="42.3986238" lon="11.1549606"><ele>338.0</ele><time>2026-04-04T08:06:17.259Z</time></trkpt><trkpt lat="42.3987095" lon="11.1550006"><ele>338.3333333333333</ele><time>2026-04-04T08:06:20.244Z</time></trkpt><trkpt lat="42.3987675" lon="11.155034"><ele>338.6666666666667</ele><time>2026-04-04T08:06:22.244Z</time></trkpt><trkpt lat="42.3988289" lon="11.1550778"><ele>339.0</ele><time>2026-04-04T08:06:24.251Z</time></trkpt><trkpt lat="42.3989107" lon="11.1551623"><ele>341.5</ele><time>2026-04-04T08:06:26.252Z</time></trkpt><trkpt lat="42.3989615" lon="11.1552481"><ele>344.0</ele><time>2026-04-04T08:06:28.246Z</time></trkpt><trkpt lat="42.3990076" lon="11.155337"><ele>346.5</ele><time>2026-04-04T08:06:30.242Z</time></trkpt><trkpt lat="42.3990426" lon="11.1554189"><ele>349.0</ele><time>2026-04-04T08:06:32.247Z</time></trkpt><trkpt lat="42.3991066" lon="11.1555184"><ele>351.5</ele><time>2026-04-04T08:06:35.242Z</time></trkpt><trkpt lat="42.3991603" lon="11.1556251"><ele>354.0</ele><time>2026-04-04T08:06:37.248Z</time></trkpt><trkpt lat="42.399202" lon="11.1557111"><ele>354.79999999999995</ele><time>2026-04-04T08:06:39.25Z</time></trkpt><trkpt lat="42.3992347" lon="11.1558471"><ele>355.59999999999997</ele><time>2026-04-04T08:06:41.247Z</time></trkpt><trkpt lat="42.3992718" lon="11.1559615"><ele>356.4</ele><time>2026-04-04T08:06:43.246Z</time></trkpt><trkpt lat="42.3993488" lon="11.1560411"><ele>357.2</ele><time>2026-04-04T08:06:46.245Z</time></trkpt><trkpt lat="42.3994159" lon="11.156144"><ele>358.0</ele><time>2026-04-04T08:06:48.253Z</time></trkpt><trkpt lat="42.3994565" lon="11.1562221"><ele>358.0</ele><time>2026-04-04T08:06:49.249Z</time></trkpt><trkpt lat="42.3994975" lon="11.1563699"><ele>358.0</ele><time>2026-04-04T08:06:51.245Z</time></trkpt><trkpt lat="42.3995195" lon="11.1564571"><ele>358.0</ele><time>2026-04-04T08:06:52.237Z</time></trkpt><trkpt lat="42.3995563" lon="11.1565685"><ele>358.0</ele><time>2026-04-04T08:06:54.259Z</time></trkpt><trkpt lat="42.3995998" lon="11.1566622"><ele>358.0</ele><time>2026-04-04T08:06:57.243Z</time></trkpt><trkpt lat="42.3996597" lon="11.1567427"><ele>358.0</ele><time>2026-04-04T08:07:00.247Z</time></trkpt><trkpt lat="42.3997305" lon="11.1567766"><ele>361.66666666666663</ele><time>2026-04-04T08:07:03.245Z</time></trkpt><trkpt lat="42.3998054" lon="11.1568002"><ele>365.3333333333333</ele><time>2026-04-04T08:07:06.247Z</time></trkpt><trkpt lat="42.3998985" lon="11.1568205"><ele>369.0</ele><time>2026-04-04T08:07:12.238Z</time></trkpt><trkpt lat="42.3999862" lon="11.1568614"><ele>372.6666666666667</ele><time>2026-04-04T08:07:15.252Z</time></trkpt><trkpt lat="42.4000478" lon="11.1568965"><ele>376.33333333333337</ele><time>2026-04-04T08:07:17.254Z</time></trkpt><trkpt lat="42.4001056" lon="11.1569314"><ele>380.0</ele><time>2026-04-04T08:07:23.251Z</time></trkpt><trkpt lat="42.4001414" lon="11.1570149"><ele>380.0</ele><time>2026-04-04T08:07:26.244Z</time></trkpt><trkpt lat="42.4001936" lon="11.1570965"><ele>380.0</ele><time>2026-04-04T08:07:29.245Z</time></trkpt><trkpt lat="42.4002696" lon="11.1571624"><ele>380.0</ele><time>2026-04-04T08:07:32.24Z</time></trkpt><trkpt lat="42.4003366" lon="11.157234"><ele>380.0</ele><time>2026-04-04T08:07:35.244Z</time></trkpt><trkpt lat="42.4003967" lon="11.1572827"><ele>380.0</ele><time>2026-04-04T08:07:38.248Z</time></trkpt><trkpt lat="42.4004656" lon="11.1573388"><ele>380.0</ele><time>2026-04-04T08:07:41.249Z</time></trkpt><trkpt lat="42.4005343" lon="11.1574127"><ele>384.33333333333337</ele><time>2026-04-04T08:07:44.257Z</time></trkpt><trkpt lat="42.40058" lon="11.1574864"><ele>388.6666666666667</ele><time>2026-04-04T08:07:46.245Z</time></trkpt><trkpt lat="42.4006314" lon="11.1575547"><ele>393.0</ele><time>2026-04-04T08:07:48.243Z</time></trkpt><trkpt lat="42.4006787" lon="11.1576186"><ele>397.33333333333337</ele><time>2026-04-04T08:07:51.242Z</time></trkpt><trkpt lat="42.4007318" lon="11.1577194"><ele>401.6666666666667</ele><time>2026-04-04T08:07:55.254Z</time></trkpt><trkpt lat="42.4007828" lon="11.1578114"><ele>406.0</ele><time>2026-04-04T08:07:57.244Z</time></trkpt><trkpt lat="42.4008331" lon="11.1579037"><ele>406.0</ele><time>2026-04-04T08:07:59.261Z</time></trkpt><trkpt lat="42.4008669" lon="11.1579859"><ele>406.0</ele><time>2026-04-04T08:08:01.253Z</time></trkpt><trkpt lat="42.4008948" lon="11.1580635"><ele>406.0</ele><time>2026-04-04T08:08:03.245Z</time></trkpt><trkpt lat="42.4009171" lon="11.1581592"><ele>406.0</ele><time>2026-04-04T08:08:06.249Z</time></trkpt><trkpt lat="42.4009445" lon="11.1582685"><ele>406.0</ele><time>2026-04-04T08:08:10.244Z</time></trkpt><trkpt lat="42.4009768" lon="11.1583512"><ele>406.0</ele><time>2026-04-04T08:08:13.246Z</time></trkpt><trkpt lat="42.4010048" lon="11.1584471"><ele>406.0</ele><time>2026-04-04T08:08:17.245Z</time></trkpt><trkpt lat="42.4010592" lon="11.1585127"><ele>408.42857142857144</ele><time>2026-04-04T08:08:21.241Z</time></trkpt><trkpt lat="42.4011162" lon="11.1585755"><ele>410.8571428571429</ele><time>2026-04-04T08:08:26.24Z</time></trkpt><trkpt lat="42.4011589" lon="11.1586399"><ele>413.2857142857143</ele><time>2026-04-04T08:08:30.249Z</time></trkpt><trkpt lat="42.4011954" lon="11.1587261"><ele>415.7142857142857</ele><time>2026-04-04T08:08:35.24Z</time></trkpt><trkpt lat="42.4011801" lon="11.1588195"><ele>418.14285714285717</ele><time>2026-04-04T08:08:38.245Z</time></trkpt><trkpt lat="42.4011763" lon="11.1589131"><ele>420.57142857142856</ele><time>2026-04-04T08:08:41.24Z</time></trkpt><trkpt lat="42.4012276" lon="11.1589673"><ele>423.0</ele><time>2026-04-04T08:10:32.245Z</time></trkpt><trkpt lat="42.4012444" lon="11.1590657"><ele>427.5</ele><time>2026-04-04T08:11:30.244Z</time></trkpt><trkpt lat="42.4012521" lon="11.1591559"><ele>432.0</ele><time>2026-04-04T08:11:44.248Z</time></trkpt><trkpt lat="42.4012173" lon="11.1593062"><ele>436.5</ele><time>2026-04-04T08:11:53.247Z</time></trkpt><trkpt lat="42.4011641" lon="11.1594035"><ele>441.0</ele><time>2026-04-04T08:11:58.254Z</time></trkpt><trkpt lat="42.4011092" lon="11.159465"><ele>445.5</ele><time>2026-04-04T08:12:01.242Z</time></trkpt><trkpt lat="42.4010496" lon="11.1595297"><ele>450.0</ele><time>2026-04-04T08:12:05.261Z</time></trkpt><trkpt lat="42.4009937" lon="11.1595715"><ele>450.0</ele><time>2026-04-04T08:12:10.246Z</time></trkpt><trkpt lat="42.4009493" lon="11.1596416"><ele>450.0</ele><time>2026-04-04T08:12:42.245Z</time></trkpt><trkpt lat="42.4008791" lon="11.1596437"><ele>450.0</ele><time>2026-04-04T08:12:46.246Z</time></trkpt><trkpt lat="42.4008139" lon="11.1596407"><ele>450.0</ele><time>2026-04-04T08:12:50.248Z</time></trkpt><trkpt lat="42.4007323" lon="11.1596691"><ele>450.0</ele><time>2026-04-04T08:12:55.246Z</time></trkpt><trkpt lat="42.4006481" lon="11.1597069"><ele>450.0</ele><time>2026-04-04T08:12:58.251Z</time></trkpt><trkpt lat="42.400576" lon="11.1597309"><ele>450.0</ele><time>2026-04-04T08:13:02.243Z</time></trkpt><trkpt lat="42.4005023" lon="11.1597709"><ele>450.0</ele><time>2026-04-04T08:13:05.248Z</time></trkpt><trkpt lat="42.4004226" lon="11.1597977"><ele>450.0</ele><time>2026-04-04T08:13:09.257Z</time></trkpt><trkpt lat="42.4003506" lon="11.1598103"><ele>450.0</ele><time>2026-04-04T08:13:12.244Z</time></trkpt><trkpt lat="42.4002826" lon="11.159841"><ele>450.0</ele><time>2026-04-04T08:13:15.248Z</time></trkpt><trkpt lat="42.4002048" lon="11.1598395"><ele>450.0</ele><time>2026-04-04T08:13:18.26Z</time></trkpt><trkpt lat="42.4001217" lon="11.1598524"><ele>452.3333333333333</ele><time>2026-04-04T08:13:21.162Z</time></trkpt><trkpt lat="42.4000388" lon="11.159858"><ele>454.66666666666663</ele><time>2026-04-04T08:13:24.248Z</time></trkpt><trkpt lat="42.3999614" lon="11.1598716"><ele>457.0</ele><time>2026-04-04T08:13:28.184Z</time></trkpt><trkpt lat="42.3998909" lon="11.1599123"><ele>459.3333333333333</ele><time>2026-04-04T08:13:31.199Z</time></trkpt><trkpt lat="42.3998677" lon="11.159996"><ele>461.66666666666663</ele><time>2026-04-04T08:13:35.25Z</time></trkpt><trkpt lat="42.3998788" lon="11.1601025"><ele>464.0</ele><time>2026-04-04T08:13:39.159Z</time></trkpt><trkpt lat="42.3999024" lon="11.1602129"><ele>466.49999999999994</ele><time>2026-04-04T08:13:42.251Z</time></trkpt><trkpt lat="42.3999193" lon="11.1603162"><ele>469.0</ele><time>2026-04-04T08:13:45.098Z</time></trkpt><trkpt lat="42.3999683" lon="11.160395"><ele>471.5</ele><time>2026-04-04T08:13:47.246Z</time></trkpt><trkpt lat="42.4000142" lon="11.1604625"><ele>474.0</ele><time>2026-04-04T08:13:50.245Z</time></trkpt><trkpt lat="42.4000773" lon="11.1605314"><ele>476.49999999999994</ele><time>2026-04-04T08:13:53.251Z</time></trkpt><trkpt lat="42.40014" lon="11.1605796"><ele>479.0</ele><time>2026-04-04T08:13:56.248Z</time></trkpt><trkpt lat="42.4002242" lon="11.1605878"><ele>478.99999999999994</ele><time>2026-04-04T08:13:59.243Z</time></trkpt><trkpt lat="42.4003017" lon="11.1606133"><ele>479.0</ele><time>2026-04-04T08:14:02.248Z</time></trkpt><trkpt lat="42.4003628" lon="11.1606414"><ele>479.0</ele><time>2026-04-04T08:14:04.845Z</time></trkpt><trkpt lat="42.4004263" lon="11.1606626"><ele>479.0</ele><time>2026-04-04T08:14:08.248Z</time></trkpt><trkpt lat="42.4005079" lon="11.1606857"><ele>478.99999999999994</ele><time>2026-04-04T08:14:15.246Z</time></trkpt><trkpt lat="42.4005939" lon="11.1606986"><ele>479.0</ele><time>2026-04-04T08:14:19.253Z</time></trkpt><trkpt lat="42.4006932" lon="11.1607477"><ele>480.99999999999994</ele><time>2026-04-04T08:14:20.248Z</time></trkpt><trkpt lat="42.4007871" lon="11.1608062"><ele>483.0</ele><time>2026-04-04T08:14:21.258Z</time></trkpt><trkpt lat="42.4008688" lon="11.1608403"><ele>485.0</ele><time>2026-04-04T08:14:23.244Z</time></trkpt><trkpt lat="42.4009409" lon="11.1608721"><ele>487.0</ele><time>2026-04-04T08:14:25.248Z</time></trkpt><trkpt lat="42.4010048" lon="11.1608759"><ele>488.99999999999994</ele><time>2026-04-04T08:14:27.253Z</time></trkpt><trkpt lat="42.4010707" lon="11.1608611"><ele>491.0</ele><time>2026-04-04T08:14:29.242Z</time></trkpt><trkpt lat="42.401142" lon="11.1608192"><ele>490.99999999999994</ele><time>2026-04-04T08:14:31.245Z</time></trkpt><trkpt lat="42.4012346" lon="11.1607914"><ele>491.0</ele><time>2026-04-04T08:14:34.242Z</time></trkpt><trkpt lat="42.4013147" lon="11.1607609"><ele>491.0</ele><time>2026-04-04T08:14:36.247Z</time></trkpt><trkpt lat="42.4013961" lon="11.1607338"><ele>491.0</ele><time>2026-04-04T08:14:38.242Z</time></trkpt><trkpt lat="42.4014588" lon="11.1606983"><ele>490.99999999999994</ele><time>2026-04-04T08:14:40.206Z</time></trkpt><trkpt lat="42.4015335" lon="11.1606933"><ele>491.0</ele><time>2026-04-04T08:14:47.249Z</time></trkpt><trkpt lat="42.401606" lon="11.1606495"><ele>492.3333333333333</ele><time>2026-04-04T08:14:51.249Z</time></trkpt><trkpt lat="42.4016739" lon="11.1606645"><ele>493.66666666666663</ele><time>2026-04-04T08:14:54.204Z</time></trkpt><trkpt lat="42.4017225" lon="11.160735"><ele>495.0</ele><time>2026-04-04T08:14:58.269Z</time></trkpt><trkpt lat="42.401805" lon="11.160773"><ele>496.33333333333337</ele><time>2026-04-04T08:15:01.246Z</time></trkpt><trkpt lat="42.4019033" lon="11.1607889"><ele>497.6666666666667</ele><time>2026-04-04T08:15:04.243Z</time></trkpt><trkpt lat="42.4019683" lon="11.1607966"><ele>499.0</ele><time>2026-04-04T08:15:06.245Z</time></trkpt><trkpt lat="42.4020763" lon="11.1607796"><ele>499.0</ele><time>2026-04-04T08:15:09.257Z</time></trkpt><trkpt lat="42.4021508" lon="11.1607234"><ele>499.0</ele><time>2026-04-04T08:15:12.197Z</time></trkpt><trkpt lat="42.4022403" lon="11.16073"><ele>499.0</ele><time>2026-04-04T08:15:15.247Z</time></trkpt><trkpt lat="42.4023589" lon="11.1606322"><ele>499.0</ele><time>2026-04-04T08:15:18.263Z</time></trkpt><trkpt lat="42.4024145" lon="11.1605582"><ele>499.0</ele><time>2026-04-04T08:15:19.243Z</time></trkpt><trkpt lat="42.4024743" lon="11.1604751"><ele>500.0</ele><time>2026-04-04T08:15:20.252Z</time></trkpt><trkpt lat="42.4025413" lon="11.1603941"><ele>501.0</ele><time>2026-04-04T08:15:21.247Z</time></trkpt><trkpt lat="42.4026077" lon="11.1603187"><ele>502.0</ele><time>2026-04-04T08:15:22.242Z</time></trkpt><trkpt lat="42.4026751" lon="11.1602374"><ele>503.0</ele><time>2026-04-04T08:15:23.246Z</time></trkpt><trkpt lat="42.4027488" lon="11.1601575"><ele>504.0</ele><time>2026-04-04T08:15:24.254Z</time></trkpt><trkpt lat="42.4028217" lon="11.1600846"><ele>504.0</ele><time>2026-04-04T08:15:25.245Z</time></trkpt><trkpt lat="42.4028874" lon="11.1600004"><ele>504.0</ele><time>2026-04-04T08:15:26.244Z</time></trkpt><trkpt lat="42.4029538" lon="11.1599162"><ele>504.0</ele><time>2026-04-04T08:15:27.244Z</time></trkpt><trkpt lat="42.4030164" lon="11.1598563"><ele>504.0</ele><time>2026-04-04T08:15:28.248Z</time></trkpt><trkpt lat="42.4031078" lon="11.15978"><ele>504.0</ele><time>2026-04-04T08:15:30.246Z</time></trkpt><trkpt lat="42.40316" lon="11.1596742"><ele>507.3333333333333</ele><time>2026-04-04T08:15:32.254Z</time></trkpt><trkpt lat="42.4031871" lon="11.1595939"><ele>510.66666666666663</ele><time>2026-04-04T08:15:34.251Z</time></trkpt><trkpt lat="42.4032268" lon="11.1595217"><ele>514.0</ele><time>2026-04-04T08:15:36.242Z</time></trkpt><trkpt lat="42.4032938" lon="11.1594637"><ele>517.3333333333333</ele><time>2026-04-04T08:15:39.254Z</time></trkpt><trkpt lat="42.403331" lon="11.1593887"><ele>520.6666666666666</ele><time>2026-04-04T08:15:41.243Z</time></trkpt><trkpt lat="42.4033912" lon="11.1592686"><ele>524.0</ele><time>2026-04-04T08:15:43.246Z</time></trkpt><trkpt lat="42.4034111" lon="11.1591361"><ele>524.0</ele><time>2026-04-04T08:15:45.247Z</time></trkpt><trkpt lat="42.4034029" lon="11.1590396"><ele>524.0</ele><time>2026-04-04T08:15:46.252Z</time></trkpt><trkpt lat="42.4033907" lon="11.1589061"><ele>524.0</ele><time>2026-04-04T08:15:47.251Z</time></trkpt><trkpt lat="42.4033856" lon="11.1587785"><ele>524.0</ele><time>2026-04-04T08:15:48.261Z</time></trkpt><trkpt lat="42.4033827" lon="11.1586764"><ele>524.0</ele><time>2026-04-04T08:15:49.25Z</time></trkpt><trkpt lat="42.4033726" lon="11.1585735"><ele>524.0</ele><time>2026-04-04T08:15:50.247Z</time></trkpt><trkpt lat="42.4033601" lon="11.1584778"><ele>524.0</ele><time>2026-04-04T08:15:51.246Z</time></trkpt><trkpt lat="42.4033436" lon="11.1583409"><ele>524.0</ele><time>2026-04-04T08:15:53.256Z</time></trkpt><trkpt lat="42.4033163" lon="11.1582315"><ele>524.0</ele><time>2026-04-04T08:15:55.245Z</time></trkpt><trkpt lat="42.4032858" lon="11.1581075"><ele>524.0</ele><time>2026-04-04T08:15:57.254Z</time></trkpt><trkpt lat="42.4032419" lon="11.1579514"><ele>524.0</ele><time>2026-04-04T08:15:59.26Z</time></trkpt><trkpt lat="42.403221" lon="11.1578569"><ele>524.0</ele><time>2026-04-04T08:16:00.255Z</time></trkpt><trkpt lat="42.4031991" lon="11.1577638"><ele>524.0</ele><time>2026-04-04T08:16:01.244Z</time></trkpt><trkpt lat="42.4031512" lon="11.1576226"><ele>524.0</ele><time>2026-04-04T08:16:03.256Z</time></trkpt><trkpt lat="42.4031099" lon="11.1574758"><ele>524.0</ele><time>2026-04-04T08:16:05.249Z</time></trkpt><trkpt lat="42.403082" lon="11.1573982"><ele>524.0</ele><time>2026-04-04T08:16:10.248Z</time></trkpt><trkpt lat="42.4030455" lon="11.1573186"><ele>524.0</ele><time>2026-04-04T08:16:12.248Z</time></trkpt><trkpt lat="42.4030107" lon="11.1572071"><ele>520.0</ele><time>2026-04-04T08:16:14.25Z</time></trkpt><trkpt lat="42.4029694" lon="11.1570835"><ele>516.0</ele><time>2026-04-04T08:16:16.25Z</time></trkpt><trkpt lat="42.4029317" lon="11.1569531"><ele>512.0</ele><time>2026-04-04T08:16:18.248Z</time></trkpt><trkpt lat="42.4028956" lon="11.1568204"><ele>508.0</ele><time>2026-04-04T08:16:20.253Z</time></trkpt><trkpt lat="42.4028449" lon="11.1567127"><ele>504.0</ele><time>2026-04-04T08:16:22.248Z</time></trkpt><trkpt lat="42.4027853" lon="11.1566413"><ele>504.0</ele><time>2026-04-04T08:16:24.251Z</time></trkpt><trkpt lat="42.4027252" lon="11.1565697"><ele>504.0</ele><time>2026-04-04T08:16:26.247Z</time></trkpt><trkpt lat="42.4026724" lon="11.1564808"><ele>504.0</ele><time>2026-04-04T08:16:28.244Z</time></trkpt><trkpt lat="42.4026392" lon="11.1563697"><ele>504.0</ele><time>2026-04-04T08:16:30.246Z</time></trkpt><trkpt lat="42.4025845" lon="11.1562563"><ele>504.0</ele><time>2026-04-04T08:16:32.258Z</time></trkpt><trkpt lat="42.4025167" lon="11.1561371"><ele>503.6666666666667</ele><time>2026-04-04T08:16:34.244Z</time></trkpt><trkpt lat="42.4024493" lon="11.1560198"><ele>503.33333333333337</ele><time>2026-04-04T08:16:36.252Z</time></trkpt><trkpt lat="42.4024104" lon="11.1559113"><ele>503.0</ele><time>2026-04-04T08:16:38.247Z</time></trkpt><trkpt lat="42.4024275" lon="11.1558121"><ele>502.6666666666667</ele><time>2026-04-04T08:16:43.248Z</time></trkpt><trkpt lat="42.4025058" lon="11.1557301"><ele>502.33333333333337</ele><time>2026-04-04T08:16:46.252Z</time></trkpt><trkpt lat="42.4025689" lon="11.1556769"><ele>502.0</ele><time>2026-04-04T08:16:48.249Z</time></trkpt><trkpt lat="42.4026461" lon="11.1556132"><ele>501.00000000000006</ele><time>2026-04-04T08:16:51.248Z</time></trkpt><trkpt lat="42.402709" lon="11.1555586"><ele>500.0</ele><time>2026-04-04T08:16:54.25Z</time></trkpt><trkpt lat="42.4027704" lon="11.1555137"><ele>499.0</ele><time>2026-04-04T08:16:58.248Z</time></trkpt><trkpt lat="42.4028512" lon="11.1554466"><ele>498.0</ele><time>2026-04-04T08:17:01.247Z</time></trkpt><trkpt lat="42.4029225" lon="11.1553951"><ele>497.00000000000006</ele><time>2026-04-04T08:17:03.246Z</time></trkpt><trkpt lat="42.4030268" lon="11.1553225"><ele>496.0</ele><time>2026-04-04T08:17:05.246Z</time></trkpt><trkpt lat="42.4031164" lon="11.1552416"><ele>496.00000000000006</ele><time>2026-04-04T08:17:07.249Z</time></trkpt><trkpt lat="42.4031698" lon="11.1551951"><ele>496.0</ele><time>2026-04-04T08:17:08.247Z</time></trkpt><trkpt lat="42.4032297" lon="11.1551402"><ele>496.0</ele><time>2026-04-04T08:17:09.247Z</time></trkpt><trkpt lat="42.4032898" lon="11.1550962"><ele>496.0</ele><time>2026-04-04T08:17:10.261Z</time></trkpt><trkpt lat="42.4033488" lon="11.1550642"><ele>496.00000000000006</ele><time>2026-04-04T08:17:11.248Z</time></trkpt><trkpt lat="42.403447" lon="11.1549861"><ele>496.0</ele><time>2026-04-04T08:17:13.244Z</time></trkpt><trkpt lat="42.4035379" lon="11.1549226"><ele>492.50000000000006</ele><time>2026-04-04T08:17:15.248Z</time></trkpt><trkpt lat="42.403617" lon="11.1548709"><ele>489.0</ele><time>2026-04-04T08:17:17.249Z</time></trkpt><trkpt lat="42.4037018" lon="11.1548082"><ele>485.5</ele><time>2026-04-04T08:17:19.249Z</time></trkpt><trkpt lat="42.4037794" lon="11.1547458"><ele>482.0</ele><time>2026-04-04T08:17:21.24Z</time></trkpt><trkpt lat="42.4038435" lon="11.1547055"><ele>478.50000000000006</ele><time>2026-04-04T08:17:23.25Z</time></trkpt><trkpt lat="42.4039078" lon="11.1546509"><ele>475.0</ele><time>2026-04-04T08:17:25.249Z</time></trkpt><trkpt lat="42.4039588" lon="11.154588"><ele>475.00000000000006</ele><time>2026-04-04T08:17:27.249Z</time></trkpt><trkpt lat="42.4040227" lon="11.1545235"><ele>475.0</ele><time>2026-04-04T08:17:29.249Z</time></trkpt><trkpt lat="42.4040694" lon="11.1544424"><ele>475.0</ele><time>2026-04-04T08:17:33.26Z</time></trkpt><trkpt lat="42.4041428" lon="11.1543857"><ele>475.0</ele><time>2026-04-04T08:17:38.247Z</time></trkpt><trkpt lat="42.4042118" lon="11.1543368"><ele>475.00000000000006</ele><time>2026-04-04T08:17:41.252Z</time></trkpt><trkpt lat="42.4042858" lon="11.1542795"><ele>475.0</ele><time>2026-04-04T08:17:44.253Z</time></trkpt><trkpt lat="42.4043735" lon="11.1542262"><ele>475.0</ele><time>2026-04-04T08:17:47.242Z</time></trkpt><trkpt lat="42.4044623" lon="11.1541726"><ele>475.0</ele><time>2026-04-04T08:17:50.245Z</time></trkpt><trkpt lat="42.4045296" lon="11.1541165"><ele>475.0</ele><time>2026-04-04T08:17:53.234Z</time></trkpt><trkpt lat="42.4046126" lon="11.1540601"><ele>475.0</ele><time>2026-04-04T08:17:56.255Z</time></trkpt><trkpt lat="42.4046968" lon="11.1540003"><ele>475.0</ele><time>2026-04-04T08:17:58.246Z</time></trkpt><trkpt lat="42.4047713" lon="11.1539404"><ele>471.7142857142857</ele><time>2026-04-04T08:18:00.245Z</time></trkpt><trkpt lat="42.404829" lon="11.1538924"><ele>468.42857142857144</ele><time>2026-04-04T08:18:02.246Z</time></trkpt><trkpt lat="42.4048853" lon="11.1538421"><ele>465.14285714285717</ele><time>2026-04-04T08:18:04.251Z</time></trkpt><trkpt lat="42.4049539" lon="11.1537911"><ele>461.8571428571429</ele><time>2026-04-04T08:18:07.245Z</time></trkpt><trkpt lat="42.4050172" lon="11.1537463"><ele>458.57142857142856</ele><time>2026-04-04T08:18:10.245Z</time></trkpt><trkpt lat="42.405081" lon="11.1536903"><ele>455.28571428571433</ele><time>2026-04-04T08:18:14.249Z</time></trkpt><trkpt lat="42.4051416" lon="11.1536205"><ele>452.0</ele><time>2026-04-04T08:18:18.257Z</time></trkpt><trkpt lat="42.4052125" lon="11.1535792"><ele>451.99999999999994</ele><time>2026-04-04T08:18:21.244Z</time></trkpt><trkpt lat="42.4052901" lon="11.1535164"><ele>452.0</ele><time>2026-04-04T08:18:24.246Z</time></trkpt><trkpt lat="42.4053498" lon="11.1534753"><ele>452.0</ele><time>2026-04-04T08:18:30.252Z</time></trkpt><trkpt lat="42.4054089" lon="11.1534121"><ele>452.0</ele><time>2026-04-04T08:18:45.258Z</time></trkpt><trkpt lat="42.4054621" lon="11.1533458"><ele>451.99999999999994</ele><time>2026-04-04T08:18:50.248Z</time></trkpt><trkpt lat="42.4055178" lon="11.1533015"><ele>452.0</ele><time>2026-04-04T08:18:53.245Z</time></trkpt><trkpt lat="42.4055905" lon="11.1532542"><ele>453.6</ele><time>2026-04-04T08:18:56.25Z</time></trkpt><trkpt lat="42.4056693" lon="11.1532077"><ele>455.20000000000005</ele><time>2026-04-04T08:18:59.254Z</time></trkpt><trkpt lat="42.4057368" lon="11.1531864"><ele>456.8</ele><time>2026-04-04T08:19:03.244Z</time></trkpt><trkpt lat="42.4058252" lon="11.1532293"><ele>458.4</ele><time>2026-04-04T08:19:05.247Z</time></trkpt><trkpt lat="42.4059358" lon="11.1532912"><ele>460.0</ele><time>2026-04-04T08:19:08.249Z</time></trkpt><trkpt lat="42.4060334" lon="11.1533659"><ele>460.00000000000006</ele><time>2026-04-04T08:19:09.242Z</time></trkpt><trkpt lat="42.4061115" lon="11.1534291"><ele>460.0</ele><time>2026-04-04T08:19:10.245Z</time></trkpt><trkpt lat="42.406163" lon="11.1535022"><ele>460.0</ele><time>2026-04-04T08:19:11.25Z</time></trkpt><trkpt lat="42.4061991" lon="11.1535842"><ele>460.0</ele><time>2026-04-04T08:19:12.246Z</time></trkpt><trkpt lat="42.4062524" lon="11.1536857"><ele>460.00000000000006</ele><time>2026-04-04T08:19:14.245Z</time></trkpt><trkpt lat="42.4062578" lon="11.1537794"><ele>460.0</ele><time>2026-04-04T08:19:18.247Z</time></trkpt><trkpt lat="42.4061985" lon="11.1537355"><ele>460.00000000000006</ele><time>2026-04-04T08:19:22.246Z</time></trkpt><trkpt lat="42.4061853" lon="11.1536457"><ele>460.0</ele><time>2026-04-04T08:19:24.243Z</time></trkpt><trkpt lat="42.406161" lon="11.1535298"><ele>460.0</ele><time>2026-04-04T08:19:27.248Z</time></trkpt><trkpt lat="42.4060986" lon="11.1534332"><ele>460.0</ele><time>2026-04-04T08:19:29.244Z</time></trkpt><trkpt lat="42.4060071" lon="11.1533302"><ele>460.00000000000006</ele><time>2026-04-04T08:19:31.246Z</time></trkpt><trkpt lat="42.4059524" lon="11.1532774"><ele>460.0</ele><time>2026-04-04T08:19:32.251Z</time></trkpt><trkpt lat="42.4058607" lon="11.1532335"><ele>461.0</ele><time>2026-04-04T08:19:34.249Z</time></trkpt><trkpt lat="42.4057795" lon="11.1531963"><ele>462.0</ele><time>2026-04-04T08:19:36.244Z</time></trkpt><trkpt lat="42.4056908" lon="11.1531594"><ele>463.0</ele><time>2026-04-04T08:19:43.249Z</time></trkpt><trkpt lat="42.405597" lon="11.1531167"><ele>464.0</ele><time>2026-04-04T08:19:45.251Z</time></trkpt><trkpt lat="42.4055294" lon="11.1530759"><ele>465.0</ele><time>2026-04-04T08:19:46.246Z</time></trkpt><trkpt lat="42.4054245" lon="11.1530143"><ele>461.5</ele><time>2026-04-04T08:19:48.256Z</time></trkpt><trkpt lat="42.4053641" lon="11.1529601"><ele>458.0</ele><time>2026-04-04T08:19:50.241Z</time></trkpt><trkpt lat="42.4052896" lon="11.1528991"><ele>454.5</ele><time>2026-04-04T08:19:52.25Z</time></trkpt><trkpt lat="42.405228" lon="11.1528672"><ele>451.0</ele><time>2026-04-04T08:19:54.248Z</time></trkpt><trkpt lat="42.4051552" lon="11.1528465"><ele>447.5</ele><time>2026-04-04T08:20:30.252Z</time></trkpt><trkpt lat="42.4052595" lon="11.1529044"><ele>444.0</ele><time>2026-04-04T08:20:42.248Z</time></trkpt><trkpt lat="42.4053227" lon="11.1529557"><ele>444.0</ele><time>2026-04-04T08:20:43.246Z</time></trkpt><trkpt lat="42.4053823" lon="11.1529997"><ele>444.0</ele><time>2026-04-04T08:20:44.248Z</time></trkpt><trkpt lat="42.4054409" lon="11.1530469"><ele>444.0</ele><time>2026-04-04T08:20:45.248Z</time></trkpt><trkpt lat="42.4055102" lon="11.1530886"><ele>444.0</ele><time>2026-04-04T08:20:46.254Z</time></trkpt><trkpt lat="42.4055866" lon="11.1531332"><ele>444.0</ele><time>2026-04-04T08:20:47.251Z</time></trkpt><trkpt lat="42.4056641" lon="11.1531656"><ele>444.0</ele><time>2026-04-04T08:20:48.253Z</time></trkpt><trkpt lat="42.4057388" lon="11.1531975"><ele>446.6666666666667</ele><time>2026-04-04T08:20:49.243Z</time></trkpt><trkpt lat="42.4058197" lon="11.1532253"><ele>449.33333333333337</ele><time>2026-04-04T08:20:50.248Z</time></trkpt><trkpt lat="42.4059069" lon="11.1532635"><ele>452.0</ele><time>2026-04-04T08:20:51.243Z</time></trkpt><trkpt lat="42.4059887" lon="11.1533067"><ele>454.6666666666667</ele><time>2026-04-04T08:20:52.246Z</time></trkpt><trkpt lat="42.4060655" lon="11.1533575"><ele>457.33333333333337</ele><time>2026-04-04T08:20:53.248Z</time></trkpt><trkpt lat="42.4061394" lon="11.1534156"><ele>460.0</ele><time>2026-04-04T08:20:54.25Z</time></trkpt><trkpt lat="42.4061949" lon="11.1534802"><ele>460.00000000000006</ele><time>2026-04-04T08:20:55.247Z</time></trkpt><trkpt lat="42.4062333" lon="11.1535634"><ele>460.0</ele><time>2026-04-04T08:20:56.252Z</time></trkpt><trkpt lat="42.4062537" lon="11.1536765"><ele>460.0</ele><time>2026-04-04T08:20:58.247Z</time></trkpt><trkpt lat="42.4063107" lon="11.1535922"><ele>460.0</ele><time>2026-04-04T08:21:05.245Z</time></trkpt><trkpt lat="42.4062638" lon="11.1534472"><ele>460.00000000000006</ele><time>2026-04-04T08:21:07.259Z</time></trkpt><trkpt lat="42.4062258" lon="11.1533576"><ele>460.0</ele><time>2026-04-04T08:21:09.251Z</time></trkpt><trkpt lat="42.406299" lon="11.1533544"><ele>463.6</ele><time>2026-04-04T08:21:13.257Z</time></trkpt><trkpt lat="42.4063784" lon="11.1534523"><ele>467.2</ele><time>2026-04-04T08:21:15.249Z</time></trkpt><trkpt lat="42.4064279" lon="11.1535313"><ele>470.79999999999995</ele><time>2026-04-04T08:21:16.248Z</time></trkpt><trkpt lat="42.4064822" lon="11.1536275"><ele>474.4</ele><time>2026-04-04T08:21:17.253Z</time></trkpt><trkpt lat="42.4065457" lon="11.1537183"><ele>478.0</ele><time>2026-04-04T08:21:18.248Z</time></trkpt><trkpt lat="42.4066153" lon="11.1538156"><ele>478.0</ele><time>2026-04-04T08:21:19.254Z</time></trkpt><trkpt lat="42.4066805" lon="11.1539244"><ele>477.99999999999994</ele><time>2026-04-04T08:21:20.254Z</time></trkpt><trkpt lat="42.4067526" lon="11.1540374"><ele>477.99999999999994</ele><time>2026-04-04T08:21:21.244Z</time></trkpt><trkpt lat="42.4068186" lon="11.154157"><ele>478.0</ele><time>2026-04-04T08:21:22.247Z</time></trkpt><trkpt lat="42.4068808" lon="11.1542772"><ele>478.0</ele><time>2026-04-04T08:21:23.248Z</time></trkpt><trkpt lat="42.4069333" lon="11.1543967"><ele>477.59999999999997</ele><time>2026-04-04T08:21:24.248Z</time></trkpt><trkpt lat="42.4069689" lon="11.1545472"><ele>477.19999999999993</ele><time>2026-04-04T08:21:25.246Z</time></trkpt><trkpt lat="42.4070025" lon="11.1546873"><ele>476.8</ele><time>2026-04-04T08:21:26.248Z</time></trkpt><trkpt lat="42.4070319" lon="11.154812"><ele>476.4</ele><time>2026-04-04T08:21:27.249Z</time></trkpt><trkpt lat="42.4070587" lon="11.1549103"><ele>476.0</ele><time>2026-04-04T08:21:28.244Z</time></trkpt><trkpt lat="42.4070851" lon="11.1549957"><ele>476.99999999999994</ele><time>2026-04-04T08:21:29.252Z</time></trkpt><trkpt lat="42.4071068" lon="11.1550811"><ele>478.0</ele><time>2026-04-04T08:21:30.245Z</time></trkpt><trkpt lat="42.4071272" lon="11.1551709"><ele>479.0</ele><time>2026-04-04T08:21:31.25Z</time></trkpt><trkpt lat="42.4071471" lon="11.1552535"><ele>480.0</ele><time>2026-04-04T08:21:32.248Z</time></trkpt><trkpt lat="42.4071894" lon="11.1553821"><ele>480.99999999999994</ele><time>2026-04-04T08:21:34.252Z</time></trkpt><trkpt lat="42.4072457" lon="11.1555071"><ele>482.0</ele><time>2026-04-04T08:21:36.256Z</time></trkpt><trkpt lat="42.407325" lon="11.1555187"><ele>483.40000000000003</ele><time>2026-04-04T08:21:39.248Z</time></trkpt><trkpt lat="42.4073727" lon="11.1554101"><ele>484.80000000000007</ele><time>2026-04-04T08:21:41.246Z</time></trkpt><trkpt lat="42.4073942" lon="11.1553277"><ele>486.2</ele><time>2026-04-04T08:21:42.253Z</time></trkpt><trkpt lat="42.4074138" lon="11.1552288"><ele>487.6</ele><time>2026-04-04T08:21:43.254Z</time></trkpt><trkpt lat="42.4074283" lon="11.1551022"><ele>489.0</ele><time>2026-04-04T08:21:44.257Z</time></trkpt><trkpt lat="42.4074521" lon="11.1549348"><ele>489.75</ele><time>2026-04-04T08:21:45.251Z</time></trkpt><trkpt lat="42.4074882" lon="11.1547314"><ele>490.5</ele><time>2026-04-04T08:21:46.255Z</time></trkpt><trkpt lat="42.4075159" lon="11.1545523"><ele>491.25</ele><time>2026-04-04T08:21:47.245Z</time></trkpt><trkpt lat="42.4075173" lon="11.1543969"><ele>492.0</ele><time>2026-04-04T08:21:48.253Z</time></trkpt><trkpt lat="42.4074874" lon="11.154251"><ele>492.0</ele><time>2026-04-04T08:21:49.25Z</time></trkpt><trkpt lat="42.4074339" lon="11.1541031"><ele>492.0</ele><time>2026-04-04T08:21:50.252Z</time></trkpt><trkpt lat="42.4073702" lon="11.1539576"><ele>492.0</ele><time>2026-04-04T08:21:51.245Z</time></trkpt><trkpt lat="42.4073278" lon="11.1537999"><ele>492.0</ele><time>2026-04-04T08:21:52.252Z</time></trkpt><trkpt lat="42.4073098" lon="11.1536574"><ele>491.3333333333333</ele><time>2026-04-04T08:21:53.246Z</time></trkpt><trkpt lat="42.4073009" lon="11.1535364"><ele>490.66666666666663</ele><time>2026-04-04T08:21:54.249Z</time></trkpt><trkpt lat="42.4072988" lon="11.1534463"><ele>490.0</ele><time>2026-04-04T08:21:55.262Z</time></trkpt><trkpt lat="42.4073003" lon="11.153359"><ele>489.3333333333333</ele><time>2026-04-04T08:21:58.245Z</time></trkpt><trkpt lat="42.4072788" lon="11.1532168"><ele>488.66666666666663</ele><time>2026-04-04T08:22:01.249Z</time></trkpt><trkpt lat="42.4073107" lon="11.1531023"><ele>488.0</ele><time>2026-04-04T08:22:03.252Z</time></trkpt><trkpt lat="42.4073434" lon="11.1530173"><ele>487.99999999999994</ele><time>2026-04-04T08:22:06.248Z</time></trkpt><trkpt lat="42.4072815" lon="11.1530647"><ele>488.0</ele><time>2026-04-04T08:22:11.25Z</time></trkpt><trkpt lat="42.4072704" lon="11.1531951"><ele>488.0</ele><time>2026-04-04T08:22:13.256Z</time></trkpt><trkpt lat="42.4072696" lon="11.153333"><ele>488.0</ele><time>2026-04-04T08:22:15.248Z</time></trkpt><trkpt lat="42.4072892" lon="11.1534353"><ele>487.99999999999994</ele><time>2026-04-04T08:22:17.251Z</time></trkpt><trkpt lat="42.407365" lon="11.1534769"><ele>488.0</ele><time>2026-04-04T08:22:20.25Z</time></trkpt><trkpt lat="42.4074438" lon="11.1535579"><ele>487.99999999999994</ele><time>2026-04-04T08:22:23.252Z</time></trkpt><trkpt lat="42.4075043" lon="11.1536136"><ele>488.0</ele><time>2026-04-04T08:22:25.244Z</time></trkpt><trkpt lat="42.4075646" lon="11.153653"><ele>488.0</ele><time>2026-04-04T08:22:27.256Z</time></trkpt><trkpt lat="42.4076483" lon="11.1536962"><ele>488.0</ele><time>2026-04-04T08:22:30.251Z</time></trkpt><trkpt lat="42.4077014" lon="11.1537719"><ele>487.99999999999994</ele><time>2026-04-04T08:22:33.253Z</time></trkpt><trkpt lat="42.4077604" lon="11.1538375"><ele>488.0</ele><time>2026-04-04T08:22:35.247Z</time></trkpt><trkpt lat="42.4078208" lon="11.1539322"><ele>488.0</ele><time>2026-04-04T08:22:37.253Z</time></trkpt><trkpt lat="42.4078775" lon="11.1540336"><ele>487.99999999999994</ele><time>2026-04-04T08:22:39.254Z</time></trkpt><trkpt lat="42.4079431" lon="11.1541273"><ele>487.99999999999994</ele><time>2026-04-04T08:22:41.241Z</time></trkpt><trkpt lat="42.4080008" lon="11.1542041"><ele>488.0</ele><time>2026-04-04T08:22:43.258Z</time></trkpt><trkpt lat="42.4080857" lon="11.1543044"><ele>488.0</ele><time>2026-04-04T08:22:45.256Z</time></trkpt><trkpt lat="42.4081844" lon="11.1543732"><ele>489.99999999999994</ele><time>2026-04-04T08:22:47.25Z</time></trkpt><trkpt lat="42.4082741" lon="11.1544033"><ele>492.0</ele><time>2026-04-04T08:22:49.256Z</time></trkpt><trkpt lat="42.408376" lon="11.1544405"><ele>494.0</ele><time>2026-04-04T08:22:51.265Z</time></trkpt><trkpt lat="42.4084323" lon="11.154482"><ele>496.0</ele><time>2026-04-04T08:22:59.252Z</time></trkpt><trkpt lat="42.4084451" lon="11.1545791"><ele>497.99999999999994</ele><time>2026-04-04T08:23:01.254Z</time></trkpt><trkpt lat="42.4084753" lon="11.1547232"><ele>500.0</ele><time>2026-04-04T08:23:03.254Z</time></trkpt><trkpt lat="42.4085017" lon="11.1548794"><ele>500.0</ele><time>2026-04-04T08:23:05.253Z</time></trkpt><trkpt lat="42.4085397" lon="11.1550185"><ele>500.0</ele><time>2026-04-04T08:23:07.253Z</time></trkpt><trkpt lat="42.408575" lon="11.1551347"><ele>500.0</ele><time>2026-04-04T08:23:09.253Z</time></trkpt><trkpt lat="42.4085964" lon="11.1552575"><ele>500.0</ele><time>2026-04-04T08:23:11.258Z</time></trkpt><trkpt lat="42.4086051" lon="11.155372"><ele>500.0</ele><time>2026-04-04T08:23:13.256Z</time></trkpt><trkpt lat="42.4086143" lon="11.1554681"><ele>499.99999999999994</ele><time>2026-04-04T08:23:17.245Z</time></trkpt><trkpt lat="42.4085826" lon="11.1555633"><ele>500.0</ele><time>2026-04-04T08:23:22.251Z</time></trkpt><trkpt lat="42.4085302" lon="11.1556681"><ele>500.0</ele><time>2026-04-04T08:23:25.253Z</time></trkpt><trkpt lat="42.4084868" lon="11.1557451"><ele>500.0</ele><time>2026-04-04T08:23:28.252Z</time></trkpt><trkpt lat="42.4084476" lon="11.1558306"><ele>499.99999999999994</ele><time>2026-04-04T08:23:31.245Z</time></trkpt><trkpt lat="42.4084091" lon="11.1559078"><ele>500.0</ele><time>2026-04-04T08:23:34.246Z</time></trkpt><trkpt lat="42.4083664" lon="11.155989"><ele>497.8333333333333</ele><time>2026-04-04T08:23:37.248Z</time></trkpt><trkpt lat="42.4083176" lon="11.156084"><ele>495.66666666666663</ele><time>2026-04-04T08:23:40.259Z</time></trkpt><trkpt lat="42.4082717" lon="11.1561597"><ele>493.5</ele><time>2026-04-04T08:23:42.253Z</time></trkpt><trkpt lat="42.4082356" lon="11.1562314"><ele>491.33333333333337</ele><time>2026-04-04T08:23:44.251Z</time></trkpt><trkpt lat="42.408179" lon="11.1563035"><ele>489.1666666666667</ele><time>2026-04-04T08:23:47.25Z</time></trkpt><trkpt lat="42.4081307" lon="11.156393"><ele>487.0</ele><time>2026-04-04T08:23:50.252Z</time></trkpt><trkpt lat="42.4080811" lon="11.1564827"><ele>486.00000000000006</ele><time>2026-04-04T08:23:54.247Z</time></trkpt><trkpt lat="42.4080356" lon="11.1565593"><ele>485.0</ele><time>2026-04-04T08:23:56.256Z</time></trkpt><trkpt lat="42.4079902" lon="11.1566538"><ele>484.0</ele><time>2026-04-04T08:23:59.258Z</time></trkpt><trkpt lat="42.4079579" lon="11.1567275"><ele>483.0</ele><time>2026-04-04T08:24:02.249Z</time></trkpt><trkpt lat="42.4079013" lon="11.1568053"><ele>482.00000000000006</ele><time>2026-04-04T08:24:08.251Z</time></trkpt><trkpt lat="42.4078544" lon="11.1569003"><ele>481.0</ele><time>2026-04-04T08:24:10.253Z</time></trkpt><trkpt lat="42.4078059" lon="11.1569785"><ele>481.0</ele><time>2026-04-04T08:24:11.248Z</time></trkpt><trkpt lat="42.4077239" lon="11.1571109"><ele>481.0</ele><time>2026-04-04T08:24:13.25Z</time></trkpt><trkpt lat="42.4076863" lon="11.1571857"><ele>481.0</ele><time>2026-04-04T08:24:14.249Z</time></trkpt><trkpt lat="42.4076132" lon="11.1573119"><ele>481.0</ele><time>2026-04-04T08:24:16.251Z</time></trkpt><trkpt lat="42.4075484" lon="11.1574444"><ele>481.0</ele><time>2026-04-04T08:24:18.252Z</time></trkpt><trkpt lat="42.4074981" lon="11.1575725"><ele>479.99999999999994</ele><time>2026-04-04T08:24:20.246Z</time></trkpt><trkpt lat="42.4074525" lon="11.1576774"><ele>479.0</ele><time>2026-04-04T08:24:22.253Z</time></trkpt><trkpt lat="42.4074235" lon="11.1577546"><ele>477.99999999999994</ele><time>2026-04-04T08:24:23.249Z</time></trkpt><trkpt lat="42.4073866" lon="11.1578378"><ele>476.99999999999994</ele><time>2026-04-04T08:24:24.254Z</time></trkpt><trkpt lat="42.4073465" lon="11.1579173"><ele>476.0</ele><time>2026-04-04T08:24:25.252Z</time></trkpt><trkpt lat="42.4073069" lon="11.1579973"><ele>474.99999999999994</ele><time>2026-04-04T08:24:26.252Z</time></trkpt><trkpt lat="42.4072706" lon="11.1580729"><ele>473.99999999999994</ele><time>2026-04-04T08:24:27.262Z</time></trkpt><trkpt lat="42.4072276" lon="11.1582056"><ele>473.5</ele><time>2026-04-04T08:24:29.253Z</time></trkpt><trkpt lat="42.4071478" lon="11.1582972"><ele>473.0</ele><time>2026-04-04T08:24:31.247Z</time></trkpt><trkpt lat="42.4070552" lon="11.1583423"><ele>472.5</ele><time>2026-04-04T08:24:33.246Z</time></trkpt><trkpt lat="42.406991" lon="11.1583831"><ele>472.0</ele><time>2026-04-04T08:24:35.245Z</time></trkpt><trkpt lat="42.4069122" lon="11.1584392"><ele>471.5</ele><time>2026-04-04T08:24:39.247Z</time></trkpt><trkpt lat="42.4068385" lon="11.1585005"><ele>471.0</ele><time>2026-04-04T08:24:42.253Z</time></trkpt><trkpt lat="42.4067584" lon="11.158535"><ele>471.0</ele><time>2026-04-04T08:24:45.249Z</time></trkpt><trkpt lat="42.4066929" lon="11.1585489"><ele>471.0</ele><time>2026-04-04T08:24:47.255Z</time></trkpt><trkpt lat="42.4066092" lon="11.1585904"><ele>471.0</ele><time>2026-04-04T08:24:50.25Z</time></trkpt><trkpt lat="42.4065322" lon="11.1586369"><ele>471.0</ele><time>2026-04-04T08:24:53.25Z</time></trkpt><trkpt lat="42.4064475" lon="11.1586816"><ele>471.0</ele><time>2026-04-04T08:24:55.251Z</time></trkpt><trkpt lat="42.4063854" lon="11.1587119"><ele>471.0</ele><time>2026-04-04T08:24:56.243Z</time></trkpt><trkpt lat="42.4062762" lon="11.1587623"><ele>470.6666666666667</ele><time>2026-04-04T08:24:58.248Z</time></trkpt><trkpt lat="42.4062092" lon="11.1588264"><ele>470.33333333333337</ele><time>2026-04-04T08:25:00.249Z</time></trkpt><trkpt lat="42.4061728" lon="11.1589195"><ele>470.0</ele><time>2026-04-04T08:25:02.246Z</time></trkpt><trkpt lat="42.4061528" lon="11.1590337"><ele>469.6666666666667</ele><time>2026-04-04T08:25:04.25Z</time></trkpt><trkpt lat="42.4061343" lon="11.1591491"><ele>469.33333333333337</ele><time>2026-04-04T08:25:06.25Z</time></trkpt><trkpt lat="42.4061088" lon="11.1592533"><ele>469.0</ele><time>2026-04-04T08:25:08.247Z</time></trkpt><trkpt lat="42.4060606" lon="11.1593285"><ele>469.00000000000006</ele><time>2026-04-04T08:25:10.251Z</time></trkpt><trkpt lat="42.4059884" lon="11.1593237"><ele>469.0</ele><time>2026-04-04T08:25:13.248Z</time></trkpt><trkpt lat="42.4059232" lon="11.1593238"><ele>469.0</ele><time>2026-04-04T08:25:15.252Z</time></trkpt><trkpt lat="42.4058474" lon="11.1593259"><ele>469.0</ele><time>2026-04-04T08:25:17.259Z</time></trkpt><trkpt lat="42.4057791" lon="11.1592647"><ele>469.00000000000006</ele><time>2026-04-04T08:25:19.246Z</time></trkpt><trkpt lat="42.4057094" lon="11.1592046"><ele>469.0</ele><time>2026-04-04T08:25:21.255Z</time></trkpt><trkpt lat="42.4056333" lon="11.1592226"><ele>469.00000000000006</ele><time>2026-04-04T08:25:23.256Z</time></trkpt><trkpt lat="42.4055825" lon="11.1592801"><ele>469.0</ele><time>2026-04-04T08:25:24.256Z</time></trkpt><trkpt lat="42.4055457" lon="11.1593823"><ele>469.0</ele><time>2026-04-04T08:25:26.25Z</time></trkpt><trkpt lat="42.4055202" lon="11.1595087"><ele>469.0</ele><time>2026-04-04T08:25:29.258Z</time></trkpt><trkpt lat="42.4054648" lon="11.1596074"><ele>469.00000000000006</ele><time>2026-04-04T08:25:31.249Z</time></trkpt><trkpt lat="42.4054218" lon="11.1597153"><ele>469.0</ele><time>2026-04-04T08:25:33.247Z</time></trkpt><trkpt lat="42.4053634" lon="11.1598012"><ele>473.1666666666667</ele><time>2026-04-04T08:25:35.248Z</time></trkpt><trkpt lat="42.4053139" lon="11.1598935"><ele>477.33333333333337</ele><time>2026-04-04T08:25:37.247Z</time></trkpt><trkpt lat="42.4052524" lon="11.1599851"><ele>481.5</ele><time>2026-04-04T08:25:40.185Z</time></trkpt><trkpt lat="42.4052133" lon="11.1600529"><ele>485.66666666666663</ele><time>2026-04-04T08:25:42.247Z</time></trkpt><trkpt lat="42.4051819" lon="11.1601289"><ele>489.8333333333333</ele><time>2026-04-04T08:25:44.245Z</time></trkpt><trkpt lat="42.4051267" lon="11.1602289"><ele>494.0</ele><time>2026-04-04T08:25:47.249Z</time></trkpt><trkpt lat="42.4050601" lon="11.1602969"><ele>494.0</ele><time>2026-04-04T08:25:49.256Z</time></trkpt><trkpt lat="42.4049793" lon="11.1603481"><ele>494.0</ele><time>2026-04-04T08:25:51.206Z</time></trkpt><trkpt lat="42.4048888" lon="11.1604384"><ele>494.0</ele><time>2026-04-04T08:25:52.245Z</time></trkpt><trkpt lat="42.4048263" lon="11.1604939"><ele>494.0</ele><time>2026-04-04T08:25:53.252Z</time></trkpt><trkpt lat="42.4047241" lon="11.1605779"><ele>494.0</ele><time>2026-04-04T08:25:55.251Z</time></trkpt><trkpt lat="42.4046476" lon="11.1606143"><ele>496.99999999999994</ele><time>2026-04-04T08:25:57.251Z</time></trkpt><trkpt lat="42.4045265" lon="11.1606428"><ele>500.0</ele><time>2026-04-04T08:25:59.256Z</time></trkpt><trkpt lat="42.4044595" lon="11.1606365"><ele>503.0</ele><time>2026-04-04T08:26:01.252Z</time></trkpt><trkpt lat="42.4043981" lon="11.1606073"><ele>506.0</ele><time>2026-04-04T08:26:03.249Z</time></trkpt><trkpt lat="42.404321" lon="11.1606114"><ele>508.99999999999994</ele><time>2026-04-04T08:26:05.25Z</time></trkpt><trkpt lat="42.4042207" lon="11.160626"><ele>512.0</ele><time>2026-04-04T08:26:07.253Z</time></trkpt><trkpt lat="42.4041403" lon="11.1606292"><ele>512.0</ele><time>2026-04-04T08:26:09.245Z</time></trkpt><trkpt lat="42.4040691" lon="11.1606326"><ele>511.99999999999994</ele><time>2026-04-04T08:26:11.252Z</time></trkpt><trkpt lat="42.4040051" lon="11.1606391"><ele>512.0</ele><time>2026-04-04T08:26:13.258Z</time></trkpt><trkpt lat="42.4039355" lon="11.1606393"><ele>512.0</ele><time>2026-04-04T08:26:16.248Z</time></trkpt><trkpt lat="42.40387" lon="11.1606157"><ele>511.99999999999994</ele><time>2026-04-04T08:26:18.249Z</time></trkpt><trkpt lat="42.4037954" lon="11.1606523"><ele>512.0</ele><time>2026-04-04T08:26:20.248Z</time></trkpt><trkpt lat="42.4037288" lon="11.1607171"><ele>512.0</ele><time>2026-04-04T08:26:23.252Z</time></trkpt><trkpt lat="42.4036336" lon="11.1607617"><ele>509.49999999999994</ele><time>2026-04-04T08:26:26.247Z</time></trkpt><trkpt lat="42.4035196" lon="11.1607566"><ele>507.0</ele><time>2026-04-04T08:26:28.248Z</time></trkpt><trkpt lat="42.403439" lon="11.1607625"><ele>504.5</ele><time>2026-04-04T08:26:30.255Z</time></trkpt><trkpt lat="42.4033654" lon="11.1607565"><ele>502.0</ele><time>2026-04-04T08:26:32.251Z</time></trkpt><trkpt lat="42.4032946" lon="11.1607523"><ele>499.49999999999994</ele><time>2026-04-04T08:26:34.259Z</time></trkpt><trkpt lat="42.4032312" lon="11.1607411"><ele>497.0</ele><time>2026-04-04T08:26:36.251Z</time></trkpt><trkpt lat="42.4031293" lon="11.1607172"><ele>498.20000000000005</ele><time>2026-04-04T08:26:38.251Z</time></trkpt><trkpt lat="42.4030507" lon="11.1606974"><ele>499.40000000000003</ele><time>2026-04-04T08:26:40.246Z</time></trkpt><trkpt lat="42.4029485" lon="11.1606952"><ele>500.59999999999997</ele><time>2026-04-04T08:26:42.253Z</time></trkpt><trkpt lat="42.4028311" lon="11.1607223"><ele>501.79999999999995</ele><time>2026-04-04T08:26:44.258Z</time></trkpt><trkpt lat="42.4027211" lon="11.1607227"><ele>503.0</ele><time>2026-04-04T08:26:46.247Z</time></trkpt><trkpt lat="42.4026491" lon="11.1606709"><ele>503.16666666666663</ele><time>2026-04-04T08:26:48.248Z</time></trkpt><trkpt lat="42.4026071" lon="11.1606048"><ele>503.3333333333333</ele><time>2026-04-04T08:26:51.25Z</time></trkpt><trkpt lat="42.4026131" lon="11.1604809"><ele>503.5</ele><time>2026-04-04T08:26:55.148Z</time></trkpt><trkpt lat="42.4025564" lon="11.1603958"><ele>503.66666666666663</ele><time>2026-04-04T08:27:01.242Z</time></trkpt><trkpt lat="42.4026146" lon="11.1604422"><ele>503.8333333333333</ele><time>2026-04-04T08:27:06.25Z</time></trkpt><trkpt lat="42.4026238" lon="11.1605509"><ele>504.0</ele><time>2026-04-04T08:27:09.25Z</time></trkpt><trkpt lat="42.4025809" lon="11.1606649"><ele>504.0</ele><time>2026-04-04T08:27:13.254Z</time></trkpt><trkpt lat="42.4025057" lon="11.1607803"><ele>503.0</ele><time>2026-04-04T08:27:15.253Z</time></trkpt><trkpt lat="42.4024573" lon="11.160854"><ele>503.0</ele><time>2026-04-04T08:27:16.247Z</time></trkpt></trkseg><trkseg><trkpt lat="42.40023" lon="11.1658646"><ele>502.00000000000006</ele><time>2026-04-04T08:30:19.247Z</time></trkpt><trkpt lat="42.4001644" lon="11.1658725"><ele>502.0</ele><time>2026-04-04T08:30:21.251Z</time></trkpt><trkpt lat="42.4000802" lon="11.1658211"><ele>502.0</ele><time>2026-04-04T08:30:25.245Z</time></trkpt><trkpt lat="42.4000261" lon="11.1657319"><ele>502.0</ele><time>2026-04-04T08:30:27.245Z</time></trkpt><trkpt lat="42.399936" lon="11.1657492"><ele>502.00000000000006</ele><time>2026-04-04T08:30:30.253Z</time></trkpt><trkpt lat="42.3998461" lon="11.1657507"><ele>502.0</ele><time>2026-04-04T08:30:32.249Z</time></trkpt><trkpt lat="42.3997817" lon="11.1657565"><ele>502.00000000000006</ele><time>2026-04-04T08:30:33.248Z</time></trkpt><trkpt lat="42.3997171" lon="11.165761"><ele>502.0</ele><time>2026-04-04T08:30:34.236Z</time></trkpt><trkpt lat="42.3996528" lon="11.165766"><ele>502.0</ele><time>2026-04-04T08:30:35.251Z</time></trkpt><trkpt lat="42.3995416" lon="11.165775"><ele>502.0</ele><time>2026-04-04T08:30:37.257Z</time></trkpt><trkpt lat="42.3994542" lon="11.165805"><ele>502.00000000000006</ele><time>2026-04-04T08:30:39.248Z</time></trkpt><trkpt lat="42.3993635" lon="11.1658358"><ele>502.0</ele><time>2026-04-04T08:30:41.258Z</time></trkpt><trkpt lat="42.3992851" lon="11.1658471"><ele>500.33333333333337</ele><time>2026-04-04T08:30:43.268Z</time></trkpt><trkpt lat="42.399218" lon="11.1658622"><ele>498.6666666666667</ele><time>2026-04-04T08:30:45.246Z</time></trkpt><trkpt lat="42.3991509" lon="11.1658727"><ele>497.0</ele><time>2026-04-04T08:30:47.239Z</time></trkpt><trkpt lat="42.3990534" lon="11.1659043"><ele>495.33333333333337</ele><time>2026-04-04T08:30:49.254Z</time></trkpt><trkpt lat="42.398952" lon="11.1659267"><ele>493.6666666666667</ele><time>2026-04-04T08:30:51.26Z</time></trkpt><trkpt lat="42.3988524" lon="11.1659218"><ele>492.0</ele><time>2026-04-04T08:30:53.251Z</time></trkpt><trkpt lat="42.3987788" lon="11.1659431"><ele>492.0</ele><time>2026-04-04T08:30:55.245Z</time></trkpt><trkpt lat="42.398703" lon="11.1659822"><ele>492.0</ele><time>2026-04-04T08:30:57.265Z</time></trkpt><trkpt lat="42.3986604" lon="11.1660806"><ele>492.0</ele><time>2026-04-04T08:31:00.246Z</time></trkpt><trkpt lat="42.3986017" lon="11.1661563"><ele>492.0</ele><time>2026-04-04T08:31:03.26Z</time></trkpt><trkpt lat="42.3985452" lon="11.1662021"><ele>492.0</ele><time>2026-04-04T08:31:05.251Z</time></trkpt><trkpt lat="42.3984937" lon="11.1662956"><ele>492.0</ele><time>2026-04-04T08:31:08.249Z</time></trkpt><trkpt lat="42.3984449" lon="11.1663643"><ele>492.0</ele><time>2026-04-04T08:31:11.244Z</time></trkpt><trkpt lat="42.3983875" lon="11.1664609"><ele>492.0</ele><time>2026-04-04T08:31:15.263Z</time></trkpt><trkpt lat="42.3983592" lon="11.1665567"><ele>492.0</ele><time>2026-04-04T08:31:18.245Z</time></trkpt><trkpt lat="42.3983257" lon="11.16664"><ele>492.0</ele><time>2026-04-04T08:31:21.242Z</time></trkpt><trkpt lat="42.3982777" lon="11.1667222"><ele>492.0</ele><time>2026-04-04T08:31:24.245Z</time></trkpt><trkpt lat="42.3982437" lon="11.1667943"><ele>492.0</ele><time>2026-04-04T08:31:26.25Z</time></trkpt><trkpt lat="42.3981806" lon="11.1668455"><ele>488.6666666666667</ele><time>2026-04-04T08:31:28.244Z</time></trkpt><trkpt lat="42.3981007" lon="11.1668922"><ele>485.33333333333337</ele><time>2026-04-04T08:31:30.241Z</time></trkpt><trkpt lat="42.3980404" lon="11.1669358"><ele>482.0</ele><time>2026-04-04T08:31:32.247Z</time></trkpt><trkpt lat="42.39797" lon="11.166978"><ele>478.6666666666667</ele><time>2026-04-04T08:31:34.245Z</time></trkpt><trkpt lat="42.397898" lon="11.1670233"><ele>475.33333333333337</ele><time>2026-04-04T08:31:36.255Z</time></trkpt><trkpt lat="42.3978253" lon="11.1670612"><ele>472.0</ele><time>2026-04-04T08:31:38.249Z</time></trkpt><trkpt lat="42.3977397" lon="11.1671275"><ele>472.0</ele><time>2026-04-04T08:31:40.242Z</time></trkpt><trkpt lat="42.3976478" lon="11.1672126"><ele>472.00000000000006</ele><time>2026-04-04T08:31:42.252Z</time></trkpt><trkpt lat="42.3975847" lon="11.1672678"><ele>472.00000000000006</ele><time>2026-04-04T08:31:43.254Z</time></trkpt><trkpt lat="42.3974807" lon="11.1673573"><ele>472.0</ele><time>2026-04-04T08:31:45.258Z</time></trkpt><trkpt lat="42.3973919" lon="11.1674213"><ele>472.0</ele><time>2026-04-04T08:31:47.247Z</time></trkpt><trkpt lat="42.3972883" lon="11.1675067"><ele>468.20000000000005</ele><time>2026-04-04T08:31:49.247Z</time></trkpt><trkpt lat="42.397195" lon="11.1675438"><ele>464.40000000000003</ele><time>2026-04-04T08:31:51.242Z</time></trkpt><trkpt lat="42.3971082" lon="11.1675907"><ele>460.59999999999997</ele><time>2026-04-04T08:31:53.245Z</time></trkpt><trkpt lat="42.3970007" lon="11.1676419"><ele>456.79999999999995</ele><time>2026-04-04T08:31:55.248Z</time></trkpt><trkpt lat="42.396915" lon="11.1676918"><ele>453.0</ele><time>2026-04-04T08:31:57.249Z</time></trkpt><trkpt lat="42.3968431" lon="11.1677398"><ele>453.0</ele><time>2026-04-04T08:31:59.25Z</time></trkpt><trkpt lat="42.3968035" lon="11.167808"><ele>453.0</ele><time>2026-04-04T08:32:01.259Z</time></trkpt><trkpt lat="42.3967619" lon="11.167897"><ele>453.0</ele><time>2026-04-04T08:32:03.245Z</time></trkpt><trkpt lat="42.3966958" lon="11.167984"><ele>453.0</ele><time>2026-04-04T08:32:05.248Z</time></trkpt><trkpt lat="42.3966305" lon="11.1680604"><ele>453.0</ele><time>2026-04-04T08:32:07.243Z</time></trkpt><trkpt lat="42.3965644" lon="11.1681453"><ele>453.0</ele><time>2026-04-04T08:32:09.248Z</time></trkpt><trkpt lat="42.3964757" lon="11.168221"><ele>454.79999999999995</ele><time>2026-04-04T08:32:11.261Z</time></trkpt><trkpt lat="42.3963948" lon="11.1683141"><ele>456.59999999999997</ele><time>2026-04-04T08:32:13.26Z</time></trkpt><trkpt lat="42.3963311" lon="11.1684095"><ele>458.40000000000003</ele><time>2026-04-04T08:32:15.252Z</time></trkpt><trkpt lat="42.3962643" lon="11.1684888"><ele>460.20000000000005</ele><time>2026-04-04T08:32:17.246Z</time></trkpt><trkpt lat="42.3962042" lon="11.1685654"><ele>462.0</ele><time>2026-04-04T08:32:19.243Z</time></trkpt><trkpt lat="42.39616" lon="11.1686779"><ele>462.0</ele><time>2026-04-04T08:32:22.247Z</time></trkpt><trkpt lat="42.3961274" lon="11.1687822"><ele>462.0</ele><time>2026-04-04T08:32:25.251Z</time></trkpt><trkpt lat="42.3961015" lon="11.1688885"><ele>462.0</ele><time>2026-04-04T08:32:28.25Z</time></trkpt><trkpt lat="42.3960961" lon="11.1689895"><ele>462.0</ele><time>2026-04-04T08:32:30.25Z</time></trkpt><trkpt lat="42.3960891" lon="11.1691468"><ele>462.0</ele><time>2026-04-04T08:32:32.254Z</time></trkpt><trkpt lat="42.3960922" lon="11.1692663"><ele>462.0</ele><time>2026-04-04T08:32:34.243Z</time></trkpt><trkpt lat="42.3961085" lon="11.1693535"><ele>460.8333333333333</ele><time>2026-04-04T08:32:36.248Z</time></trkpt><trkpt lat="42.3961489" lon="11.1694699"><ele>459.66666666666663</ele><time>2026-04-04T08:32:39.244Z</time></trkpt><trkpt lat="42.3961726" lon="11.1695495"><ele>458.5</ele><time>2026-04-04T08:32:41.252Z</time></trkpt><trkpt lat="42.3961882" lon="11.1696668"><ele>457.3333333333333</ele><time>2026-04-04T08:32:44.244Z</time></trkpt><trkpt lat="42.3962152" lon="11.1697551"><ele>456.16666666666663</ele><time>2026-04-04T08:32:46.25Z</time></trkpt><trkpt lat="42.396244" lon="11.1698418"><ele>455.0</ele><time>2026-04-04T08:32:48.251Z</time></trkpt><trkpt lat="42.3962783" lon="11.1699146"><ele>453.49999999999994</ele><time>2026-04-04T08:32:51.251Z</time></trkpt><trkpt lat="42.3962792" lon="11.1700117"><ele>452.0</ele><time>2026-04-04T08:32:59.251Z</time></trkpt><trkpt lat="42.3962373" lon="11.1700879"><ele>450.5</ele><time>2026-04-04T08:33:02.245Z</time></trkpt><trkpt lat="42.3961796" lon="11.1701767"><ele>449.0</ele><time>2026-04-04T08:33:05.246Z</time></trkpt><trkpt lat="42.3961167" lon="11.1702123"><ele>447.49999999999994</ele><time>2026-04-04T08:33:07.251Z</time></trkpt><trkpt lat="42.3960324" lon="11.1702411"><ele>446.0</ele><time>2026-04-04T08:33:09.251Z</time></trkpt><trkpt lat="42.3959159" lon="11.170263"><ele>445.99999999999994</ele><time>2026-04-04T08:33:11.249Z</time></trkpt><trkpt lat="42.3958509" lon="11.1702633"><ele>446.0</ele><time>2026-04-04T08:33:12.246Z</time></trkpt><trkpt lat="42.3957872" lon="11.1702571"><ele>446.0</ele><time>2026-04-04T08:33:13.253Z</time></trkpt><trkpt lat="42.3956678" lon="11.1702229"><ele>446.0</ele><time>2026-04-04T08:33:15.26Z</time></trkpt><trkpt lat="42.3955698" lon="11.1701793"><ele>445.99999999999994</ele><time>2026-04-04T08:33:17.258Z</time></trkpt><trkpt lat="42.3954827" lon="11.170161"><ele>446.0</ele><time>2026-04-04T08:33:19.243Z</time></trkpt><trkpt lat="42.395419" lon="11.1701584"><ele>447.20000000000005</ele><time>2026-04-04T08:33:20.245Z</time></trkpt><trkpt lat="42.3953039" lon="11.1701375"><ele>448.40000000000003</ele><time>2026-04-04T08:33:22.249Z</time></trkpt><trkpt lat="42.395239" lon="11.1701217"><ele>449.6</ele><time>2026-04-04T08:33:23.254Z</time></trkpt><trkpt lat="42.3951495" lon="11.1700791"><ele>450.8</ele><time>2026-04-04T08:33:25.249Z</time></trkpt><trkpt lat="42.3950531" lon="11.1700389"><ele>452.0</ele><time>2026-04-04T08:33:27.256Z</time></trkpt><trkpt lat="42.3949612" lon="11.1699979"><ele>451.99999999999994</ele><time>2026-04-04T08:33:29.246Z</time></trkpt><trkpt lat="42.3948651" lon="11.1699418"><ele>452.0</ele><time>2026-04-04T08:33:31.254Z</time></trkpt><trkpt lat="42.3947564" lon="11.1699032"><ele>452.0</ele><time>2026-04-04T08:33:33.252Z</time></trkpt><trkpt lat="42.3946811" lon="11.1698957"><ele>452.0</ele><time>2026-04-04T08:33:34.241Z</time></trkpt><trkpt lat="42.3946053" lon="11.1699073"><ele>451.99999999999994</ele><time>2026-04-04T08:33:35.254Z</time></trkpt><trkpt lat="42.3945345" lon="11.1699357"><ele>452.0</ele><time>2026-04-04T08:33:36.251Z</time></trkpt><trkpt lat="42.3944661" lon="11.1699642"><ele>453.16666666666663</ele><time>2026-04-04T08:33:37.251Z</time></trkpt><trkpt lat="42.3943967" lon="11.1699912"><ele>454.3333333333333</ele><time>2026-04-04T08:33:38.248Z</time></trkpt><trkpt lat="42.3943215" lon="11.1700217"><ele>455.5</ele><time>2026-04-04T08:33:39.258Z</time></trkpt><trkpt lat="42.3942338" lon="11.170027"><ele>456.66666666666663</ele><time>2026-04-04T08:33:40.243Z</time></trkpt><trkpt lat="42.3941453" lon="11.1700346"><ele>457.8333333333333</ele><time>2026-04-04T08:33:41.244Z</time></trkpt><trkpt lat="42.3940539" lon="11.1700412"><ele>459.0</ele><time>2026-04-04T08:33:42.244Z</time></trkpt><trkpt lat="42.3939626" lon="11.1700458"><ele>459.0</ele><time>2026-04-04T08:33:43.24Z</time></trkpt><trkpt lat="42.3938792" lon="11.1700625"><ele>459.0</ele><time>2026-04-04T08:33:44.247Z</time></trkpt><trkpt lat="42.3938044" lon="11.1700857"><ele>459.0</ele><time>2026-04-04T08:33:45.252Z</time></trkpt><trkpt lat="42.3937227" lon="11.1701221"><ele>459.0</ele><time>2026-04-04T08:33:46.26Z</time></trkpt><trkpt lat="42.3936343" lon="11.1701711"><ele>459.0</ele><time>2026-04-04T08:33:47.249Z</time></trkpt><trkpt lat="42.3935457" lon="11.1702303"><ele>459.0</ele><time>2026-04-04T08:33:48.246Z</time></trkpt><trkpt lat="42.3934624" lon="11.1702813"><ele>460.8333333333333</ele><time>2026-04-04T08:33:49.249Z</time></trkpt><trkpt lat="42.3933887" lon="11.1703278"><ele>462.66666666666663</ele><time>2026-04-04T08:33:50.246Z</time></trkpt><trkpt lat="42.3933241" lon="11.1703639"><ele>464.5</ele><time>2026-04-04T08:33:51.258Z</time></trkpt><trkpt lat="42.3932567" lon="11.1704063"><ele>466.3333333333333</ele><time>2026-04-04T08:33:52.249Z</time></trkpt><trkpt lat="42.3931893" lon="11.1704418"><ele>468.16666666666663</ele><time>2026-04-04T08:33:53.246Z</time></trkpt><trkpt lat="42.3931184" lon="11.1704793"><ele>470.0</ele><time>2026-04-04T08:33:54.254Z</time></trkpt><trkpt lat="42.3930318" lon="11.1705059"><ele>470.3333333333333</ele><time>2026-04-04T08:33:55.243Z</time></trkpt><trkpt lat="42.3929416" lon="11.1705315"><ele>470.66666666666663</ele><time>2026-04-04T08:33:56.244Z</time></trkpt><trkpt lat="42.3928522" lon="11.1705618"><ele>471.0</ele><time>2026-04-04T08:33:57.247Z</time></trkpt><trkpt lat="42.3927654" lon="11.1705859"><ele>471.33333333333337</ele><time>2026-04-04T08:33:58.242Z</time></trkpt><trkpt lat="42.3926803" lon="11.1706119"><ele>471.6666666666667</ele><time>2026-04-04T08:33:59.247Z</time></trkpt><trkpt lat="42.3925993" lon="11.1706198"><ele>472.0</ele><time>2026-04-04T08:34:00.245Z</time></trkpt><trkpt lat="42.3925273" lon="11.1706109"><ele>472.00000000000006</ele><time>2026-04-04T08:34:01.248Z</time></trkpt><trkpt lat="42.3923953" lon="11.170614"><ele>472.0</ele><time>2026-04-04T08:34:03.26Z</time></trkpt><trkpt lat="42.3923238" lon="11.1706135"><ele>472.0</ele><time>2026-04-04T08:34:04.248Z</time></trkpt><trkpt lat="42.3922478" lon="11.1706138"><ele>472.0</ele><time>2026-04-04T08:34:05.244Z</time></trkpt><trkpt lat="42.3921677" lon="11.1706092"><ele>472.00000000000006</ele><time>2026-04-04T08:34:06.25Z</time></trkpt><trkpt lat="42.3920939" lon="11.1706019"><ele>472.0</ele><time>2026-04-04T08:34:07.25Z</time></trkpt><trkpt lat="42.3920205" lon="11.1705803"><ele>473.8</ele><time>2026-04-04T08:34:08.256Z</time></trkpt><trkpt lat="42.3919474" lon="11.170554"><ele>475.6</ele><time>2026-04-04T08:34:09.25Z</time></trkpt><trkpt lat="42.3918803" lon="11.1705276"><ele>477.40000000000003</ele><time>2026-04-04T08:34:10.273Z</time></trkpt><trkpt lat="42.3917656" lon="11.170479"><ele>479.20000000000005</ele><time>2026-04-04T08:34:12.246Z</time></trkpt><trkpt lat="42.3916556" lon="11.1704697"><ele>481.0</ele><time>2026-04-04T08:34:14.257Z</time></trkpt><trkpt lat="42.3915437" lon="11.170508"><ele>481.0</ele><time>2026-04-04T08:34:16.26Z</time></trkpt><trkpt lat="42.3914793" lon="11.1705363"><ele>481.0</ele><time>2026-04-04T08:34:17.245Z</time></trkpt><trkpt lat="42.391388" lon="11.170581"><ele>481.0</ele><time>2026-04-04T08:34:18.251Z</time></trkpt><trkpt lat="42.3912864" lon="11.1706434"><ele>481.0</ele><time>2026-04-04T08:34:19.248Z</time></trkpt><trkpt lat="42.3911857" lon="11.1707085"><ele>481.0</ele><time>2026-04-04T08:34:20.261Z</time></trkpt><trkpt lat="42.3910824" lon="11.1707562"><ele>480.0</ele><time>2026-04-04T08:34:21.245Z</time></trkpt><trkpt lat="42.3909969" lon="11.170796"><ele>479.0</ele><time>2026-04-04T08:34:22.245Z</time></trkpt><trkpt lat="42.3909185" lon="11.1708206"><ele>478.0</ele><time>2026-04-04T08:34:23.252Z</time></trkpt><trkpt lat="42.390818" lon="11.1708422"><ele>477.0</ele><time>2026-04-04T08:34:24.244Z</time></trkpt><trkpt lat="42.3907139" lon="11.1708616"><ele>476.0</ele><time>2026-04-04T08:34:25.253Z</time></trkpt><trkpt lat="42.3906064" lon="11.1708791"><ele>478.4</ele><time>2026-04-04T08:34:26.258Z</time></trkpt><trkpt lat="42.3904923" lon="11.1709053"><ele>480.8</ele><time>2026-04-04T08:34:27.248Z</time></trkpt><trkpt lat="42.3903944" lon="11.1709468"><ele>483.19999999999993</ele><time>2026-04-04T08:34:28.261Z</time></trkpt><trkpt lat="42.3903056" lon="11.1710017"><ele>485.59999999999997</ele><time>2026-04-04T08:34:29.252Z</time></trkpt><trkpt lat="42.3902212" lon="11.1710595"><ele>488.0</ele><time>2026-04-04T08:34:30.243Z</time></trkpt><trkpt lat="42.3901342" lon="11.1711338"><ele>488.0</ele><time>2026-04-04T08:34:31.25Z</time></trkpt><trkpt lat="42.3900508" lon="11.1712013"><ele>488.0</ele><time>2026-04-04T08:34:32.241Z</time></trkpt><trkpt lat="42.3899591" lon="11.1712625"><ele>488.0</ele><time>2026-04-04T08:34:33.256Z</time></trkpt><trkpt lat="42.3898379" lon="11.1713336"><ele>488.0</ele><time>2026-04-04T08:34:34.249Z</time></trkpt><trkpt lat="42.3896936" lon="11.1714031"><ele>486.25</ele><time>2026-04-04T08:34:35.256Z</time></trkpt><trkpt lat="42.3895645" lon="11.1714648"><ele>484.5</ele><time>2026-04-04T08:34:36.265Z</time></trkpt><trkpt lat="42.3894577" lon="11.1715156"><ele>482.75</ele><time>2026-04-04T08:34:37.256Z</time></trkpt><trkpt lat="42.3893571" lon="11.1715537"><ele>481.0</ele><time>2026-04-04T08:34:38.243Z</time></trkpt><trkpt lat="42.3892587" lon="11.1715739"><ele>481.00000000000006</ele><time>2026-04-04T08:34:39.246Z</time></trkpt><trkpt lat="42.3891675" lon="11.1715922"><ele>481.0</ele><time>2026-04-04T08:34:40.247Z</time></trkpt><trkpt lat="42.3890834" lon="11.1716031"><ele>481.0</ele><time>2026-04-04T08:34:41.253Z</time></trkpt><trkpt lat="42.3890066" lon="11.171604"><ele>481.0</ele><time>2026-04-04T08:34:42.246Z</time></trkpt><trkpt lat="42.3889344" lon="11.1716098"><ele>481.00000000000006</ele><time>2026-04-04T08:34:43.252Z</time></trkpt><trkpt lat="42.3888675" lon="11.1716213"><ele>481.0</ele><time>2026-04-04T08:34:44.249Z</time></trkpt><trkpt lat="42.3887896" lon="11.1716332"><ele>484.8</ele><time>2026-04-04T08:34:45.247Z</time></trkpt><trkpt lat="42.3887085" lon="11.1716585"><ele>488.6</ele><time>2026-04-04T08:34:46.249Z</time></trkpt><trkpt lat="42.3886355" lon="11.1716931"><ele>492.4</ele><time>2026-04-04T08:34:47.25Z</time></trkpt><trkpt lat="42.3885489" lon="11.1717114"><ele>496.2</ele><time>2026-04-04T08:34:48.254Z</time></trkpt><trkpt lat="42.3884437" lon="11.1717191"><ele>500.0</ele><time>2026-04-04T08:34:49.265Z</time></trkpt><trkpt lat="42.3883337" lon="11.1717417"><ele>500.0</ele><time>2026-04-04T08:34:50.263Z</time></trkpt><trkpt lat="42.3882364" lon="11.1717559"><ele>500.0</ele><time>2026-04-04T08:34:51.257Z</time></trkpt><trkpt lat="42.3881388" lon="11.1717893"><ele>500.0</ele><time>2026-04-04T08:34:52.268Z</time></trkpt><trkpt lat="42.388037" lon="11.1718235"><ele>500.0</ele><time>2026-04-04T08:34:53.248Z</time></trkpt><trkpt lat="42.3879246" lon="11.1718554"><ele>500.0</ele><time>2026-04-04T08:34:54.246Z</time></trkpt><trkpt lat="42.3878171" lon="11.171898"><ele>503.8333333333333</ele><time>2026-04-04T08:34:55.247Z</time></trkpt><trkpt lat="42.3877223" lon="11.1719312"><ele>507.66666666666663</ele><time>2026-04-04T08:34:56.248Z</time></trkpt><trkpt lat="42.3876377" lon="11.1719531"><ele>511.5</ele><time>2026-04-04T08:34:57.255Z</time></trkpt><trkpt lat="42.3875622" lon="11.1719731"><ele>515.3333333333334</ele><time>2026-04-04T08:34:58.244Z</time></trkpt><trkpt lat="42.3874989" lon="11.1719847"><ele>519.1666666666667</ele><time>2026-04-04T08:34:59.248Z</time></trkpt><trkpt lat="42.3873817" lon="11.1720022"><ele>523.0</ele><time>2026-04-04T08:35:01.246Z</time></trkpt><trkpt lat="42.3872618" lon="11.1720179"><ele>527.0</ele><time>2026-04-04T08:35:03.251Z</time></trkpt><trkpt lat="42.3871556" lon="11.172017"><ele>531.0</ele><time>2026-04-04T08:35:05.245Z</time></trkpt><trkpt lat="42.3870397" lon="11.1720087"><ele>535.0</ele><time>2026-04-04T08:35:07.248Z</time></trkpt><trkpt lat="42.3869224" lon="11.1720151"><ele>539.0</ele><time>2026-04-04T08:35:09.248Z</time></trkpt><trkpt lat="42.3867934" lon="11.1720193"><ele>539.0</ele><time>2026-04-04T08:35:11.246Z</time></trkpt><trkpt lat="42.3867282" lon="11.1720208"><ele>539.0</ele><time>2026-04-04T08:35:12.262Z</time></trkpt><trkpt lat="42.386656" lon="11.172017"><ele>539.0</ele><time>2026-04-04T08:35:13.241Z</time></trkpt><trkpt lat="42.3865839" lon="11.1720079"><ele>539.0</ele><time>2026-04-04T08:35:14.247Z</time></trkpt><trkpt lat="42.3865146" lon="11.1719889"><ele>539.0</ele><time>2026-04-04T08:35:15.246Z</time></trkpt><trkpt lat="42.3864369" lon="11.1719656"><ele>539.0</ele><time>2026-04-04T08:35:16.246Z</time></trkpt><trkpt lat="42.386355" lon="11.1719513"><ele>539.0</ele><time>2026-04-04T08:35:17.247Z</time></trkpt><trkpt lat="42.3862597" lon="11.1719289"><ele>540.8</ele><time>2026-04-04T08:35:18.251Z</time></trkpt><trkpt lat="42.3861699" lon="11.1719084"><ele>542.5999999999999</ele><time>2026-04-04T08:35:19.246Z</time></trkpt><trkpt lat="42.3860954" lon="11.1718913"><ele>544.4</ele><time>2026-04-04T08:35:20.25Z</time></trkpt><trkpt lat="42.3859962" lon="11.1718887"><ele>546.1999999999999</ele><time>2026-04-04T08:35:22.247Z</time></trkpt><trkpt lat="42.3859205" lon="11.1718827"><ele>548.0</ele><time>2026-04-04T08:35:24.242Z</time></trkpt><trkpt lat="42.3858116" lon="11.1718888"><ele>548.0</ele><time>2026-04-04T08:35:26.245Z</time></trkpt><trkpt lat="42.385728" lon="11.171899"><ele>548.0</ele><time>2026-04-04T08:35:27.242Z</time></trkpt><trkpt lat="42.3856524" lon="11.1719187"><ele>548.0</ele><time>2026-04-04T08:35:28.262Z</time></trkpt><trkpt lat="42.3855761" lon="11.1719302"><ele>548.0</ele><time>2026-04-04T08:35:29.242Z</time></trkpt><trkpt lat="42.3854984" lon="11.1719477"><ele>548.0</ele><time>2026-04-04T08:35:30.246Z</time></trkpt><trkpt lat="42.3854355" lon="11.1719633"><ele>548.0</ele><time>2026-04-04T08:35:31.247Z</time></trkpt><trkpt lat="42.3853621" lon="11.1720027"><ele>549.1999999999999</ele><time>2026-04-04T08:35:33.252Z</time></trkpt><trkpt lat="42.3852613" lon="11.1719885"><ele>550.4</ele><time>2026-04-04T08:35:35.257Z</time></trkpt><trkpt lat="42.3851425" lon="11.17194"><ele>551.5999999999999</ele><time>2026-04-04T08:35:37.244Z</time></trkpt><trkpt lat="42.3850797" lon="11.1719229"><ele>552.8</ele><time>2026-04-04T08:35:38.248Z</time></trkpt><trkpt lat="42.3849705" lon="11.1718852"><ele>554.0</ele><time>2026-04-04T08:35:40.251Z</time></trkpt><trkpt lat="42.3848641" lon="11.1717901"><ele>554.0</ele><time>2026-04-04T08:35:42.265Z</time></trkpt><trkpt lat="42.3847531" lon="11.1717039"><ele>554.0</ele><time>2026-04-04T08:35:44.255Z</time></trkpt><trkpt lat="42.3846767" lon="11.1716766"><ele>554.0</ele><time>2026-04-04T08:35:45.247Z</time></trkpt><trkpt lat="42.3845996" lon="11.1716456"><ele>554.0</ele><time>2026-04-04T08:35:46.248Z</time></trkpt><trkpt lat="42.3845388" lon="11.1716188"><ele>554.0</ele><time>2026-04-04T08:35:47.253Z</time></trkpt><trkpt lat="42.3844216" lon="11.1715639"><ele>554.4</ele><time>2026-04-04T08:35:49.253Z</time></trkpt><trkpt lat="42.3843594" lon="11.1715325"><ele>554.8</ele><time>2026-04-04T08:35:50.257Z</time></trkpt><trkpt lat="42.3842795" lon="11.1714516"><ele>555.2</ele><time>2026-04-04T08:35:52.257Z</time></trkpt><trkpt lat="42.3842022" lon="11.1713302"><ele>555.6</ele><time>2026-04-04T08:35:54.253Z</time></trkpt><trkpt lat="42.3841436" lon="11.1712637"><ele>556.0</ele><time>2026-04-04T08:35:55.248Z</time></trkpt><trkpt lat="42.384058" lon="11.1711773"><ele>554.2</ele><time>2026-04-04T08:35:57.261Z</time></trkpt><trkpt lat="42.3839331" lon="11.1711188"><ele>552.4000000000001</ele><time>2026-04-04T08:35:59.257Z</time></trkpt><trkpt lat="42.3838657" lon="11.1711008"><ele>550.6</ele><time>2026-04-04T08:36:00.252Z</time></trkpt><trkpt lat="42.3838012" lon="11.171094"><ele>548.8000000000001</ele><time>2026-04-04T08:36:01.254Z</time></trkpt><trkpt lat="42.3836957" lon="11.1711078"><ele>547.0</ele><time>2026-04-04T08:36:03.263Z</time></trkpt><trkpt lat="42.383577" lon="11.171109"><ele>546.4</ele><time>2026-04-04T08:36:05.246Z</time></trkpt><trkpt lat="42.3834737" lon="11.1710732"><ele>545.8000000000001</ele><time>2026-04-04T08:36:07.254Z</time></trkpt><trkpt lat="42.3833843" lon="11.1710415"><ele>545.2</ele><time>2026-04-04T08:36:09.26Z</time></trkpt><trkpt lat="42.3832919" lon="11.1710318"><ele>544.6</ele><time>2026-04-04T08:36:12.254Z</time></trkpt><trkpt lat="42.3832077" lon="11.171003"><ele>544.0</ele><time>2026-04-04T08:36:25.245Z</time></trkpt><trkpt lat="42.3831927" lon="11.1708858"><ele>544.0</ele><time>2026-04-04T08:36:29.246Z</time></trkpt><trkpt lat="42.3831537" lon="11.1707831"><ele>544.0</ele><time>2026-04-04T08:36:32.249Z</time></trkpt><trkpt lat="42.3831902" lon="11.1706914"><ele>544.0</ele><time>2026-04-04T08:36:38.246Z</time></trkpt><trkpt lat="42.3831556" lon="11.1707751"><ele>544.0</ele><time>2026-04-04T08:40:45.251Z</time></trkpt><trkpt lat="42.3831822" lon="11.1708628"><ele>544.0</ele><time>2026-04-04T08:40:48.258Z</time></trkpt><trkpt lat="42.3832059" lon="11.1709548"><ele>544.0</ele><time>2026-04-04T08:40:51.262Z</time></trkpt><trkpt lat="42.3831359" lon="11.1709925"><ele>544.0</ele><time>2026-04-04T08:40:55.256Z</time></trkpt><trkpt lat="42.3830503" lon="11.1710005"><ele>544.0</ele><time>2026-04-04T08:40:57.262Z</time></trkpt><trkpt lat="42.3829535" lon="11.1710405"><ele>544.0</ele><time>2026-04-04T08:40:59.25Z</time></trkpt><trkpt lat="42.3828538" lon="11.1711102"><ele>544.0</ele><time>2026-04-04T08:41:01.248Z</time></trkpt><trkpt lat="42.3827983" lon="11.1711603"><ele>544.0</ele><time>2026-04-04T08:41:02.261Z</time></trkpt><trkpt lat="42.382744" lon="11.1712048"><ele>544.0</ele><time>2026-04-04T08:41:03.256Z</time></trkpt><trkpt lat="42.3826382" lon="11.1712537"><ele>544.0</ele><time>2026-04-04T08:41:05.249Z</time></trkpt><trkpt lat="42.3825267" lon="11.1712809"><ele>544.0</ele><time>2026-04-04T08:41:07.248Z</time></trkpt><trkpt lat="42.3823933" lon="11.1713006"><ele>544.0</ele><time>2026-04-04T08:41:09.252Z</time></trkpt><trkpt lat="42.382311" lon="11.1713089"><ele>544.0</ele><time>2026-04-04T08:41:10.251Z</time></trkpt><trkpt lat="42.3822441" lon="11.171318"><ele>544.0</ele><time>2026-04-04T08:41:11.256Z</time></trkpt><trkpt lat="42.3821116" lon="11.1713338"><ele>543.4</ele><time>2026-04-04T08:41:13.251Z</time></trkpt><trkpt lat="42.3820412" lon="11.1713344"><ele>542.8</ele><time>2026-04-04T08:41:14.252Z</time></trkpt><trkpt lat="42.381919" lon="11.1713373"><ele>542.2</ele><time>2026-04-04T08:41:16.249Z</time></trkpt><trkpt lat="42.3818016" lon="11.1713378"><ele>541.6</ele><time>2026-04-04T08:41:18.255Z</time></trkpt><trkpt lat="42.3817037" lon="11.17132"><ele>541.0</ele><time>2026-04-04T08:41:20.26Z</time></trkpt><trkpt lat="42.3816337" lon="11.1713016"><ele>541.0</ele><time>2026-04-04T08:41:22.247Z</time></trkpt><trkpt lat="42.3815671" lon="11.1712989"><ele>541.0</ele><time>2026-04-04T08:41:24.252Z</time></trkpt><trkpt lat="42.3814722" lon="11.171337"><ele>541.0</ele><time>2026-04-04T08:41:26.25Z</time></trkpt><trkpt lat="42.3813681" lon="11.1713518"><ele>541.0</ele><time>2026-04-04T08:41:28.253Z</time></trkpt><trkpt lat="42.3812648" lon="11.1713375"><ele>541.0</ele><time>2026-04-04T08:41:30.254Z</time></trkpt><trkpt lat="42.3812019" lon="11.171322"><ele>541.0</ele><time>2026-04-04T08:41:31.252Z</time></trkpt><trkpt lat="42.3811267" lon="11.171305"><ele>538.4</ele><time>2026-04-04T08:41:32.258Z</time></trkpt><trkpt lat="42.3810252" lon="11.171288"><ele>535.8</ele><time>2026-04-04T08:41:33.258Z</time></trkpt><trkpt lat="42.3809368" lon="11.171268"><ele>533.1999999999999</ele><time>2026-04-04T08:41:34.251Z</time></trkpt><trkpt lat="42.3808118" lon="11.1712388"><ele>530.6</ele><time>2026-04-04T08:41:36.251Z</time></trkpt><trkpt lat="42.3807057" lon="11.1712657"><ele>528.0</ele><time>2026-04-04T08:41:38.25Z</time></trkpt><trkpt lat="42.3806339" lon="11.1713059"><ele>528.0</ele><time>2026-04-04T08:41:39.246Z</time></trkpt><trkpt lat="42.3805706" lon="11.1713556"><ele>528.0</ele><time>2026-04-04T08:41:40.245Z</time></trkpt><trkpt lat="42.3805121" lon="11.1714036"><ele>528.0</ele><time>2026-04-04T08:41:41.263Z</time></trkpt><trkpt lat="42.3804531" lon="11.1714437"><ele>528.0</ele><time>2026-04-04T08:41:42.249Z</time></trkpt><trkpt lat="42.3803971" lon="11.1715141"><ele>528.0</ele><time>2026-04-04T08:41:44.258Z</time></trkpt><trkpt lat="42.3803501" lon="11.1716037"><ele>528.0</ele><time>2026-04-04T08:42:15.248Z</time></trkpt><trkpt lat="42.380408" lon="11.1715562"><ele>528.0</ele><time>2026-04-04T08:42:33.262Z</time></trkpt><trkpt lat="42.3804978" lon="11.1714459"><ele>528.0</ele><time>2026-04-04T08:42:35.25Z</time></trkpt><trkpt lat="42.3806127" lon="11.1713479"><ele>528.0</ele><time>2026-04-04T08:42:37.25Z</time></trkpt><trkpt lat="42.3806697" lon="11.171305"><ele>528.0</ele><time>2026-04-04T08:42:38.252Z</time></trkpt><trkpt lat="42.3807678" lon="11.1712383"><ele>528.0</ele><time>2026-04-04T08:42:40.256Z</time></trkpt><trkpt lat="42.3808672" lon="11.171239"><ele>528.0</ele><time>2026-04-04T08:42:42.25Z</time></trkpt><trkpt lat="42.3809671" lon="11.1712587"><ele>528.0</ele><time>2026-04-04T08:42:44.247Z</time></trkpt><trkpt lat="42.3810609" lon="11.1712715"><ele>528.0</ele><time>2026-04-04T08:42:46.259Z</time></trkpt><trkpt lat="42.3811643" lon="11.1712865"><ele>528.0</ele><time>2026-04-04T08:42:48.244Z</time></trkpt><trkpt lat="42.3812581" lon="11.1712935"><ele>528.0</ele><time>2026-04-04T08:42:50.253Z</time></trkpt><trkpt lat="42.3813212" lon="11.1713089"><ele>528.0</ele><time>2026-04-04T08:42:51.251Z</time></trkpt><trkpt lat="42.3813895" lon="11.1713224"><ele>528.0</ele><time>2026-04-04T08:42:52.257Z</time></trkpt><trkpt lat="42.3814876" lon="11.171317"><ele>530.6</ele><time>2026-04-04T08:42:54.247Z</time></trkpt><trkpt lat="42.3815906" lon="11.1712964"><ele>533.1999999999999</ele><time>2026-04-04T08:42:56.25Z</time></trkpt><trkpt lat="42.3816748" lon="11.1713294"><ele>535.8</ele><time>2026-04-04T08:42:58.268Z</time></trkpt><trkpt lat="42.3817817" lon="11.1713545"><ele>538.4</ele><time>2026-04-04T08:43:00.25Z</time></trkpt><trkpt lat="42.381858" lon="11.1713663"><ele>541.0</ele><time>2026-04-04T08:43:01.258Z</time></trkpt><trkpt lat="42.3819382" lon="11.1713762"><ele>541.0</ele><time>2026-04-04T08:43:02.256Z</time></trkpt><trkpt lat="42.3820095" lon="11.1713737"><ele>541.0</ele><time>2026-04-04T08:43:03.25Z</time></trkpt><trkpt lat="42.3821473" lon="11.1713516"><ele>541.0</ele><time>2026-04-04T08:43:05.245Z</time></trkpt><trkpt lat="42.3822229" lon="11.17133"><ele>541.0</ele><time>2026-04-04T08:43:06.247Z</time></trkpt><trkpt lat="42.3823031" lon="11.1713152"><ele>541.0</ele><time>2026-04-04T08:43:07.254Z</time></trkpt><trkpt lat="42.3823722" lon="11.1713012"><ele>541.0</ele><time>2026-04-04T08:43:08.248Z</time></trkpt><trkpt lat="42.3824868" lon="11.1712658"><ele>541.6</ele><time>2026-04-04T08:43:10.246Z</time></trkpt><trkpt lat="42.3825823" lon="11.1712379"><ele>542.2</ele><time>2026-04-04T08:43:12.249Z</time></trkpt><trkpt lat="42.3826974" lon="11.1711845"><ele>542.8</ele><time>2026-04-04T08:43:14.253Z</time></trkpt><trkpt lat="42.3828093" lon="11.171111"><ele>543.4</ele><time>2026-04-04T08:43:16.258Z</time></trkpt><trkpt lat="42.3829017" lon="11.1710508"><ele>544.0</ele><time>2026-04-04T08:43:18.252Z</time></trkpt><trkpt lat="42.3829952" lon="11.1709935"><ele>544.0</ele><time>2026-04-04T08:43:20.244Z</time></trkpt><trkpt lat="42.3830979" lon="11.1709648"><ele>544.0</ele><time>2026-04-04T08:43:22.247Z</time></trkpt><trkpt lat="42.3831881" lon="11.1709827"><ele>544.0</ele><time>2026-04-04T08:43:24.246Z</time></trkpt><trkpt lat="42.3832766" lon="11.1710203"><ele>544.0</ele><time>2026-04-04T08:43:26.247Z</time></trkpt><trkpt lat="42.3833852" lon="11.1710329"><ele>544.0</ele><time>2026-04-04T08:43:28.245Z</time></trkpt><trkpt lat="42.383487" lon="11.1710529"><ele>544.0</ele><time>2026-04-04T08:43:30.245Z</time></trkpt><trkpt lat="42.3835911" lon="11.1710792"><ele>544.0</ele><time>2026-04-04T08:43:32.243Z</time></trkpt><trkpt lat="42.3836909" lon="11.1710946"><ele>544.0</ele><time>2026-04-04T08:43:34.258Z</time></trkpt><trkpt lat="42.3838041" lon="11.1710922"><ele>544.0</ele><time>2026-04-04T08:43:36.245Z</time></trkpt><trkpt lat="42.3839138" lon="11.1711182"><ele>544.0</ele><time>2026-04-04T08:43:38.265Z</time></trkpt><trkpt lat="42.3840192" lon="11.171153"><ele>544.6</ele><time>2026-04-04T08:43:40.251Z</time></trkpt><trkpt lat="42.3841148" lon="11.1712061"><ele>545.2</ele><time>2026-04-04T08:43:42.258Z</time></trkpt><trkpt lat="42.3841985" lon="11.1713101"><ele>545.8000000000001</ele><time>2026-04-04T08:43:44.244Z</time></trkpt><trkpt lat="42.3842464" lon="11.1713773"><ele>546.4</ele><time>2026-04-04T08:43:45.255Z</time></trkpt><trkpt lat="42.3843156" lon="11.1714705"><ele>547.0</ele><time>2026-04-04T08:43:47.253Z</time></trkpt><trkpt lat="42.3843899" lon="11.1715377"><ele>548.4</ele><time>2026-04-04T08:43:49.248Z</time></trkpt><trkpt lat="42.384484" lon="11.1715997"><ele>549.8000000000001</ele><time>2026-04-04T08:43:51.248Z</time></trkpt><trkpt lat="42.3845819" lon="11.1716492"><ele>551.2</ele><time>2026-04-04T08:43:53.252Z</time></trkpt><trkpt lat="42.3846673" lon="11.1716942"><ele>552.6</ele><time>2026-04-04T08:43:55.251Z</time></trkpt><trkpt lat="42.384766" lon="11.1717306"><ele>554.0</ele><time>2026-04-04T08:43:57.244Z</time></trkpt><trkpt lat="42.3848561" lon="11.1718004"><ele>554.0</ele><time>2026-04-04T08:43:59.248Z</time></trkpt><trkpt lat="42.3849445" lon="11.1718854"><ele>554.0</ele><time>2026-04-04T08:44:01.248Z</time></trkpt><trkpt lat="42.3850084" lon="11.171933"><ele>554.0</ele><time>2026-04-04T08:44:03.247Z</time></trkpt><trkpt lat="42.3850737" lon="11.1719564"><ele>554.0</ele><time>2026-04-04T08:44:05.246Z</time></trkpt><trkpt lat="42.385158" lon="11.1719726"><ele>554.0</ele><time>2026-04-04T08:44:07.247Z</time></trkpt><trkpt lat="42.3852442" lon="11.1720177"><ele>554.0</ele><time>2026-04-04T08:44:09.251Z</time></trkpt><trkpt lat="42.3853141" lon="11.1720328"><ele>554.0</ele><time>2026-04-04T08:44:11.247Z</time></trkpt><trkpt lat="42.3853933" lon="11.1720154"><ele>554.0</ele><time>2026-04-04T08:44:13.242Z</time></trkpt><trkpt lat="42.3854762" lon="11.1719832"><ele>554.0</ele><time>2026-04-04T08:44:15.256Z</time></trkpt><trkpt lat="42.3855498" lon="11.1719503"><ele>554.0</ele><time>2026-04-04T08:44:17.261Z</time></trkpt><trkpt lat="42.3856487" lon="11.1719182"><ele>554.0</ele><time>2026-04-04T08:44:19.252Z</time></trkpt><trkpt lat="42.3857222" lon="11.17192"><ele>554.0</ele><time>2026-04-04T08:44:20.249Z</time></trkpt><trkpt lat="42.3858113" lon="11.1719323"><ele>553.0</ele><time>2026-04-04T08:44:22.245Z</time></trkpt><trkpt lat="42.3858798" lon="11.1719479"><ele>552.0</ele><time>2026-04-04T08:44:24.249Z</time></trkpt><trkpt lat="42.3859529" lon="11.171928"><ele>551.0</ele><time>2026-04-04T08:44:46.247Z</time></trkpt><trkpt lat="42.3859869" lon="11.1718424"><ele>550.0</ele><time>2026-04-04T08:44:49.253Z</time></trkpt><trkpt lat="42.3860727" lon="11.1717153"><ele>549.0</ele><time>2026-04-04T08:44:51.245Z</time></trkpt><trkpt lat="42.3861295" lon="11.1716508"><ele>548.0</ele><time>2026-04-04T08:44:52.248Z</time></trkpt><trkpt lat="42.386188" lon="11.1715886"><ele>548.0000000000001</ele><time>2026-04-04T08:44:53.256Z</time></trkpt><trkpt lat="42.3862446" lon="11.1715301"><ele>548.0</ele><time>2026-04-04T08:44:54.256Z</time></trkpt><trkpt lat="42.386301" lon="11.1714645"><ele>548.0</ele><time>2026-04-04T08:44:55.256Z</time></trkpt><trkpt lat="42.3863538" lon="11.171404"><ele>548.0</ele><time>2026-04-04T08:44:56.242Z</time></trkpt><trkpt lat="42.386403" lon="11.1713454"><ele>548.0</ele><time>2026-04-04T08:44:57.247Z</time></trkpt><trkpt lat="42.3864562" lon="11.1712829"><ele>548.0000000000001</ele><time>2026-04-04T08:44:58.251Z</time></trkpt><trkpt lat="42.3865197" lon="11.171234"><ele>548.0</ele><time>2026-04-04T08:44:59.27Z</time></trkpt><trkpt lat="42.3865835" lon="11.1711873"><ele>551.6666666666666</ele><time>2026-04-04T08:45:00.245Z</time></trkpt><trkpt lat="42.3866584" lon="11.1711433"><ele>555.3333333333333</ele><time>2026-04-04T08:45:01.252Z</time></trkpt><trkpt lat="42.3867284" lon="11.1710994"><ele>559.0</ele><time>2026-04-04T08:45:02.246Z</time></trkpt><trkpt lat="42.3868292" lon="11.1710442"><ele>562.6666666666666</ele><time>2026-04-04T08:45:04.246Z</time></trkpt><trkpt lat="42.3869344" lon="11.1710067"><ele>566.3333333333334</ele><time>2026-04-04T08:45:06.243Z</time></trkpt><trkpt lat="42.3869916" lon="11.1709535"><ele>570.0</ele><time>2026-04-04T08:45:07.242Z</time></trkpt><trkpt lat="42.3870631" lon="11.1708762"><ele>570.0</ele><time>2026-04-04T08:45:08.248Z</time></trkpt><trkpt lat="42.3871262" lon="11.1708002"><ele>570.0</ele><time>2026-04-04T08:45:09.258Z</time></trkpt><trkpt lat="42.3871956" lon="11.1707056"><ele>570.0</ele><time>2026-04-04T08:45:15.246Z</time></trkpt><trkpt lat="42.3872724" lon="11.1706137"><ele>570.0</ele><time>2026-04-04T08:45:18.245Z</time></trkpt><trkpt lat="42.3873163" lon="11.1705416"><ele>570.0</ele><time>2026-04-04T08:45:19.251Z</time></trkpt><trkpt lat="42.3873603" lon="11.1704609"><ele>570.0</ele><time>2026-04-04T08:45:20.245Z</time></trkpt><trkpt lat="42.3874133" lon="11.1703857"><ele>573.8</ele><time>2026-04-04T08:45:21.245Z</time></trkpt><trkpt lat="42.38748" lon="11.1702974"><ele>577.6</ele><time>2026-04-04T08:45:22.259Z</time></trkpt><trkpt lat="42.3875535" lon="11.1702054"><ele>581.4</ele><time>2026-04-04T08:45:23.244Z</time></trkpt><trkpt lat="42.3876345" lon="11.170117"><ele>585.2</ele><time>2026-04-04T08:45:24.249Z</time></trkpt><trkpt lat="42.3877152" lon="11.1700222"><ele>589.0</ele><time>2026-04-04T08:45:25.25Z</time></trkpt><trkpt lat="42.3877932" lon="11.1699304"><ele>588.6</ele><time>2026-04-04T08:45:26.254Z</time></trkpt><trkpt lat="42.3878676" lon="11.1698423"><ele>588.2</ele><time>2026-04-04T08:45:27.238Z</time></trkpt><trkpt lat="42.3879438" lon="11.1697591"><ele>587.8000000000001</ele><time>2026-04-04T08:45:28.247Z</time></trkpt><trkpt lat="42.3880246" lon="11.1696804"><ele>587.4</ele><time>2026-04-04T08:45:29.248Z</time></trkpt><trkpt lat="42.3881157" lon="11.1696116"><ele>587.0</ele><time>2026-04-04T08:45:30.251Z</time></trkpt><trkpt lat="42.388219" lon="11.1695469"><ele>587.0</ele><time>2026-04-04T08:45:31.241Z</time></trkpt><trkpt lat="42.3883242" lon="11.1694878"><ele>587.0</ele><time>2026-04-04T08:45:32.259Z</time></trkpt><trkpt lat="42.3883971" lon="11.1694294"><ele>587.0</ele><time>2026-04-04T08:45:33.259Z</time></trkpt><trkpt lat="42.3884512" lon="11.1693803"><ele>587.0</ele><time>2026-04-04T08:45:34.261Z</time></trkpt><trkpt lat="42.3885262" lon="11.1693221"><ele>587.0</ele><time>2026-04-04T08:45:36.242Z</time></trkpt><trkpt lat="42.3885853" lon="11.1692653"><ele>587.0</ele><time>2026-04-04T08:45:40.259Z</time></trkpt><trkpt lat="42.388556" lon="11.1691341"><ele>587.0</ele><time>2026-04-04T08:45:43.255Z</time></trkpt><trkpt lat="42.3885151" lon="11.1690551"><ele>587.0</ele><time>2026-04-04T08:45:44.245Z</time></trkpt><trkpt lat="42.3884596" lon="11.1689891"><ele>587.0</ele><time>2026-04-04T08:45:45.248Z</time></trkpt><trkpt lat="42.3883891" lon="11.1689265"><ele>587.0</ele><time>2026-04-04T08:45:46.252Z</time></trkpt><trkpt lat="42.3882972" lon="11.1688525"><ele>587.0</ele><time>2026-04-04T08:45:47.26Z</time></trkpt><trkpt lat="42.3881877" lon="11.1687684"><ele>586.5</ele><time>2026-04-04T08:45:48.248Z</time></trkpt><trkpt lat="42.3880649" lon="11.1687029"><ele>586.0</ele><time>2026-04-04T08:45:49.248Z</time></trkpt><trkpt lat="42.3879396" lon="11.1686653"><ele>585.5</ele><time>2026-04-04T08:45:50.245Z</time></trkpt><trkpt lat="42.3878214" lon="11.1686091"><ele>585.0</ele><time>2026-04-04T08:45:51.254Z</time></trkpt><trkpt lat="42.3877006" lon="11.1685256"><ele>587.5</ele><time>2026-04-04T08:45:52.243Z</time></trkpt><trkpt lat="42.3875784" lon="11.1684301"><ele>590.0</ele><time>2026-04-04T08:45:53.245Z</time></trkpt><trkpt lat="42.3874696" lon="11.1683405"><ele>592.5</ele><time>2026-04-04T08:45:54.242Z</time></trkpt><trkpt lat="42.3873784" lon="11.1682466"><ele>595.0</ele><time>2026-04-04T08:45:55.255Z</time></trkpt><trkpt lat="42.38732" lon="11.168164"><ele>595.0</ele><time>2026-04-04T08:45:56.258Z</time></trkpt><trkpt lat="42.387245" lon="11.168057"><ele>595.0</ele><time>2026-04-04T08:45:58.254Z</time></trkpt><trkpt lat="42.3871705" lon="11.1680215"><ele>595.0</ele><time>2026-04-04T08:46:00.259Z</time></trkpt><trkpt lat="42.3872491" lon="11.1681125"><ele>595.0</ele><time>2026-04-04T08:46:13.245Z</time></trkpt><trkpt lat="42.3873086" lon="11.1681619"><ele>595.0</ele><time>2026-04-04T08:46:14.258Z</time></trkpt><trkpt lat="42.3873637" lon="11.1682387"><ele>595.0</ele><time>2026-04-04T08:46:15.249Z</time></trkpt><trkpt lat="42.3874327" lon="11.1683266"><ele>597.4</ele><time>2026-04-04T08:46:16.246Z</time></trkpt><trkpt lat="42.3875031" lon="11.1684013"><ele>599.8</ele><time>2026-04-04T08:46:17.25Z</time></trkpt><trkpt lat="42.3875824" lon="11.1684668"><ele>602.2</ele><time>2026-04-04T08:46:18.269Z</time></trkpt><trkpt lat="42.387667" lon="11.1685238"><ele>604.6</ele><time>2026-04-04T08:46:19.253Z</time></trkpt><trkpt lat="42.3877538" lon="11.1685846"><ele>607.0</ele><time>2026-04-04T08:46:20.252Z</time></trkpt><trkpt lat="42.3878423" lon="11.1686411"><ele>607.0</ele><time>2026-04-04T08:46:21.245Z</time></trkpt><trkpt lat="42.3879286" lon="11.1686906"><ele>607.0</ele><time>2026-04-04T08:46:22.257Z</time></trkpt><trkpt lat="42.3880114" lon="11.1687283"><ele>607.0</ele><time>2026-04-04T08:46:23.243Z</time></trkpt><trkpt lat="42.388104" lon="11.1687623"><ele>607.0</ele><time>2026-04-04T08:46:24.245Z</time></trkpt><trkpt lat="42.3881942" lon="11.168811"><ele>607.0</ele><time>2026-04-04T08:46:25.256Z</time></trkpt><trkpt lat="42.3882729" lon="11.1688783"><ele>603.0</ele><time>2026-04-04T08:46:26.259Z</time></trkpt><trkpt lat="42.3883464" lon="11.1689503"><ele>599.0</ele><time>2026-04-04T08:46:27.248Z</time></trkpt><trkpt lat="42.3884199" lon="11.1690137"><ele>595.0</ele><time>2026-04-04T08:46:28.24Z</time></trkpt><trkpt lat="42.3884769" lon="11.169068"><ele>591.0</ele><time>2026-04-04T08:46:29.248Z</time></trkpt><trkpt lat="42.3885547" lon="11.1691801"><ele>587.0</ele><time>2026-04-04T08:46:31.25Z</time></trkpt><trkpt lat="42.3886112" lon="11.1692814"><ele>587.0</ele><time>2026-04-04T08:46:33.246Z</time></trkpt><trkpt lat="42.3886753" lon="11.1692247"><ele>587.0</ele><time>2026-04-04T08:46:35.25Z</time></trkpt><trkpt lat="42.3887147" lon="11.169137"><ele>587.0</ele><time>2026-04-04T08:46:37.245Z</time></trkpt><trkpt lat="42.3886901" lon="11.168961"><ele>587.0</ele><time>2026-04-04T08:46:39.246Z</time></trkpt><trkpt lat="42.388636" lon="11.1688231"><ele>587.0</ele><time>2026-04-04T08:46:40.244Z</time></trkpt><trkpt lat="42.388583" lon="11.168674"><ele>586.6</ele><time>2026-04-04T08:46:41.253Z</time></trkpt><trkpt lat="42.3885232" lon="11.1685334"><ele>586.2</ele><time>2026-04-04T08:46:42.257Z</time></trkpt><trkpt lat="42.3884614" lon="11.1683993"><ele>585.8</ele><time>2026-04-04T08:46:43.252Z</time></trkpt><trkpt lat="42.3884081" lon="11.1682815"><ele>585.4</ele><time>2026-04-04T08:46:44.246Z</time></trkpt><trkpt lat="42.3883626" lon="11.1681737"><ele>585.0</ele><time>2026-04-04T08:46:45.247Z</time></trkpt><trkpt lat="42.388334" lon="11.1680854"><ele>583.8</ele><time>2026-04-04T08:46:46.265Z</time></trkpt><trkpt lat="42.388337" lon="11.1679094"><ele>582.6</ele><time>2026-04-04T08:46:48.249Z</time></trkpt><trkpt lat="42.3883974" lon="11.167805"><ele>581.4</ele><time>2026-04-04T08:46:49.25Z</time></trkpt><trkpt lat="42.3884806" lon="11.1676936"><ele>580.2</ele><time>2026-04-04T08:46:50.251Z</time></trkpt><trkpt lat="42.388529" lon="11.1675947"><ele>579.0</ele><time>2026-04-04T08:46:51.254Z</time></trkpt><trkpt lat="42.3885448" lon="11.1674994"><ele>579.0</ele><time>2026-04-04T08:46:52.245Z</time></trkpt><trkpt lat="42.3886024" lon="11.1673555"><ele>579.0</ele><time>2026-04-04T08:46:54.258Z</time></trkpt><trkpt lat="42.3886874" lon="11.167371"><ele>579.0</ele><time>2026-04-04T08:46:56.245Z</time></trkpt><trkpt lat="42.3887207" lon="11.1675151"><ele>579.0</ele><time>2026-04-04T08:46:58.259Z</time></trkpt><trkpt lat="42.3887135" lon="11.1676586"><ele>579.0</ele><time>2026-04-04T08:47:00.241Z</time></trkpt><trkpt lat="42.3887437" lon="11.1677599"><ele>579.0</ele><time>2026-04-04T08:47:02.245Z</time></trkpt><trkpt lat="42.3888057" lon="11.1678198"><ele>579.0</ele><time>2026-04-04T08:47:04.244Z</time></trkpt><trkpt lat="42.388931" lon="11.1678513"><ele>579.0</ele><time>2026-04-04T08:47:06.244Z</time></trkpt><trkpt lat="42.3890103" lon="11.1678721"><ele>579.0</ele><time>2026-04-04T08:47:07.256Z</time></trkpt><trkpt lat="42.3890801" lon="11.1678912"><ele>579.0</ele><time>2026-04-04T08:47:08.245Z</time></trkpt><trkpt lat="42.389164" lon="11.1679258"><ele>579.0</ele><time>2026-04-04T08:47:09.261Z</time></trkpt><trkpt lat="42.3892564" lon="11.1679803"><ele>575.75</ele><time>2026-04-04T08:47:10.245Z</time></trkpt><trkpt lat="42.3893636" lon="11.1680648"><ele>572.5</ele><time>2026-04-04T08:47:11.247Z</time></trkpt><trkpt lat="42.38947" lon="11.168153"><ele>569.25</ele><time>2026-04-04T08:47:12.244Z</time></trkpt><trkpt lat="42.3895633" lon="11.1682224"><ele>566.0</ele><time>2026-04-04T08:47:13.263Z</time></trkpt><trkpt lat="42.3896469" lon="11.1682891"><ele>563.6</ele><time>2026-04-04T08:47:14.245Z</time></trkpt><trkpt lat="42.3897222" lon="11.1683407"><ele>561.2</ele><time>2026-04-04T08:47:15.248Z</time></trkpt><trkpt lat="42.3898039" lon="11.168356"><ele>558.8</ele><time>2026-04-04T08:47:16.251Z</time></trkpt><trkpt lat="42.3898927" lon="11.1683241"><ele>556.4</ele><time>2026-04-04T08:47:17.245Z</time></trkpt><trkpt lat="42.3899958" lon="11.168275"><ele>554.0</ele><time>2026-04-04T08:47:18.248Z</time></trkpt><trkpt lat="42.3901061" lon="11.1682184"><ele>551.75</ele><time>2026-04-04T08:47:19.244Z</time></trkpt><trkpt lat="42.3902281" lon="11.1681565"><ele>549.5</ele><time>2026-04-04T08:47:20.248Z</time></trkpt><trkpt lat="42.3903584" lon="11.1680942"><ele>547.25</ele><time>2026-04-04T08:47:21.25Z</time></trkpt><trkpt lat="42.3904895" lon="11.1680243"><ele>545.0</ele><time>2026-04-04T08:47:22.253Z</time></trkpt><trkpt lat="42.3906221" lon="11.1679577"><ele>544.0</ele><time>2026-04-04T08:47:23.247Z</time></trkpt><trkpt lat="42.3907653" lon="11.1678898"><ele>543.0</ele><time>2026-04-04T08:47:24.248Z</time></trkpt><trkpt lat="42.3909053" lon="11.1678191"><ele>542.0</ele><time>2026-04-04T08:47:25.261Z</time></trkpt><trkpt lat="42.3910388" lon="11.1677537"><ele>541.0</ele><time>2026-04-04T08:47:26.255Z</time></trkpt><trkpt lat="42.3911647" lon="11.1676732"><ele>541.0</ele><time>2026-04-04T08:47:27.268Z</time></trkpt><trkpt lat="42.3912879" lon="11.1675887"><ele>541.0</ele><time>2026-04-04T08:47:28.249Z</time></trkpt><trkpt lat="42.3914113" lon="11.167503"><ele>541.0</ele><time>2026-04-04T08:47:29.247Z</time></trkpt><trkpt lat="42.3915333" lon="11.1674127"><ele>541.0</ele><time>2026-04-04T08:47:30.255Z</time></trkpt><trkpt lat="42.3916567" lon="11.1672954"><ele>542.0</ele><time>2026-04-04T08:47:31.248Z</time></trkpt><trkpt lat="42.3917764" lon="11.1671643"><ele>543.0</ele><time>2026-04-04T08:47:32.256Z</time></trkpt><trkpt lat="42.3918894" lon="11.1670337"><ele>544.0</ele><time>2026-04-04T08:47:33.249Z</time></trkpt><trkpt lat="42.3920075" lon="11.1669116"><ele>544.0</ele><time>2026-04-04T08:47:34.255Z</time></trkpt><trkpt lat="42.3921297" lon="11.1667905"><ele>544.0</ele><time>2026-04-04T08:47:35.252Z</time></trkpt><trkpt lat="42.3922492" lon="11.1666794"><ele>544.0</ele><time>2026-04-04T08:47:36.26Z</time></trkpt><trkpt lat="42.392349" lon="11.1665825"><ele>544.0</ele><time>2026-04-04T08:47:37.245Z</time></trkpt><trkpt lat="42.3924111" lon="11.1665174"><ele>547.6</ele><time>2026-04-04T08:47:38.243Z</time></trkpt><trkpt lat="42.3924581" lon="11.1664538"><ele>551.2</ele><time>2026-04-04T08:47:39.251Z</time></trkpt><trkpt lat="42.3924945" lon="11.166309"><ele>554.8000000000001</ele><time>2026-04-04T08:47:41.248Z</time></trkpt><trkpt lat="42.3924276" lon="11.1661883"><ele>558.4</ele><time>2026-04-04T08:47:43.246Z</time></trkpt><trkpt lat="42.3923733" lon="11.1660571"><ele>562.0</ele><time>2026-04-04T08:47:45.245Z</time></trkpt><trkpt lat="42.3923525" lon="11.1659273"><ele>562.0</ele><time>2026-04-04T08:47:46.251Z</time></trkpt><trkpt lat="42.3923508" lon="11.1657734"><ele>562.0</ele><time>2026-04-04T08:47:47.247Z</time></trkpt><trkpt lat="42.3923604" lon="11.1656116"><ele>562.0</ele><time>2026-04-04T08:47:48.247Z</time></trkpt><trkpt lat="42.3923861" lon="11.1654333"><ele>562.0</ele><time>2026-04-04T08:47:49.252Z</time></trkpt><trkpt lat="42.3924266" lon="11.1652683"><ele>563.75</ele><time>2026-04-04T08:47:50.27Z</time></trkpt><trkpt lat="42.3924681" lon="11.1651253"><ele>565.5</ele><time>2026-04-04T08:47:51.249Z</time></trkpt><trkpt lat="42.3925108" lon="11.1650064"><ele>567.25</ele><time>2026-04-04T08:47:52.248Z</time></trkpt><trkpt lat="42.3925835" lon="11.1648809"><ele>569.0</ele><time>2026-04-04T08:47:53.253Z</time></trkpt><trkpt lat="42.3926741" lon="11.1647508"><ele>570.0</ele><time>2026-04-04T08:47:54.263Z</time></trkpt><trkpt lat="42.3927749" lon="11.1646237"><ele>571.0</ele><time>2026-04-04T08:47:55.249Z</time></trkpt><trkpt lat="42.3928775" lon="11.1644901"><ele>572.0</ele><time>2026-04-04T08:47:56.242Z</time></trkpt><trkpt lat="42.3929833" lon="11.1643484"><ele>573.0</ele><time>2026-04-04T08:47:57.255Z</time></trkpt><trkpt lat="42.3930926" lon="11.1642039"><ele>573.0</ele><time>2026-04-04T08:47:58.247Z</time></trkpt><trkpt lat="42.3931956" lon="11.1640618"><ele>573.0</ele><time>2026-04-04T08:47:59.248Z</time></trkpt><trkpt lat="42.3932826" lon="11.1639244"><ele>573.0</ele><time>2026-04-04T08:48:00.248Z</time></trkpt><trkpt lat="42.3933465" lon="11.1638363"><ele>573.0</ele><time>2026-04-04T08:48:01.246Z</time></trkpt><trkpt lat="42.393433" lon="11.1637233"><ele>570.0</ele><time>2026-04-04T08:48:03.249Z</time></trkpt><trkpt lat="42.3934911" lon="11.1636654"><ele>567.0</ele><time>2026-04-04T08:48:05.254Z</time></trkpt><trkpt lat="42.3935515" lon="11.1635945"><ele>564.0</ele><time>2026-04-04T08:48:22.248Z</time></trkpt><trkpt lat="42.3936558" lon="11.163498"><ele>561.0</ele><time>2026-04-04T08:48:24.246Z</time></trkpt><trkpt lat="42.3937206" lon="11.1634409"><ele>558.0</ele><time>2026-04-04T08:48:25.246Z</time></trkpt><trkpt lat="42.3937827" lon="11.1633988"><ele>555.0</ele><time>2026-04-04T08:48:26.246Z</time></trkpt><trkpt lat="42.3938629" lon="11.1633654"><ele>555.0</ele><time>2026-04-04T08:48:27.251Z</time></trkpt><trkpt lat="42.3939585" lon="11.163351"><ele>555.0</ele><time>2026-04-04T08:48:28.249Z</time></trkpt><trkpt lat="42.3940655" lon="11.1633486"><ele>555.0</ele><time>2026-04-04T08:48:29.252Z</time></trkpt><trkpt lat="42.3941829" lon="11.1633509"><ele>555.0</ele><time>2026-04-04T08:48:30.249Z</time></trkpt><trkpt lat="42.3943082" lon="11.1633519"><ele>555.0</ele><time>2026-04-04T08:48:31.25Z</time></trkpt><trkpt lat="42.394444" lon="11.1633574"><ele>555.0</ele><time>2026-04-04T08:48:32.248Z</time></trkpt><trkpt lat="42.3945758" lon="11.1633781"><ele>555.0</ele><time>2026-04-04T08:48:33.247Z</time></trkpt><trkpt lat="42.3947013" lon="11.1634059"><ele>555.0</ele><time>2026-04-04T08:48:34.244Z</time></trkpt><trkpt lat="42.3948323" lon="11.1634477"><ele>555.0</ele><time>2026-04-04T08:48:35.259Z</time></trkpt><trkpt lat="42.3949622" lon="11.1634884"><ele>553.75</ele><time>2026-04-04T08:48:36.243Z</time></trkpt><trkpt lat="42.3950873" lon="11.1635356"><ele>552.5</ele><time>2026-04-04T08:48:37.249Z</time></trkpt><trkpt lat="42.3952094" lon="11.1635704"><ele>551.25</ele><time>2026-04-04T08:48:38.254Z</time></trkpt><trkpt lat="42.3953336" lon="11.1635994"><ele>550.0</ele><time>2026-04-04T08:48:39.254Z</time></trkpt><trkpt lat="42.3954502" lon="11.1636205"><ele>550.8</ele><time>2026-04-04T08:48:40.243Z</time></trkpt><trkpt lat="42.3955555" lon="11.1636288"><ele>551.6</ele><time>2026-04-04T08:48:41.257Z</time></trkpt><trkpt lat="42.3956512" lon="11.1635991"><ele>552.4</ele><time>2026-04-04T08:48:42.261Z</time></trkpt><trkpt lat="42.3957366" lon="11.1635583"><ele>553.2</ele><time>2026-04-04T08:48:43.256Z</time></trkpt><trkpt lat="42.3958421" lon="11.1634791"><ele>554.0</ele><time>2026-04-04T08:48:44.25Z</time></trkpt><trkpt lat="42.3959757" lon="11.1633722"><ele>554.0</ele><time>2026-04-04T08:48:45.244Z</time></trkpt><trkpt lat="42.3961059" lon="11.1632796"><ele>554.0</ele><time>2026-04-04T08:48:46.247Z</time></trkpt><trkpt lat="42.3962333" lon="11.1631833"><ele>554.0</ele><time>2026-04-04T08:48:47.244Z</time></trkpt><trkpt lat="42.3963497" lon="11.1631036"><ele>554.0</ele><time>2026-04-04T08:48:48.244Z</time></trkpt><trkpt lat="42.3964563" lon="11.1630382"><ele>551.0</ele><time>2026-04-04T08:48:49.252Z</time></trkpt><trkpt lat="42.396553" lon="11.162986"><ele>548.0</ele><time>2026-04-04T08:48:50.257Z</time></trkpt><trkpt lat="42.3966338" lon="11.1629637"><ele>545.0</ele><time>2026-04-04T08:48:51.247Z</time></trkpt><trkpt lat="42.396716" lon="11.1629632"><ele>542.0</ele><time>2026-04-04T08:48:52.244Z</time></trkpt><trkpt lat="42.3968117" lon="11.1630088"><ele>539.0</ele><time>2026-04-04T08:48:53.249Z</time></trkpt><trkpt lat="42.3969122" lon="11.1630754"><ele>539.0</ele><time>2026-04-04T08:48:54.256Z</time></trkpt><trkpt lat="42.3970158" lon="11.1631529"><ele>539.0</ele><time>2026-04-04T08:48:55.245Z</time></trkpt><trkpt lat="42.3971198" lon="11.1632537"><ele>539.0</ele><time>2026-04-04T08:48:56.264Z</time></trkpt><trkpt lat="42.3972344" lon="11.1633646"><ele>539.0</ele><time>2026-04-04T08:48:57.246Z</time></trkpt><trkpt lat="42.397355" lon="11.1634909"><ele>541.25</ele><time>2026-04-04T08:48:58.25Z</time></trkpt><trkpt lat="42.3974641" lon="11.1636121"><ele>543.5</ele><time>2026-04-04T08:48:59.251Z</time></trkpt><trkpt lat="42.3975609" lon="11.1637218"><ele>545.75</ele><time>2026-04-04T08:49:00.247Z</time></trkpt><trkpt lat="42.3976493" lon="11.1638071"><ele>548.0</ele><time>2026-04-04T08:49:01.25Z</time></trkpt><trkpt lat="42.3977193" lon="11.1638744"><ele>548.0</ele><time>2026-04-04T08:49:02.249Z</time></trkpt><trkpt lat="42.3977823" lon="11.1639194"><ele>548.0</ele><time>2026-04-04T08:49:03.242Z</time></trkpt><trkpt lat="42.3978462" lon="11.1639334"><ele>548.0</ele><time>2026-04-04T08:49:04.248Z</time></trkpt><trkpt lat="42.3979118" lon="11.1639218"><ele>548.0</ele><time>2026-04-04T08:49:05.243Z</time></trkpt><trkpt lat="42.397989" lon="11.1638994"><ele>548.0</ele><time>2026-04-04T08:49:06.248Z</time></trkpt><trkpt lat="42.3980773" lon="11.1638708"><ele>548.0</ele><time>2026-04-04T08:49:07.252Z</time></trkpt><trkpt lat="42.3981755" lon="11.163812"><ele>546.75</ele><time>2026-04-04T08:49:08.251Z</time></trkpt><trkpt lat="42.3982872" lon="11.1637415"><ele>545.5</ele><time>2026-04-04T08:49:09.242Z</time></trkpt><trkpt lat="42.3983927" lon="11.1636967"><ele>544.25</ele><time>2026-04-04T08:49:10.249Z</time></trkpt><trkpt lat="42.3985101" lon="11.1636729"><ele>543.0</ele><time>2026-04-04T08:49:11.252Z</time></trkpt><trkpt lat="42.3986372" lon="11.1636851"><ele>543.0</ele><time>2026-04-04T08:49:12.254Z</time></trkpt><trkpt lat="42.3987674" lon="11.1637107"><ele>543.0</ele><time>2026-04-04T08:49:13.242Z</time></trkpt><trkpt lat="42.3988942" lon="11.1637318"><ele>543.0</ele><time>2026-04-04T08:49:14.259Z</time></trkpt><trkpt lat="42.3990147" lon="11.1637299"><ele>543.0</ele><time>2026-04-04T08:49:15.249Z</time></trkpt><trkpt lat="42.3991355" lon="11.1636949"><ele>542.0</ele><time>2026-04-04T08:49:16.247Z</time></trkpt><trkpt lat="42.3992484" lon="11.163628"><ele>541.0</ele><time>2026-04-04T08:49:17.248Z</time></trkpt><trkpt lat="42.3993531" lon="11.1635439"><ele>540.0</ele><time>2026-04-04T08:49:18.256Z</time></trkpt><trkpt lat="42.3994543" lon="11.1634703"><ele>539.0</ele><time>2026-04-04T08:49:19.241Z</time></trkpt><trkpt lat="42.3995643" lon="11.1634457"><ele>538.5</ele><time>2026-04-04T08:49:20.256Z</time></trkpt><trkpt lat="42.3996874" lon="11.1634378"><ele>538.0</ele><time>2026-04-04T08:49:21.245Z</time></trkpt><trkpt lat="42.399824" lon="11.1634138"><ele>537.5</ele><time>2026-04-04T08:49:22.256Z</time></trkpt><trkpt lat="42.3999591" lon="11.1633753"><ele>537.0</ele><time>2026-04-04T08:49:23.249Z</time></trkpt><trkpt lat="42.4000987" lon="11.1633538"><ele>537.0</ele><time>2026-04-04T08:49:24.258Z</time></trkpt><trkpt lat="42.4002181" lon="11.1633377"><ele>537.0</ele><time>2026-04-04T08:49:25.257Z</time></trkpt><trkpt lat="42.4003236" lon="11.1633108"><ele>537.0</ele><time>2026-04-04T08:49:26.246Z</time></trkpt><trkpt lat="42.4004399" lon="11.1632305"><ele>537.0</ele><time>2026-04-04T08:49:27.252Z</time></trkpt><trkpt lat="42.4005635" lon="11.1631292"><ele>535.0</ele><time>2026-04-04T08:49:28.248Z</time></trkpt><trkpt lat="42.400685" lon="11.1630295"><ele>533.0</ele><time>2026-04-04T08:49:29.258Z</time></trkpt><trkpt lat="42.4008018" lon="11.162929"><ele>531.0</ele><time>2026-04-04T08:49:30.25Z</time></trkpt><trkpt lat="42.4009158" lon="11.1628207"><ele>529.0</ele><time>2026-04-04T08:49:31.248Z</time></trkpt><trkpt lat="42.4010179" lon="11.1627318"><ele>529.0</ele><time>2026-04-04T08:49:32.245Z</time></trkpt><trkpt lat="42.4011242" lon="11.1626812"><ele>529.0</ele><time>2026-04-04T08:49:33.267Z</time></trkpt><trkpt lat="42.4012334" lon="11.1626335"><ele>529.0</ele><time>2026-04-04T08:49:34.24Z</time></trkpt><trkpt lat="42.4013534" lon="11.1625818"><ele>529.0</ele><time>2026-04-04T08:49:35.245Z</time></trkpt><trkpt lat="42.4014516" lon="11.162522"><ele>528.8</ele><time>2026-04-04T08:49:36.246Z</time></trkpt><trkpt lat="42.4015352" lon="11.1624863"><ele>528.5999999999999</ele><time>2026-04-04T08:49:37.245Z</time></trkpt><trkpt lat="42.4016183" lon="11.1624676"><ele>528.4</ele><time>2026-04-04T08:49:38.259Z</time></trkpt><trkpt lat="42.401699" lon="11.1624601"><ele>528.1999999999999</ele><time>2026-04-04T08:49:39.255Z</time></trkpt><trkpt lat="42.4017875" lon="11.1624888"><ele>528.0</ele><time>2026-04-04T08:49:40.249Z</time></trkpt><trkpt lat="42.4018858" lon="11.1625443"><ele>528.0</ele><time>2026-04-04T08:49:41.245Z</time></trkpt><trkpt lat="42.4019792" lon="11.1626347"><ele>528.0</ele><time>2026-04-04T08:49:42.241Z</time></trkpt><trkpt lat="42.4020685" lon="11.1627424"><ele>528.0</ele><time>2026-04-04T08:49:43.253Z</time></trkpt><trkpt lat="42.4021501" lon="11.1628506"><ele>528.0</ele><time>2026-04-04T08:49:44.255Z</time></trkpt><trkpt lat="42.4022146" lon="11.1629387"><ele>528.0</ele><time>2026-04-04T08:49:45.248Z</time></trkpt><trkpt lat="42.4022675" lon="11.1630103"><ele>525.6666666666666</ele><time>2026-04-04T08:49:46.247Z</time></trkpt><trkpt lat="42.402324" lon="11.1630486"><ele>523.3333333333334</ele><time>2026-04-04T08:49:47.263Z</time></trkpt><trkpt lat="42.402414" lon="11.1630822"><ele>521.0</ele><time>2026-04-04T08:49:49.248Z</time></trkpt><trkpt lat="42.402429" lon="11.1629791"><ele>518.6666666666667</ele><time>2026-04-04T08:50:08.253Z</time></trkpt><trkpt lat="42.4024014" lon="11.1628683"><ele>516.3333333333334</ele><time>2026-04-04T08:50:09.245Z</time></trkpt><trkpt lat="42.402356" lon="11.162771"><ele>514.0</ele><time>2026-04-04T08:50:10.251Z</time></trkpt><trkpt lat="42.4023065" lon="11.1626734"><ele>514.0</ele><time>2026-04-04T08:50:11.249Z</time></trkpt><trkpt lat="42.402256" lon="11.1625748"><ele>514.0</ele><time>2026-04-04T08:50:12.245Z</time></trkpt><trkpt lat="42.4022121" lon="11.1624592"><ele>514.0</ele><time>2026-04-04T08:50:13.246Z</time></trkpt><trkpt lat="42.4021803" lon="11.1623326"><ele>514.0</ele><time>2026-04-04T08:50:14.246Z</time></trkpt><trkpt lat="42.4021504" lon="11.1622091"><ele>514.0</ele><time>2026-04-04T08:50:15.248Z</time></trkpt><trkpt lat="42.4021138" lon="11.1620799"><ele>514.4</ele><time>2026-04-04T08:50:16.259Z</time></trkpt><trkpt lat="42.40207" lon="11.1619479"><ele>514.8</ele><time>2026-04-04T08:50:17.244Z</time></trkpt><trkpt lat="42.402016" lon="11.1618178"><ele>515.2</ele><time>2026-04-04T08:50:18.245Z</time></trkpt><trkpt lat="42.401951" lon="11.1617018"><ele>515.6</ele><time>2026-04-04T08:50:19.251Z</time></trkpt><trkpt lat="42.4018764" lon="11.1616055"><ele>516.0</ele><time>2026-04-04T08:50:20.241Z</time></trkpt><trkpt lat="42.4017989" lon="11.161533"><ele>512.6</ele><time>2026-04-04T08:50:21.254Z</time></trkpt><trkpt lat="42.4017258" lon="11.1614776"><ele>509.20000000000005</ele><time>2026-04-04T08:50:22.253Z</time></trkpt><trkpt lat="42.4016611" lon="11.1614396"><ele>505.79999999999995</ele><time>2026-04-04T08:50:23.246Z</time></trkpt><trkpt lat="42.4015973" lon="11.161353"><ele>502.4</ele><time>2026-04-04T08:50:25.246Z</time></trkpt><trkpt lat="42.4016453" lon="11.1612734"><ele>499.0</ele><time>2026-04-04T08:50:27.246Z</time></trkpt><trkpt lat="42.4017779" lon="11.1612687"><ele>499.00000000000006</ele><time>2026-04-04T08:50:29.25Z</time></trkpt><trkpt lat="42.4018545" lon="11.1612827"><ele>499.0</ele><time>2026-04-04T08:50:30.248Z</time></trkpt><trkpt lat="42.4019259" lon="11.1612771"><ele>499.0</ele><time>2026-04-04T08:50:31.247Z</time></trkpt><trkpt lat="42.4019976" lon="11.1612491"><ele>499.0</ele><time>2026-04-04T08:50:32.25Z</time></trkpt><trkpt lat="42.4020739" lon="11.1611895"><ele>499.00000000000006</ele><time>2026-04-04T08:50:33.242Z</time></trkpt><trkpt lat="42.4021461" lon="11.1610978"><ele>499.0</ele><time>2026-04-04T08:50:34.256Z</time></trkpt><trkpt lat="42.4022071" lon="11.1609825"><ele>499.79999999999995</ele><time>2026-04-04T08:50:35.245Z</time></trkpt><trkpt lat="42.4022767" lon="11.1608589"><ele>500.59999999999997</ele><time>2026-04-04T08:50:36.257Z</time></trkpt><trkpt lat="42.4023479" lon="11.1607265"><ele>501.4</ele><time>2026-04-04T08:50:37.241Z</time></trkpt><trkpt lat="42.4024078" lon="11.16063"><ele>502.2</ele><time>2026-04-04T08:50:38.244Z</time></trkpt><trkpt lat="42.4024514" lon="11.1605656"><ele>503.0</ele><time>2026-04-04T08:50:39.251Z</time></trkpt><trkpt lat="42.4025244" lon="11.1604861"><ele>503.0</ele><time>2026-04-04T08:50:41.248Z</time></trkpt><trkpt lat="42.4025859" lon="11.160437"><ele>503.00000000000006</ele><time>2026-04-04T08:51:04.251Z</time></trkpt><trkpt lat="42.4025159" lon="11.1604624"><ele>503.0</ele><time>2026-04-04T08:51:16.25Z</time></trkpt><trkpt lat="42.4024629" lon="11.1605125"><ele>503.0</ele><time>2026-04-04T08:51:18.25Z</time></trkpt><trkpt lat="42.4023971" lon="11.1605944"><ele>503.00000000000006</ele><time>2026-04-04T08:51:21.251Z</time></trkpt><trkpt lat="42.4023485" lon="11.1606677"><ele>503.0</ele><time>2026-04-04T08:51:23.247Z</time></trkpt><trkpt lat="42.4022805" lon="11.1606958"><ele>503.0</ele><time>2026-04-04T08:51:26.252Z</time></trkpt><trkpt lat="42.4022164" lon="11.1607166"><ele>502.3333333333333</ele><time>2026-04-04T08:51:29.248Z</time></trkpt><trkpt lat="42.4021304" lon="11.160743"><ele>501.66666666666663</ele><time>2026-04-04T08:51:32.253Z</time></trkpt><trkpt lat="42.4020636" lon="11.1607891"><ele>501.0</ele><time>2026-04-04T08:51:34.25Z</time></trkpt><trkpt lat="42.4019997" lon="11.1607927"><ele>500.33333333333337</ele><time>2026-04-04T08:51:36.251Z</time></trkpt><trkpt lat="42.4019303" lon="11.1607953"><ele>499.6666666666667</ele><time>2026-04-04T08:51:39.246Z</time></trkpt><trkpt lat="42.4018639" lon="11.1607774"><ele>499.0</ele><time>2026-04-04T08:51:42.244Z</time></trkpt><trkpt lat="42.4017884" lon="11.1607206"><ele>499.00000000000006</ele><time>2026-04-04T08:51:45.253Z</time></trkpt><trkpt lat="42.4017468" lon="11.1606562"><ele>499.0</ele><time>2026-04-04T08:51:49.244Z</time></trkpt><trkpt lat="42.4016553" lon="11.160658"><ele>499.00000000000006</ele><time>2026-04-04T08:51:52.254Z</time></trkpt><trkpt lat="42.4015895" lon="11.1606756"><ele>499.00000000000006</ele><time>2026-04-04T08:51:54.251Z</time></trkpt><trkpt lat="42.4015075" lon="11.1606886"><ele>499.0</ele><time>2026-04-04T08:51:57.248Z</time></trkpt><trkpt lat="42.40145" lon="11.1607239"><ele>499.00000000000006</ele><time>2026-04-04T08:51:59.253Z</time></trkpt><trkpt lat="42.4013757" lon="11.1607588"><ele>499.00000000000006</ele><time>2026-04-04T08:52:03.247Z</time></trkpt><trkpt lat="42.4013156" lon="11.1608005"><ele>497.8571428571429</ele><time>2026-04-04T08:52:06.243Z</time></trkpt><trkpt lat="42.4012483" lon="11.1608322"><ele>496.7142857142857</ele><time>2026-04-04T08:52:09.248Z</time></trkpt><trkpt lat="42.401189" lon="11.1608685"><ele>495.57142857142856</ele><time>2026-04-04T08:52:11.254Z</time></trkpt><trkpt lat="42.4011161" lon="11.1608735"><ele>494.42857142857144</ele><time>2026-04-04T08:52:13.253Z</time></trkpt><trkpt lat="42.4010491" lon="11.1608761"><ele>493.2857142857142</ele><time>2026-04-04T08:52:16.251Z</time></trkpt><trkpt lat="42.4009627" lon="11.1608569"><ele>492.1428571428571</ele><time>2026-04-04T08:52:20.248Z</time></trkpt><trkpt lat="42.4008997" lon="11.1608592"><ele>491.0</ele><time>2026-04-04T08:52:22.238Z</time></trkpt><trkpt lat="42.400824" lon="11.1608388"><ele>490.99999999999994</ele><time>2026-04-04T08:52:24.247Z</time></trkpt><trkpt lat="42.4007283" lon="11.1608038"><ele>491.0</ele><time>2026-04-04T08:52:26.25Z</time></trkpt><trkpt lat="42.4006638" lon="11.160774"><ele>491.0</ele><time>2026-04-04T08:52:28.259Z</time></trkpt><trkpt lat="42.4005929" lon="11.1607404"><ele>491.0</ele><time>2026-04-04T08:52:31.244Z</time></trkpt><trkpt lat="42.4005186" lon="11.1607145"><ele>490.99999999999994</ele><time>2026-04-04T08:52:34.24Z</time></trkpt><trkpt lat="42.4004562" lon="11.1606772"><ele>491.0</ele><time>2026-04-04T08:52:37.24Z</time></trkpt><trkpt lat="42.4003902" lon="11.1606498"><ele>488.99999999999994</ele><time>2026-04-04T08:52:40.243Z</time></trkpt><trkpt lat="42.4003032" lon="11.1606492"><ele>487.0</ele><time>2026-04-04T08:52:43.242Z</time></trkpt><trkpt lat="42.4002285" lon="11.1605969"><ele>485.0</ele><time>2026-04-04T08:52:46.243Z</time></trkpt><trkpt lat="42.4001586" lon="11.1605654"><ele>483.0</ele><time>2026-04-04T08:52:59.242Z</time></trkpt><trkpt lat="42.4000874" lon="11.1605033"><ele>480.99999999999994</ele><time>2026-04-04T08:53:03.245Z</time></trkpt><trkpt lat="42.4000271" lon="11.1604524"><ele>479.0</ele><time>2026-04-04T08:53:05.246Z</time></trkpt><trkpt lat="42.3999442" lon="11.1603759"><ele>478.99999999999994</ele><time>2026-04-04T08:53:07.24Z</time></trkpt><trkpt lat="42.399875" lon="11.1603131"><ele>479.0</ele><time>2026-04-04T08:53:09.24Z</time></trkpt><trkpt lat="42.3997973" lon="11.1602863"><ele>479.0</ele><time>2026-04-04T08:53:11.243Z</time></trkpt><trkpt lat="42.3997329" lon="11.160253"><ele>479.0</ele><time>2026-04-04T08:53:12.239Z</time></trkpt><trkpt lat="42.3996589" lon="11.160198"><ele>478.99999999999994</ele><time>2026-04-04T08:53:14.245Z</time></trkpt><trkpt lat="42.3995849" lon="11.1601329"><ele>479.0</ele><time>2026-04-04T08:53:16.243Z</time></trkpt><trkpt lat="42.399499" lon="11.1600897"><ele>478.99999999999994</ele><time>2026-04-04T08:53:19.247Z</time></trkpt><trkpt lat="42.399481" lon="11.1600042"><ele>479.0</ele><time>2026-04-04T08:53:22.25Z</time></trkpt><trkpt lat="42.3995527" lon="11.1599414"><ele>479.0</ele><time>2026-04-04T08:53:25.247Z</time></trkpt><trkpt lat="42.3996304" lon="11.1599131"><ele>479.0</ele><time>2026-04-04T08:53:27.257Z</time></trkpt><trkpt lat="42.3997239" lon="11.1599139"><ele>478.99999999999994</ele><time>2026-04-04T08:53:30.254Z</time></trkpt><trkpt lat="42.3997946" lon="11.1599125"><ele>479.0</ele><time>2026-04-04T08:53:32.242Z</time></trkpt><trkpt lat="42.3998621" lon="11.1599076"><ele>478.99999999999994</ele><time>2026-04-04T08:53:34.248Z</time></trkpt><trkpt lat="42.399945" lon="11.1599092"><ele>479.0</ele><time>2026-04-04T08:53:37.244Z</time></trkpt><trkpt lat="42.400031" lon="11.1599216"><ele>479.0</ele><time>2026-04-04T08:53:40.253Z</time></trkpt><trkpt lat="42.4000929" lon="11.1599012"><ele>479.0</ele><time>2026-04-04T08:53:43.243Z</time></trkpt><trkpt lat="42.4001734" lon="11.1598939"><ele>478.99999999999994</ele><time>2026-04-04T08:53:46.249Z</time></trkpt><trkpt lat="42.4002428" lon="11.1598623"><ele>479.0</ele><time>2026-04-04T08:53:48.25Z</time></trkpt><trkpt lat="42.4003059" lon="11.1598497"><ele>476.0</ele><time>2026-04-04T08:53:50.25Z</time></trkpt><trkpt lat="42.4003914" lon="11.1598174"><ele>473.0</ele><time>2026-04-04T08:53:53.255Z</time></trkpt><trkpt lat="42.4004651" lon="11.159766"><ele>470.0</ele><time>2026-04-04T08:53:56.24Z</time></trkpt><trkpt lat="42.4005541" lon="11.1597305"><ele>467.0</ele><time>2026-04-04T08:53:59.255Z</time></trkpt><trkpt lat="42.4006207" lon="11.1596829"><ele>464.0</ele><time>2026-04-04T08:54:02.242Z</time></trkpt><trkpt lat="42.4007306" lon="11.1596647"><ele>461.66666666666663</ele><time>2026-04-04T08:54:07.25Z</time></trkpt><trkpt lat="42.4008021" lon="11.1596355"><ele>459.3333333333333</ele><time>2026-04-04T08:54:11.24Z</time></trkpt><trkpt lat="42.4009039" lon="11.1596161"><ele>457.0</ele><time>2026-04-04T08:54:16.247Z</time></trkpt><trkpt lat="42.400982" lon="11.1595685"><ele>454.66666666666663</ele><time>2026-04-04T08:54:19.249Z</time></trkpt><trkpt lat="42.4010583" lon="11.1595038"><ele>452.3333333333333</ele><time>2026-04-04T08:54:22.244Z</time></trkpt><trkpt lat="42.4011168" lon="11.1594565"><ele>450.0</ele><time>2026-04-04T08:54:24.251Z</time></trkpt><trkpt lat="42.4011669" lon="11.1594013"><ele>450.0</ele><time>2026-04-04T08:54:26.251Z</time></trkpt><trkpt lat="42.4012023" lon="11.1593086"><ele>450.0</ele><time>2026-04-04T08:54:29.24Z</time></trkpt><trkpt lat="42.401219" lon="11.159226"><ele>450.0</ele><time>2026-04-04T08:54:32.241Z</time></trkpt><trkpt lat="42.401233" lon="11.1591201"><ele>450.0</ele><time>2026-04-04T08:54:40.248Z</time></trkpt><trkpt lat="42.4012353" lon="11.1589673"><ele>450.0</ele><time>2026-04-04T08:54:45.245Z</time></trkpt><trkpt lat="42.4012512" lon="11.1588843"><ele>450.0</ele><time>2026-04-04T08:54:48.251Z</time></trkpt><trkpt lat="42.4012344" lon="11.1587399"><ele>445.5</ele><time>2026-04-04T08:55:00.247Z</time></trkpt><trkpt lat="42.4011991" lon="11.1586259"><ele>441.0</ele><time>2026-04-04T08:55:04.239Z</time></trkpt><trkpt lat="42.4011783" lon="11.1585321"><ele>436.5</ele><time>2026-04-04T08:55:07.252Z</time></trkpt><trkpt lat="42.4011453" lon="11.1584423"><ele>432.0</ele><time>2026-04-04T08:55:11.241Z</time></trkpt><trkpt lat="42.4011089" lon="11.1583636"><ele>427.5</ele><time>2026-04-04T08:55:14.241Z</time></trkpt><trkpt lat="42.4010653" lon="11.1582745"><ele>423.0</ele><time>2026-04-04T08:55:17.246Z</time></trkpt><trkpt lat="42.4010161" lon="11.1581917"><ele>420.1666666666667</ele><time>2026-04-04T08:55:20.246Z</time></trkpt><trkpt lat="42.4009828" lon="11.1581191"><ele>417.33333333333337</ele><time>2026-04-04T08:55:22.242Z</time></trkpt><trkpt lat="42.4009364" lon="11.1580245"><ele>414.5</ele><time>2026-04-04T08:55:25.246Z</time></trkpt><trkpt lat="42.400888" lon="11.1579373"><ele>411.6666666666667</ele><time>2026-04-04T08:55:27.249Z</time></trkpt><trkpt lat="42.4008341" lon="11.1578893"><ele>408.83333333333337</ele><time>2026-04-04T08:55:29.244Z</time></trkpt><trkpt lat="42.400775" lon="11.1578075"><ele>406.0</ele><time>2026-04-04T08:55:32.244Z</time></trkpt><trkpt lat="42.400699" lon="11.1576535"><ele>406.0</ele><time>2026-04-04T08:55:38.252Z</time></trkpt><trkpt lat="42.4006356" lon="11.1575453"><ele>406.0</ele><time>2026-04-04T08:55:52.239Z</time></trkpt><trkpt lat="42.4005205" lon="11.1574405"><ele>406.0</ele><time>2026-04-04T08:55:57.243Z</time></trkpt><trkpt lat="42.4004394" lon="11.1573712"><ele>406.0</ele><time>2026-04-04T08:56:00.245Z</time></trkpt><trkpt lat="42.4003663" lon="11.1573283"><ele>406.0</ele><time>2026-04-04T08:56:03.259Z</time></trkpt><trkpt lat="42.4003055" lon="11.1572371"><ele>401.6666666666667</ele><time>2026-04-04T08:56:06.252Z</time></trkpt><trkpt lat="42.4002685" lon="11.1571451"><ele>397.33333333333337</ele><time>2026-04-04T08:56:09.248Z</time></trkpt><trkpt lat="42.4002112" lon="11.1570413"><ele>393.0</ele><time>2026-04-04T08:56:14.242Z</time></trkpt><trkpt lat="42.4001427" lon="11.1569983"><ele>388.6666666666667</ele><time>2026-04-04T08:56:16.245Z</time></trkpt><trkpt lat="42.4000754" lon="11.1569612"><ele>384.33333333333337</ele><time>2026-04-04T08:56:19.246Z</time></trkpt><trkpt lat="42.4000118" lon="11.1569139"><ele>380.0</ele><time>2026-04-04T08:56:22.249Z</time></trkpt><trkpt lat="42.3999383" lon="11.1568725"><ele>380.0</ele><time>2026-04-04T08:56:25.25Z</time></trkpt><trkpt lat="42.3998599" lon="11.1568257"><ele>380.0</ele><time>2026-04-04T08:56:28.247Z</time></trkpt><trkpt lat="42.3997902" lon="11.1567725"><ele>380.0</ele><time>2026-04-04T08:56:31.247Z</time></trkpt><trkpt lat="42.3997062" lon="11.1566854"><ele>380.0</ele><time>2026-04-04T08:56:34.25Z</time></trkpt><trkpt lat="42.399666" lon="11.1565903"><ele>380.0</ele><time>2026-04-04T08:56:36.241Z</time></trkpt><trkpt lat="42.3996064" lon="11.1564964"><ele>380.0</ele><time>2026-04-04T08:56:38.248Z</time></trkpt><trkpt lat="42.3995778" lon="11.1563829"><ele>376.8571428571429</ele><time>2026-04-04T08:56:40.242Z</time></trkpt><trkpt lat="42.3995301" lon="11.156296"><ele>373.7142857142857</ele><time>2026-04-04T08:56:42.251Z</time></trkpt><trkpt lat="42.3994687" lon="11.1562118"><ele>370.57142857142856</ele><time>2026-04-04T08:56:44.259Z</time></trkpt><trkpt lat="42.3994042" lon="11.1561819"><ele>367.42857142857144</ele><time>2026-04-04T08:56:46.248Z</time></trkpt><trkpt lat="42.3993973" lon="11.1560948"><ele>364.2857142857143</ele><time>2026-04-04T08:56:48.244Z</time></trkpt><trkpt lat="42.3993958" lon="11.1559934"><ele>361.14285714285717</ele><time>2026-04-04T08:56:50.251Z</time></trkpt><trkpt lat="42.3993731" lon="11.1558982"><ele>358.0</ele><time>2026-04-04T08:56:52.241Z</time></trkpt><trkpt lat="42.3993534" lon="11.1558102"><ele>358.0</ele><time>2026-04-04T08:56:54.244Z</time></trkpt><trkpt lat="42.3993079" lon="11.155732"><ele>358.0</ele><time>2026-04-04T08:56:56.248Z</time></trkpt><trkpt lat="42.3992424" lon="11.155659"><ele>358.0</ele><time>2026-04-04T08:56:58.248Z</time></trkpt><trkpt lat="42.399214" lon="11.1555711"><ele>358.0</ele><time>2026-04-04T08:57:00.241Z</time></trkpt><trkpt lat="42.3991703" lon="11.1554829"><ele>358.0</ele><time>2026-04-04T08:57:02.249Z</time></trkpt><trkpt lat="42.3991163" lon="11.1553996"><ele>358.0</ele><time>2026-04-04T08:57:04.25Z</time></trkpt><trkpt lat="42.3990584" lon="11.1553118"><ele>357.3333333333333</ele><time>2026-04-04T08:57:06.242Z</time></trkpt><trkpt lat="42.3989999" lon="11.1552358"><ele>356.66666666666663</ele><time>2026-04-04T08:57:08.246Z</time></trkpt><trkpt lat="42.3989503" lon="11.1551609"><ele>356.0</ele><time>2026-04-04T08:57:10.248Z</time></trkpt><trkpt lat="42.3988819" lon="11.1551153"><ele>355.3333333333333</ele><time>2026-04-04T08:57:12.246Z</time></trkpt><trkpt lat="42.3988205" lon="11.15503"><ele>354.6666666666667</ele><time>2026-04-04T08:57:14.248Z</time></trkpt><trkpt lat="42.3987613" lon="11.154955"><ele>354.0</ele><time>2026-04-04T08:57:16.246Z</time></trkpt><trkpt lat="42.3987042" lon="11.1548772"><ele>351.1666666666667</ele><time>2026-04-04T08:57:18.247Z</time></trkpt><trkpt lat="42.3986331" lon="11.154825"><ele>348.3333333333333</ele><time>2026-04-04T08:57:20.248Z</time></trkpt><trkpt lat="42.3985671" lon="11.1547987"><ele>345.5</ele><time>2026-04-04T08:57:22.251Z</time></trkpt><trkpt lat="42.3985036" lon="11.1547288"><ele>342.66666666666663</ele><time>2026-04-04T08:57:25.245Z</time></trkpt><trkpt lat="42.3984606" lon="11.1546252"><ele>339.8333333333333</ele><time>2026-04-04T08:57:27.256Z</time></trkpt><trkpt lat="42.3984401" lon="11.154536"><ele>337.0</ele><time>2026-04-04T08:57:29.244Z</time></trkpt><trkpt lat="42.398393" lon="11.1544789"><ele>337.0</ele><time>2026-04-04T08:57:32.242Z</time></trkpt><trkpt lat="42.3983188" lon="11.1544307"><ele>337.0</ele><time>2026-04-04T08:57:35.245Z</time></trkpt><trkpt lat="42.3982358" lon="11.1543997"><ele>337.0</ele><time>2026-04-04T08:57:38.244Z</time></trkpt><trkpt lat="42.3981636" lon="11.1543916"><ele>337.0</ele><time>2026-04-04T08:57:40.238Z</time></trkpt><trkpt lat="42.3980835" lon="11.1543844"><ele>337.0</ele><time>2026-04-04T08:57:42.245Z</time></trkpt><trkpt lat="42.39801" lon="11.1543647"><ele>337.0</ele><time>2026-04-04T08:57:44.245Z</time></trkpt><trkpt lat="42.3979313" lon="11.1543549"><ele>334.8333333333333</ele><time>2026-04-04T08:57:46.243Z</time></trkpt><trkpt lat="42.3978447" lon="11.154306"><ele>332.66666666666663</ele><time>2026-04-04T08:57:49.251Z</time></trkpt><trkpt lat="42.3977616" lon="11.154252"><ele>330.5</ele><time>2026-04-04T08:57:52.241Z</time></trkpt><trkpt lat="42.3976906" lon="11.1542062"><ele>328.3333333333333</ele><time>2026-04-04T08:57:55.247Z</time></trkpt><trkpt lat="42.3976376" lon="11.154158"><ele>326.1666666666667</ele><time>2026-04-04T08:57:57.241Z</time></trkpt><trkpt lat="42.3975778" lon="11.1540919"><ele>324.0</ele><time>2026-04-04T08:57:59.237Z</time></trkpt><trkpt lat="42.3975229" lon="11.1540185"><ele>324.0</ele><time>2026-04-04T08:58:01.248Z</time></trkpt><trkpt lat="42.3974686" lon="11.1539353"><ele>324.0</ele><time>2026-04-04T08:58:04.243Z</time></trkpt><trkpt lat="42.3974251" lon="11.1538522"><ele>324.0</ele><time>2026-04-04T08:58:06.242Z</time></trkpt><trkpt lat="42.3973813" lon="11.1537555"><ele>324.0</ele><time>2026-04-04T08:58:08.245Z</time></trkpt><trkpt lat="42.3973219" lon="11.1536854"><ele>324.0</ele><time>2026-04-04T08:58:10.24Z</time></trkpt><trkpt lat="42.3972604" lon="11.1536124"><ele>324.0</ele><time>2026-04-04T08:58:12.25Z</time></trkpt><trkpt lat="42.3971983" lon="11.1535505"><ele>321.0</ele><time>2026-04-04T08:58:14.245Z</time></trkpt><trkpt lat="42.3971318" lon="11.153505"><ele>318.0</ele><time>2026-04-04T08:58:16.245Z</time></trkpt><trkpt lat="42.3970729" lon="11.1534662"><ele>315.0</ele><time>2026-04-04T08:58:18.248Z</time></trkpt><trkpt lat="42.3970073" lon="11.1534318"><ele>312.0</ele><time>2026-04-04T08:58:20.243Z</time></trkpt><trkpt lat="42.39694" lon="11.1533562"><ele>309.0</ele><time>2026-04-04T08:58:22.248Z</time></trkpt><trkpt lat="42.3968706" lon="11.1532741"><ele>306.0</ele><time>2026-04-04T08:58:24.246Z</time></trkpt><trkpt lat="42.3967937" lon="11.1531824"><ele>305.6666666666667</ele><time>2026-04-04T08:58:26.236Z</time></trkpt><trkpt lat="42.3967211" lon="11.153103"><ele>305.3333333333333</ele><time>2026-04-04T08:58:28.247Z</time></trkpt><trkpt lat="42.3966584" lon="11.1530202"><ele>305.0</ele><time>2026-04-04T08:58:30.25Z</time></trkpt><trkpt lat="42.3966004" lon="11.152935"><ele>304.66666666666663</ele><time>2026-04-04T08:58:32.246Z</time></trkpt><trkpt lat="42.3965463" lon="11.1528692"><ele>304.3333333333333</ele><time>2026-04-04T08:58:34.244Z</time></trkpt><trkpt lat="42.3964813" lon="11.1528018"><ele>304.0</ele><time>2026-04-04T08:58:36.242Z</time></trkpt><trkpt lat="42.3964146" lon="11.1527371"><ele>304.0</ele><time>2026-04-04T08:58:38.246Z</time></trkpt><trkpt lat="42.3963369" lon="11.1526916"><ele>304.0</ele><time>2026-04-04T08:58:40.243Z</time></trkpt><trkpt lat="42.3962853" lon="11.1526361"><ele>304.0</ele><time>2026-04-04T08:58:42.24Z</time></trkpt><trkpt lat="42.3962355" lon="11.1525717"><ele>304.0</ele><time>2026-04-04T08:58:44.246Z</time></trkpt><trkpt lat="42.3961636" lon="11.1525241"><ele>304.0</ele><time>2026-04-04T08:58:47.245Z</time></trkpt><trkpt lat="42.3960933" lon="11.1525258"><ele>304.0</ele><time>2026-04-04T08:58:50.25Z</time></trkpt><trkpt lat="42.3960181" lon="11.1525474"><ele>304.0</ele><time>2026-04-04T08:58:53.248Z</time></trkpt><trkpt lat="42.3959526" lon="11.1525584"><ele>300.5</ele><time>2026-04-04T08:58:55.248Z</time></trkpt><trkpt lat="42.3958732" lon="11.1525305"><ele>297.0</ele><time>2026-04-04T08:58:57.242Z</time></trkpt><trkpt lat="42.3957834" lon="11.1524804"><ele>293.5</ele><time>2026-04-04T08:58:59.238Z</time></trkpt><trkpt lat="42.3956975" lon="11.1524456"><ele>290.0</ele><time>2026-04-04T08:59:01.24Z</time></trkpt><trkpt lat="42.3956336" lon="11.1523985"><ele>286.5</ele><time>2026-04-04T08:59:03.242Z</time></trkpt><trkpt lat="42.3955546" lon="11.1523943"><ele>283.0</ele><time>2026-04-04T08:59:11.242Z</time></trkpt><trkpt lat="42.3954955" lon="11.1523481"><ele>281.3333333333333</ele><time>2026-04-04T08:59:15.256Z</time></trkpt><trkpt lat="42.3954573" lon="11.1522702"><ele>279.66666666666663</ele><time>2026-04-04T08:59:17.24Z</time></trkpt><trkpt lat="42.3954007" lon="11.1521745"><ele>278.0</ele><time>2026-04-04T08:59:19.247Z</time></trkpt><trkpt lat="42.395346" lon="11.1520727"><ele>276.3333333333333</ele><time>2026-04-04T08:59:21.244Z</time></trkpt><trkpt lat="42.395315" lon="11.1519644"><ele>274.6666666666667</ele><time>2026-04-04T08:59:23.244Z</time></trkpt><trkpt lat="42.3952772" lon="11.1518634"><ele>273.0</ele><time>2026-04-04T08:59:25.246Z</time></trkpt><trkpt lat="42.3952387" lon="11.1517579"><ele>273.0</ele><time>2026-04-04T08:59:27.248Z</time></trkpt><trkpt lat="42.3951904" lon="11.151655"><ele>273.0</ele><time>2026-04-04T08:59:36.245Z</time></trkpt><trkpt lat="42.3951544" lon="11.1515843"><ele>273.0</ele><time>2026-04-04T08:59:38.252Z</time></trkpt><trkpt lat="42.3951068" lon="11.1515065"><ele>273.0</ele><time>2026-04-04T08:59:40.246Z</time></trkpt><trkpt lat="42.3949872" lon="11.1514077"><ele>273.0</ele><time>2026-04-04T08:59:42.237Z</time></trkpt><trkpt lat="42.3949094" lon="11.1513844"><ele>273.0</ele><time>2026-04-04T08:59:43.251Z</time></trkpt><trkpt lat="42.3948336" lon="11.151374"><ele>272.4</ele><time>2026-04-04T08:59:44.253Z</time></trkpt><trkpt lat="42.3947455" lon="11.1513598"><ele>271.8</ele><time>2026-04-04T08:59:45.244Z</time></trkpt><trkpt lat="42.394677" lon="11.1513156"><ele>271.2</ele><time>2026-04-04T08:59:46.253Z</time></trkpt><trkpt lat="42.3945888" lon="11.1512459"><ele>270.6</ele><time>2026-04-04T08:59:47.258Z</time></trkpt><trkpt lat="42.3944843" lon="11.151151"><ele>270.0</ele><time>2026-04-04T08:59:48.25Z</time></trkpt><trkpt lat="42.3943935" lon="11.1510611"><ele>269.8</ele><time>2026-04-04T08:59:49.251Z</time></trkpt><trkpt lat="42.3943217" lon="11.1509912"><ele>269.6</ele><time>2026-04-04T08:59:50.248Z</time></trkpt><trkpt lat="42.3942548" lon="11.1509428"><ele>269.4</ele><time>2026-04-04T08:59:51.248Z</time></trkpt><trkpt lat="42.3941915" lon="11.1509041"><ele>269.2</ele><time>2026-04-04T08:59:52.245Z</time></trkpt><trkpt lat="42.3940618" lon="11.1508235"><ele>269.0</ele><time>2026-04-04T08:59:54.288Z</time></trkpt><trkpt lat="42.3939781" lon="11.1507546"><ele>267.5</ele><time>2026-04-04T08:59:55.257Z</time></trkpt><trkpt lat="42.3939198" lon="11.1506792"><ele>266.0</ele><time>2026-04-04T08:59:56.259Z</time></trkpt><trkpt lat="42.3938576" lon="11.1505846"><ele>264.5</ele><time>2026-04-04T08:59:57.255Z</time></trkpt><trkpt lat="42.393797" lon="11.1504846"><ele>263.0</ele><time>2026-04-04T08:59:58.244Z</time></trkpt><trkpt lat="42.393754" lon="11.1504165"><ele>261.5</ele><time>2026-04-04T08:59:59.247Z</time></trkpt><trkpt lat="42.3937031" lon="11.1503496"><ele>260.0</ele><time>2026-04-04T09:00:26.252Z</time></trkpt><trkpt lat="42.3936152" lon="11.1503606"><ele>260.00000000000006</ele><time>2026-04-04T09:00:30.253Z</time></trkpt><trkpt lat="42.3935621" lon="11.1504133"><ele>260.0</ele><time>2026-04-04T09:00:32.25Z</time></trkpt><trkpt lat="42.3935152" lon="11.1505006"><ele>260.0</ele><time>2026-04-04T09:00:34.261Z</time></trkpt><trkpt lat="42.393495" lon="11.1505919"><ele>260.0</ele><time>2026-04-04T09:00:35.253Z</time></trkpt><trkpt lat="42.393469" lon="11.1506759"><ele>260.0</ele><time>2026-04-04T09:00:36.255Z</time></trkpt><trkpt lat="42.3934408" lon="11.1507568"><ele>260.00000000000006</ele><time>2026-04-04T09:00:37.248Z</time></trkpt><trkpt lat="42.393411" lon="11.1508573"><ele>260.0</ele><time>2026-04-04T09:00:38.243Z</time></trkpt><trkpt lat="42.3933598" lon="11.1509562"><ele>261.0</ele><time>2026-04-04T09:00:39.262Z</time></trkpt><trkpt lat="42.393288" lon="11.1510425"><ele>262.0</ele><time>2026-04-04T09:00:40.244Z</time></trkpt><trkpt lat="42.3932288" lon="11.1511067"><ele>263.0</ele><time>2026-04-04T09:00:41.25Z</time></trkpt><trkpt lat="42.3931837" lon="11.1511814"><ele>264.0</ele><time>2026-04-04T09:00:42.245Z</time></trkpt><trkpt lat="42.3931501" lon="11.151275"><ele>265.0</ele><time>2026-04-04T09:00:43.248Z</time></trkpt><trkpt lat="42.3931132" lon="11.1513711"><ele>266.0</ele><time>2026-04-04T09:00:44.256Z</time></trkpt><trkpt lat="42.3930761" lon="11.1514696"><ele>268.33333333333337</ele><time>2026-04-04T09:00:45.246Z</time></trkpt><trkpt lat="42.3930411" lon="11.1515631"><ele>270.6666666666667</ele><time>2026-04-04T09:00:46.249Z</time></trkpt><trkpt lat="42.3929966" lon="11.1516589"><ele>273.0</ele><time>2026-04-04T09:00:47.257Z</time></trkpt><trkpt lat="42.3929635" lon="11.1517358"><ele>275.3333333333333</ele><time>2026-04-04T09:00:48.249Z</time></trkpt><trkpt lat="42.392922" lon="11.1518645"><ele>277.66666666666663</ele><time>2026-04-04T09:00:50.246Z</time></trkpt><trkpt lat="42.3929135" lon="11.1519518"><ele>280.0</ele><time>2026-04-04T09:00:52.248Z</time></trkpt><trkpt lat="42.3929391" lon="11.1520824"><ele>280.6</ele><time>2026-04-04T09:00:55.244Z</time></trkpt><trkpt lat="42.3929595" lon="11.1522248"><ele>281.2</ele><time>2026-04-04T09:00:57.261Z</time></trkpt><trkpt lat="42.39298" lon="11.1523508"><ele>281.8</ele><time>2026-04-04T09:00:59.255Z</time></trkpt><trkpt lat="42.3929934" lon="11.1524974"><ele>282.4</ele><time>2026-04-04T09:01:01.245Z</time></trkpt><trkpt lat="42.3930233" lon="11.1526227"><ele>283.0</ele><time>2026-04-04T09:01:03.254Z</time></trkpt><trkpt lat="42.3930911" lon="11.1527307"><ele>283.0</ele><time>2026-04-04T09:01:05.254Z</time></trkpt><trkpt lat="42.3931546" lon="11.1528379"><ele>283.0</ele><time>2026-04-04T09:01:07.251Z</time></trkpt><trkpt lat="42.393182" lon="11.1529222"><ele>283.0</ele><time>2026-04-04T09:01:09.246Z</time></trkpt><trkpt lat="42.3931813" lon="11.1530239"><ele>283.0</ele><time>2026-04-04T09:01:11.252Z</time></trkpt><trkpt lat="42.3931393" lon="11.1531704"><ele>283.0</ele><time>2026-04-04T09:01:13.246Z</time></trkpt><trkpt lat="42.3931048" lon="11.1533273"><ele>281.8333333333333</ele><time>2026-04-04T09:01:15.244Z</time></trkpt><trkpt lat="42.3931073" lon="11.1534132"><ele>280.66666666666663</ele><time>2026-04-04T09:01:16.244Z</time></trkpt><trkpt lat="42.3931129" lon="11.153559"><ele>279.5</ele><time>2026-04-04T09:01:18.244Z</time></trkpt><trkpt lat="42.3930661" lon="11.1536632"><ele>278.3333333333333</ele><time>2026-04-04T09:01:20.241Z</time></trkpt><trkpt lat="42.3930117" lon="11.1537141"><ele>277.1666666666667</ele><time>2026-04-04T09:01:21.248Z</time></trkpt><trkpt lat="42.3929351" lon="11.1537641"><ele>276.0</ele><time>2026-04-04T09:01:22.248Z</time></trkpt><trkpt lat="42.3928487" lon="11.1538147"><ele>271.6</ele><time>2026-04-04T09:01:23.25Z</time></trkpt><trkpt lat="42.3927615" lon="11.153875"><ele>267.20000000000005</ele><time>2026-04-04T09:01:24.26Z</time></trkpt><trkpt lat="42.3926786" lon="11.1539481"><ele>262.79999999999995</ele><time>2026-04-04T09:01:25.246Z</time></trkpt><trkpt lat="42.3926024" lon="11.1540224"><ele>258.4</ele><time>2026-04-04T09:01:26.244Z</time></trkpt><trkpt lat="42.3925457" lon="11.1540786"><ele>254.0</ele><time>2026-04-04T09:01:27.249Z</time></trkpt><trkpt lat="42.3924655" lon="11.1541617"><ele>254.0</ele><time>2026-04-04T09:01:29.251Z</time></trkpt><trkpt lat="42.3924006" lon="11.1542461"><ele>253.99999999999997</ele><time>2026-04-04T09:01:31.248Z</time></trkpt><trkpt lat="42.3923325" lon="11.1543965"><ele>253.99999999999997</ele><time>2026-04-04T09:01:33.243Z</time></trkpt><trkpt lat="42.3922893" lon="11.1544885"><ele>254.0</ele><time>2026-04-04T09:01:34.25Z</time></trkpt><trkpt lat="42.3922472" lon="11.1545777"><ele>254.0</ele><time>2026-04-04T09:01:35.24Z</time></trkpt><trkpt lat="42.3921981" lon="11.154664"><ele>249.39999999999998</ele><time>2026-04-04T09:01:36.243Z</time></trkpt><trkpt lat="42.3921217" lon="11.1547401"><ele>244.79999999999998</ele><time>2026-04-04T09:01:38.248Z</time></trkpt><trkpt lat="42.3919885" lon="11.1547337"><ele>240.20000000000002</ele><time>2026-04-04T09:01:40.246Z</time></trkpt><trkpt lat="42.3919229" lon="11.1547351"><ele>235.60000000000002</ele><time>2026-04-04T09:01:42.245Z</time></trkpt><trkpt lat="42.3918638" lon="11.1547"><ele>231.0</ele><time>2026-04-04T09:01:46.247Z</time></trkpt><trkpt lat="42.3917609" lon="11.154645"><ele>231.0</ele><time>2026-04-04T09:01:48.244Z</time></trkpt><trkpt lat="42.391696" lon="11.1546353"><ele>231.0</ele><time>2026-04-04T09:01:49.246Z</time></trkpt><trkpt lat="42.3916229" lon="11.1546243"><ele>231.0</ele><time>2026-04-04T09:01:50.245Z</time></trkpt><trkpt lat="42.3915337" lon="11.1546336"><ele>231.0</ele><time>2026-04-04T09:01:51.255Z</time></trkpt><trkpt lat="42.391455" lon="11.1546579"><ele>231.0</ele><time>2026-04-04T09:01:52.253Z</time></trkpt><trkpt lat="42.3913829" lon="11.1546611"><ele>231.0</ele><time>2026-04-04T09:01:53.24Z</time></trkpt><trkpt lat="42.3913091" lon="11.1546774"><ele>230.42857142857144</ele><time>2026-04-04T09:01:54.255Z</time></trkpt><trkpt lat="42.3912353" lon="11.1546961"><ele>229.85714285714286</ele><time>2026-04-04T09:01:55.251Z</time></trkpt><trkpt lat="42.3911714" lon="11.1547168"><ele>229.28571428571428</ele><time>2026-04-04T09:01:56.243Z</time></trkpt><trkpt lat="42.3911046" lon="11.1547465"><ele>228.71428571428572</ele><time>2026-04-04T09:01:57.245Z</time></trkpt><trkpt lat="42.3910308" lon="11.1547849"><ele>228.14285714285717</ele><time>2026-04-04T09:01:58.247Z</time></trkpt><trkpt lat="42.3909602" lon="11.1548189"><ele>227.57142857142858</ele><time>2026-04-04T09:01:59.245Z</time></trkpt><trkpt lat="42.3908816" lon="11.1548366"><ele>227.0</ele><time>2026-04-04T09:02:00.247Z</time></trkpt><trkpt lat="42.3908016" lon="11.154845"><ele>227.0</ele><time>2026-04-04T09:02:01.24Z</time></trkpt><trkpt lat="42.3907098" lon="11.1548571"><ele>227.0</ele><time>2026-04-04T09:02:02.249Z</time></trkpt><trkpt lat="42.3906095" lon="11.1548567"><ele>227.0</ele><time>2026-04-04T09:02:03.242Z</time></trkpt><trkpt lat="42.3905107" lon="11.1548555"><ele>227.0</ele><time>2026-04-04T09:02:04.245Z</time></trkpt><trkpt lat="42.3904229" lon="11.154853"><ele>227.0</ele><time>2026-04-04T09:02:05.242Z</time></trkpt><trkpt lat="42.3903438" lon="11.1548369"><ele>226.50000000000003</ele><time>2026-04-04T09:02:06.243Z</time></trkpt><trkpt lat="42.3902714" lon="11.1548139"><ele>226.0</ele><time>2026-04-04T09:02:07.262Z</time></trkpt><trkpt lat="42.3902021" lon="11.1547811"><ele>225.5</ele><time>2026-04-04T09:02:09.251Z</time></trkpt><trkpt lat="42.3901156" lon="11.1547745"><ele>225.0</ele><time>2026-04-04T09:02:32.255Z</time></trkpt><trkpt lat="42.3900556" lon="11.1547358"><ele>224.50000000000003</ele><time>2026-04-04T09:02:33.258Z</time></trkpt><trkpt lat="42.3899669" lon="11.1547031"><ele>224.0</ele><time>2026-04-04T09:02:34.263Z</time></trkpt><trkpt lat="42.3898743" lon="11.1546818"><ele>224.00000000000003</ele><time>2026-04-04T09:02:35.252Z</time></trkpt><trkpt lat="42.3897847" lon="11.1546704"><ele>224.0</ele><time>2026-04-04T09:02:36.244Z</time></trkpt><trkpt lat="42.389702" lon="11.1546626"><ele>224.0</ele><time>2026-04-04T09:02:37.258Z</time></trkpt><trkpt lat="42.3896314" lon="11.1546524"><ele>224.0</ele><time>2026-04-04T09:02:38.248Z</time></trkpt><trkpt lat="42.3895649" lon="11.1546291"><ele>224.00000000000003</ele><time>2026-04-04T09:02:39.25Z</time></trkpt><trkpt lat="42.3894988" lon="11.1545835"><ele>224.0</ele><time>2026-04-04T09:02:40.254Z</time></trkpt><trkpt lat="42.3894362" lon="11.1545366"><ele>221.66666666666669</ele><time>2026-04-04T09:02:41.26Z</time></trkpt><trkpt lat="42.3893429" lon="11.1545565"><ele>219.33333333333334</ele><time>2026-04-04T09:02:43.257Z</time></trkpt><trkpt lat="42.3892797" lon="11.1546825"><ele>217.0</ele><time>2026-04-04T09:02:45.252Z</time></trkpt><trkpt lat="42.3892601" lon="11.1547723"><ele>214.66666666666669</ele><time>2026-04-04T09:02:46.246Z</time></trkpt><trkpt lat="42.3892756" lon="11.1548659"><ele>212.33333333333334</ele><time>2026-04-04T09:02:47.256Z</time></trkpt><trkpt lat="42.3892939" lon="11.1549697"><ele>210.0</ele><time>2026-04-04T09:02:48.247Z</time></trkpt><trkpt lat="42.3893219" lon="11.1550848"><ele>210.0</ele><time>2026-04-04T09:02:49.251Z</time></trkpt><trkpt lat="42.3893452" lon="11.1552036"><ele>210.0</ele><time>2026-04-04T09:02:50.247Z</time></trkpt><trkpt lat="42.3893724" lon="11.155311"><ele>210.0</ele><time>2026-04-04T09:02:51.24Z</time></trkpt><trkpt lat="42.389389" lon="11.1554002"><ele>210.0</ele><time>2026-04-04T09:02:52.251Z</time></trkpt><trkpt lat="42.3893987" lon="11.1554853"><ele>210.0</ele><time>2026-04-04T09:02:53.242Z</time></trkpt><trkpt lat="42.3894173" lon="11.1555748"><ele>210.0</ele><time>2026-04-04T09:02:54.247Z</time></trkpt><trkpt lat="42.3894407" lon="11.1556685"><ele>210.0</ele><time>2026-04-04T09:02:55.256Z</time></trkpt><trkpt lat="42.3894662" lon="11.155754"><ele>208.4</ele><time>2026-04-04T09:02:56.241Z</time></trkpt><trkpt lat="42.3895253" lon="11.1558997"><ele>206.8</ele><time>2026-04-04T09:02:58.253Z</time></trkpt><trkpt lat="42.3895682" lon="11.1559794"><ele>205.2</ele><time>2026-04-04T09:02:59.25Z</time></trkpt><trkpt lat="42.3896133" lon="11.1560495"><ele>203.6</ele><time>2026-04-04T09:03:00.245Z</time></trkpt><trkpt lat="42.3896735" lon="11.1561959"><ele>202.0</ele><time>2026-04-04T09:03:02.263Z</time></trkpt><trkpt lat="42.3896986" lon="11.1563313"><ele>202.0</ele><time>2026-04-04T09:03:04.249Z</time></trkpt><trkpt lat="42.3896814" lon="11.1564202"><ele>202.0</ele><time>2026-04-04T09:03:06.242Z</time></trkpt><trkpt lat="42.3896379" lon="11.1565236"><ele>202.0</ele><time>2026-04-04T09:03:08.245Z</time></trkpt><trkpt lat="42.3895286" lon="11.1566062"><ele>202.0</ele><time>2026-04-04T09:03:10.254Z</time></trkpt><trkpt lat="42.389444" lon="11.1566333"><ele>202.0</ele><time>2026-04-04T09:03:11.239Z</time></trkpt><trkpt lat="42.3893615" lon="11.1566575"><ele>202.16666666666666</ele><time>2026-04-04T09:03:12.238Z</time></trkpt><trkpt lat="42.3892877" lon="11.1566849"><ele>202.33333333333331</ele><time>2026-04-04T09:03:13.244Z</time></trkpt><trkpt lat="42.3892131" lon="11.1567218"><ele>202.5</ele><time>2026-04-04T09:03:14.243Z</time></trkpt><trkpt lat="42.3891477" lon="11.1567632"><ele>202.66666666666669</ele><time>2026-04-04T09:03:15.237Z</time></trkpt><trkpt lat="42.389095" lon="11.1568169"><ele>202.83333333333334</ele><time>2026-04-04T09:03:16.248Z</time></trkpt><trkpt lat="42.3890043" lon="11.1568923"><ele>203.0</ele><time>2026-04-04T09:03:18.245Z</time></trkpt><trkpt lat="42.3889289" lon="11.1568363"><ele>203.0</ele><time>2026-04-04T09:03:20.239Z</time></trkpt><trkpt lat="42.3888792" lon="11.1567776"><ele>203.0</ele><time>2026-04-04T09:03:21.24Z</time></trkpt><trkpt lat="42.3887494" lon="11.1567054"><ele>203.0</ele><time>2026-04-04T09:03:23.244Z</time></trkpt><trkpt lat="42.3886458" lon="11.1566608"><ele>203.0</ele><time>2026-04-04T09:03:24.243Z</time></trkpt><trkpt lat="42.3885252" lon="11.1566163"><ele>203.0</ele><time>2026-04-04T09:03:25.255Z</time></trkpt><trkpt lat="42.3884084" lon="11.1565682"><ele>201.60000000000002</ele><time>2026-04-04T09:03:26.254Z</time></trkpt><trkpt lat="42.3883026" lon="11.156525"><ele>200.20000000000002</ele><time>2026-04-04T09:03:27.249Z</time></trkpt><trkpt lat="42.3882076" lon="11.1564779"><ele>198.8</ele><time>2026-04-04T09:03:28.245Z</time></trkpt><trkpt lat="42.3881241" lon="11.1564485"><ele>197.4</ele><time>2026-04-04T09:03:29.246Z</time></trkpt><trkpt lat="42.3880382" lon="11.156424"><ele>196.0</ele><time>2026-04-04T09:03:30.256Z</time></trkpt><trkpt lat="42.3879498" lon="11.1564024"><ele>195.99999999999997</ele><time>2026-04-04T09:03:31.242Z</time></trkpt><trkpt lat="42.3878634" lon="11.1563798"><ele>196.0</ele><time>2026-04-04T09:03:32.249Z</time></trkpt><trkpt lat="42.3877751" lon="11.1563764"><ele>196.0</ele><time>2026-04-04T09:03:33.248Z</time></trkpt><trkpt lat="42.3876923" lon="11.1563901"><ele>196.0</ele><time>2026-04-04T09:03:34.244Z</time></trkpt><trkpt lat="42.3876083" lon="11.1564161"><ele>195.99999999999997</ele><time>2026-04-04T09:03:35.257Z</time></trkpt><trkpt lat="42.3875205" lon="11.1564596"><ele>196.0</ele><time>2026-04-04T09:03:36.239Z</time></trkpt><trkpt lat="42.3874378" lon="11.156516"><ele>199.83333333333331</ele><time>2026-04-04T09:03:37.248Z</time></trkpt><trkpt lat="42.3873522" lon="11.1565859"><ele>203.66666666666666</ele><time>2026-04-04T09:03:38.265Z</time></trkpt><trkpt lat="42.3872592" lon="11.156659"><ele>207.5</ele><time>2026-04-04T09:03:39.245Z</time></trkpt><trkpt lat="42.3871904" lon="11.1567003"><ele>211.33333333333331</ele><time>2026-04-04T09:03:40.241Z</time></trkpt><trkpt lat="42.3871197" lon="11.1567201"><ele>215.16666666666666</ele><time>2026-04-04T09:03:41.245Z</time></trkpt><trkpt lat="42.3870397" lon="11.1567268"><ele>219.0</ele><time>2026-04-04T09:03:42.247Z</time></trkpt><trkpt lat="42.3869599" lon="11.156728"><ele>220.66666666666666</ele><time>2026-04-04T09:03:43.248Z</time></trkpt><trkpt lat="42.3868746" lon="11.1567278"><ele>222.33333333333331</ele><time>2026-04-04T09:03:44.24Z</time></trkpt><trkpt lat="42.3867859" lon="11.1567138"><ele>224.0</ele><time>2026-04-04T09:03:45.244Z</time></trkpt><trkpt lat="42.3867068" lon="11.1566814"><ele>225.66666666666666</ele><time>2026-04-04T09:03:46.252Z</time></trkpt><trkpt lat="42.3866261" lon="11.156648"><ele>227.33333333333331</ele><time>2026-04-04T09:03:47.25Z</time></trkpt><trkpt lat="42.3865241" lon="11.1566302"><ele>229.0</ele><time>2026-04-04T09:03:48.248Z</time></trkpt><trkpt lat="42.3864265" lon="11.1566324"><ele>230.79999999999998</ele><time>2026-04-04T09:03:49.256Z</time></trkpt><trkpt lat="42.38634" lon="11.1566385"><ele>232.59999999999997</ele><time>2026-04-04T09:03:50.25Z</time></trkpt><trkpt lat="42.3862617" lon="11.1566243"><ele>234.4</ele><time>2026-04-04T09:03:51.248Z</time></trkpt><trkpt lat="42.3861786" lon="11.1565874"><ele>236.2</ele><time>2026-04-04T09:03:52.247Z</time></trkpt><trkpt lat="42.3860801" lon="11.1565294"><ele>238.0</ele><time>2026-04-04T09:03:53.244Z</time></trkpt><trkpt lat="42.3859834" lon="11.1564673"><ele>238.0</ele><time>2026-04-04T09:03:54.239Z</time></trkpt><trkpt lat="42.3858768" lon="11.1564277"><ele>238.0</ele><time>2026-04-04T09:03:55.25Z</time></trkpt><trkpt lat="42.3857732" lon="11.1564088"><ele>238.0</ele><time>2026-04-04T09:03:56.244Z</time></trkpt><trkpt lat="42.3856997" lon="11.1564005"><ele>238.0</ele><time>2026-04-04T09:03:57.241Z</time></trkpt><trkpt lat="42.3855827" lon="11.1564538"><ele>238.0</ele><time>2026-04-04T09:03:59.252Z</time></trkpt><trkpt lat="42.3855174" lon="11.1565204"><ele>237.8</ele><time>2026-04-04T09:04:00.25Z</time></trkpt><trkpt lat="42.3854381" lon="11.1565796"><ele>237.60000000000002</ele><time>2026-04-04T09:04:01.252Z</time></trkpt><trkpt lat="42.3853573" lon="11.1566403"><ele>237.39999999999998</ele><time>2026-04-04T09:04:02.248Z</time></trkpt><trkpt lat="42.3852646" lon="11.1566914"><ele>237.2</ele><time>2026-04-04T09:04:03.25Z</time></trkpt><trkpt lat="42.3851646" lon="11.1567308"><ele>237.0</ele><time>2026-04-04T09:04:04.242Z</time></trkpt><trkpt lat="42.3850708" lon="11.1567678"><ele>237.0</ele><time>2026-04-04T09:04:05.247Z</time></trkpt><trkpt lat="42.3849819" lon="11.1568088"><ele>237.0</ele><time>2026-04-04T09:04:06.24Z</time></trkpt><trkpt lat="42.3849046" lon="11.1568595"><ele>237.0</ele><time>2026-04-04T09:04:07.246Z</time></trkpt><trkpt lat="42.3848356" lon="11.1569251"><ele>237.0</ele><time>2026-04-04T09:04:08.244Z</time></trkpt><trkpt lat="42.3847695" lon="11.1569743"><ele>237.0</ele><time>2026-04-04T09:04:09.246Z</time></trkpt><trkpt lat="42.3847026" lon="11.1569986"><ele>237.0</ele><time>2026-04-04T09:04:10.266Z</time></trkpt><trkpt lat="42.3846273" lon="11.1570083"><ele>234.8</ele><time>2026-04-04T09:04:11.257Z</time></trkpt><trkpt lat="42.3845415" lon="11.1569916"><ele>232.6</ele><time>2026-04-04T09:04:12.252Z</time></trkpt><trkpt lat="42.3844406" lon="11.1569589"><ele>230.40000000000003</ele><time>2026-04-04T09:04:13.245Z</time></trkpt><trkpt lat="42.3843468" lon="11.1569368"><ele>228.20000000000002</ele><time>2026-04-04T09:04:14.248Z</time></trkpt><trkpt lat="42.3842543" lon="11.1569211"><ele>226.0</ele><time>2026-04-04T09:04:15.251Z</time></trkpt><trkpt lat="42.3841568" lon="11.1569175"><ele>225.99999999999997</ele><time>2026-04-04T09:04:16.243Z</time></trkpt><trkpt lat="42.3840639" lon="11.1569161"><ele>226.0</ele><time>2026-04-04T09:04:17.242Z</time></trkpt><trkpt lat="42.3839736" lon="11.1569265"><ele>226.0</ele><time>2026-04-04T09:04:18.248Z</time></trkpt><trkpt lat="42.3838891" lon="11.1569429"><ele>226.0</ele><time>2026-04-04T09:04:19.253Z</time></trkpt><trkpt lat="42.3838063" lon="11.156964"><ele>225.99999999999997</ele><time>2026-04-04T09:04:20.247Z</time></trkpt><trkpt lat="42.3837229" lon="11.1569717"><ele>226.0</ele><time>2026-04-04T09:04:21.247Z</time></trkpt><trkpt lat="42.3836355" lon="11.156966"><ele>224.33333333333331</ele><time>2026-04-04T09:04:22.243Z</time></trkpt><trkpt lat="42.3835419" lon="11.1569583"><ele>222.66666666666666</ele><time>2026-04-04T09:04:23.251Z</time></trkpt><trkpt lat="42.3834501" lon="11.1569418"><ele>221.0</ele><time>2026-04-04T09:04:24.248Z</time></trkpt><trkpt lat="42.3833578" lon="11.1569252"><ele>219.33333333333331</ele><time>2026-04-04T09:04:25.246Z</time></trkpt><trkpt lat="42.3832794" lon="11.156908"><ele>217.66666666666666</ele><time>2026-04-04T09:04:26.246Z</time></trkpt><trkpt lat="42.3832143" lon="11.1568981"><ele>216.0</ele><time>2026-04-04T09:04:27.253Z</time></trkpt><trkpt lat="42.3830825" lon="11.1568987"><ele>213.16666666666666</ele><time>2026-04-04T09:04:29.247Z</time></trkpt><trkpt lat="42.3830058" lon="11.1569178"><ele>210.33333333333331</ele><time>2026-04-04T09:04:30.248Z</time></trkpt><trkpt lat="42.3829205" lon="11.1569186"><ele>207.5</ele><time>2026-04-04T09:04:32.254Z</time></trkpt><trkpt lat="42.3828429" lon="11.1569275"><ele>204.66666666666666</ele><time>2026-04-04T09:04:36.254Z</time></trkpt><trkpt lat="42.3828722" lon="11.1570479"><ele>201.83333333333331</ele><time>2026-04-04T09:04:40.253Z</time></trkpt><trkpt lat="42.3829489" lon="11.1571088"><ele>199.0</ele><time>2026-04-04T09:04:42.253Z</time></trkpt><trkpt lat="42.38301" lon="11.1571425"><ele>201.83333333333331</ele><time>2026-04-04T09:04:43.246Z</time></trkpt><trkpt lat="42.3830708" lon="11.1571862"><ele>204.66666666666666</ele><time>2026-04-04T09:04:44.248Z</time></trkpt><trkpt lat="42.3831261" lon="11.1572503"><ele>207.5</ele><time>2026-04-04T09:04:45.246Z</time></trkpt><trkpt lat="42.3831762" lon="11.1573408"><ele>210.33333333333331</ele><time>2026-04-04T09:04:46.243Z</time></trkpt><trkpt lat="42.383221" lon="11.1574344"><ele>213.16666666666666</ele><time>2026-04-04T09:04:47.24Z</time></trkpt><trkpt lat="42.3832613" lon="11.1575348"><ele>216.0</ele><time>2026-04-04T09:04:48.249Z</time></trkpt><trkpt lat="42.3832908" lon="11.1576142"><ele>216.33333333333334</ele><time>2026-04-04T09:04:49.246Z</time></trkpt><trkpt lat="42.3833357" lon="11.1577676"><ele>216.66666666666669</ele><time>2026-04-04T09:04:51.266Z</time></trkpt><trkpt lat="42.3833592" lon="11.1578648"><ele>217.0</ele><time>2026-04-04T09:04:52.24Z</time></trkpt><trkpt lat="42.3833807" lon="11.15797"><ele>217.33333333333334</ele><time>2026-04-04T09:04:53.246Z</time></trkpt><trkpt lat="42.3834131" lon="11.1580705"><ele>217.66666666666669</ele><time>2026-04-04T09:04:54.251Z</time></trkpt><trkpt lat="42.3834532" lon="11.158157"><ele>218.0</ele><time>2026-04-04T09:04:55.256Z</time></trkpt><trkpt lat="42.3834877" lon="11.1582353"><ele>215.66666666666669</ele><time>2026-04-04T09:04:56.252Z</time></trkpt><trkpt lat="42.383518" lon="11.1583135"><ele>213.33333333333334</ele><time>2026-04-04T09:04:57.245Z</time></trkpt><trkpt lat="42.3835521" lon="11.1584011"><ele>211.0</ele><time>2026-04-04T09:04:58.262Z</time></trkpt><trkpt lat="42.3835796" lon="11.1585122"><ele>208.66666666666669</ele><time>2026-04-04T09:04:59.245Z</time></trkpt><trkpt lat="42.3836041" lon="11.1586195"><ele>206.33333333333334</ele><time>2026-04-04T09:05:00.244Z</time></trkpt><trkpt lat="42.383629" lon="11.1587185"><ele>204.0</ele><time>2026-04-04T09:05:01.245Z</time></trkpt><trkpt lat="42.3836681" lon="11.1588587"><ele>204.0</ele><time>2026-04-04T09:05:03.25Z</time></trkpt><trkpt lat="42.3836595" lon="11.1589756"><ele>204.0</ele><time>2026-04-04T09:05:05.245Z</time></trkpt><trkpt lat="42.383587" lon="11.1590351"><ele>204.0</ele><time>2026-04-04T09:05:07.251Z</time></trkpt><trkpt lat="42.3834911" lon="11.1590024"><ele>204.0</ele><time>2026-04-04T09:05:09.247Z</time></trkpt><trkpt lat="42.3834242" lon="11.1589744"><ele>204.0</ele><time>2026-04-04T09:05:10.245Z</time></trkpt><trkpt lat="42.3833589" lon="11.1589267"><ele>204.0</ele><time>2026-04-04T09:05:11.254Z</time></trkpt><trkpt lat="42.3832892" lon="11.1588729"><ele>204.0</ele><time>2026-04-04T09:05:12.243Z</time></trkpt><trkpt lat="42.3832117" lon="11.1588229"><ele>204.0</ele><time>2026-04-04T09:05:13.244Z</time></trkpt><trkpt lat="42.3831166" lon="11.1587796"><ele>204.0</ele><time>2026-04-04T09:05:14.241Z</time></trkpt><trkpt lat="42.3830182" lon="11.1587546"><ele>204.0</ele><time>2026-04-04T09:05:15.249Z</time></trkpt><trkpt lat="42.3829288" lon="11.1587372"><ele>204.0</ele><time>2026-04-04T09:05:16.235Z</time></trkpt><trkpt lat="42.3828379" lon="11.1587361"><ele>201.5</ele><time>2026-04-04T09:05:17.244Z</time></trkpt><trkpt lat="42.3827475" lon="11.1587342"><ele>199.0</ele><time>2026-04-04T09:05:18.257Z</time></trkpt><trkpt lat="42.382674" lon="11.1587424"><ele>196.5</ele><time>2026-04-04T09:05:19.239Z</time></trkpt><trkpt lat="42.3826124" lon="11.1587621"><ele>194.0</ele><time>2026-04-04T09:05:20.242Z</time></trkpt><trkpt lat="42.3825114" lon="11.1588443"><ele>191.5</ele><time>2026-04-04T09:05:22.239Z</time></trkpt><trkpt lat="42.382455" lon="11.1588922"><ele>189.0</ele><time>2026-04-04T09:05:23.242Z</time></trkpt><trkpt lat="42.3823675" lon="11.1589077"><ele>189.0</ele><time>2026-04-04T09:05:25.246Z</time></trkpt><trkpt lat="42.382272" lon="11.158803"><ele>189.0</ele><time>2026-04-04T09:05:27.254Z</time></trkpt><trkpt lat="42.3821671" lon="11.1587616"><ele>189.0</ele><time>2026-04-04T09:05:29.243Z</time></trkpt><trkpt lat="42.3820245" lon="11.1588155"><ele>189.0</ele><time>2026-04-04T09:05:31.249Z</time></trkpt><trkpt lat="42.3819356" lon="11.1588464"><ele>187.79999999999998</ele><time>2026-04-04T09:05:32.246Z</time></trkpt><trkpt lat="42.3818436" lon="11.1588629"><ele>186.6</ele><time>2026-04-04T09:05:33.243Z</time></trkpt><trkpt lat="42.3817558" lon="11.1588624"><ele>185.4</ele><time>2026-04-04T09:05:34.247Z</time></trkpt><trkpt lat="42.3816729" lon="11.1588367"><ele>184.2</ele><time>2026-04-04T09:05:35.244Z</time></trkpt><trkpt lat="42.3816009" lon="11.1587961"><ele>183.0</ele><time>2026-04-04T09:05:36.247Z</time></trkpt><trkpt lat="42.3814899" lon="11.1587399"><ele>183.0</ele><time>2026-04-04T09:05:37.246Z</time></trkpt><trkpt lat="42.3813616" lon="11.1586533"><ele>183.0</ele><time>2026-04-04T09:05:38.25Z</time></trkpt><trkpt lat="42.3812432" lon="11.1585761"><ele>183.0</ele><time>2026-04-04T09:05:39.242Z</time></trkpt><trkpt lat="42.3811337" lon="11.1584881"><ele>183.0</ele><time>2026-04-04T09:05:40.246Z</time></trkpt><trkpt lat="42.38102" lon="11.1583832"><ele>182.4</ele><time>2026-04-04T09:05:41.245Z</time></trkpt><trkpt lat="42.3809264" lon="11.1582763"><ele>181.8</ele><time>2026-04-04T09:05:42.241Z</time></trkpt><trkpt lat="42.3808603" lon="11.1581852"><ele>181.2</ele><time>2026-04-04T09:05:43.25Z</time></trkpt><trkpt lat="42.3808022" lon="11.1581151"><ele>180.6</ele><time>2026-04-04T09:05:44.25Z</time></trkpt><trkpt lat="42.3806929" lon="11.1580264"><ele>180.0</ele><time>2026-04-04T09:05:46.242Z</time></trkpt><trkpt lat="42.3806156" lon="11.1579975"><ele>180.0</ele><time>2026-04-04T09:05:47.241Z</time></trkpt><trkpt lat="42.3805315" lon="11.1579733"><ele>180.0</ele><time>2026-04-04T09:05:48.236Z</time></trkpt><trkpt lat="42.3804533" lon="11.1579552"><ele>180.0</ele><time>2026-04-04T09:05:49.244Z</time></trkpt><trkpt lat="42.3803902" lon="11.1579369"><ele>180.0</ele><time>2026-04-04T09:05:50.248Z</time></trkpt><trkpt lat="42.380323" lon="11.1579504"><ele>180.0</ele><time>2026-04-04T09:06:06.245Z</time></trkpt><trkpt lat="42.3802433" lon="11.1580069"><ele>180.0</ele><time>2026-04-04T09:06:08.249Z</time></trkpt><trkpt lat="42.3801254" lon="11.1580322"><ele>181.6</ele><time>2026-04-04T09:06:10.246Z</time></trkpt><trkpt lat="42.3800332" lon="11.1580223"><ele>183.2</ele><time>2026-04-04T09:06:11.255Z</time></trkpt><trkpt lat="42.3799511" lon="11.1580141"><ele>184.8</ele><time>2026-04-04T09:06:12.244Z</time></trkpt><trkpt lat="42.3798447" lon="11.1580265"><ele>186.4</ele><time>2026-04-04T09:06:14.25Z</time></trkpt><trkpt lat="42.3797325" lon="11.158067"><ele>188.0</ele><time>2026-04-04T09:06:16.247Z</time></trkpt><trkpt lat="42.3796543" lon="11.1580824"><ele>189.83333333333331</ele><time>2026-04-04T09:06:17.249Z</time></trkpt><trkpt lat="42.3795672" lon="11.1580839"><ele>191.66666666666666</ele><time>2026-04-04T09:06:18.241Z</time></trkpt><trkpt lat="42.3794875" lon="11.1580768"><ele>193.5</ele><time>2026-04-04T09:06:19.251Z</time></trkpt><trkpt lat="42.3794147" lon="11.158068"><ele>195.33333333333331</ele><time>2026-04-04T09:06:20.241Z</time></trkpt><trkpt lat="42.3793446" lon="11.1580425"><ele>197.16666666666666</ele><time>2026-04-04T09:06:21.25Z</time></trkpt><trkpt lat="42.3792826" lon="11.1580116"><ele>199.0</ele><time>2026-04-04T09:06:22.245Z</time></trkpt><trkpt lat="42.3792152" lon="11.1579402"><ele>198.99999999999997</ele><time>2026-04-04T09:06:23.261Z</time></trkpt><trkpt lat="42.3791556" lon="11.1578703"><ele>199.0</ele><time>2026-04-04T09:06:24.25Z</time></trkpt><trkpt lat="42.3791023" lon="11.1577675"><ele>199.0</ele><time>2026-04-04T09:06:26.242Z</time></trkpt><trkpt lat="42.3790683" lon="11.1576164"><ele>199.0</ele><time>2026-04-04T09:06:28.25Z</time></trkpt><trkpt lat="42.3790466" lon="11.1575291"><ele>198.99999999999997</ele><time>2026-04-04T09:06:29.246Z</time></trkpt><trkpt lat="42.3790318" lon="11.157446"><ele>199.0</ele><time>2026-04-04T09:06:30.258Z</time></trkpt><trkpt lat="42.3789805" lon="11.1573124"><ele>197.49999999999997</ele><time>2026-04-04T09:06:32.244Z</time></trkpt><trkpt lat="42.3788886" lon="11.1572118"><ele>196.0</ele><time>2026-04-04T09:06:34.243Z</time></trkpt><trkpt lat="42.3788246" lon="11.1571438"><ele>194.5</ele><time>2026-04-04T09:06:35.246Z</time></trkpt><trkpt lat="42.3787594" lon="11.1570796"><ele>193.0</ele><time>2026-04-04T09:06:36.245Z</time></trkpt><trkpt lat="42.3786998" lon="11.1570198"><ele>191.5</ele><time>2026-04-04T09:06:37.253Z</time></trkpt><trkpt lat="42.3786473" lon="11.1569714"><ele>190.0</ele><time>2026-04-04T09:06:38.254Z</time></trkpt><trkpt lat="42.3785488" lon="11.1569055"><ele>192.5</ele><time>2026-04-04T09:06:40.248Z</time></trkpt><trkpt lat="42.3784901" lon="11.1568656"><ele>195.0</ele><time>2026-04-04T09:06:41.253Z</time></trkpt><trkpt lat="42.3784202" lon="11.1568225"><ele>197.5</ele><time>2026-04-04T09:06:42.248Z</time></trkpt><trkpt lat="42.3783487" lon="11.1567785"><ele>200.0</ele><time>2026-04-04T09:06:43.256Z</time></trkpt><trkpt lat="42.3782702" lon="11.1566549"><ele>202.49999999999997</ele><time>2026-04-04T09:06:45.246Z</time></trkpt><trkpt lat="42.3782392" lon="11.1565776"><ele>205.0</ele><time>2026-04-04T09:06:46.244Z</time></trkpt><trkpt lat="42.3782028" lon="11.1564954"><ele>205.0</ele><time>2026-04-04T09:06:47.254Z</time></trkpt><trkpt lat="42.3781554" lon="11.1563473"><ele>205.0</ele><time>2026-04-04T09:06:49.247Z</time></trkpt><trkpt lat="42.37816" lon="11.1562023"><ele>205.0</ele><time>2026-04-04T09:06:51.24Z</time></trkpt><trkpt lat="42.3781408" lon="11.1560742"><ele>205.0</ele><time>2026-04-04T09:06:53.241Z</time></trkpt><trkpt lat="42.3780847" lon="11.1559447"><ele>205.0</ele><time>2026-04-04T09:06:55.24Z</time></trkpt><trkpt lat="42.3780166" lon="11.1558333"><ele>204.49999999999997</ele><time>2026-04-04T09:06:57.253Z</time></trkpt><trkpt lat="42.3779447" lon="11.1557265"><ele>204.0</ele><time>2026-04-04T09:06:59.256Z</time></trkpt><trkpt lat="42.3778961" lon="11.1556641"><ele>203.5</ele><time>2026-04-04T09:07:00.247Z</time></trkpt><trkpt lat="42.3778375" lon="11.1556038"><ele>203.0</ele><time>2026-04-04T09:07:01.25Z</time></trkpt><trkpt lat="42.3777752" lon="11.1555507"><ele>202.49999999999997</ele><time>2026-04-04T09:07:02.249Z</time></trkpt><trkpt lat="42.3776982" lon="11.1555269"><ele>202.0</ele><time>2026-04-04T09:07:03.249Z</time></trkpt><trkpt lat="42.3776302" lon="11.1555074"><ele>202.0</ele><time>2026-04-04T09:07:04.252Z</time></trkpt></trkseg><trkseg><trkpt lat="42.3703233" lon="11.1597432"><ele>202.0</ele><time>2026-04-04T09:18:09Z</time></trkpt><trkpt lat="42.3703553" lon="11.1595973"><ele>202.0</ele><time>2026-04-04T09:18:11.01Z</time></trkpt><trkpt lat="42.3704086" lon="11.1594667"><ele>202.0</ele><time>2026-04-04T09:18:13.016Z</time></trkpt><trkpt lat="42.3704641" lon="11.1593684"><ele>202.0</ele><time>2026-04-04T09:18:15.011Z</time></trkpt><trkpt lat="42.3705198" lon="11.1593176"><ele>202.0</ele><time>2026-04-04T09:18:17.005Z</time></trkpt><trkpt lat="42.3706137" lon="11.1592417"><ele>204.0</ele><time>2026-04-04T09:18:20.01Z</time></trkpt><trkpt lat="42.3706885" lon="11.159137"><ele>206.0</ele><time>2026-04-04T09:18:22.016Z</time></trkpt><trkpt lat="42.3707616" lon="11.1590066"><ele>208.0</ele><time>2026-04-04T09:18:24.018Z</time></trkpt><trkpt lat="42.370819" lon="11.1588764"><ele>210.0</ele><time>2026-04-04T09:18:26.01Z</time></trkpt><trkpt lat="42.3708479" lon="11.1587572"><ele>212.0</ele><time>2026-04-04T09:18:28.019Z</time></trkpt><trkpt lat="42.3708657" lon="11.1586404"><ele>212.0</ele><time>2026-04-04T09:18:30.006Z</time></trkpt><trkpt lat="42.3708743" lon="11.1585412"><ele>212.0</ele><time>2026-04-04T09:18:32.006Z</time></trkpt><trkpt lat="42.3708322" lon="11.1584732"><ele>212.0</ele><time>2026-04-04T09:18:36.012Z</time></trkpt><trkpt lat="42.3707936" lon="11.15859"><ele>212.0</ele><time>2026-04-04T09:19:01.023Z</time></trkpt><trkpt lat="42.370739" lon="11.158782"><ele>212.0</ele><time>2026-04-04T09:19:03.007Z</time></trkpt><trkpt lat="42.370691" lon="11.1588815"><ele>212.0</ele><time>2026-04-04T09:19:04.016Z</time></trkpt><trkpt lat="42.3706423" lon="11.158964"><ele>212.0</ele><time>2026-04-04T09:19:05.009Z</time></trkpt><trkpt lat="42.3705623" lon="11.1590805"><ele>212.0</ele><time>2026-04-04T09:19:07.013Z</time></trkpt><trkpt lat="42.3704461" lon="11.1591717"><ele>212.0</ele><time>2026-04-04T09:19:09.005Z</time></trkpt><trkpt lat="42.3703778" lon="11.1592118"><ele>212.0</ele><time>2026-04-04T09:19:10.021Z</time></trkpt><trkpt lat="42.3703111" lon="11.1592539"><ele>210.0</ele><time>2026-04-04T09:19:11.013Z</time></trkpt><trkpt lat="42.3702483" lon="11.1592838"><ele>208.0</ele><time>2026-04-04T09:19:12.011Z</time></trkpt><trkpt lat="42.370133" lon="11.1593486"><ele>206.0</ele><time>2026-04-04T09:19:14.01Z</time></trkpt><trkpt lat="42.3700469" lon="11.1594312"><ele>204.0</ele><time>2026-04-04T09:19:16.012Z</time></trkpt><trkpt lat="42.3699691" lon="11.1595837"><ele>202.0</ele><time>2026-04-04T09:19:18.009Z</time></trkpt><trkpt lat="42.3699317" lon="11.159669"><ele>201.99999999999997</ele><time>2026-04-04T09:19:19.022Z</time></trkpt><trkpt lat="42.3698938" lon="11.1597431"><ele>202.0</ele><time>2026-04-04T09:19:20.007Z</time></trkpt><trkpt lat="42.3698595" lon="11.1598206"><ele>202.0</ele><time>2026-04-04T09:19:21.019Z</time></trkpt><trkpt lat="42.3698254" lon="11.1598982"><ele>202.0</ele><time>2026-04-04T09:19:22.007Z</time></trkpt><trkpt lat="42.3697574" lon="11.1599937"><ele>201.99999999999997</ele><time>2026-04-04T09:19:24.008Z</time></trkpt><trkpt lat="42.369667" lon="11.1600135"><ele>202.0</ele><time>2026-04-04T09:19:26.002Z</time></trkpt><trkpt lat="42.3695676" lon="11.1599574"><ele>200.2</ele><time>2026-04-04T09:19:28.007Z</time></trkpt><trkpt lat="42.3694718" lon="11.1598582"><ele>198.39999999999998</ele><time>2026-04-04T09:19:30.012Z</time></trkpt><trkpt lat="42.3693712" lon="11.1597634"><ele>196.60000000000002</ele><time>2026-04-04T09:19:32.016Z</time></trkpt><trkpt lat="42.3693109" lon="11.1597156"><ele>194.8</ele><time>2026-04-04T09:19:33.016Z</time></trkpt><trkpt lat="42.3692494" lon="11.1596718"><ele>193.0</ele><time>2026-04-04T09:19:34.016Z</time></trkpt><trkpt lat="42.3691865" lon="11.1596282"><ele>193.00000000000003</ele><time>2026-04-04T09:19:35.02Z</time></trkpt><trkpt lat="42.3691205" lon="11.159591"><ele>193.0</ele><time>2026-04-04T09:19:36.009Z</time></trkpt><trkpt lat="42.3690508" lon="11.1595552"><ele>193.0</ele><time>2026-04-04T09:19:37.015Z</time></trkpt><trkpt lat="42.3689794" lon="11.1595289"><ele>193.0</ele><time>2026-04-04T09:19:38.016Z</time></trkpt><trkpt lat="42.3689118" lon="11.1594998"><ele>193.0</ele><time>2026-04-04T09:19:39.016Z</time></trkpt><trkpt lat="42.3688447" lon="11.1594813"><ele>193.00000000000003</ele><time>2026-04-04T09:19:40.013Z</time></trkpt><trkpt lat="42.3687729" lon="11.1594614"><ele>193.0</ele><time>2026-04-04T09:19:41.015Z</time></trkpt><trkpt lat="42.3687002" lon="11.1594481"><ele>193.85714285714286</ele><time>2026-04-04T09:19:42.015Z</time></trkpt><trkpt lat="42.3686206" lon="11.159434"><ele>194.71428571428572</ele><time>2026-04-04T09:19:43.012Z</time></trkpt><trkpt lat="42.3685364" lon="11.1594152"><ele>195.57142857142856</ele><time>2026-04-04T09:19:44.019Z</time></trkpt><trkpt lat="42.3684604" lon="11.159399"><ele>196.42857142857144</ele><time>2026-04-04T09:19:45.009Z</time></trkpt><trkpt lat="42.3683897" lon="11.1593837"><ele>197.28571428571428</ele><time>2026-04-04T09:19:46.01Z</time></trkpt><trkpt lat="42.3683261" lon="11.1593713"><ele>198.14285714285714</ele><time>2026-04-04T09:19:47.01Z</time></trkpt><trkpt lat="42.3682621" lon="11.1593595"><ele>199.0</ele><time>2026-04-04T09:19:48.018Z</time></trkpt><trkpt lat="42.3681948" lon="11.1593539"><ele>198.99999999999997</ele><time>2026-04-04T09:19:49.006Z</time></trkpt><trkpt lat="42.368125" lon="11.1593467"><ele>199.0</ele><time>2026-04-04T09:19:50.018Z</time></trkpt><trkpt lat="42.3680555" lon="11.1593249"><ele>199.0</ele><time>2026-04-04T09:19:51.016Z</time></trkpt><trkpt lat="42.3679888" lon="11.1593047"><ele>199.0</ele><time>2026-04-04T09:19:52.021Z</time></trkpt><trkpt lat="42.3679225" lon="11.1592874"><ele>199.0</ele><time>2026-04-04T09:19:53.01Z</time></trkpt><trkpt lat="42.3678561" lon="11.1592571"><ele>198.99999999999997</ele><time>2026-04-04T09:19:54.017Z</time></trkpt><trkpt lat="42.3677977" lon="11.1592233"><ele>199.0</ele><time>2026-04-04T09:19:55.012Z</time></trkpt><trkpt lat="42.3677366" lon="11.1591879"><ele>199.57142857142856</ele><time>2026-04-04T09:19:56.008Z</time></trkpt><trkpt lat="42.3676737" lon="11.1591509"><ele>200.14285714285714</ele><time>2026-04-04T09:19:57.005Z</time></trkpt><trkpt lat="42.367609" lon="11.1591015"><ele>200.71428571428572</ele><time>2026-04-04T09:19:58.016Z</time></trkpt><trkpt lat="42.3675458" lon="11.1590478"><ele>201.28571428571428</ele><time>2026-04-04T09:19:59.017Z</time></trkpt><trkpt lat="42.3674812" lon="11.1589971"><ele>201.85714285714286</ele><time>2026-04-04T09:20:00.01Z</time></trkpt><trkpt lat="42.3674179" lon="11.1589362"><ele>202.42857142857142</ele><time>2026-04-04T09:20:01.011Z</time></trkpt><trkpt lat="42.367357" lon="11.1588855"><ele>203.0</ele><time>2026-04-04T09:20:02.011Z</time></trkpt><trkpt lat="42.3672819" lon="11.1587918"><ele>201.2</ele><time>2026-04-04T09:20:04.01Z</time></trkpt><trkpt lat="42.3672197" lon="11.1587248"><ele>199.4</ele><time>2026-04-04T09:20:06.019Z</time></trkpt><trkpt lat="42.3671319" lon="11.1586717"><ele>197.6</ele><time>2026-04-04T09:20:08.01Z</time></trkpt><trkpt lat="42.3670473" lon="11.1586172"><ele>195.79999999999998</ele><time>2026-04-04T09:20:10.005Z</time></trkpt><trkpt lat="42.3669694" lon="11.1585711"><ele>194.0</ele><time>2026-04-04T09:20:12.004Z</time></trkpt><trkpt lat="42.3668825" lon="11.1584966"><ele>194.0</ele><time>2026-04-04T09:20:14.014Z</time></trkpt><trkpt lat="42.3667959" lon="11.1584052"><ele>194.0</ele><time>2026-04-04T09:20:16.021Z</time></trkpt><trkpt lat="42.3667123" lon="11.1583055"><ele>194.0</ele><time>2026-04-04T09:20:18.007Z</time></trkpt><trkpt lat="42.3666253" lon="11.1582281"><ele>194.0</ele><time>2026-04-04T09:20:20.02Z</time></trkpt><trkpt lat="42.3665664" lon="11.1581541"><ele>194.0</ele><time>2026-04-04T09:21:11.021Z</time></trkpt><trkpt lat="42.3664984" lon="11.1580845"><ele>192.28571428571428</ele><time>2026-04-04T09:21:13.013Z</time></trkpt><trkpt lat="42.3664418" lon="11.1580399"><ele>190.57142857142858</ele><time>2026-04-04T09:21:14.012Z</time></trkpt><trkpt lat="42.3663801" lon="11.1579872"><ele>188.85714285714286</ele><time>2026-04-04T09:21:15.008Z</time></trkpt><trkpt lat="42.3663155" lon="11.1579468"><ele>187.14285714285714</ele><time>2026-04-04T09:21:16.019Z</time></trkpt><trkpt lat="42.3662541" lon="11.1579007"><ele>185.42857142857144</ele><time>2026-04-04T09:21:17.01Z</time></trkpt><trkpt lat="42.3661957" lon="11.157862"><ele>183.71428571428572</ele><time>2026-04-04T09:21:18.011Z</time></trkpt><trkpt lat="42.3661386" lon="11.1578162"><ele>182.0</ele><time>2026-04-04T09:21:19.016Z</time></trkpt><trkpt lat="42.3660775" lon="11.1577581"><ele>182.0</ele><time>2026-04-04T09:21:20.021Z</time></trkpt><trkpt lat="42.3660189" lon="11.1577049"><ele>182.0</ele><time>2026-04-04T09:21:21.006Z</time></trkpt><trkpt lat="42.3659632" lon="11.1576457"><ele>182.0</ele><time>2026-04-04T09:21:22.011Z</time></trkpt><trkpt lat="42.3658627" lon="11.1575723"><ele>182.0</ele><time>2026-04-04T09:21:24.01Z</time></trkpt><trkpt lat="42.365797" lon="11.1575413"><ele>182.0</ele><time>2026-04-04T09:21:25.024Z</time></trkpt><trkpt lat="42.3657421" lon="11.1574957"><ele>182.0</ele><time>2026-04-04T09:21:26.017Z</time></trkpt><trkpt lat="42.3656843" lon="11.1574353"><ele>182.0</ele><time>2026-04-04T09:21:27.013Z</time></trkpt><trkpt lat="42.3656284" lon="11.1573836"><ele>182.0</ele><time>2026-04-04T09:21:28.011Z</time></trkpt><trkpt lat="42.3655248" lon="11.1572962"><ele>182.0</ele><time>2026-04-04T09:21:30.022Z</time></trkpt><trkpt lat="42.3654688" lon="11.1572553"><ele>182.0</ele><time>2026-04-04T09:21:31.017Z</time></trkpt><trkpt lat="42.3653613" lon="11.157182"><ele>182.0</ele><time>2026-04-04T09:21:33.013Z</time></trkpt><trkpt lat="42.3652679" lon="11.1571089"><ele>179.5</ele><time>2026-04-04T09:21:35.009Z</time></trkpt><trkpt lat="42.3651792" lon="11.1570558"><ele>177.0</ele><time>2026-04-04T09:21:37.013Z</time></trkpt><trkpt lat="42.3650687" lon="11.1570441"><ele>174.5</ele><time>2026-04-04T09:21:39.009Z</time></trkpt><trkpt lat="42.3649965" lon="11.1570418"><ele>172.0</ele><time>2026-04-04T09:21:41.009Z</time></trkpt><trkpt lat="42.3649233" lon="11.1570686"><ele>169.5</ele><time>2026-04-04T09:21:46.016Z</time></trkpt><trkpt lat="42.3648653" lon="11.1570278"><ele>167.0</ele><time>2026-04-04T09:21:50.011Z</time></trkpt><trkpt lat="42.3648656" lon="11.156929"><ele>167.0</ele><time>2026-04-04T09:21:52.011Z</time></trkpt><trkpt lat="42.3648439" lon="11.1567929"><ele>167.0</ele><time>2026-04-04T09:21:54.012Z</time></trkpt><trkpt lat="42.3648264" lon="11.1566953"><ele>167.0</ele><time>2026-04-04T09:21:56.014Z</time></trkpt><trkpt lat="42.3648697" lon="11.1565782"><ele>167.0</ele><time>2026-04-04T09:21:59.01Z</time></trkpt><trkpt lat="42.3649421" lon="11.1564969"><ele>167.0</ele><time>2026-04-04T09:22:01.008Z</time></trkpt><trkpt lat="42.3650266" lon="11.1564206"><ele>164.66666666666666</ele><time>2026-04-04T09:22:03Z</time></trkpt><trkpt lat="42.365121" lon="11.1563483"><ele>162.33333333333331</ele><time>2026-04-04T09:22:05.021Z</time></trkpt><trkpt lat="42.3652027" lon="11.1562974"><ele>160.0</ele><time>2026-04-04T09:22:07.014Z</time></trkpt><trkpt lat="42.3652893" lon="11.1562613"><ele>157.66666666666666</ele><time>2026-04-04T09:22:09.01Z</time></trkpt><trkpt lat="42.3653833" lon="11.1562693"><ele>155.33333333333334</ele><time>2026-04-04T09:22:11.02Z</time></trkpt><trkpt lat="42.3654479" lon="11.1562555"><ele>153.0</ele><time>2026-04-04T09:22:26.012Z</time></trkpt><trkpt lat="42.3653909" lon="11.1562112"><ele>153.0</ele><time>2026-04-04T09:23:20.018Z</time></trkpt><trkpt lat="42.3653499" lon="11.1561053"><ele>153.0</ele><time>2026-04-04T09:23:23.005Z</time></trkpt><trkpt lat="42.3653174" lon="11.1560312"><ele>153.0</ele><time>2026-04-04T09:23:25.013Z</time></trkpt><trkpt lat="42.3653179" lon="11.1559276"><ele>153.0</ele><time>2026-04-04T09:23:28.014Z</time></trkpt><trkpt lat="42.3652885" lon="11.1558281"><ele>153.0</ele><time>2026-04-04T09:23:31.019Z</time></trkpt><trkpt lat="42.3652496" lon="11.1557328"><ele>153.0</ele><time>2026-04-04T09:23:34.012Z</time></trkpt><trkpt lat="42.3652235" lon="11.1556534"><ele>150.57142857142856</ele><time>2026-04-04T09:23:36.02Z</time></trkpt><trkpt lat="42.3651444" lon="11.1555806"><ele>148.14285714285714</ele><time>2026-04-04T09:23:39.008Z</time></trkpt><trkpt lat="42.3650697" lon="11.1555917"><ele>145.71428571428572</ele><time>2026-04-04T09:23:41.008Z</time></trkpt><trkpt lat="42.3650016" lon="11.155602"><ele>143.28571428571428</ele><time>2026-04-04T09:23:43.013Z</time></trkpt><trkpt lat="42.3649324" lon="11.1556038"><ele>140.85714285714286</ele><time>2026-04-04T09:23:45.019Z</time></trkpt><trkpt lat="42.3648641" lon="11.1556217"><ele>138.42857142857142</ele><time>2026-04-04T09:23:47.009Z</time></trkpt><trkpt lat="42.3648013" lon="11.1556504"><ele>136.0</ele><time>2026-04-04T09:23:49.011Z</time></trkpt><trkpt lat="42.3647239" lon="11.155666"><ele>134.0</ele><time>2026-04-04T09:23:51.009Z</time></trkpt><trkpt lat="42.3646408" lon="11.1556723"><ele>132.0</ele><time>2026-04-04T09:23:53.009Z</time></trkpt><trkpt lat="42.364554" lon="11.1556816"><ele>130.0</ele><time>2026-04-04T09:23:55.018Z</time></trkpt><trkpt lat="42.3644771" lon="11.155676"><ele>128.0</ele><time>2026-04-04T09:23:57.015Z</time></trkpt><trkpt lat="42.3644019" lon="11.1556489"><ele>126.00000000000001</ele><time>2026-04-04T09:23:59.018Z</time></trkpt><trkpt lat="42.3643287" lon="11.1556128"><ele>124.0</ele><time>2026-04-04T09:24:01.008Z</time></trkpt><trkpt lat="42.3642613" lon="11.1555816"><ele>124.0</ele><time>2026-04-04T09:24:03.007Z</time></trkpt><trkpt lat="42.3641748" lon="11.1555682"><ele>124.0</ele><time>2026-04-04T09:24:05.017Z</time></trkpt><trkpt lat="42.3640769" lon="11.1555468"><ele>124.0</ele><time>2026-04-04T09:24:07.004Z</time></trkpt><trkpt lat="42.3639768" lon="11.1555135"><ele>124.0</ele><time>2026-04-04T09:24:09.011Z</time></trkpt><trkpt lat="42.3638809" lon="11.1554742"><ele>124.0</ele><time>2026-04-04T09:24:11.022Z</time></trkpt><trkpt lat="42.3637848" lon="11.1554299"><ele>122.4</ele><time>2026-04-04T09:24:13.026Z</time></trkpt><trkpt lat="42.3636786" lon="11.1553763"><ele>120.80000000000001</ele><time>2026-04-04T09:24:15.017Z</time></trkpt><trkpt lat="42.3635783" lon="11.1553094"><ele>119.19999999999999</ele><time>2026-04-04T09:24:17.018Z</time></trkpt><trkpt lat="42.363517" lon="11.1552553"><ele>117.6</ele><time>2026-04-04T09:24:19.009Z</time></trkpt><trkpt lat="42.3636003" lon="11.1553114"><ele>116.0</ele><time>2026-04-04T09:26:50.005Z</time></trkpt><trkpt lat="42.3636566" lon="11.15535"><ele>116.00000000000001</ele><time>2026-04-04T09:26:51.021Z</time></trkpt><trkpt lat="42.3637131" lon="11.1553966"><ele>116.0</ele><time>2026-04-04T09:26:52.012Z</time></trkpt><trkpt lat="42.3637865" lon="11.1554387"><ele>116.00000000000001</ele><time>2026-04-04T09:26:53.034Z</time></trkpt><trkpt lat="42.363861" lon="11.1554754"><ele>116.00000000000001</ele><time>2026-04-04T09:26:54.01Z</time></trkpt><trkpt lat="42.3639299" lon="11.1554978"><ele>116.0</ele><time>2026-04-04T09:26:55.022Z</time></trkpt><trkpt lat="42.3640001" lon="11.1555222"><ele>116.00000000000001</ele><time>2026-04-04T09:26:56.017Z</time></trkpt><trkpt lat="42.3640719" lon="11.1555441"><ele>116.00000000000001</ele><time>2026-04-04T09:26:57.027Z</time></trkpt><trkpt lat="42.3641452" lon="11.1555645"><ele>117.33333333333333</ele><time>2026-04-04T09:26:58.018Z</time></trkpt><trkpt lat="42.3642131" lon="11.1555833"><ele>118.66666666666666</ele><time>2026-04-04T09:26:59.017Z</time></trkpt><trkpt lat="42.3642783" lon="11.1556023"><ele>120.0</ele><time>2026-04-04T09:27:00.032Z</time></trkpt><trkpt lat="42.3643445" lon="11.1556172"><ele>121.33333333333334</ele><time>2026-04-04T09:27:01.018Z</time></trkpt><trkpt lat="42.3644117" lon="11.1556423"><ele>122.66666666666667</ele><time>2026-04-04T09:27:02.008Z</time></trkpt><trkpt lat="42.3644698" lon="11.1556774"><ele>124.0</ele><time>2026-04-04T09:27:03.006Z</time></trkpt><trkpt lat="42.3645907" lon="11.1556717"><ele>126.4</ele><time>2026-04-04T09:27:05.028Z</time></trkpt><trkpt lat="42.3647114" lon="11.155656"><ele>128.8</ele><time>2026-04-04T09:27:07.011Z</time></trkpt><trkpt lat="42.3647772" lon="11.1556442"><ele>131.2</ele><time>2026-04-04T09:27:08.004Z</time></trkpt><trkpt lat="42.3648898" lon="11.1556223"><ele>133.6</ele><time>2026-04-04T09:27:10.009Z</time></trkpt><trkpt lat="42.3650047" lon="11.1555841"><ele>136.0</ele><time>2026-04-04T09:27:12.016Z</time></trkpt><trkpt lat="42.3651149" lon="11.1555681"><ele>136.0</ele><time>2026-04-04T09:27:14.006Z</time></trkpt><trkpt lat="42.3651964" lon="11.1555772"><ele>136.0</ele><time>2026-04-04T09:27:16.015Z</time></trkpt><trkpt lat="42.365237" lon="11.1556935"><ele>136.0</ele><time>2026-04-04T09:27:19.001Z</time></trkpt><trkpt lat="42.3652696" lon="11.1557929"><ele>136.0</ele><time>2026-04-04T09:27:21.014Z</time></trkpt><trkpt lat="42.3653093" lon="11.1558744"><ele>136.0</ele><time>2026-04-04T09:27:23.005Z</time></trkpt><trkpt lat="42.365326" lon="11.1559646"><ele>136.0</ele><time>2026-04-04T09:27:25.017Z</time></trkpt><trkpt lat="42.365327" lon="11.1560774"><ele>138.42857142857142</ele><time>2026-04-04T09:27:27.012Z</time></trkpt><trkpt lat="42.3653827" lon="11.1561529"><ele>140.85714285714286</ele><time>2026-04-04T09:27:29.011Z</time></trkpt><trkpt lat="42.365411" lon="11.1562378"><ele>143.28571428571428</ele><time>2026-04-04T09:27:31.004Z</time></trkpt><trkpt lat="42.3653582" lon="11.1563032"><ele>145.71428571428572</ele><time>2026-04-04T09:31:54.014Z</time></trkpt><trkpt lat="42.3652795" lon="11.156283"><ele>148.14285714285714</ele><time>2026-04-04T09:31:59.01Z</time></trkpt><trkpt lat="42.3652164" lon="11.1562945"><ele>150.57142857142856</ele><time>2026-04-04T09:32:02.013Z</time></trkpt><trkpt lat="42.3651567" lon="11.1563239"><ele>153.0</ele><time>2026-04-04T09:32:23.009Z</time></trkpt><trkpt lat="42.3650999" lon="11.1563658"><ele>153.0</ele><time>2026-04-04T09:32:25.013Z</time></trkpt><trkpt lat="42.3650362" lon="11.1564047"><ele>153.0</ele><time>2026-04-04T09:32:27.014Z</time></trkpt><trkpt lat="42.3649676" lon="11.1564642"><ele>153.0</ele><time>2026-04-04T09:32:30.011Z</time></trkpt><trkpt lat="42.3648834" lon="11.1565544"><ele>153.0</ele><time>2026-04-04T09:32:32.009Z</time></trkpt><trkpt lat="42.3648294" lon="11.1566212"><ele>153.0</ele><time>2026-04-04T09:32:33.013Z</time></trkpt><trkpt lat="42.3648147" lon="11.156739"><ele>153.0</ele><time>2026-04-04T09:33:03.015Z</time></trkpt><trkpt lat="42.3648529" lon="11.156907"><ele>155.33333333333334</ele><time>2026-04-04T09:33:05.013Z</time></trkpt><trkpt lat="42.3648876" lon="11.1570392"><ele>157.66666666666666</ele><time>2026-04-04T09:33:07.015Z</time></trkpt><trkpt lat="42.3649578" lon="11.1570538"><ele>160.0</ele><time>2026-04-04T09:33:09.009Z</time></trkpt><trkpt lat="42.3650468" lon="11.1570231"><ele>162.33333333333331</ele><time>2026-04-04T09:33:11.012Z</time></trkpt><trkpt lat="42.3651205" lon="11.1570249"><ele>164.66666666666666</ele><time>2026-04-04T09:33:12.015Z</time></trkpt><trkpt lat="42.3651893" lon="11.1570511"><ele>167.0</ele><time>2026-04-04T09:33:13.012Z</time></trkpt><trkpt lat="42.3652511" lon="11.1570898"><ele>167.0</ele><time>2026-04-04T09:33:14.006Z</time></trkpt><trkpt lat="42.3653588" lon="11.1571652"><ele>167.0</ele><time>2026-04-04T09:33:16.01Z</time></trkpt><trkpt lat="42.3654628" lon="11.1572533"><ele>167.0</ele><time>2026-04-04T09:33:18.009Z</time></trkpt><trkpt lat="42.3655739" lon="11.1573466"><ele>167.0</ele><time>2026-04-04T09:33:20.021Z</time></trkpt><trkpt lat="42.3656667" lon="11.1574365"><ele>170.0</ele><time>2026-04-04T09:33:22.012Z</time></trkpt><trkpt lat="42.3657736" lon="11.1575401"><ele>173.0</ele><time>2026-04-04T09:33:24.019Z</time></trkpt><trkpt lat="42.365835" lon="11.1575862"><ele>176.0</ele><time>2026-04-04T09:33:25.015Z</time></trkpt><trkpt lat="42.365896" lon="11.1576246"><ele>179.0</ele><time>2026-04-04T09:33:26.013Z</time></trkpt><trkpt lat="42.3660025" lon="11.1577157"><ele>182.0</ele><time>2026-04-04T09:33:28.006Z</time></trkpt><trkpt lat="42.3660565" lon="11.1577712"><ele>182.0</ele><time>2026-04-04T09:33:29.01Z</time></trkpt><trkpt lat="42.3661083" lon="11.1578208"><ele>182.0</ele><time>2026-04-04T09:33:30.014Z</time></trkpt><trkpt lat="42.366219" lon="11.1579119"><ele>182.0</ele><time>2026-04-04T09:33:32.016Z</time></trkpt><trkpt lat="42.3662738" lon="11.1579543"><ele>182.0</ele><time>2026-04-04T09:33:33.009Z</time></trkpt><trkpt lat="42.3663611" lon="11.1580236"><ele>182.0</ele><time>2026-04-04T09:33:35.015Z</time></trkpt><trkpt lat="42.3664252" lon="11.1580905"><ele>182.0</ele><time>2026-04-04T09:33:37.024Z</time></trkpt><trkpt lat="42.3665026" lon="11.1581363"><ele>184.39999999999998</ele><time>2026-04-04T09:33:59.012Z</time></trkpt><trkpt lat="42.3666092" lon="11.1582277"><ele>186.79999999999998</ele><time>2026-04-04T09:34:01.01Z</time></trkpt><trkpt lat="42.3666734" lon="11.1582803"><ele>189.2</ele><time>2026-04-04T09:34:02.021Z</time></trkpt><trkpt lat="42.3667308" lon="11.1583404"><ele>191.6</ele><time>2026-04-04T09:34:03.003Z</time></trkpt><trkpt lat="42.3667968" lon="11.1584082"><ele>194.0</ele><time>2026-04-04T09:34:04.008Z</time></trkpt><trkpt lat="42.3668718" lon="11.1584845"><ele>194.00000000000003</ele><time>2026-04-04T09:34:05.011Z</time></trkpt><trkpt lat="42.3669504" lon="11.1585547"><ele>194.0</ele><time>2026-04-04T09:34:06.012Z</time></trkpt><trkpt lat="42.3670297" lon="11.1586121"><ele>194.0</ele><time>2026-04-04T09:34:07.016Z</time></trkpt><trkpt lat="42.3671181" lon="11.1586745"><ele>194.0</ele><time>2026-04-04T09:34:08.017Z</time></trkpt><trkpt lat="42.3671979" lon="11.1587261"><ele>194.00000000000003</ele><time>2026-04-04T09:34:09.013Z</time></trkpt><trkpt lat="42.3672632" lon="11.1587777"><ele>194.0</ele><time>2026-04-04T09:34:10.027Z</time></trkpt><trkpt lat="42.3673243" lon="11.1588437"><ele>195.79999999999998</ele><time>2026-04-04T09:34:11.004Z</time></trkpt><trkpt lat="42.3673937" lon="11.158918"><ele>197.6</ele><time>2026-04-04T09:34:12.011Z</time></trkpt><trkpt lat="42.367473" lon="11.1589973"><ele>199.4</ele><time>2026-04-04T09:34:13.007Z</time></trkpt><trkpt lat="42.367554" lon="11.1590611"><ele>201.2</ele><time>2026-04-04T09:34:14.012Z</time></trkpt><trkpt lat="42.3676293" lon="11.1591221"><ele>203.0</ele><time>2026-04-04T09:34:15.015Z</time></trkpt><trkpt lat="42.3677149" lon="11.1591815"><ele>203.0</ele><time>2026-04-04T09:34:16.009Z</time></trkpt><trkpt lat="42.367808" lon="11.1592287"><ele>203.0</ele><time>2026-04-04T09:34:17.017Z</time></trkpt><trkpt lat="42.3678999" lon="11.1592765"><ele>203.0</ele><time>2026-04-04T09:34:18.012Z</time></trkpt><trkpt lat="42.3679886" lon="11.1593288"><ele>203.0</ele><time>2026-04-04T09:34:19.017Z</time></trkpt><trkpt lat="42.3680807" lon="11.1593604"><ele>203.0</ele><time>2026-04-04T09:34:20.016Z</time></trkpt><trkpt lat="42.368175" lon="11.1593802"><ele>202.2</ele><time>2026-04-04T09:34:21.011Z</time></trkpt><trkpt lat="42.3682764" lon="11.159394"><ele>201.4</ele><time>2026-04-04T09:34:22.02Z</time></trkpt><trkpt lat="42.3683725" lon="11.159424"><ele>200.6</ele><time>2026-04-04T09:34:23.027Z</time></trkpt><trkpt lat="42.3684707" lon="11.1594447"><ele>199.79999999999998</ele><time>2026-04-04T09:34:24.01Z</time></trkpt><trkpt lat="42.3685725" lon="11.1594657"><ele>199.0</ele><time>2026-04-04T09:34:25.018Z</time></trkpt><trkpt lat="42.368679" lon="11.1594872"><ele>199.0</ele><time>2026-04-04T09:34:26.015Z</time></trkpt><trkpt lat="42.3687833" lon="11.1595049"><ele>199.0</ele><time>2026-04-04T09:34:27.017Z</time></trkpt><trkpt lat="42.3688694" lon="11.15953"><ele>199.0</ele><time>2026-04-04T09:34:28.012Z</time></trkpt><trkpt lat="42.3689569" lon="11.1595547"><ele>199.0</ele><time>2026-04-04T09:34:29.022Z</time></trkpt><trkpt lat="42.3690436" lon="11.1595856"><ele>199.0</ele><time>2026-04-04T09:34:30.021Z</time></trkpt><trkpt lat="42.3691225" lon="11.1596223"><ele>197.79999999999998</ele><time>2026-04-04T09:34:31.009Z</time></trkpt><trkpt lat="42.3691961" lon="11.1596567"><ele>196.6</ele><time>2026-04-04T09:34:32.023Z</time></trkpt><trkpt lat="42.3692781" lon="11.1597049"><ele>195.4</ele><time>2026-04-04T09:34:33.006Z</time></trkpt><trkpt lat="42.3693663" lon="11.159783"><ele>194.2</ele><time>2026-04-04T09:34:34.012Z</time></trkpt><trkpt lat="42.3694439" lon="11.1598516"><ele>193.0</ele><time>2026-04-04T09:34:35.015Z</time></trkpt><trkpt lat="42.3695253" lon="11.1599269"><ele>194.8</ele><time>2026-04-04T09:34:36.015Z</time></trkpt><trkpt lat="42.3695903" lon="11.1599871"><ele>196.60000000000002</ele><time>2026-04-04T09:34:37.006Z</time></trkpt><trkpt lat="42.3696911" lon="11.1600255"><ele>198.39999999999998</ele><time>2026-04-04T09:34:39.015Z</time></trkpt><trkpt lat="42.3697891" lon="11.1599821"><ele>200.2</ele><time>2026-04-04T09:34:41.019Z</time></trkpt><trkpt lat="42.369872" lon="11.1598219"><ele>202.0</ele><time>2026-04-04T09:34:43.001Z</time></trkpt><trkpt lat="42.3699307" lon="11.1596813"><ele>202.0</ele><time>2026-04-04T09:34:44.007Z</time></trkpt><trkpt lat="42.3699868" lon="11.1595365"><ele>202.0</ele><time>2026-04-04T09:34:45.008Z</time></trkpt><trkpt lat="42.3700416" lon="11.1594466"><ele>202.0</ele><time>2026-04-04T09:34:46.008Z</time></trkpt><trkpt lat="42.3701368" lon="11.159335"><ele>202.0</ele><time>2026-04-04T09:34:48.018Z</time></trkpt><trkpt lat="42.3702531" lon="11.1592594"><ele>202.0</ele><time>2026-04-04T09:34:50.011Z</time></trkpt><trkpt lat="42.3703481" lon="11.1592008"><ele>202.0</ele><time>2026-04-04T09:34:51.01Z</time></trkpt><trkpt lat="42.370454" lon="11.159152"><ele>202.0</ele><time>2026-04-04T09:34:52.014Z</time></trkpt><trkpt lat="42.3705406" lon="11.1590912"><ele>202.0</ele><time>2026-04-04T09:34:53.011Z</time></trkpt><trkpt lat="42.3705986" lon="11.1590362"><ele>202.0</ele><time>2026-04-04T09:34:54.026Z</time></trkpt><trkpt lat="42.3706468" lon="11.1589597"><ele>203.66666666666666</ele><time>2026-04-04T09:34:55.011Z</time></trkpt><trkpt lat="42.370695" lon="11.158882"><ele>205.33333333333331</ele><time>2026-04-04T09:34:56.013Z</time></trkpt><trkpt lat="42.3707389" lon="11.1587948"><ele>207.0</ele><time>2026-04-04T09:34:57.011Z</time></trkpt><trkpt lat="42.3707772" lon="11.158694"><ele>208.66666666666669</ele><time>2026-04-04T09:34:58.01Z</time></trkpt><trkpt lat="42.3708151" lon="11.158562"><ele>210.33333333333334</ele><time>2026-04-04T09:35:00.021Z</time></trkpt><trkpt lat="42.370825" lon="11.1584558"><ele>212.0</ele><time>2026-04-04T09:35:03.006Z</time></trkpt><trkpt lat="42.3708922" lon="11.1585114"><ele>212.0</ele><time>2026-04-04T09:35:36.008Z</time></trkpt><trkpt lat="42.3708894" lon="11.1586347"><ele>212.0</ele><time>2026-04-04T09:35:38.009Z</time></trkpt><trkpt lat="42.3708729" lon="11.1587331"><ele>212.0</ele><time>2026-04-04T09:35:39.018Z</time></trkpt><trkpt lat="42.3708398" lon="11.158865"><ele>212.0</ele><time>2026-04-04T09:35:40.016Z</time></trkpt><trkpt lat="42.3707879" lon="11.1589921"><ele>212.0</ele><time>2026-04-04T09:35:41.003Z</time></trkpt><trkpt lat="42.3707154" lon="11.159115"><ele>210.33333333333334</ele><time>2026-04-04T09:35:42.007Z</time></trkpt><trkpt lat="42.3706362" lon="11.1592268"><ele>208.66666666666669</ele><time>2026-04-04T09:35:42.999Z</time></trkpt><trkpt lat="42.3705544" lon="11.1593156"><ele>207.0</ele><time>2026-04-04T09:35:44.007Z</time></trkpt><trkpt lat="42.3704829" lon="11.1593709"><ele>205.33333333333331</ele><time>2026-04-04T09:35:45.013Z</time></trkpt><trkpt lat="42.370422" lon="11.1594246"><ele>203.66666666666666</ele><time>2026-04-04T09:35:46.008Z</time></trkpt><trkpt lat="42.3703757" lon="11.1594863"><ele>202.0</ele><time>2026-04-04T09:35:47.014Z</time></trkpt><trkpt lat="42.3703387" lon="11.1596196"><ele>201.99999999999997</ele><time>2026-04-04T09:35:49.012Z</time></trkpt><trkpt lat="42.3703269" lon="11.1597724"><ele>202.0</ele><time>2026-04-04T09:35:51.018Z</time></trkpt><trkpt lat="42.3703178" lon="11.1599024"><ele>202.0</ele><time>2026-04-04T09:35:53.011Z</time></trkpt><trkpt lat="42.3703277" lon="11.1599939"><ele>202.0</ele><time>2026-04-04T09:35:55.007Z</time></trkpt><trkpt lat="42.3703614" lon="11.1600986"><ele>201.99999999999997</ele><time>2026-04-04T09:35:58.015Z</time></trkpt><trkpt lat="42.370399" lon="11.1601889"><ele>202.0</ele><time>2026-04-04T09:36:00.007Z</time></trkpt><trkpt lat="42.370434" lon="11.1603037"><ele>205.25</ele><time>2026-04-04T09:36:01.009Z</time></trkpt><trkpt lat="42.3704901" lon="11.160442"><ele>208.5</ele><time>2026-04-04T09:36:02.014Z</time></trkpt><trkpt lat="42.3705473" lon="11.16057"><ele>211.75</ele><time>2026-04-04T09:36:03.009Z</time></trkpt><trkpt lat="42.3706248" lon="11.1606906"><ele>215.0</ele><time>2026-04-04T09:36:04.013Z</time></trkpt><trkpt lat="42.3706878" lon="11.1608233"><ele>218.83333333333334</ele><time>2026-04-04T09:36:05.012Z</time></trkpt><trkpt lat="42.3707326" lon="11.1609336"><ele>222.66666666666669</ele><time>2026-04-04T09:36:06.007Z</time></trkpt><trkpt lat="42.3707642" lon="11.1610258"><ele>226.5</ele><time>2026-04-04T09:36:07.004Z</time></trkpt><trkpt lat="42.3707771" lon="11.161183"><ele>230.33333333333331</ele><time>2026-04-04T09:36:09.006Z</time></trkpt><trkpt lat="42.3707641" lon="11.1612807"><ele>234.16666666666666</ele><time>2026-04-04T09:36:10.012Z</time></trkpt><trkpt lat="42.3707551" lon="11.1613809"><ele>238.0</ele><time>2026-04-04T09:36:11.015Z</time></trkpt><trkpt lat="42.3707544" lon="11.1614897"><ele>234.75</ele><time>2026-04-04T09:36:12.021Z</time></trkpt><trkpt lat="42.3707784" lon="11.1616603"><ele>231.5</ele><time>2026-04-04T09:36:12.999Z</time></trkpt><trkpt lat="42.3708063" lon="11.1618589"><ele>228.25</ele><time>2026-04-04T09:36:14.002Z</time></trkpt><trkpt lat="42.370836" lon="11.1620409"><ele>225.0</ele><time>2026-04-04T09:36:15.011Z</time></trkpt><trkpt lat="42.3708512" lon="11.1621906"><ele>225.0</ele><time>2026-04-04T09:36:16.013Z</time></trkpt><trkpt lat="42.3708816" lon="11.1623363"><ele>225.0</ele><time>2026-04-04T09:36:17.012Z</time></trkpt><trkpt lat="42.3709172" lon="11.1624849"><ele>225.0</ele><time>2026-04-04T09:36:18.005Z</time></trkpt><trkpt lat="42.3709494" lon="11.1626308"><ele>225.0</ele><time>2026-04-04T09:36:19.015Z</time></trkpt><trkpt lat="42.3709799" lon="11.16278"><ele>223.2</ele><time>2026-04-04T09:36:20.006Z</time></trkpt><trkpt lat="42.3710157" lon="11.1629262"><ele>221.4</ele><time>2026-04-04T09:36:21.012Z</time></trkpt><trkpt lat="42.371052" lon="11.1630786"><ele>219.60000000000002</ele><time>2026-04-04T09:36:22.011Z</time></trkpt><trkpt lat="42.3710774" lon="11.1632237"><ele>217.8</ele><time>2026-04-04T09:36:23.014Z</time></trkpt><trkpt lat="42.3710898" lon="11.1633543"><ele>216.0</ele><time>2026-04-04T09:36:24.009Z</time></trkpt><trkpt lat="42.3711005" lon="11.1634907"><ele>215.0</ele><time>2026-04-04T09:36:25.007Z</time></trkpt><trkpt lat="42.3711083" lon="11.1636256"><ele>214.0</ele><time>2026-04-04T09:36:26.008Z</time></trkpt><trkpt lat="42.3711025" lon="11.1637561"><ele>213.0</ele><time>2026-04-04T09:36:27.008Z</time></trkpt><trkpt lat="42.3710918" lon="11.1638587"><ele>212.0</ele><time>2026-04-04T09:36:28.004Z</time></trkpt><trkpt lat="42.3710804" lon="11.1639541"><ele>211.0</ele><time>2026-04-04T09:36:29.007Z</time></trkpt><trkpt lat="42.3710608" lon="11.1640562"><ele>210.0</ele><time>2026-04-04T09:36:30.005Z</time></trkpt><trkpt lat="42.371054" lon="11.1641889"><ele>209.0</ele><time>2026-04-04T09:36:31.013Z</time></trkpt><trkpt lat="42.3710429" lon="11.1643379"><ele>208.0</ele><time>2026-04-04T09:36:32.02Z</time></trkpt><trkpt lat="42.3710533" lon="11.164469"><ele>207.0</ele><time>2026-04-04T09:36:33.019Z</time></trkpt><trkpt lat="42.3710617" lon="11.1645997"><ele>206.0</ele><time>2026-04-04T09:36:34.013Z</time></trkpt><trkpt lat="42.3710659" lon="11.1647224"><ele>205.0</ele><time>2026-04-04T09:36:35.02Z</time></trkpt><trkpt lat="42.371069" lon="11.1648455"><ele>204.16666666666666</ele><time>2026-04-04T09:36:36.011Z</time></trkpt><trkpt lat="42.3710732" lon="11.1649631"><ele>203.33333333333331</ele><time>2026-04-04T09:36:37.011Z</time></trkpt><trkpt lat="42.3710738" lon="11.1650756"><ele>202.5</ele><time>2026-04-04T09:36:38.009Z</time></trkpt><trkpt lat="42.3710609" lon="11.1651881"><ele>201.66666666666669</ele><time>2026-04-04T09:36:39.02Z</time></trkpt><trkpt lat="42.3710503" lon="11.1652915"><ele>200.83333333333334</ele><time>2026-04-04T09:36:40Z</time></trkpt><trkpt lat="42.3710426" lon="11.1653881"><ele>200.0</ele><time>2026-04-04T09:36:41.012Z</time></trkpt><trkpt lat="42.3710275" lon="11.1654874"><ele>200.00000000000003</ele><time>2026-04-04T09:36:42.012Z</time></trkpt><trkpt lat="42.3710233" lon="11.165592"><ele>200.0</ele><time>2026-04-04T09:36:43.005Z</time></trkpt><trkpt lat="42.3710167" lon="11.1656927"><ele>200.0</ele><time>2026-04-04T09:36:44.022Z</time></trkpt><trkpt lat="42.3710074" lon="11.165782"><ele>200.0</ele><time>2026-04-04T09:36:45.018Z</time></trkpt><trkpt lat="42.3709986" lon="11.1659164"><ele>200.00000000000003</ele><time>2026-04-04T09:36:47.008Z</time></trkpt><trkpt lat="42.3710341" lon="11.1660293"><ele>200.0</ele><time>2026-04-04T09:36:49.002Z</time></trkpt><trkpt lat="42.3711235" lon="11.1660946"><ele>198.83333333333334</ele><time>2026-04-04T09:36:51.014Z</time></trkpt><trkpt lat="42.3711907" lon="11.166105"><ele>197.66666666666669</ele><time>2026-04-04T09:36:52.01Z</time></trkpt><trkpt lat="42.3712721" lon="11.166103"><ele>196.5</ele><time>2026-04-04T09:36:53.02Z</time></trkpt><trkpt lat="42.3713501" lon="11.1660956"><ele>195.33333333333331</ele><time>2026-04-04T09:36:54.013Z</time></trkpt><trkpt lat="42.3714151" lon="11.1660875"><ele>194.16666666666666</ele><time>2026-04-04T09:36:55.023Z</time></trkpt><trkpt lat="42.3715079" lon="11.166102"><ele>193.0</ele><time>2026-04-04T09:36:57.002Z</time></trkpt><trkpt lat="42.371521" lon="11.1662119"><ele>196.33333333333331</ele><time>2026-04-04T09:36:59.008Z</time></trkpt><trkpt lat="42.3714573" lon="11.1663738"><ele>199.66666666666666</ele><time>2026-04-04T09:37:01.016Z</time></trkpt><trkpt lat="42.3714265" lon="11.1664577"><ele>203.0</ele><time>2026-04-04T09:37:02.009Z</time></trkpt><trkpt lat="42.3714211" lon="11.166554"><ele>206.33333333333331</ele><time>2026-04-04T09:37:03.008Z</time></trkpt><trkpt lat="42.3714275" lon="11.1666749"><ele>209.66666666666666</ele><time>2026-04-04T09:37:04.013Z</time></trkpt><trkpt lat="42.3714342" lon="11.1667705"><ele>213.0</ele><time>2026-04-04T09:37:05.002Z</time></trkpt><trkpt lat="42.3713695" lon="11.1669156"><ele>206.25</ele><time>2026-04-04T09:37:07.01Z</time></trkpt><trkpt lat="42.3713085" lon="11.1670513"><ele>199.5</ele><time>2026-04-04T09:37:08.004Z</time></trkpt><trkpt lat="42.371248" lon="11.1672265"><ele>192.75</ele><time>2026-04-04T09:37:09.013Z</time></trkpt><trkpt lat="42.371177" lon="11.1674091"><ele>186.0</ele><time>2026-04-04T09:37:10.003Z</time></trkpt><trkpt lat="42.3711097" lon="11.1675897"><ele>186.33333333333334</ele><time>2026-04-04T09:37:11Z</time></trkpt><trkpt lat="42.3710594" lon="11.1677257"><ele>186.66666666666666</ele><time>2026-04-04T09:37:12.004Z</time></trkpt><trkpt lat="42.3710115" lon="11.1678309"><ele>187.0</ele><time>2026-04-04T09:37:13.009Z</time></trkpt><trkpt lat="42.3709753" lon="11.1679145"><ele>187.33333333333331</ele><time>2026-04-04T09:37:14.003Z</time></trkpt><trkpt lat="42.3709504" lon="11.1679958"><ele>187.66666666666666</ele><time>2026-04-04T09:37:27.014Z</time></trkpt><trkpt lat="42.3709199" lon="11.1681194"><ele>188.0</ele><time>2026-04-04T09:37:29.004Z</time></trkpt><trkpt lat="42.3708904" lon="11.1682279"><ele>188.0</ele><time>2026-04-04T09:37:30.009Z</time></trkpt><trkpt lat="42.3708488" lon="11.1683404"><ele>188.0</ele><time>2026-04-04T09:37:31.029Z</time></trkpt><trkpt lat="42.3708196" lon="11.168438"><ele>188.0</ele><time>2026-04-04T09:37:32.015Z</time></trkpt><trkpt lat="42.3707978" lon="11.1685284"><ele>188.0</ele><time>2026-04-04T09:37:33.009Z</time></trkpt><trkpt lat="42.3707797" lon="11.1686241"><ele>188.0</ele><time>2026-04-04T09:37:34.01Z</time></trkpt><trkpt lat="42.3707762" lon="11.1687164"><ele>188.0</ele><time>2026-04-04T09:37:35.013Z</time></trkpt><trkpt lat="42.3707878" lon="11.1688164"><ele>188.0</ele><time>2026-04-04T09:37:36.008Z</time></trkpt><trkpt lat="42.3708059" lon="11.1689306"><ele>188.0</ele><time>2026-04-04T09:37:37.009Z</time></trkpt><trkpt lat="42.3708356" lon="11.1690335"><ele>188.0</ele><time>2026-04-04T09:37:38.026Z</time></trkpt><trkpt lat="42.3708498" lon="11.1691396"><ele>188.0</ele><time>2026-04-04T09:37:39.007Z</time></trkpt><trkpt lat="42.3708528" lon="11.16925"><ele>188.0</ele><time>2026-04-04T09:37:40.011Z</time></trkpt><trkpt lat="42.3708578" lon="11.1693532"><ele>188.0</ele><time>2026-04-04T09:37:41.018Z</time></trkpt><trkpt lat="42.3708627" lon="11.1694592"><ele>187.5</ele><time>2026-04-04T09:37:42.008Z</time></trkpt><trkpt lat="42.3708536" lon="11.1695481"><ele>187.0</ele><time>2026-04-04T09:37:43.005Z</time></trkpt><trkpt lat="42.3708224" lon="11.1696405"><ele>186.5</ele><time>2026-04-04T09:37:44.019Z</time></trkpt><trkpt lat="42.3707687" lon="11.1697352"><ele>186.0</ele><time>2026-04-04T09:37:45.011Z</time></trkpt><trkpt lat="42.3707204" lon="11.1698164"><ele>185.5</ele><time>2026-04-04T09:37:46.011Z</time></trkpt><trkpt lat="42.3706818" lon="11.1698872"><ele>185.0</ele><time>2026-04-04T09:37:47.011Z</time></trkpt><trkpt lat="42.3706121" lon="11.169996"><ele>183.5</ele><time>2026-04-04T09:37:49.009Z</time></trkpt><trkpt lat="42.3706085" lon="11.1701019"><ele>182.0</ele><time>2026-04-04T09:45:45.008Z</time></trkpt><trkpt lat="42.3707454" lon="11.1702183"><ele>180.5</ele><time>2026-04-04T09:45:47.009Z</time></trkpt><trkpt lat="42.3708637" lon="11.1702984"><ele>179.0</ele><time>2026-04-04T09:45:48.018Z</time></trkpt><trkpt lat="42.3709803" lon="11.170366"><ele>179.0</ele><time>2026-04-04T09:45:49.01Z</time></trkpt><trkpt lat="42.3710872" lon="11.1704158"><ele>179.0</ele><time>2026-04-04T09:45:50.015Z</time></trkpt><trkpt lat="42.3711916" lon="11.1704573"><ele>179.0</ele><time>2026-04-04T09:45:51.005Z</time></trkpt><trkpt lat="42.3712908" lon="11.1704874"><ele>179.0</ele><time>2026-04-04T09:45:52.004Z</time></trkpt><trkpt lat="42.3713958" lon="11.1705334"><ele>179.0</ele><time>2026-04-04T09:45:53.009Z</time></trkpt><trkpt lat="42.3715072" lon="11.1705797"><ele>178.0</ele><time>2026-04-04T09:45:54.01Z</time></trkpt><trkpt lat="42.3716075" lon="11.1706271"><ele>177.0</ele><time>2026-04-04T09:45:55.013Z</time></trkpt><trkpt lat="42.3716882" lon="11.1706743"><ele>176.0</ele><time>2026-04-04T09:45:56.01Z</time></trkpt><trkpt lat="42.3717608" lon="11.1707282"><ele>175.0</ele><time>2026-04-04T09:45:57.013Z</time></trkpt><trkpt lat="42.3718286" lon="11.1707845"><ele>174.0</ele><time>2026-04-04T09:45:58.019Z</time></trkpt><trkpt lat="42.3718894" lon="11.1708659"><ele>173.0</ele><time>2026-04-04T09:45:59.012Z</time></trkpt><trkpt lat="42.3719538" lon="11.1710138"><ele>173.0</ele><time>2026-04-04T09:46:00.007Z</time></trkpt><trkpt lat="42.372019" lon="11.1711773"><ele>173.0</ele><time>2026-04-04T09:46:01.002Z</time></trkpt><trkpt lat="42.3720797" lon="11.1713175"><ele>173.0</ele><time>2026-04-04T09:46:02.004Z</time></trkpt><trkpt lat="42.3721253" lon="11.1714522"><ele>173.0</ele><time>2026-04-04T09:46:03.01Z</time></trkpt><trkpt lat="42.3721614" lon="11.1716041"><ele>176.8</ele><time>2026-04-04T09:46:04.022Z</time></trkpt><trkpt lat="42.3721897" lon="11.1717486"><ele>180.60000000000002</ele><time>2026-04-04T09:46:05.01Z</time></trkpt><trkpt lat="42.3722162" lon="11.1718828"><ele>184.39999999999998</ele><time>2026-04-04T09:46:06.008Z</time></trkpt><trkpt lat="42.3722402" lon="11.172006"><ele>188.2</ele><time>2026-04-04T09:46:07.006Z</time></trkpt><trkpt lat="42.3722651" lon="11.1721206"><ele>192.0</ele><time>2026-04-04T09:46:08.004Z</time></trkpt><trkpt lat="42.3722947" lon="11.1722423"><ele>188.0</ele><time>2026-04-04T09:46:09.011Z</time></trkpt><trkpt lat="42.3723314" lon="11.1723601"><ele>184.0</ele><time>2026-04-04T09:46:10.006Z</time></trkpt><trkpt lat="42.3723828" lon="11.1724821"><ele>180.0</ele><time>2026-04-04T09:46:11.009Z</time></trkpt><trkpt lat="42.3724249" lon="11.1726008"><ele>176.0</ele><time>2026-04-04T09:46:12.011Z</time></trkpt><trkpt lat="42.372457" lon="11.1727194"><ele>172.0</ele><time>2026-04-04T09:46:13.019Z</time></trkpt><trkpt lat="42.3724884" lon="11.1728314"><ele>172.0</ele><time>2026-04-04T09:46:14.01Z</time></trkpt><trkpt lat="42.3725156" lon="11.1729229"><ele>172.0</ele><time>2026-04-04T09:46:15.019Z</time></trkpt><trkpt lat="42.3725769" lon="11.1730522"><ele>172.0</ele><time>2026-04-04T09:46:17.005Z</time></trkpt><trkpt lat="42.3726704" lon="11.1731557"><ele>172.0</ele><time>2026-04-04T09:46:19.01Z</time></trkpt><trkpt lat="42.3727388" lon="11.1732285"><ele>172.0</ele><time>2026-04-04T09:46:20.01Z</time></trkpt><trkpt lat="42.3728186" lon="11.1733416"><ele>174.75</ele><time>2026-04-04T09:46:21.016Z</time></trkpt><trkpt lat="42.3729124" lon="11.1734793"><ele>177.5</ele><time>2026-04-04T09:46:22.002Z</time></trkpt><trkpt lat="42.3729992" lon="11.1736021"><ele>180.25</ele><time>2026-04-04T09:46:23.011Z</time></trkpt><trkpt lat="42.3730761" lon="11.1737073"><ele>183.0</ele><time>2026-04-04T09:46:24.003Z</time></trkpt><trkpt lat="42.3731395" lon="11.173793"><ele>183.0</ele><time>2026-04-04T09:46:25.013Z</time></trkpt><trkpt lat="42.3731956" lon="11.1738716"><ele>183.0</ele><time>2026-04-04T09:46:26.018Z</time></trkpt><trkpt lat="42.3732449" lon="11.173953"><ele>183.0</ele><time>2026-04-04T09:46:27.02Z</time></trkpt><trkpt lat="42.3732899" lon="11.1740378"><ele>183.0</ele><time>2026-04-04T09:46:28.013Z</time></trkpt><trkpt lat="42.3733198" lon="11.1741434"><ele>183.0</ele><time>2026-04-04T09:46:29.011Z</time></trkpt><trkpt lat="42.3733498" lon="11.174272"><ele>183.0</ele><time>2026-04-04T09:46:30.007Z</time></trkpt><trkpt lat="42.3733857" lon="11.1744156"><ele>178.75</ele><time>2026-04-04T09:46:31.012Z</time></trkpt><trkpt lat="42.3734296" lon="11.1745797"><ele>174.5</ele><time>2026-04-04T09:46:32.015Z</time></trkpt><trkpt lat="42.3734681" lon="11.1747484"><ele>170.25</ele><time>2026-04-04T09:46:33.001Z</time></trkpt><trkpt lat="42.3735016" lon="11.174894"><ele>166.0</ele><time>2026-04-04T09:46:34.012Z</time></trkpt><trkpt lat="42.3735346" lon="11.1750069"><ele>163.8</ele><time>2026-04-04T09:46:35.015Z</time></trkpt><trkpt lat="42.3735647" lon="11.1751639"><ele>161.60000000000002</ele><time>2026-04-04T09:46:37.012Z</time></trkpt><trkpt lat="42.3735966" lon="11.1752635"><ele>159.4</ele><time>2026-04-04T09:46:39.001Z</time></trkpt><trkpt lat="42.3736658" lon="11.1753827"><ele>157.2</ele><time>2026-04-04T09:47:08.02Z</time></trkpt><trkpt lat="42.3737135" lon="11.1754476"><ele>155.0</ele><time>2026-04-04T09:47:09.004Z</time></trkpt><trkpt lat="42.3737594" lon="11.1755234"><ele>155.0</ele><time>2026-04-04T09:47:10.004Z</time></trkpt><trkpt lat="42.3737981" lon="11.1756108"><ele>155.0</ele><time>2026-04-04T09:47:11.004Z</time></trkpt><trkpt lat="42.3738062" lon="11.1756976"><ele>155.0</ele><time>2026-04-04T09:47:12.006Z</time></trkpt><trkpt lat="42.3737702" lon="11.1758663"><ele>155.0</ele><time>2026-04-04T09:47:14.014Z</time></trkpt><trkpt lat="42.3737247" lon="11.1759739"><ele>155.0</ele><time>2026-04-04T09:47:16.006Z</time></trkpt><trkpt lat="42.3736819" lon="11.1760481"><ele>155.0</ele><time>2026-04-04T09:47:21.012Z</time></trkpt><trkpt lat="42.3735723" lon="11.1762264"><ele>154.75</ele><time>2026-04-04T09:47:23.011Z</time></trkpt><trkpt lat="42.3734744" lon="11.1763736"><ele>154.5</ele><time>2026-04-04T09:47:24.013Z</time></trkpt><trkpt lat="42.373363" lon="11.1765128"><ele>154.25</ele><time>2026-04-04T09:47:25.013Z</time></trkpt><trkpt lat="42.3732584" lon="11.1766251"><ele>154.0</ele><time>2026-04-04T09:47:26.014Z</time></trkpt><trkpt lat="42.3731788" lon="11.1767095"><ele>153.33333333333334</ele><time>2026-04-04T09:47:27.007Z</time></trkpt><trkpt lat="42.3730859" lon="11.1767662"><ele>152.66666666666669</ele><time>2026-04-04T09:47:28.009Z</time></trkpt><trkpt lat="42.372975" lon="11.176822"><ele>152.0</ele><time>2026-04-04T09:47:29.013Z</time></trkpt><trkpt lat="42.3728883" lon="11.1768707"><ele>151.33333333333334</ele><time>2026-04-04T09:47:30.004Z</time></trkpt><trkpt lat="42.3728299" lon="11.1769045"><ele>150.66666666666666</ele><time>2026-04-04T09:47:31.009Z</time></trkpt><trkpt lat="42.3727622" lon="11.1769285"><ele>150.0</ele><time>2026-04-04T09:47:33.007Z</time></trkpt><trkpt lat="42.3726866" lon="11.1769451"><ele>150.0</ele><time>2026-04-04T09:47:36.002Z</time></trkpt><trkpt lat="42.3725968" lon="11.1769596"><ele>150.0</ele><time>2026-04-04T09:47:39.004Z</time></trkpt><trkpt lat="42.3725287" lon="11.1769834"><ele>150.0</ele><time>2026-04-04T09:47:41.018Z</time></trkpt><trkpt lat="42.3724534" lon="11.1770241"><ele>150.0</ele><time>2026-04-04T09:47:43Z</time></trkpt><trkpt lat="42.3723545" lon="11.1770728"><ele>150.0</ele><time>2026-04-04T09:47:45Z</time></trkpt><trkpt lat="42.3722473" lon="11.1771069"><ele>152.0</ele><time>2026-04-04T09:47:47.003Z</time></trkpt><trkpt lat="42.3721735" lon="11.1771298"><ele>154.0</ele><time>2026-04-04T09:47:48.011Z</time></trkpt><trkpt lat="42.3720948" lon="11.1771786"><ele>156.0</ele><time>2026-04-04T09:47:49.009Z</time></trkpt><trkpt lat="42.3720025" lon="11.1772612"><ele>158.0</ele><time>2026-04-04T09:47:50.01Z</time></trkpt><trkpt lat="42.3719117" lon="11.1773732"><ele>160.0</ele><time>2026-04-04T09:47:51.016Z</time></trkpt><trkpt lat="42.3718058" lon="11.1775263"><ele>160.0</ele><time>2026-04-04T09:47:52.008Z</time></trkpt><trkpt lat="42.3717045" lon="11.1776944"><ele>160.0</ele><time>2026-04-04T09:47:53.005Z</time></trkpt><trkpt lat="42.3716139" lon="11.1778222"><ele>160.0</ele><time>2026-04-04T09:47:54.011Z</time></trkpt><trkpt lat="42.3715567" lon="11.1779266"><ele>160.0</ele><time>2026-04-04T09:47:55.008Z</time></trkpt><trkpt lat="42.3715343" lon="11.1780184"><ele>163.25</ele><time>2026-04-04T09:47:56.014Z</time></trkpt><trkpt lat="42.3715553" lon="11.1781973"><ele>166.5</ele><time>2026-04-04T09:47:58.017Z</time></trkpt><trkpt lat="42.3716003" lon="11.1783265"><ele>169.75</ele><time>2026-04-04T09:47:59.005Z</time></trkpt><trkpt lat="42.3716508" lon="11.1784784"><ele>173.0</ele><time>2026-04-04T09:48:00.018Z</time></trkpt><trkpt lat="42.371683" lon="11.1786049"><ele>173.0</ele><time>2026-04-04T09:48:01.02Z</time></trkpt><trkpt lat="42.3717107" lon="11.1786934"><ele>173.0</ele><time>2026-04-04T09:48:02.018Z</time></trkpt><trkpt lat="42.3717255" lon="11.1787794"><ele>173.0</ele><time>2026-04-04T09:48:03.011Z</time></trkpt><trkpt lat="42.371717" lon="11.1788795"><ele>173.0</ele><time>2026-04-04T09:48:04.016Z</time></trkpt><trkpt lat="42.371682" lon="11.179"><ele>173.0</ele><time>2026-04-04T09:48:05.007Z</time></trkpt><trkpt lat="42.3716158" lon="11.1791397"><ele>173.0</ele><time>2026-04-04T09:48:06.011Z</time></trkpt><trkpt lat="42.3715377" lon="11.1792909"><ele>174.25</ele><time>2026-04-04T09:48:07.004Z</time></trkpt><trkpt lat="42.3714555" lon="11.1794471"><ele>175.5</ele><time>2026-04-04T09:48:08.01Z</time></trkpt><trkpt lat="42.3713669" lon="11.1796177"><ele>176.75</ele><time>2026-04-04T09:48:09.008Z</time></trkpt><trkpt lat="42.3712837" lon="11.1797844"><ele>178.0</ele><time>2026-04-04T09:48:10.003Z</time></trkpt><trkpt lat="42.3712146" lon="11.1799347"><ele>172.25</ele><time>2026-04-04T09:48:11Z</time></trkpt><trkpt lat="42.3711475" lon="11.1800593"><ele>166.5</ele><time>2026-04-04T09:48:12.005Z</time></trkpt><trkpt lat="42.3710644" lon="11.1801852"><ele>160.75</ele><time>2026-04-04T09:48:13.005Z</time></trkpt><trkpt lat="42.3709637" lon="11.1803092"><ele>155.0</ele><time>2026-04-04T09:48:14.004Z</time></trkpt><trkpt lat="42.3708587" lon="11.1804361"><ele>155.0</ele><time>2026-04-04T09:48:15.012Z</time></trkpt><trkpt lat="42.3707531" lon="11.1805473"><ele>155.0</ele><time>2026-04-04T09:48:16.008Z</time></trkpt><trkpt lat="42.3706704" lon="11.18066"><ele>155.0</ele><time>2026-04-04T09:48:16.998Z</time></trkpt><trkpt lat="42.370592" lon="11.1807655"><ele>155.0</ele><time>2026-04-04T09:48:18.01Z</time></trkpt><trkpt lat="42.3705185" lon="11.180847"><ele>151.66666666666666</ele><time>2026-04-04T09:48:19.014Z</time></trkpt><trkpt lat="42.3704577" lon="11.1809127"><ele>148.33333333333334</ele><time>2026-04-04T09:48:20.017Z</time></trkpt><trkpt lat="42.370401" lon="11.1809721"><ele>145.0</ele><time>2026-04-04T09:48:21.006Z</time></trkpt><trkpt lat="42.3702577" lon="11.18141"><ele>148.83333333333334</ele><time>2026-04-04T09:48:32.207Z</time></trkpt><trkpt lat="42.3703057" lon="11.1815532"><ele>152.66666666666669</ele><time>2026-04-04T09:49:04.61Z</time></trkpt><trkpt lat="42.3703418" lon="11.1816377"><ele>156.5</ele><time>2026-04-04T09:49:05.614Z</time></trkpt><trkpt lat="42.3703778" lon="11.1817179"><ele>160.33333333333334</ele><time>2026-04-04T09:49:06.609Z</time></trkpt><trkpt lat="42.3704248" lon="11.1817835"><ele>164.16666666666666</ele><time>2026-04-04T09:49:07.618Z</time></trkpt><trkpt lat="42.3704899" lon="11.1818433"><ele>168.0</ele><time>2026-04-04T09:49:08.605Z</time></trkpt><trkpt lat="42.3705626" lon="11.1818852"><ele>169.5</ele><time>2026-04-04T09:49:09.613Z</time></trkpt><trkpt lat="42.3706352" lon="11.1819126"><ele>171.0</ele><time>2026-04-04T09:49:10.599Z</time></trkpt><trkpt lat="42.3707162" lon="11.1819234"><ele>172.5</ele><time>2026-04-04T09:49:11.6Z</time></trkpt><trkpt lat="42.3708022" lon="11.1819365"><ele>174.0</ele><time>2026-04-04T09:49:12.611Z</time></trkpt><trkpt lat="42.3708935" lon="11.1819437"><ele>175.5</ele><time>2026-04-04T09:49:13.605Z</time></trkpt><trkpt lat="42.3709657" lon="11.1819582"><ele>177.0</ele><time>2026-04-04T09:49:14.604Z</time></trkpt><trkpt lat="42.3710321" lon="11.1819746"><ele>177.0</ele><time>2026-04-04T09:49:15.61Z</time></trkpt><trkpt lat="42.3711208" lon="11.1819647"><ele>177.0</ele><time>2026-04-04T09:49:17.611Z</time></trkpt><trkpt lat="42.3712423" lon="11.1819544"><ele>177.0</ele><time>2026-04-04T09:49:20.605Z</time></trkpt><trkpt lat="42.3713073" lon="11.181956"><ele>177.0</ele><time>2026-04-04T09:49:21.613Z</time></trkpt><trkpt lat="42.3713714" lon="11.1819641"><ele>177.0</ele><time>2026-04-04T09:49:22.617Z</time></trkpt><trkpt lat="42.3714993" lon="11.1819707"><ele>176.5</ele><time>2026-04-04T09:49:24.609Z</time></trkpt><trkpt lat="42.3715677" lon="11.1819757"><ele>176.0</ele><time>2026-04-04T09:49:25.605Z</time></trkpt><trkpt lat="42.3716424" lon="11.1819811"><ele>175.5</ele><time>2026-04-04T09:49:26.614Z</time></trkpt><trkpt lat="42.3717171" lon="11.1819871"><ele>175.0</ele><time>2026-04-04T09:49:27.607Z</time></trkpt><trkpt lat="42.3717937" lon="11.1820009"><ele>174.5</ele><time>2026-04-04T09:49:28.602Z</time></trkpt><trkpt lat="42.3718789" lon="11.1820151"><ele>174.0</ele><time>2026-04-04T09:49:29.619Z</time></trkpt><trkpt lat="42.3719799" lon="11.1820456"><ele>174.0</ele><time>2026-04-04T09:49:30.608Z</time></trkpt><trkpt lat="42.3720932" lon="11.1820824"><ele>174.0</ele><time>2026-04-04T09:49:31.607Z</time></trkpt><trkpt lat="42.3722024" lon="11.1821074"><ele>174.0</ele><time>2026-04-04T09:49:32.612Z</time></trkpt><trkpt lat="42.3723034" lon="11.1821456"><ele>174.0</ele><time>2026-04-04T09:49:33.61Z</time></trkpt><trkpt lat="42.3723986" lon="11.1821826"><ele>174.0</ele><time>2026-04-04T09:49:34.612Z</time></trkpt><trkpt lat="42.372488" lon="11.1822256"><ele>172.83333333333334</ele><time>2026-04-04T09:49:35.633Z</time></trkpt><trkpt lat="42.3725771" lon="11.1822691"><ele>171.66666666666666</ele><time>2026-04-04T09:49:36.605Z</time></trkpt><trkpt lat="42.3726626" lon="11.1823051"><ele>170.5</ele><time>2026-04-04T09:49:37.618Z</time></trkpt><trkpt lat="42.372739" lon="11.1823313"><ele>169.33333333333331</ele><time>2026-04-04T09:49:38.614Z</time></trkpt><trkpt lat="42.3728097" lon="11.182344"><ele>168.16666666666666</ele><time>2026-04-04T09:49:39.609Z</time></trkpt><trkpt lat="42.3728872" lon="11.1823564"><ele>167.0</ele><time>2026-04-04T09:49:40.607Z</time></trkpt><trkpt lat="42.3729698" lon="11.1823519"><ele>165.2</ele><time>2026-04-04T09:49:41.608Z</time></trkpt><trkpt lat="42.373045" lon="11.1823145"><ele>163.39999999999998</ele><time>2026-04-04T09:49:42.607Z</time></trkpt><trkpt lat="42.3731273" lon="11.1822523"><ele>161.60000000000002</ele><time>2026-04-04T09:49:43.61Z</time></trkpt><trkpt lat="42.3732272" lon="11.1821645"><ele>159.8</ele><time>2026-04-04T09:49:44.616Z</time></trkpt><trkpt lat="42.3733182" lon="11.1820738"><ele>158.0</ele><time>2026-04-04T09:49:45.61Z</time></trkpt><trkpt lat="42.3734047" lon="11.1820172"><ele>158.0</ele><time>2026-04-04T09:49:46.613Z</time></trkpt><trkpt lat="42.3734967" lon="11.18197"><ele>158.0</ele><time>2026-04-04T09:49:47.606Z</time></trkpt><trkpt lat="42.3735814" lon="11.1819293"><ele>158.0</ele><time>2026-04-04T09:49:48.608Z</time></trkpt><trkpt lat="42.3736629" lon="11.1818905"><ele>158.0</ele><time>2026-04-04T09:49:49.605Z</time></trkpt><trkpt lat="42.3737329" lon="11.1818633"><ele>158.0</ele><time>2026-04-04T09:49:50.6Z</time></trkpt><trkpt lat="42.3738347" lon="11.1818457"><ele>160.8</ele><time>2026-04-04T09:49:52.61Z</time></trkpt><trkpt lat="42.3739015" lon="11.1819448"><ele>163.60000000000002</ele><time>2026-04-04T09:49:54.604Z</time></trkpt><trkpt lat="42.3739051" lon="11.1821306"><ele>166.39999999999998</ele><time>2026-04-04T09:49:56.605Z</time></trkpt><trkpt lat="42.3738858" lon="11.1822399"><ele>169.2</ele><time>2026-04-04T09:49:57.606Z</time></trkpt><trkpt lat="42.3738503" lon="11.1823643"><ele>172.0</ele><time>2026-04-04T09:49:59.61Z</time></trkpt><trkpt lat="42.3737666" lon="11.1824313"><ele>166.33333333333334</ele><time>2026-04-04T09:50:01.605Z</time></trkpt><trkpt lat="42.3736968" lon="11.1824411"><ele>160.66666666666669</ele><time>2026-04-04T09:50:02.61Z</time></trkpt><trkpt lat="42.3736182" lon="11.1824593"><ele>155.0</ele><time>2026-04-04T09:50:03.599Z</time></trkpt><trkpt lat="42.3735197" lon="11.1825074"><ele>149.33333333333334</ele><time>2026-04-04T09:50:05.619Z</time></trkpt><trkpt lat="42.3735165" lon="11.182608"><ele>143.66666666666666</ele><time>2026-04-04T09:50:32.603Z</time></trkpt><trkpt lat="42.3735141" lon="11.1827161"><ele>138.0</ele><time>2026-04-04T09:50:35.614Z</time></trkpt><trkpt lat="42.3735241" lon="11.1828189"><ele>138.0</ele><time>2026-04-04T09:50:37.608Z</time></trkpt><trkpt lat="42.3735765" lon="11.1828895"><ele>138.0</ele><time>2026-04-04T09:50:39.606Z</time></trkpt><trkpt lat="42.3736763" lon="11.1829333"><ele>138.0</ele><time>2026-04-04T09:50:41.603Z</time></trkpt><trkpt lat="42.3737945" lon="11.1829786"><ele>138.0</ele><time>2026-04-04T09:50:43.605Z</time></trkpt><trkpt lat="42.3739123" lon="11.1830559"><ele>138.0</ele><time>2026-04-04T09:50:45.604Z</time></trkpt><trkpt lat="42.3739762" lon="11.1831061"><ele>139.5</ele><time>2026-04-04T09:50:46.609Z</time></trkpt><trkpt lat="42.3740352" lon="11.1831608"><ele>141.0</ele><time>2026-04-04T09:50:47.605Z</time></trkpt><trkpt lat="42.3740925" lon="11.1832226"><ele>142.5</ele><time>2026-04-04T09:50:48.614Z</time></trkpt><trkpt lat="42.3741721" lon="11.1833404"><ele>144.0</ele><time>2026-04-04T09:50:50.608Z</time></trkpt><trkpt lat="42.3742204" lon="11.1834329"><ele>145.5</ele><time>2026-04-04T09:50:52.611Z</time></trkpt><trkpt lat="42.3741853" lon="11.1835371"><ele>147.0</ele><time>2026-04-04T09:50:54.621Z</time></trkpt><trkpt lat="42.3740745" lon="11.1835617"><ele>143.16666666666666</ele><time>2026-04-04T09:50:56.598Z</time></trkpt><trkpt lat="42.3739604" lon="11.183637"><ele>139.33333333333334</ele><time>2026-04-04T09:50:58.611Z</time></trkpt><trkpt lat="42.3739045" lon="11.1837087"><ele>135.5</ele><time>2026-04-04T09:50:59.614Z</time></trkpt><trkpt lat="42.3738593" lon="11.1837924"><ele>131.66666666666669</ele><time>2026-04-04T09:51:00.608Z</time></trkpt><trkpt lat="42.3738115" lon="11.1838724"><ele>127.83333333333334</ele><time>2026-04-04T09:51:01.611Z</time></trkpt><trkpt lat="42.3737711" lon="11.1839417"><ele>124.0</ele><time>2026-04-04T09:51:02.607Z</time></trkpt><trkpt lat="42.3737466" lon="11.1840524"><ele>120.4</ele><time>2026-04-04T09:51:04.613Z</time></trkpt><trkpt lat="42.3738003" lon="11.1841389"><ele>116.80000000000001</ele><time>2026-04-04T09:51:06.603Z</time></trkpt><trkpt lat="42.3739225" lon="11.1842165"><ele>113.19999999999999</ele><time>2026-04-04T09:51:08.607Z</time></trkpt><trkpt lat="42.373999" lon="11.1842709"><ele>109.6</ele><time>2026-04-04T09:51:09.619Z</time></trkpt><trkpt lat="42.3740744" lon="11.1843233"><ele>106.0</ele><time>2026-04-04T09:51:10.604Z</time></trkpt><trkpt lat="42.3741457" lon="11.1843691"><ele>104.85714285714286</ele><time>2026-04-04T09:51:11.615Z</time></trkpt><trkpt lat="42.3742029" lon="11.1844297"><ele>103.71428571428571</ele><time>2026-04-04T09:51:12.602Z</time></trkpt><trkpt lat="42.3742431" lon="11.1845078"><ele>102.57142857142857</ele><time>2026-04-04T09:51:13.62Z</time></trkpt><trkpt lat="42.3742373" lon="11.1845961"><ele>101.42857142857143</ele><time>2026-04-04T09:51:16.609Z</time></trkpt><trkpt lat="42.3742356" lon="11.1846823"><ele>100.28571428571428</ele><time>2026-04-04T09:51:23.602Z</time></trkpt><trkpt lat="42.374249" lon="11.1847979"><ele>99.14285714285714</ele><time>2026-04-04T09:51:26.609Z</time></trkpt><trkpt lat="42.3742597" lon="11.1849024"><ele>98.0</ele><time>2026-04-04T09:51:28.613Z</time></trkpt><trkpt lat="42.3742747" lon="11.1850412"><ele>94.49999999999999</ele><time>2026-04-04T09:51:30.605Z</time></trkpt><trkpt lat="42.3743172" lon="11.1851896"><ele>91.0</ele><time>2026-04-04T09:51:32.608Z</time></trkpt><trkpt lat="42.3743506" lon="11.1852637"><ele>87.5</ele><time>2026-04-04T09:51:33.604Z</time></trkpt><trkpt lat="42.3743926" lon="11.1853454"><ele>84.0</ele><time>2026-04-04T09:51:34.607Z</time></trkpt><trkpt lat="42.374438" lon="11.1854315"><ele>80.5</ele><time>2026-04-04T09:51:35.608Z</time></trkpt><trkpt lat="42.3744949" lon="11.1855174"><ele>77.0</ele><time>2026-04-04T09:51:36.607Z</time></trkpt><trkpt lat="42.3745454" lon="11.1856111"><ele>76.0</ele><time>2026-04-04T09:51:37.611Z</time></trkpt><trkpt lat="42.3745954" lon="11.1856998"><ele>75.0</ele><time>2026-04-04T09:51:38.607Z</time></trkpt><trkpt lat="42.3746412" lon="11.1857837"><ele>74.0</ele><time>2026-04-04T09:51:39.608Z</time></trkpt><trkpt lat="42.3746941" lon="11.1858545"><ele>73.0</ele><time>2026-04-04T09:51:40.608Z</time></trkpt><trkpt lat="42.3747483" lon="11.1859258"><ele>72.0</ele><time>2026-04-04T09:51:41.611Z</time></trkpt><trkpt lat="42.3747993" lon="11.1859967"><ele>71.0</ele><time>2026-04-04T09:51:42.605Z</time></trkpt><trkpt lat="42.3748451" lon="11.1860783"><ele>71.0</ele><time>2026-04-04T09:51:43.605Z</time></trkpt><trkpt lat="42.3748759" lon="11.1861699"><ele>71.0</ele><time>2026-04-04T09:51:44.608Z</time></trkpt><trkpt lat="42.3748968" lon="11.1862639"><ele>71.0</ele><time>2026-04-04T09:51:45.612Z</time></trkpt><trkpt lat="42.374912" lon="11.1863542"><ele>71.0</ele><time>2026-04-04T09:51:46.612Z</time></trkpt><trkpt lat="42.3749199" lon="11.1864472"><ele>71.0</ele><time>2026-04-04T09:51:47.602Z</time></trkpt><trkpt lat="42.374938" lon="11.1865853"><ele>71.0</ele><time>2026-04-04T09:51:49.616Z</time></trkpt><trkpt lat="42.3749744" lon="11.1866864"><ele>69.66666666666667</ele><time>2026-04-04T09:51:51.605Z</time></trkpt><trkpt lat="42.3750279" lon="11.1867538"><ele>68.33333333333334</ele><time>2026-04-04T09:51:53.607Z</time></trkpt><trkpt lat="42.375081" lon="11.1868414"><ele>67.0</ele><time>2026-04-04T09:51:55.604Z</time></trkpt><trkpt lat="42.3751311" lon="11.186965"><ele>65.66666666666667</ele><time>2026-04-04T09:51:57.603Z</time></trkpt><trkpt lat="42.3752131" lon="11.1870268"><ele>64.33333333333333</ele><time>2026-04-04T09:51:59.608Z</time></trkpt><trkpt lat="42.3753027" lon="11.1870202"><ele>63.0</ele><time>2026-04-04T09:52:01.603Z</time></trkpt><trkpt lat="42.3753983" lon="11.1869589"><ele>63.0</ele><time>2026-04-04T09:52:03.616Z</time></trkpt><trkpt lat="42.3754584" lon="11.1869198"><ele>63.0</ele><time>2026-04-04T09:52:04.611Z</time></trkpt><trkpt lat="42.3755301" lon="11.1868875"><ele>63.0</ele><time>2026-04-04T09:52:05.607Z</time></trkpt><trkpt lat="42.3756342" lon="11.1868557"><ele>63.0</ele><time>2026-04-04T09:52:06.605Z</time></trkpt><trkpt lat="42.3757621" lon="11.1868206"><ele>63.0</ele><time>2026-04-04T09:52:07.609Z</time></trkpt><trkpt lat="42.3758935" lon="11.1867856"><ele>67.0</ele><time>2026-04-04T09:52:08.609Z</time></trkpt><trkpt lat="42.3760082" lon="11.1867539"><ele>71.0</ele><time>2026-04-04T09:52:09.601Z</time></trkpt><trkpt lat="42.3761046" lon="11.1867162"><ele>75.0</ele><time>2026-04-04T09:52:10.613Z</time></trkpt><trkpt lat="42.3761939" lon="11.1866487"><ele>79.0</ele><time>2026-04-04T09:52:11.6Z</time></trkpt><trkpt lat="42.3762685" lon="11.186571"><ele>83.0</ele><time>2026-04-04T09:52:12.607Z</time></trkpt><trkpt lat="42.3763334" lon="11.1864712"><ele>89.80000000000001</ele><time>2026-04-04T09:52:13.612Z</time></trkpt><trkpt lat="42.3763602" lon="11.1863342"><ele>96.6</ele><time>2026-04-04T09:52:14.617Z</time></trkpt><trkpt lat="42.3763699" lon="11.1861711"><ele>103.39999999999999</ele><time>2026-04-04T09:52:15.619Z</time></trkpt><trkpt lat="42.3763599" lon="11.1860478"><ele>110.19999999999999</ele><time>2026-04-04T09:52:16.605Z</time></trkpt><trkpt lat="42.3763965" lon="11.1859638"><ele>117.0</ele><time>2026-04-04T09:52:18.612Z</time></trkpt><trkpt lat="42.3764991" lon="11.1860399"><ele>117.0</ele><time>2026-04-04T09:52:20.619Z</time></trkpt><trkpt lat="42.3765341" lon="11.1861553"><ele>116.99999999999999</ele><time>2026-04-04T09:52:21.611Z</time></trkpt><trkpt lat="42.3765777" lon="11.1863201"><ele>116.99999999999999</ele><time>2026-04-04T09:52:22.601Z</time></trkpt><trkpt lat="42.3766268" lon="11.1864606"><ele>117.0</ele><time>2026-04-04T09:52:23.605Z</time></trkpt><trkpt lat="42.376685" lon="11.1865309"><ele>117.0</ele><time>2026-04-04T09:52:24.608Z</time></trkpt><trkpt lat="42.3768022" lon="11.1865013"><ele>117.0</ele><time>2026-04-04T09:52:26.606Z</time></trkpt><trkpt lat="42.3768497" lon="11.1864264"><ele>117.0</ele><time>2026-04-04T09:52:27.61Z</time></trkpt><trkpt lat="42.3769013" lon="11.1862745"><ele>117.0</ele><time>2026-04-04T09:52:28.609Z</time></trkpt><trkpt lat="42.3769619" lon="11.1860908"><ele>117.0</ele><time>2026-04-04T09:52:29.609Z</time></trkpt><trkpt lat="42.3770326" lon="11.1859547"><ele>117.0</ele><time>2026-04-04T09:52:30.607Z</time></trkpt><trkpt lat="42.3770998" lon="11.1858792"><ele>116.99999999999999</ele><time>2026-04-04T09:52:31.612Z</time></trkpt><trkpt lat="42.3771775" lon="11.1858431"><ele>116.99999999999999</ele><time>2026-04-04T09:52:32.618Z</time></trkpt><trkpt lat="42.3772734" lon="11.1858079"><ele>117.0</ele><time>2026-04-04T09:52:33.609Z</time></trkpt><trkpt lat="42.3774178" lon="11.1857771"><ele>117.0</ele><time>2026-04-04T09:52:34.609Z</time></trkpt><trkpt lat="42.3775941" lon="11.1857488"><ele>121.0</ele><time>2026-04-04T09:52:35.61Z</time></trkpt><trkpt lat="42.3777747" lon="11.1857216"><ele>125.0</ele><time>2026-04-04T09:52:36.606Z</time></trkpt><trkpt lat="42.3779426" lon="11.1857023"><ele>129.0</ele><time>2026-04-04T09:52:37.61Z</time></trkpt><trkpt lat="42.3780791" lon="11.1856921"><ele>130.2</ele><time>2026-04-04T09:52:38.613Z</time></trkpt><trkpt lat="42.3782024" lon="11.1856945"><ele>131.4</ele><time>2026-04-04T09:52:39.612Z</time></trkpt><trkpt lat="42.3783167" lon="11.1856985"><ele>132.6</ele><time>2026-04-04T09:52:40.618Z</time></trkpt><trkpt lat="42.3784228" lon="11.1857095"><ele>133.8</ele><time>2026-04-04T09:52:41.604Z</time></trkpt><trkpt lat="42.3785278" lon="11.1857221"><ele>135.0</ele><time>2026-04-04T09:52:42.605Z</time></trkpt><trkpt lat="42.3786192" lon="11.185738"><ele>135.0</ele><time>2026-04-04T09:52:43.615Z</time></trkpt><trkpt lat="42.378711" lon="11.185753"><ele>135.0</ele><time>2026-04-04T09:52:44.61Z</time></trkpt><trkpt lat="42.3788079" lon="11.1857751"><ele>135.0</ele><time>2026-04-04T09:52:45.622Z</time></trkpt><trkpt lat="42.3789146" lon="11.1857888"><ele>135.0</ele><time>2026-04-04T09:52:46.607Z</time></trkpt><trkpt lat="42.3790298" lon="11.1857955"><ele>135.0</ele><time>2026-04-04T09:52:47.611Z</time></trkpt><trkpt lat="42.3791436" lon="11.185808"><ele>134.8</ele><time>2026-04-04T09:52:48.615Z</time></trkpt><trkpt lat="42.3792526" lon="11.1858291"><ele>134.6</ele><time>2026-04-04T09:52:49.607Z</time></trkpt><trkpt lat="42.3793609" lon="11.1858648"><ele>134.4</ele><time>2026-04-04T09:52:50.617Z</time></trkpt><trkpt lat="42.3794683" lon="11.1859069"><ele>134.2</ele><time>2026-04-04T09:52:51.619Z</time></trkpt><trkpt lat="42.3795702" lon="11.1859435"><ele>134.0</ele><time>2026-04-04T09:52:52.612Z</time></trkpt><trkpt lat="42.3796727" lon="11.1859803"><ele>133.25</ele><time>2026-04-04T09:52:53.618Z</time></trkpt><trkpt lat="42.379792" lon="11.1859913"><ele>132.5</ele><time>2026-04-04T09:52:54.615Z</time></trkpt><trkpt lat="42.3799224" lon="11.1859804"><ele>131.75</ele><time>2026-04-04T09:52:55.602Z</time></trkpt><trkpt lat="42.3800552" lon="11.1859579"><ele>131.0</ele><time>2026-04-04T09:52:56.615Z</time></trkpt><trkpt lat="42.3801968" lon="11.1859281"><ele>131.0</ele><time>2026-04-04T09:52:57.615Z</time></trkpt><trkpt lat="42.3803321" lon="11.1859274"><ele>131.0</ele><time>2026-04-04T09:52:58.598Z</time></trkpt><trkpt lat="42.3804604" lon="11.185969"><ele>131.0</ele><time>2026-04-04T09:52:59.613Z</time></trkpt><trkpt lat="42.3805919" lon="11.1860386"><ele>131.0</ele><time>2026-04-04T09:53:00.609Z</time></trkpt><trkpt lat="42.3807044" lon="11.1861234"><ele>132.25</ele><time>2026-04-04T09:53:01.608Z</time></trkpt><trkpt lat="42.3808144" lon="11.1862237"><ele>133.5</ele><time>2026-04-04T09:53:02.608Z</time></trkpt><trkpt lat="42.3809309" lon="11.1863301"><ele>134.75</ele><time>2026-04-04T09:53:03.62Z</time></trkpt><trkpt lat="42.3810444" lon="11.1864251"><ele>136.0</ele><time>2026-04-04T09:53:04.614Z</time></trkpt><trkpt lat="42.3811579" lon="11.1865209"><ele>133.0</ele><time>2026-04-04T09:53:05.615Z</time></trkpt><trkpt lat="42.3812619" lon="11.1866134"><ele>130.0</ele><time>2026-04-04T09:53:06.606Z</time></trkpt><trkpt lat="42.3813598" lon="11.1866974"><ele>127.0</ele><time>2026-04-04T09:53:07.605Z</time></trkpt><trkpt lat="42.381461" lon="11.1867932"><ele>124.0</ele><time>2026-04-04T09:53:08.598Z</time></trkpt><trkpt lat="42.3815509" lon="11.1868983"><ele>124.0</ele><time>2026-04-04T09:53:09.599Z</time></trkpt><trkpt lat="42.3816316" lon="11.1870065"><ele>124.0</ele><time>2026-04-04T09:53:10.622Z</time></trkpt><trkpt lat="42.3817099" lon="11.1871091"><ele>124.0</ele><time>2026-04-04T09:53:11.603Z</time></trkpt><trkpt lat="42.3817779" lon="11.1872092"><ele>124.0</ele><time>2026-04-04T09:53:12.611Z</time></trkpt><trkpt lat="42.3818459" lon="11.1873058"><ele>124.0</ele><time>2026-04-04T09:53:13.606Z</time></trkpt><trkpt lat="42.3819028" lon="11.1874157"><ele>121.80000000000001</ele><time>2026-04-04T09:53:14.617Z</time></trkpt><trkpt lat="42.3819114" lon="11.1875531"><ele>119.60000000000001</ele><time>2026-04-04T09:53:15.614Z</time></trkpt><trkpt lat="42.3818871" lon="11.1877049"><ele>117.4</ele><time>2026-04-04T09:53:16.615Z</time></trkpt><trkpt lat="42.3818419" lon="11.1878475"><ele>115.2</ele><time>2026-04-04T09:53:17.601Z</time></trkpt><trkpt lat="42.3817776" lon="11.1879722"><ele>113.0</ele><time>2026-04-04T09:53:18.615Z</time></trkpt><trkpt lat="42.381704" lon="11.1880874"><ele>113.0</ele><time>2026-04-04T09:53:19.622Z</time></trkpt><trkpt lat="42.3816311" lon="11.1882005"><ele>113.0</ele><time>2026-04-04T09:53:20.605Z</time></trkpt><trkpt lat="42.3815522" lon="11.1883161"><ele>113.0</ele><time>2026-04-04T09:53:21.618Z</time></trkpt><trkpt lat="42.3814624" lon="11.1884549"><ele>113.0</ele><time>2026-04-04T09:53:22.605Z</time></trkpt><trkpt lat="42.3813705" lon="11.1885934"><ele>106.4</ele><time>2026-04-04T09:53:23.612Z</time></trkpt><trkpt lat="42.3812857" lon="11.1887156"><ele>99.80000000000001</ele><time>2026-04-04T09:53:24.613Z</time></trkpt><trkpt lat="42.3812333" lon="11.188833"><ele>93.2</ele><time>2026-04-04T09:53:25.603Z</time></trkpt><trkpt lat="42.3812129" lon="11.188954"><ele>86.6</ele><time>2026-04-04T09:53:26.625Z</time></trkpt><trkpt lat="42.3812276" lon="11.189087"><ele>80.0</ele><time>2026-04-04T09:53:27.601Z</time></trkpt><trkpt lat="42.3812848" lon="11.1891993"><ele>87.75</ele><time>2026-04-04T09:53:28.611Z</time></trkpt><trkpt lat="42.381372" lon="11.189313"><ele>95.5</ele><time>2026-04-04T09:53:29.605Z</time></trkpt><trkpt lat="42.3814776" lon="11.1894136"><ele>103.25</ele><time>2026-04-04T09:53:30.61Z</time></trkpt><trkpt lat="42.3815634" lon="11.1895234"><ele>111.0</ele><time>2026-04-04T09:53:31.615Z</time></trkpt><trkpt lat="42.3816061" lon="11.1896676"><ele>111.0</ele><time>2026-04-04T09:53:32.626Z</time></trkpt><trkpt lat="42.3816271" lon="11.1898287"><ele>111.0</ele><time>2026-04-04T09:53:33.607Z</time></trkpt><trkpt lat="42.3816479" lon="11.1899776"><ele>111.0</ele><time>2026-04-04T09:53:34.614Z</time></trkpt><trkpt lat="42.3816981" lon="11.1900669"><ele>111.0</ele><time>2026-04-04T09:53:35.613Z</time></trkpt><trkpt lat="42.3817788" lon="11.1901039"><ele>111.0</ele><time>2026-04-04T09:53:36.607Z</time></trkpt><trkpt lat="42.3818665" lon="11.1901014"><ele>111.8</ele><time>2026-04-04T09:53:37.62Z</time></trkpt><trkpt lat="42.3819554" lon="11.1900583"><ele>112.6</ele><time>2026-04-04T09:53:38.605Z</time></trkpt><trkpt lat="42.3820571" lon="11.1899909"><ele>113.4</ele><time>2026-04-04T09:53:39.605Z</time></trkpt><trkpt lat="42.3821637" lon="11.189926"><ele>114.2</ele><time>2026-04-04T09:53:40.603Z</time></trkpt><trkpt lat="42.382259" lon="11.1899056"><ele>115.0</ele><time>2026-04-04T09:53:41.604Z</time></trkpt><trkpt lat="42.3823509" lon="11.1899193"><ele>115.0</ele><time>2026-04-04T09:53:42.613Z</time></trkpt><trkpt lat="42.3824392" lon="11.1899802"><ele>115.0</ele><time>2026-04-04T09:53:43.612Z</time></trkpt><trkpt lat="42.382486" lon="11.1900761"><ele>115.0</ele><time>2026-04-04T09:53:44.618Z</time></trkpt><trkpt lat="42.3824984" lon="11.1902079"><ele>115.0</ele><time>2026-04-04T09:53:45.615Z</time></trkpt><trkpt lat="42.3824805" lon="11.1903671"><ele>115.0</ele><time>2026-04-04T09:53:46.618Z</time></trkpt><trkpt lat="42.3824644" lon="11.19056"><ele>111.0</ele><time>2026-04-04T09:53:47.609Z</time></trkpt><trkpt lat="42.3824499" lon="11.1907677"><ele>107.0</ele><time>2026-04-04T09:53:48.623Z</time></trkpt><trkpt lat="42.3824571" lon="11.190981"><ele>103.0</ele><time>2026-04-04T09:53:49.612Z</time></trkpt><trkpt lat="42.3824672" lon="11.1911898"><ele>103.0</ele><time>2026-04-04T09:53:50.61Z</time></trkpt><trkpt lat="42.3824833" lon="11.1913978"><ele>103.0</ele><time>2026-04-04T09:53:51.603Z</time></trkpt><trkpt lat="42.3825106" lon="11.1915987"><ele>103.0</ele><time>2026-04-04T09:53:52.606Z</time></trkpt><trkpt lat="42.3825448" lon="11.1917865"><ele>103.0</ele><time>2026-04-04T09:53:53.615Z</time></trkpt><trkpt lat="42.3825739" lon="11.1919733"><ele>101.0</ele><time>2026-04-04T09:53:54.612Z</time></trkpt><trkpt lat="42.3826142" lon="11.1921585"><ele>99.0</ele><time>2026-04-04T09:53:55.619Z</time></trkpt><trkpt lat="42.3826718" lon="11.1923237"><ele>97.0</ele><time>2026-04-04T09:53:56.609Z</time></trkpt><trkpt lat="42.3827456" lon="11.1924837"><ele>95.0</ele><time>2026-04-04T09:53:57.608Z</time></trkpt><trkpt lat="42.3828281" lon="11.1926461"><ele>91.33333333333334</ele><time>2026-04-04T09:53:58.603Z</time></trkpt><trkpt lat="42.3829213" lon="11.1928011"><ele>87.66666666666667</ele><time>2026-04-04T09:53:59.611Z</time></trkpt><trkpt lat="42.3830225" lon="11.1929591"><ele>84.0</ele><time>2026-04-04T09:54:00.603Z</time></trkpt><trkpt lat="42.3831299" lon="11.1931023"><ele>88.66666666666666</ele><time>2026-04-04T09:54:01.613Z</time></trkpt><trkpt lat="42.3832513" lon="11.1932357"><ele>93.33333333333333</ele><time>2026-04-04T09:54:02.604Z</time></trkpt><trkpt lat="42.3833875" lon="11.1933547"><ele>98.0</ele><time>2026-04-04T09:54:03.611Z</time></trkpt><trkpt lat="42.3835322" lon="11.1934465"><ele>98.0</ele><time>2026-04-04T09:54:04.605Z</time></trkpt><trkpt lat="42.3836628" lon="11.1935185"><ele>98.0</ele><time>2026-04-04T09:54:05.603Z</time></trkpt><trkpt lat="42.3837707" lon="11.1936238"><ele>98.0</ele><time>2026-04-04T09:54:06.61Z</time></trkpt><trkpt lat="42.3838495" lon="11.1937604"><ele>98.0</ele><time>2026-04-04T09:54:07.602Z</time></trkpt><trkpt lat="42.3838999" lon="11.1939321"><ele>98.5</ele><time>2026-04-04T09:54:08.613Z</time></trkpt><trkpt lat="42.3839263" lon="11.194125"><ele>99.0</ele><time>2026-04-04T09:54:09.617Z</time></trkpt><trkpt lat="42.3839361" lon="11.1943195"><ele>99.5</ele><time>2026-04-04T09:54:10.607Z</time></trkpt><trkpt lat="42.3839596" lon="11.1945053"><ele>100.0</ele><time>2026-04-04T09:54:11.613Z</time></trkpt><trkpt lat="42.3839926" lon="11.1946816"><ele>98.5</ele><time>2026-04-04T09:54:12.622Z</time></trkpt><trkpt lat="42.384037" lon="11.1948456"><ele>97.0</ele><time>2026-04-04T09:54:13.615Z</time></trkpt><trkpt lat="42.3841018" lon="11.1949967"><ele>95.5</ele><time>2026-04-04T09:54:14.609Z</time></trkpt><trkpt lat="42.384171" lon="11.1951302"><ele>94.0</ele><time>2026-04-04T09:54:15.612Z</time></trkpt><trkpt lat="42.3842384" lon="11.1952512"><ele>94.0</ele><time>2026-04-04T09:54:16.615Z</time></trkpt><trkpt lat="42.3842946" lon="11.1953753"><ele>94.0</ele><time>2026-04-04T09:54:17.612Z</time></trkpt><trkpt lat="42.384349" lon="11.1954904"><ele>94.0</ele><time>2026-04-04T09:54:18.621Z</time></trkpt><trkpt lat="42.3844038" lon="11.1956029"><ele>94.0</ele><time>2026-04-04T09:54:19.597Z</time></trkpt><trkpt lat="42.3844496" lon="11.1957014"><ele>94.0</ele><time>2026-04-04T09:54:20.607Z</time></trkpt><trkpt lat="42.384488" lon="11.1957944"><ele>92.83333333333333</ele><time>2026-04-04T09:54:21.604Z</time></trkpt><trkpt lat="42.3845018" lon="11.1958785"><ele>91.66666666666666</ele><time>2026-04-04T09:54:22.61Z</time></trkpt><trkpt lat="42.3844809" lon="11.1960001"><ele>90.5</ele><time>2026-04-04T09:54:24.608Z</time></trkpt><trkpt lat="42.3844813" lon="11.1960856"><ele>89.33333333333333</ele><time>2026-04-04T09:54:29.598Z</time></trkpt><trkpt lat="42.3845187" lon="11.1959594"><ele>88.16666666666667</ele><time>2026-04-04T09:54:32.602Z</time></trkpt><trkpt lat="42.3845036" lon="11.1958197"><ele>87.0</ele><time>2026-04-04T09:54:33.617Z</time></trkpt><trkpt lat="42.384462" lon="11.1956818"><ele>88.16666666666667</ele><time>2026-04-04T09:54:34.611Z</time></trkpt><trkpt lat="42.3844176" lon="11.1955747"><ele>89.33333333333333</ele><time>2026-04-04T09:54:35.604Z</time></trkpt><trkpt lat="42.384373" lon="11.1954807"><ele>90.5</ele><time>2026-04-04T09:54:37.611Z</time></trkpt><trkpt lat="42.3844223" lon="11.1954274"><ele>91.66666666666666</ele><time>2026-04-04T09:54:39.612Z</time></trkpt><trkpt lat="42.384515" lon="11.1954639"><ele>92.83333333333333</ele><time>2026-04-04T09:54:41.607Z</time></trkpt><trkpt lat="42.3846161" lon="11.1954194"><ele>94.0</ele><time>2026-04-04T09:54:43.607Z</time></trkpt><trkpt lat="42.3846748" lon="11.1952541"><ele>94.25</ele><time>2026-04-04T09:54:45.602Z</time></trkpt><trkpt lat="42.3846849" lon="11.1951285"><ele>94.5</ele><time>2026-04-04T09:54:46.615Z</time></trkpt><trkpt lat="42.3846876" lon="11.1949529"><ele>94.75</ele><time>2026-04-04T09:54:47.605Z</time></trkpt><trkpt lat="42.3846902" lon="11.1947488"><ele>95.0</ele><time>2026-04-04T09:54:48.615Z</time></trkpt><trkpt lat="42.3846909" lon="11.1946007"><ele>95.0</ele><time>2026-04-04T09:54:49.612Z</time></trkpt><trkpt lat="42.3846923" lon="11.1945076"><ele>95.0</ele><time>2026-04-04T09:54:50.618Z</time></trkpt><trkpt lat="42.3847696" lon="11.1945406"><ele>95.0</ele><time>2026-04-04T09:55:14.612Z</time></trkpt><trkpt lat="42.3847979" lon="11.1946189"><ele>95.0</ele><time>2026-04-04T09:55:15.613Z</time></trkpt><trkpt lat="42.3848311" lon="11.194708"><ele>95.0</ele><time>2026-04-04T09:55:16.606Z</time></trkpt><trkpt lat="42.3848647" lon="11.1947934"><ele>95.0</ele><time>2026-04-04T09:55:17.611Z</time></trkpt><trkpt lat="42.3849007" lon="11.1948788"><ele>95.0</ele><time>2026-04-04T09:55:18.608Z</time></trkpt><trkpt lat="42.3849313" lon="11.1949633"><ele>96.16666666666667</ele><time>2026-04-04T09:55:19.606Z</time></trkpt><trkpt lat="42.3849506" lon="11.1950576"><ele>97.33333333333334</ele><time>2026-04-04T09:55:20.625Z</time></trkpt><trkpt lat="42.3849708" lon="11.1951596"><ele>98.5</ele><time>2026-04-04T09:55:21.6Z</time></trkpt><trkpt lat="42.3850014" lon="11.195266"><ele>99.66666666666667</ele><time>2026-04-04T09:55:22.613Z</time></trkpt><trkpt lat="42.3850436" lon="11.1953676"><ele>100.83333333333333</ele><time>2026-04-04T09:55:23.611Z</time></trkpt><trkpt lat="42.3850861" lon="11.1954569"><ele>102.0</ele><time>2026-04-04T09:55:24.608Z</time></trkpt><trkpt lat="42.3851123" lon="11.1955429"><ele>102.0</ele><time>2026-04-04T09:55:25.612Z</time></trkpt><trkpt lat="42.38513" lon="11.1956369"><ele>102.0</ele><time>2026-04-04T09:55:26.621Z</time></trkpt><trkpt lat="42.385115" lon="11.1957646"><ele>102.0</ele><time>2026-04-04T09:55:28.603Z</time></trkpt><trkpt lat="42.3850403" lon="11.1958553"><ele>102.0</ele><time>2026-04-04T09:55:30.609Z</time></trkpt><trkpt lat="42.3850159" lon="11.1959654"><ele>102.0</ele><time>2026-04-04T09:55:32.61Z</time></trkpt><trkpt lat="42.3850648" lon="11.1961017"><ele>103.66666666666667</ele><time>2026-04-04T09:55:34.618Z</time></trkpt><trkpt lat="42.3851094" lon="11.1961942"><ele>105.33333333333334</ele><time>2026-04-04T09:55:35.613Z</time></trkpt><trkpt lat="42.385149" lon="11.1963011"><ele>107.0</ele><time>2026-04-04T09:55:36.613Z</time></trkpt><trkpt lat="42.385172" lon="11.1964004"><ele>108.66666666666667</ele><time>2026-04-04T09:55:37.625Z</time></trkpt><trkpt lat="42.3851874" lon="11.1964955"><ele>110.33333333333334</ele><time>2026-04-04T09:55:38.609Z</time></trkpt><trkpt lat="42.3851411" lon="11.1965913"><ele>112.0</ele><time>2026-04-04T09:55:40.606Z</time></trkpt><trkpt lat="42.3850382" lon="11.1966587"><ele>114.39999999999999</ele><time>2026-04-04T09:55:42.604Z</time></trkpt><trkpt lat="42.3849847" lon="11.1967883"><ele>116.79999999999998</ele><time>2026-04-04T09:55:44.61Z</time></trkpt><trkpt lat="42.3850097" lon="11.1969242"><ele>119.2</ele><time>2026-04-04T09:55:46.611Z</time></trkpt><trkpt lat="42.3850418" lon="11.1970749"><ele>121.6</ele><time>2026-04-04T09:55:48.613Z</time></trkpt><trkpt lat="42.3850524" lon="11.19717"><ele>124.0</ele><time>2026-04-04T09:55:49.607Z</time></trkpt><trkpt lat="42.3850605" lon="11.197273"><ele>125.16666666666667</ele><time>2026-04-04T09:55:50.612Z</time></trkpt><trkpt lat="42.3850518" lon="11.1973826"><ele>126.33333333333334</ele><time>2026-04-04T09:55:51.61Z</time></trkpt><trkpt lat="42.3850359" lon="11.1975056"><ele>127.5</ele><time>2026-04-04T09:55:52.608Z</time></trkpt><trkpt lat="42.3850295" lon="11.1976271"><ele>128.66666666666666</ele><time>2026-04-04T09:55:53.611Z</time></trkpt><trkpt lat="42.385034" lon="11.1977295"><ele>129.83333333333331</ele><time>2026-04-04T09:55:54.605Z</time></trkpt><trkpt lat="42.3850453" lon="11.1978405"><ele>131.0</ele><time>2026-04-04T09:55:55.615Z</time></trkpt><trkpt lat="42.3850622" lon="11.1979584"><ele>131.0</ele><time>2026-04-04T09:55:56.606Z</time></trkpt><trkpt lat="42.3850813" lon="11.198074"><ele>131.0</ele><time>2026-04-04T09:55:57.609Z</time></trkpt><trkpt lat="42.385098" lon="11.1981735"><ele>131.0</ele><time>2026-04-04T09:55:58.621Z</time></trkpt><trkpt lat="42.3851291" lon="11.1983236"><ele>131.0</ele><time>2026-04-04T09:56:00.601Z</time></trkpt><trkpt lat="42.3851498" lon="11.1984577"><ele>131.0</ele><time>2026-04-04T09:56:02.607Z</time></trkpt><trkpt lat="42.3851762" lon="11.1986122"><ele>132.83333333333331</ele><time>2026-04-04T09:56:04.61Z</time></trkpt><trkpt lat="42.3851914" lon="11.1986995"><ele>134.66666666666666</ele><time>2026-04-04T09:56:05.612Z</time></trkpt><trkpt lat="42.3851979" lon="11.1987872"><ele>136.5</ele><time>2026-04-04T09:56:06.609Z</time></trkpt><trkpt lat="42.3852059" lon="11.1989492"><ele>138.33333333333334</ele><time>2026-04-04T09:56:08.614Z</time></trkpt><trkpt lat="42.3852094" lon="11.1990867"><ele>140.16666666666669</ele><time>2026-04-04T09:56:10.613Z</time></trkpt><trkpt lat="42.3851638" lon="11.199177"><ele>142.0</ele><time>2026-04-04T09:56:13.604Z</time></trkpt><trkpt lat="42.3850813" lon="11.1992156"><ele>142.0</ele><time>2026-04-04T09:56:15.616Z</time></trkpt><trkpt lat="42.3849933" lon="11.199249"><ele>142.0</ele><time>2026-04-04T09:56:17.609Z</time></trkpt><trkpt lat="42.3850683" lon="11.1992378"><ele>142.0</ele><time>2026-04-04T09:57:30.611Z</time></trkpt><trkpt lat="42.3851407" lon="11.1991622"><ele>142.0</ele><time>2026-04-04T09:57:34.615Z</time></trkpt><trkpt lat="42.3852153" lon="11.1990707"><ele>142.0</ele><time>2026-04-04T09:57:37.611Z</time></trkpt><trkpt lat="42.3852318" lon="11.1989612"><ele>142.0</ele><time>2026-04-04T09:57:39.602Z</time></trkpt><trkpt lat="42.3852235" lon="11.1988614"><ele>142.0</ele><time>2026-04-04T09:57:41.613Z</time></trkpt><trkpt lat="42.3852139" lon="11.1987501"><ele>142.0</ele><time>2026-04-04T09:57:43.605Z</time></trkpt><trkpt lat="42.3852097" lon="11.1986453"><ele>142.0</ele><time>2026-04-04T09:57:45.606Z</time></trkpt><trkpt lat="42.3851982" lon="11.1985478"><ele>142.0</ele><time>2026-04-04T09:57:47.611Z</time></trkpt><trkpt lat="42.3851904" lon="11.19845"><ele>142.0</ele><time>2026-04-04T09:57:49.612Z</time></trkpt><trkpt lat="42.3851628" lon="11.1983244"><ele>142.0</ele><time>2026-04-04T09:57:51.603Z</time></trkpt><trkpt lat="42.3851347" lon="11.198205"><ele>139.79999999999998</ele><time>2026-04-04T09:57:53.619Z</time></trkpt><trkpt lat="42.3850966" lon="11.198048"><ele>137.6</ele><time>2026-04-04T09:57:55.607Z</time></trkpt><trkpt lat="42.3850732" lon="11.197871"><ele>135.39999999999998</ele><time>2026-04-04T09:57:57.613Z</time></trkpt><trkpt lat="42.3850569" lon="11.1977729"><ele>133.2</ele><time>2026-04-04T09:57:58.602Z</time></trkpt><trkpt lat="42.3850476" lon="11.1976684"><ele>131.0</ele><time>2026-04-04T09:57:59.612Z</time></trkpt><trkpt lat="42.3850447" lon="11.1975583"><ele>131.0</ele><time>2026-04-04T09:58:00.602Z</time></trkpt><trkpt lat="42.3850598" lon="11.1974583"><ele>131.0</ele><time>2026-04-04T09:58:01.617Z</time></trkpt><trkpt lat="42.3850791" lon="11.1973637"><ele>131.0</ele><time>2026-04-04T09:58:02.604Z</time></trkpt><trkpt lat="42.3850764" lon="11.1972714"><ele>131.0</ele><time>2026-04-04T09:58:03.602Z</time></trkpt><trkpt lat="42.3850539" lon="11.1971423"><ele>131.0</ele><time>2026-04-04T09:58:05.606Z</time></trkpt><trkpt lat="42.3850349" lon="11.1970348"><ele>131.0</ele><time>2026-04-04T09:58:07.609Z</time></trkpt><trkpt lat="42.3850096" lon="11.1969217"><ele>129.6</ele><time>2026-04-04T09:58:10.609Z</time></trkpt><trkpt lat="42.3849911" lon="11.1968258"><ele>128.2</ele><time>2026-04-04T09:58:12.614Z</time></trkpt><trkpt lat="42.3850114" lon="11.1966845"><ele>126.80000000000001</ele><time>2026-04-04T09:58:14.611Z</time></trkpt><trkpt lat="42.3851105" lon="11.1966034"><ele>125.4</ele><time>2026-04-04T09:58:16.605Z</time></trkpt><trkpt lat="42.3851728" lon="11.1964963"><ele>124.0</ele><time>2026-04-04T09:58:18.607Z</time></trkpt><trkpt lat="42.3851574" lon="11.1963347"><ele>122.00000000000001</ele><time>2026-04-04T09:58:20.608Z</time></trkpt><trkpt lat="42.3851292" lon="11.1962551"><ele>120.0</ele><time>2026-04-04T09:58:21.604Z</time></trkpt><trkpt lat="42.3850881" lon="11.1961706"><ele>118.0</ele><time>2026-04-04T09:58:22.604Z</time></trkpt><trkpt lat="42.3850491" lon="11.1960906"><ele>116.0</ele><time>2026-04-04T09:58:23.602Z</time></trkpt><trkpt lat="42.3850204" lon="11.1959629"><ele>114.00000000000001</ele><time>2026-04-04T09:58:25.607Z</time></trkpt><trkpt lat="42.3850669" lon="11.1958451"><ele>112.0</ele><time>2026-04-04T09:58:27.611Z</time></trkpt><trkpt lat="42.3851305" lon="11.1957354"><ele>110.33333333333334</ele><time>2026-04-04T09:58:29.607Z</time></trkpt><trkpt lat="42.3851223" lon="11.1955909"><ele>108.66666666666667</ele><time>2026-04-04T09:58:31.603Z</time></trkpt><trkpt lat="42.3850979" lon="11.1955106"><ele>107.0</ele><time>2026-04-04T09:58:32.614Z</time></trkpt><trkpt lat="42.3850661" lon="11.1954289"><ele>105.33333333333334</ele><time>2026-04-04T09:58:33.608Z</time></trkpt><trkpt lat="42.3850261" lon="11.1953363"><ele>103.66666666666667</ele><time>2026-04-04T09:58:34.605Z</time></trkpt><trkpt lat="42.3849924" lon="11.1952263"><ele>102.0</ele><time>2026-04-04T09:58:35.619Z</time></trkpt><trkpt lat="42.3849619" lon="11.1951134"><ele>102.0</ele><time>2026-04-04T09:58:36.605Z</time></trkpt><trkpt lat="42.384933" lon="11.1949952"><ele>102.0</ele><time>2026-04-04T09:58:37.609Z</time></trkpt><trkpt lat="42.3849054" lon="11.194878"><ele>102.0</ele><time>2026-04-04T09:58:38.602Z</time></trkpt><trkpt lat="42.3848645" lon="11.1947758"><ele>102.0</ele><time>2026-04-04T09:58:39.619Z</time></trkpt><trkpt lat="42.3848186" lon="11.1946835"><ele>102.0</ele><time>2026-04-04T09:58:40.612Z</time></trkpt><trkpt lat="42.3847783" lon="11.194599"><ele>102.0</ele><time>2026-04-04T09:58:41.611Z</time></trkpt><trkpt lat="42.3847204" lon="11.1944699"><ele>101.66666666666667</ele><time>2026-04-04T09:58:43.616Z</time></trkpt><trkpt lat="42.3846793" lon="11.1943981"><ele>101.33333333333334</ele><time>2026-04-04T09:58:45.607Z</time></trkpt><trkpt lat="42.3846518" lon="11.1943081"><ele>101.0</ele><time>2026-04-04T10:00:07.611Z</time></trkpt><trkpt lat="42.3846344" lon="11.1941718"><ele>100.66666666666667</ele><time>2026-04-04T10:00:09.612Z</time></trkpt><trkpt lat="42.3846236" lon="11.1939982"><ele>100.33333333333334</ele><time>2026-04-04T10:00:11.619Z</time></trkpt><trkpt lat="42.3846352" lon="11.1938991"><ele>100.0</ele><time>2026-04-04T10:00:12.604Z</time></trkpt><trkpt lat="42.3846429" lon="11.1937973"><ele>101.50000000000001</ele><time>2026-04-04T10:00:13.605Z</time></trkpt><trkpt lat="42.384652" lon="11.1937025"><ele>103.0</ele><time>2026-04-04T10:00:14.607Z</time></trkpt><trkpt lat="42.3846875" lon="11.1936179"><ele>104.5</ele><time>2026-04-04T10:00:15.606Z</time></trkpt><trkpt lat="42.3847434" lon="11.1935377"><ele>106.0</ele><time>2026-04-04T10:00:16.605Z</time></trkpt><trkpt lat="42.3848242" lon="11.1935067"><ele>107.50000000000001</ele><time>2026-04-04T10:00:17.611Z</time></trkpt><trkpt lat="42.3849185" lon="11.1935175"><ele>109.0</ele><time>2026-04-04T10:00:18.602Z</time></trkpt><trkpt lat="42.3850285" lon="11.1935591"><ele>109.0</ele><time>2026-04-04T10:00:19.61Z</time></trkpt><trkpt lat="42.385149" lon="11.193619"><ele>109.0</ele><time>2026-04-04T10:00:20.603Z</time></trkpt><trkpt lat="42.3852609" lon="11.1936631"><ele>109.0</ele><time>2026-04-04T10:00:21.605Z</time></trkpt><trkpt lat="42.3853731" lon="11.1937002"><ele>109.0</ele><time>2026-04-04T10:00:22.61Z</time></trkpt><trkpt lat="42.3854889" lon="11.1937443"><ele>108.25</ele><time>2026-04-04T10:00:23.61Z</time></trkpt><trkpt lat="42.3856089" lon="11.1937878"><ele>107.5</ele><time>2026-04-04T10:00:24.605Z</time></trkpt><trkpt lat="42.3857323" lon="11.1938075"><ele>106.75</ele><time>2026-04-04T10:00:25.609Z</time></trkpt><trkpt lat="42.3858861" lon="11.1938004"><ele>106.0</ele><time>2026-04-04T10:00:26.608Z</time></trkpt><trkpt lat="42.386056" lon="11.1937838"><ele>106.0</ele><time>2026-04-04T10:00:27.607Z</time></trkpt><trkpt lat="42.3862065" lon="11.193762"><ele>106.0</ele><time>2026-04-04T10:00:28.605Z</time></trkpt><trkpt lat="42.3863381" lon="11.1937347"><ele>106.0</ele><time>2026-04-04T10:00:29.608Z</time></trkpt><trkpt lat="42.3864643" lon="11.1937063"><ele>106.0</ele><time>2026-04-04T10:00:30.6Z</time></trkpt><trkpt lat="42.3865831" lon="11.1936719"><ele>103.6</ele><time>2026-04-04T10:00:31.607Z</time></trkpt><trkpt lat="42.3866901" lon="11.1936211"><ele>101.19999999999999</ele><time>2026-04-04T10:00:32.61Z</time></trkpt><trkpt lat="42.3867886" lon="11.1935472"><ele>98.80000000000001</ele><time>2026-04-04T10:00:33.608Z</time></trkpt><trkpt lat="42.3868864" lon="11.1934644"><ele>96.4</ele><time>2026-04-04T10:00:34.612Z</time></trkpt><trkpt lat="42.3869662" lon="11.1933903"><ele>94.0</ele><time>2026-04-04T10:00:35.608Z</time></trkpt><trkpt lat="42.3871056" lon="11.1933904"><ele>93.0</ele><time>2026-04-04T10:00:37.61Z</time></trkpt><trkpt lat="42.3872072" lon="11.1934837"><ele>92.0</ele><time>2026-04-04T10:00:38.609Z</time></trkpt><trkpt lat="42.387319" lon="11.1935929"><ele>91.0</ele><time>2026-04-04T10:00:39.604Z</time></trkpt><trkpt lat="42.3874175" lon="11.1936962"><ele>90.0</ele><time>2026-04-04T10:00:40.612Z</time></trkpt><trkpt lat="42.3875163" lon="11.1937905"><ele>90.0</ele><time>2026-04-04T10:00:41.601Z</time></trkpt><trkpt lat="42.3876013" lon="11.1938596"><ele>90.0</ele><time>2026-04-04T10:00:42.609Z</time></trkpt><trkpt lat="42.3876775" lon="11.1939268"><ele>90.0</ele><time>2026-04-04T10:00:43.598Z</time></trkpt><trkpt lat="42.387758" lon="11.1939721"><ele>90.0</ele><time>2026-04-04T10:00:44.605Z</time></trkpt><trkpt lat="42.3878518" lon="11.1939977"><ele>90.0</ele><time>2026-04-04T10:00:45.601Z</time></trkpt><trkpt lat="42.3879714" lon="11.1940061"><ele>88.75</ele><time>2026-04-04T10:00:46.611Z</time></trkpt><trkpt lat="42.3880935" lon="11.1940052"><ele>87.5</ele><time>2026-04-04T10:00:47.606Z</time></trkpt><trkpt lat="42.388237" lon="11.1940028"><ele>86.25</ele><time>2026-04-04T10:00:48.606Z</time></trkpt><trkpt lat="42.3883972" lon="11.1940086"><ele>85.0</ele><time>2026-04-04T10:00:49.607Z</time></trkpt><trkpt lat="42.3885592" lon="11.1940228"><ele>81.33333333333333</ele><time>2026-04-04T10:00:50.619Z</time></trkpt><trkpt lat="42.3887289" lon="11.1940475"><ele>77.66666666666667</ele><time>2026-04-04T10:00:51.605Z</time></trkpt><trkpt lat="42.3889039" lon="11.194078"><ele>74.0</ele><time>2026-04-04T10:00:52.62Z</time></trkpt><trkpt lat="42.3890746" lon="11.1941158"><ele>71.66666666666667</ele><time>2026-04-04T10:00:53.643Z</time></trkpt><trkpt lat="42.389244" lon="11.1941542"><ele>69.33333333333333</ele><time>2026-04-04T10:00:54.606Z</time></trkpt><trkpt lat="42.3894151" lon="11.1941865"><ele>67.0</ele><time>2026-04-04T10:00:55.605Z</time></trkpt><trkpt lat="42.3895713" lon="11.1942241"><ele>64.33333333333333</ele><time>2026-04-04T10:00:56.605Z</time></trkpt><trkpt lat="42.3897312" lon="11.1942589"><ele>61.66666666666667</ele><time>2026-04-04T10:00:57.606Z</time></trkpt><trkpt lat="42.3898852" lon="11.1942909"><ele>59.0</ele><time>2026-04-04T10:00:58.607Z</time></trkpt><trkpt lat="42.3900344" lon="11.1943248"><ele>59.0</ele><time>2026-04-04T10:00:59.604Z</time></trkpt><trkpt lat="42.3901772" lon="11.1943597"><ele>59.0</ele><time>2026-04-04T10:01:00.613Z</time></trkpt><trkpt lat="42.3903056" lon="11.1944082"><ele>59.0</ele><time>2026-04-04T10:01:01.607Z</time></trkpt><trkpt lat="42.3904194" lon="11.1944961"><ele>59.0</ele><time>2026-04-04T10:01:02.621Z</time></trkpt><trkpt lat="42.3905366" lon="11.1946322"><ele>56.333333333333336</ele><time>2026-04-04T10:01:03.596Z</time></trkpt><trkpt lat="42.3906468" lon="11.1947919"><ele>53.66666666666667</ele><time>2026-04-04T10:01:04.605Z</time></trkpt><trkpt lat="42.3907495" lon="11.1949508"><ele>51.0</ele><time>2026-04-04T10:01:05.6Z</time></trkpt><trkpt lat="42.3908526" lon="11.1951005"><ele>51.0</ele><time>2026-04-04T10:01:06.605Z</time></trkpt><trkpt lat="42.3909511" lon="11.1952463"><ele>51.0</ele><time>2026-04-04T10:01:07.623Z</time></trkpt><trkpt lat="42.39105" lon="11.1953751"><ele>51.0</ele><time>2026-04-04T10:01:08.61Z</time></trkpt><trkpt lat="42.3911489" lon="11.1954981"><ele>51.0</ele><time>2026-04-04T10:01:09.61Z</time></trkpt><trkpt lat="42.3912512" lon="11.1956237"><ele>49.5</ele><time>2026-04-04T10:01:10.61Z</time></trkpt><trkpt lat="42.3913597" lon="11.1957571"><ele>48.0</ele><time>2026-04-04T10:01:11.61Z</time></trkpt><trkpt lat="42.3914773" lon="11.1958817"><ele>46.5</ele><time>2026-04-04T10:01:12.614Z</time></trkpt><trkpt lat="42.3916124" lon="11.1959752"><ele>45.0</ele><time>2026-04-04T10:01:13.608Z</time></trkpt><trkpt lat="42.3917529" lon="11.196045"><ele>45.0</ele><time>2026-04-04T10:01:14.603Z</time></trkpt><trkpt lat="42.3919004" lon="11.1961027"><ele>45.0</ele><time>2026-04-04T10:01:15.609Z</time></trkpt><trkpt lat="42.3920487" lon="11.1961552"><ele>45.0</ele><time>2026-04-04T10:01:16.61Z</time></trkpt><trkpt lat="42.3922016" lon="11.1962105"><ele>43.333333333333336</ele><time>2026-04-04T10:01:17.603Z</time></trkpt><trkpt lat="42.3923517" lon="11.1962766"><ele>41.66666666666667</ele><time>2026-04-04T10:01:18.605Z</time></trkpt><trkpt lat="42.3924921" lon="11.1963549"><ele>40.0</ele><time>2026-04-04T10:01:19.616Z</time></trkpt><trkpt lat="42.3926307" lon="11.1964345"><ele>39.25</ele><time>2026-04-04T10:01:20.611Z</time></trkpt><trkpt lat="42.3927705" lon="11.1965229"><ele>38.5</ele><time>2026-04-04T10:01:21.604Z</time></trkpt><trkpt lat="42.3928977" lon="11.1966179"><ele>37.75</ele><time>2026-04-04T10:01:22.606Z</time></trkpt><trkpt lat="42.3930136" lon="11.196724"><ele>37.0</ele><time>2026-04-04T10:01:23.612Z</time></trkpt><trkpt lat="42.3931211" lon="11.1968408"><ele>37.0</ele><time>2026-04-04T10:01:24.605Z</time></trkpt><trkpt lat="42.3932282" lon="11.1969548"><ele>37.0</ele><time>2026-04-04T10:01:25.608Z</time></trkpt><trkpt lat="42.393325" lon="11.1970771"><ele>37.0</ele><time>2026-04-04T10:01:26.61Z</time></trkpt><trkpt lat="42.3934145" lon="11.1972123"><ele>37.0</ele><time>2026-04-04T10:01:27.6Z</time></trkpt><trkpt lat="42.3935043" lon="11.1973489"><ele>38.75</ele><time>2026-04-04T10:01:28.599Z</time></trkpt><trkpt lat="42.3935912" lon="11.1974865"><ele>40.5</ele><time>2026-04-04T10:01:29.612Z</time></trkpt><trkpt lat="42.3936757" lon="11.1976181"><ele>42.25</ele><time>2026-04-04T10:01:30.613Z</time></trkpt><trkpt lat="42.3937646" lon="11.1977457"><ele>44.0</ele><time>2026-04-04T10:01:31.615Z</time></trkpt><trkpt lat="42.3938614" lon="11.1978693"><ele>43.25</ele><time>2026-04-04T10:01:32.61Z</time></trkpt><trkpt lat="42.3939721" lon="11.1979779"><ele>42.5</ele><time>2026-04-04T10:01:33.603Z</time></trkpt><trkpt lat="42.3940908" lon="11.198059"><ele>41.75</ele><time>2026-04-04T10:01:34.603Z</time></trkpt><trkpt lat="42.3942187" lon="11.1981221"><ele>41.0</ele><time>2026-04-04T10:01:35.612Z</time></trkpt><trkpt lat="42.3943479" lon="11.1981714"><ele>41.0</ele><time>2026-04-04T10:01:36.601Z</time></trkpt><trkpt lat="42.3944768" lon="11.198201"><ele>41.0</ele><time>2026-04-04T10:01:37.609Z</time></trkpt><trkpt lat="42.3945999" lon="11.1982191"><ele>41.0</ele><time>2026-04-04T10:01:38.609Z</time></trkpt><trkpt lat="42.3947142" lon="11.1982168"><ele>41.0</ele><time>2026-04-04T10:01:39.6Z</time></trkpt><trkpt lat="42.3948304" lon="11.1982099"><ele>40.0</ele><time>2026-04-04T10:01:40.61Z</time></trkpt><trkpt lat="42.3949381" lon="11.1982267"><ele>39.0</ele><time>2026-04-04T10:01:41.602Z</time></trkpt><trkpt lat="42.3950433" lon="11.1982668"><ele>38.0</ele><time>2026-04-04T10:01:42.617Z</time></trkpt><trkpt lat="42.3951453" lon="11.1983199"><ele>37.0</ele><time>2026-04-04T10:01:43.606Z</time></trkpt><trkpt lat="42.3952394" lon="11.1983878"><ele>36.0</ele><time>2026-04-04T10:01:44.603Z</time></trkpt><trkpt lat="42.395328" lon="11.1984731"><ele>36.0</ele><time>2026-04-04T10:01:45.613Z</time></trkpt><trkpt lat="42.3954128" lon="11.1985738"><ele>36.0</ele><time>2026-04-04T10:01:46.61Z</time></trkpt><trkpt lat="42.3954838" lon="11.1986804"><ele>36.0</ele><time>2026-04-04T10:01:47.614Z</time></trkpt><trkpt lat="42.395548" lon="11.1988015"><ele>36.0</ele><time>2026-04-04T10:01:48.602Z</time></trkpt><trkpt lat="42.3956084" lon="11.198931"><ele>36.0</ele><time>2026-04-04T10:01:49.612Z</time></trkpt><trkpt lat="42.3956593" lon="11.199078"><ele>34.0</ele><time>2026-04-04T10:01:50.606Z</time></trkpt><trkpt lat="42.3956979" lon="11.1992311"><ele>32.0</ele><time>2026-04-04T10:01:51.607Z</time></trkpt><trkpt lat="42.3957477" lon="11.1993678"><ele>30.0</ele><time>2026-04-04T10:01:52.635Z</time></trkpt><trkpt lat="42.3958169" lon="11.1994781"><ele>28.0</ele><time>2026-04-04T10:01:53.606Z</time></trkpt><trkpt lat="42.3959082" lon="11.1995951"><ele>28.0</ele><time>2026-04-04T10:01:54.609Z</time></trkpt><trkpt lat="42.3960058" lon="11.1997202"><ele>28.0</ele><time>2026-04-04T10:01:55.607Z</time></trkpt><trkpt lat="42.3960976" lon="11.1998414"><ele>28.0</ele><time>2026-04-04T10:01:56.6Z</time></trkpt><trkpt lat="42.3961751" lon="11.199956"><ele>28.0</ele><time>2026-04-04T10:01:57.607Z</time></trkpt><trkpt lat="42.396248" lon="11.2000646"><ele>29.0</ele><time>2026-04-04T10:01:58.609Z</time></trkpt><trkpt lat="42.3963235" lon="11.2001748"><ele>29.999999999999996</ele><time>2026-04-04T10:01:59.6Z</time></trkpt><trkpt lat="42.3963907" lon="11.2003035"><ele>30.999999999999996</ele><time>2026-04-04T10:02:00.604Z</time></trkpt><trkpt lat="42.3964366" lon="11.2004301"><ele>32.0</ele><time>2026-04-04T10:02:01.606Z</time></trkpt><trkpt lat="42.3964619" lon="11.2005253"><ele>33.0</ele><time>2026-04-04T10:02:02.615Z</time></trkpt><trkpt lat="42.3964904" lon="11.2006044"><ele>31.166666666666668</ele><time>2026-04-04T10:02:03.606Z</time></trkpt><trkpt lat="42.396519" lon="11.2006933"><ele>29.333333333333332</ele><time>2026-04-04T10:02:04.605Z</time></trkpt><trkpt lat="42.3965437" lon="11.2007935"><ele>27.5</ele><time>2026-04-04T10:02:05.606Z</time></trkpt><trkpt lat="42.396559" lon="11.2008987"><ele>25.666666666666664</ele><time>2026-04-04T10:02:06.609Z</time></trkpt><trkpt lat="42.3965772" lon="11.201008"><ele>23.833333333333332</ele><time>2026-04-04T10:02:07.6Z</time></trkpt><trkpt lat="42.396575" lon="11.201117"><ele>22.0</ele><time>2026-04-04T10:02:08.61Z</time></trkpt><trkpt lat="42.3965584" lon="11.2012221"><ele>22.0</ele><time>2026-04-04T10:02:09.617Z</time></trkpt><trkpt lat="42.3965419" lon="11.2013249"><ele>22.0</ele><time>2026-04-04T10:02:10.603Z</time></trkpt><trkpt lat="42.3965077" lon="11.2014286"><ele>22.0</ele><time>2026-04-04T10:02:11.639Z</time></trkpt><trkpt lat="42.3964799" lon="11.2015392"><ele>22.0</ele><time>2026-04-04T10:02:12.609Z</time></trkpt><trkpt lat="42.3964429" lon="11.2016521"><ele>22.0</ele><time>2026-04-04T10:02:13.598Z</time></trkpt><trkpt lat="42.3964054" lon="11.2017549"><ele>22.0</ele><time>2026-04-04T10:02:14.603Z</time></trkpt><trkpt lat="42.3963623" lon="11.2018497"><ele>23.333333333333332</ele><time>2026-04-04T10:02:15.604Z</time></trkpt><trkpt lat="42.3963238" lon="11.2019622"><ele>24.666666666666664</ele><time>2026-04-04T10:02:17.607Z</time></trkpt><trkpt lat="42.3962934" lon="11.2020445"><ele>26.0</ele><time>2026-04-04T10:02:19.606Z</time></trkpt><trkpt lat="42.3962648" lon="11.2021496"><ele>27.333333333333332</ele><time>2026-04-04T10:02:22.613Z</time></trkpt><trkpt lat="42.3961995" lon="11.2022518"><ele>28.666666666666668</ele><time>2026-04-04T10:02:24.614Z</time></trkpt><trkpt lat="42.396119" lon="11.2023055"><ele>30.0</ele><time>2026-04-04T10:02:25.616Z</time></trkpt><trkpt lat="42.3960367" lon="11.2023646"><ele>30.0</ele><time>2026-04-04T10:02:26.613Z</time></trkpt><trkpt lat="42.3959595" lon="11.2024327"><ele>30.0</ele><time>2026-04-04T10:02:27.606Z</time></trkpt><trkpt lat="42.395899" lon="11.2025148"><ele>30.0</ele><time>2026-04-04T10:02:28.62Z</time></trkpt><trkpt lat="42.395852" lon="11.2026057"><ele>30.0</ele><time>2026-04-04T10:02:29.607Z</time></trkpt><trkpt lat="42.3958045" lon="11.2026881"><ele>30.0</ele><time>2026-04-04T10:02:30.607Z</time></trkpt><trkpt lat="42.3957617" lon="11.2027764"><ele>30.0</ele><time>2026-04-04T10:02:31.608Z</time></trkpt><trkpt lat="42.3957206" lon="11.202867"><ele>30.0</ele><time>2026-04-04T10:02:32.61Z</time></trkpt><trkpt lat="42.3956764" lon="11.2029597"><ele>30.0</ele><time>2026-04-04T10:02:33.611Z</time></trkpt><trkpt lat="42.3956289" lon="11.2030526"><ele>30.0</ele><time>2026-04-04T10:02:34.602Z</time></trkpt><trkpt lat="42.3955734" lon="11.2031376"><ele>30.0</ele><time>2026-04-04T10:02:35.608Z</time></trkpt><trkpt lat="42.3955172" lon="11.2032163"><ele>30.0</ele><time>2026-04-04T10:02:36.604Z</time></trkpt><trkpt lat="42.3954658" lon="11.2032949"><ele>30.0</ele><time>2026-04-04T10:02:37.609Z</time></trkpt><trkpt lat="42.3954086" lon="11.2033598"><ele>28.5</ele><time>2026-04-04T10:02:38.612Z</time></trkpt><trkpt lat="42.3953462" lon="11.2034379"><ele>27.0</ele><time>2026-04-04T10:02:39.615Z</time></trkpt><trkpt lat="42.3952833" lon="11.2035028"><ele>25.5</ele><time>2026-04-04T10:02:40.605Z</time></trkpt><trkpt lat="42.3952178" lon="11.2035584"><ele>24.0</ele><time>2026-04-04T10:02:41.611Z</time></trkpt><trkpt lat="42.395158" lon="11.2036041"><ele>22.5</ele><time>2026-04-04T10:02:42.613Z</time></trkpt><trkpt lat="42.3950558" lon="11.2036552"><ele>21.0</ele><time>2026-04-04T10:02:44.608Z</time></trkpt><trkpt lat="42.3949602" lon="11.203695"><ele>21.0</ele><time>2026-04-04T10:02:46.613Z</time></trkpt><trkpt lat="42.3948708" lon="11.2037373"><ele>21.0</ele><time>2026-04-04T10:02:48.612Z</time></trkpt><trkpt lat="42.3947735" lon="11.2037569"><ele>21.0</ele><time>2026-04-04T10:02:50.607Z</time></trkpt><trkpt lat="42.3946655" lon="11.203794"><ele>21.0</ele><time>2026-04-04T10:02:52.608Z</time></trkpt><trkpt lat="42.3945442" lon="11.2038414"><ele>21.0</ele><time>2026-04-04T10:02:54.606Z</time></trkpt><trkpt lat="42.3944636" lon="11.2038682"><ele>20.0</ele><time>2026-04-04T10:02:55.611Z</time></trkpt><trkpt lat="42.3943815" lon="11.2038959"><ele>19.0</ele><time>2026-04-04T10:02:56.613Z</time></trkpt><trkpt lat="42.3942848" lon="11.2039198"><ele>18.0</ele><time>2026-04-04T10:02:57.601Z</time></trkpt><trkpt lat="42.3942002" lon="11.2039316"><ele>17.0</ele><time>2026-04-04T10:02:58.619Z</time></trkpt><trkpt lat="42.3941311" lon="11.2039347"><ele>16.0</ele><time>2026-04-04T10:02:59.609Z</time></trkpt><trkpt lat="42.3940431" lon="11.2039381"><ele>15.0</ele><time>2026-04-04T10:03:01.618Z</time></trkpt><trkpt lat="42.3939563" lon="11.2039435"><ele>15.0</ele><time>2026-04-04T10:03:03.611Z</time></trkpt><trkpt lat="42.3938696" lon="11.2039519"><ele>15.0</ele><time>2026-04-04T10:03:05.604Z</time></trkpt><trkpt lat="42.3937808" lon="11.2039742"><ele>15.0</ele><time>2026-04-04T10:03:07.617Z</time></trkpt><trkpt lat="42.3936849" lon="11.2039933"><ele>15.0</ele><time>2026-04-04T10:03:09.602Z</time></trkpt><trkpt lat="42.3935926" lon="11.2039946"><ele>15.0</ele><time>2026-04-04T10:03:11.617Z</time></trkpt><trkpt lat="42.3935206" lon="11.2040548"><ele>14.5</ele><time>2026-04-04T10:03:13.61Z</time></trkpt><trkpt lat="42.3935038" lon="11.2041621"><ele>14.0</ele><time>2026-04-04T10:03:15.605Z</time></trkpt><trkpt lat="42.3934978" lon="11.2042844"><ele>13.5</ele><time>2026-04-04T10:03:18.608Z</time></trkpt><trkpt lat="42.3934698" lon="11.2043963"><ele>13.0</ele><time>2026-04-04T10:03:20.61Z</time></trkpt><trkpt lat="42.3934328" lon="11.2045147"><ele>12.5</ele><time>2026-04-04T10:03:22.606Z</time></trkpt><trkpt lat="42.3934043" lon="11.2046376"><ele>12.0</ele><time>2026-04-04T10:03:24.606Z</time></trkpt><trkpt lat="42.3933794" lon="11.2047601"><ele>12.0</ele><time>2026-04-04T10:03:26.605Z</time></trkpt><trkpt lat="42.3933486" lon="11.2048539"><ele>7.0</ele><time>2026-04-04T10:03:29.61Z</time></trkpt><trkpt lat="42.3932971" lon="11.2049374"><ele>7.0</ele><time>2026-04-04T10:03:39.604Z</time></trkpt><trkpt lat="42.3932352" lon="11.2049717"><ele>7.0</ele><time>2026-04-04T10:03:40.61Z</time></trkpt><trkpt lat="42.3931678" lon="11.2049977"><ele>7.0</ele><time>2026-04-04T10:03:41.601Z</time></trkpt></trkseg><trkseg><trkpt lat="42.3945548" lon="11.2049254"><ele>3.9999999999999996</ele><time>2026-04-04T10:24:22.791Z</time></trkpt><trkpt lat="42.3944794" lon="11.2049239"><ele>4.0</ele><time>2026-04-04T10:24:52.779Z</time></trkpt><trkpt lat="42.3943887" lon="11.2048764"><ele>4.0</ele><time>2026-04-04T10:24:55.791Z</time></trkpt><trkpt lat="42.3942981" lon="11.2048483"><ele>4.0</ele><time>2026-04-04T10:24:57.793Z</time></trkpt><trkpt lat="42.3942178" lon="11.2048192"><ele>3.9999999999999996</ele><time>2026-04-04T10:24:59.801Z</time></trkpt><trkpt lat="42.3941279" lon="11.2047882"><ele>4.0</ele><time>2026-04-04T10:25:01.808Z</time></trkpt><trkpt lat="42.3940413" lon="11.2047609"><ele>4.5</ele><time>2026-04-04T10:25:03.797Z</time></trkpt><trkpt lat="42.3939799" lon="11.2047136"><ele>5.0</ele><time>2026-04-04T10:25:05.792Z</time></trkpt><trkpt lat="42.3939617" lon="11.2046077"><ele>5.5</ele><time>2026-04-04T10:25:07.801Z</time></trkpt><trkpt lat="42.3939842" lon="11.2045016"><ele>6.0</ele><time>2026-04-04T10:25:10.81Z</time></trkpt><trkpt lat="42.3940403" lon="11.2044545"><ele>6.500000000000001</ele><time>2026-04-04T10:25:12.796Z</time></trkpt><trkpt lat="42.3941209" lon="11.2044962"><ele>7.0</ele><time>2026-04-04T10:25:14.809Z</time></trkpt><trkpt lat="42.394225" lon="11.2045388"><ele>7.0</ele><time>2026-04-04T10:25:16.802Z</time></trkpt><trkpt lat="42.3943338" lon="11.2045538"><ele>6.999999999999999</ele><time>2026-04-04T10:25:18.818Z</time></trkpt><trkpt lat="42.3944446" lon="11.2045553"><ele>6.999999999999999</ele><time>2026-04-04T10:25:20.809Z</time></trkpt><trkpt lat="42.3945388" lon="11.2045522"><ele>7.0</ele><time>2026-04-04T10:25:22.796Z</time></trkpt><trkpt lat="42.3946396" lon="11.2045231"><ele>7.0</ele><time>2026-04-04T10:25:24.802Z</time></trkpt><trkpt lat="42.3947184" lon="11.2045616"><ele>8.0</ele><time>2026-04-04T10:25:26.794Z</time></trkpt><trkpt lat="42.3947802" lon="11.204429"><ele>9.0</ele><time>2026-04-04T10:25:29.809Z</time></trkpt><trkpt lat="42.3948009" lon="11.2043403"><ele>10.0</ele><time>2026-04-04T10:25:30.787Z</time></trkpt><trkpt lat="42.3948249" lon="11.2042382"><ele>11.0</ele><time>2026-04-04T10:25:31.796Z</time></trkpt><trkpt lat="42.3948515" lon="11.2041212"><ele>11.999999999999998</ele><time>2026-04-04T10:25:32.799Z</time></trkpt><trkpt lat="42.3948681" lon="11.2040144"><ele>13.0</ele><time>2026-04-04T10:25:33.794Z</time></trkpt><trkpt lat="42.3948845" lon="11.2039288"><ele>14.333333333333332</ele><time>2026-04-04T10:25:34.785Z</time></trkpt><trkpt lat="42.3949001" lon="11.2038325"><ele>15.666666666666666</ele><time>2026-04-04T10:25:36.785Z</time></trkpt><trkpt lat="42.3949267" lon="11.2037269"><ele>17.0</ele><time>2026-04-04T10:25:44.8Z</time></trkpt><trkpt lat="42.3950372" lon="11.2036478"><ele>18.333333333333332</ele><time>2026-04-04T10:25:46.796Z</time></trkpt><trkpt lat="42.3951149" lon="11.2035973"><ele>19.666666666666668</ele><time>2026-04-04T10:25:47.792Z</time></trkpt><trkpt lat="42.3951805" lon="11.2035493"><ele>21.0</ele><time>2026-04-04T10:25:48.79Z</time></trkpt><trkpt lat="42.3952339" lon="11.2035016"><ele>21.0</ele><time>2026-04-04T10:25:49.796Z</time></trkpt><trkpt lat="42.3952841" lon="11.2034466"><ele>21.0</ele><time>2026-04-04T10:25:50.797Z</time></trkpt><trkpt lat="42.395335" lon="11.2033934"><ele>21.0</ele><time>2026-04-04T10:25:51.788Z</time></trkpt><trkpt lat="42.3953996" lon="11.2033237"><ele>21.0</ele><time>2026-04-04T10:25:52.785Z</time></trkpt><trkpt lat="42.3954699" lon="11.2032357"><ele>21.0</ele><time>2026-04-04T10:25:53.793Z</time></trkpt><trkpt lat="42.3955616" lon="11.2031164"><ele>21.0</ele><time>2026-04-04T10:25:54.791Z</time></trkpt><trkpt lat="42.395661" lon="11.2029658"><ele>23.25</ele><time>2026-04-04T10:25:55.791Z</time></trkpt><trkpt lat="42.3957439" lon="11.2028197"><ele>25.5</ele><time>2026-04-04T10:25:56.787Z</time></trkpt><trkpt lat="42.3958193" lon="11.2026745"><ele>27.75</ele><time>2026-04-04T10:25:57.798Z</time></trkpt><trkpt lat="42.3958804" lon="11.2025575"><ele>30.0</ele><time>2026-04-04T10:25:58.791Z</time></trkpt><trkpt lat="42.3959361" lon="11.2024516"><ele>30.0</ele><time>2026-04-04T10:25:59.795Z</time></trkpt><trkpt lat="42.396002" lon="11.2023576"><ele>30.0</ele><time>2026-04-04T10:26:00.792Z</time></trkpt><trkpt lat="42.3960814" lon="11.2022768"><ele>30.0</ele><time>2026-04-04T10:26:01.785Z</time></trkpt><trkpt lat="42.3961678" lon="11.2022023"><ele>30.0</ele><time>2026-04-04T10:26:02.787Z</time></trkpt><trkpt lat="42.3962648" lon="11.2021395"><ele>30.0</ele><time>2026-04-04T10:26:03.793Z</time></trkpt><trkpt lat="42.3963654" lon="11.2020694"><ele>28.4</ele><time>2026-04-04T10:26:04.799Z</time></trkpt><trkpt lat="42.3964538" lon="11.2020089"><ele>26.8</ele><time>2026-04-04T10:26:05.788Z</time></trkpt><trkpt lat="42.3965452" lon="11.2019426"><ele>25.200000000000003</ele><time>2026-04-04T10:26:06.784Z</time></trkpt><trkpt lat="42.3966426" lon="11.2018888"><ele>23.6</ele><time>2026-04-04T10:26:07.794Z</time></trkpt><trkpt lat="42.3967402" lon="11.2018319"><ele>22.0</ele><time>2026-04-04T10:26:08.797Z</time></trkpt><trkpt lat="42.3968435" lon="11.2017937"><ele>22.0</ele><time>2026-04-04T10:26:09.781Z</time></trkpt><trkpt lat="42.3969645" lon="11.2017873"><ele>22.0</ele><time>2026-04-04T10:26:10.799Z</time></trkpt><trkpt lat="42.3971018" lon="11.2017987"><ele>22.0</ele><time>2026-04-04T10:26:11.792Z</time></trkpt><trkpt lat="42.3972644" lon="11.2018195"><ele>22.0</ele><time>2026-04-04T10:26:12.797Z</time></trkpt><trkpt lat="42.3974266" lon="11.2018293"><ele>20.666666666666664</ele><time>2026-04-04T10:26:13.799Z</time></trkpt><trkpt lat="42.3975835" lon="11.201834"><ele>19.333333333333332</ele><time>2026-04-04T10:26:14.793Z</time></trkpt><trkpt lat="42.397735" lon="11.2018119"><ele>18.0</ele><time>2026-04-04T10:26:15.809Z</time></trkpt><trkpt lat="42.3978884" lon="11.2017681"><ele>16.666666666666668</ele><time>2026-04-04T10:26:16.805Z</time></trkpt><trkpt lat="42.3980426" lon="11.2016886"><ele>15.333333333333334</ele><time>2026-04-04T10:26:17.788Z</time></trkpt><trkpt lat="42.3982008" lon="11.2015817"><ele>14.0</ele><time>2026-04-04T10:26:18.795Z</time></trkpt><trkpt lat="42.3983442" lon="11.2014764"><ele>14.0</ele><time>2026-04-04T10:26:19.783Z</time></trkpt><trkpt lat="42.3984838" lon="11.2013821"><ele>14.0</ele><time>2026-04-04T10:26:20.788Z</time></trkpt><trkpt lat="42.3986155" lon="11.2012871"><ele>14.0</ele><time>2026-04-04T10:26:21.808Z</time></trkpt><trkpt lat="42.3987488" lon="11.2011941"><ele>13.25</ele><time>2026-04-04T10:26:22.792Z</time></trkpt><trkpt lat="42.3988758" lon="11.2011137"><ele>12.5</ele><time>2026-04-04T10:26:23.791Z</time></trkpt><trkpt lat="42.3989986" lon="11.2010295"><ele>11.75</ele><time>2026-04-04T10:26:24.801Z</time></trkpt><trkpt lat="42.3991241" lon="11.200942"><ele>11.0</ele><time>2026-04-04T10:26:25.788Z</time></trkpt><trkpt lat="42.3992459" lon="11.2008574"><ele>11.0</ele><time>2026-04-04T10:26:26.805Z</time></trkpt><trkpt lat="42.39937" lon="11.2007735"><ele>11.0</ele><time>2026-04-04T10:26:27.783Z</time></trkpt><trkpt lat="42.3994945" lon="11.2006857"><ele>11.0</ele><time>2026-04-04T10:26:28.791Z</time></trkpt><trkpt lat="42.3996142" lon="11.2005982"><ele>11.0</ele><time>2026-04-04T10:26:29.794Z</time></trkpt><trkpt lat="42.3997481" lon="11.2004946"><ele>11.0</ele><time>2026-04-04T10:26:30.799Z</time></trkpt><trkpt lat="42.3998837" lon="11.2003925"><ele>11.0</ele><time>2026-04-04T10:26:31.798Z</time></trkpt><trkpt lat="42.4000211" lon="11.2002935"><ele>11.0</ele><time>2026-04-04T10:26:32.797Z</time></trkpt><trkpt lat="42.4001543" lon="11.2001957"><ele>11.0</ele><time>2026-04-04T10:26:33.79Z</time></trkpt><trkpt lat="42.4002852" lon="11.2001009"><ele>11.0</ele><time>2026-04-04T10:26:34.807Z</time></trkpt><trkpt lat="42.4004075" lon="11.2000144"><ele>11.0</ele><time>2026-04-04T10:26:35.793Z</time></trkpt><trkpt lat="42.4005321" lon="11.1999197"><ele>11.0</ele><time>2026-04-04T10:26:36.812Z</time></trkpt><trkpt lat="42.4006489" lon="11.1998392"><ele>10.8</ele><time>2026-04-04T10:26:37.802Z</time></trkpt><trkpt lat="42.400767" lon="11.199761"><ele>10.600000000000001</ele><time>2026-04-04T10:26:38.797Z</time></trkpt><trkpt lat="42.4008721" lon="11.1996905"><ele>10.4</ele><time>2026-04-04T10:26:39.792Z</time></trkpt><trkpt lat="42.4009638" lon="11.1996228"><ele>10.2</ele><time>2026-04-04T10:26:40.808Z</time></trkpt><trkpt lat="42.4010418" lon="11.1995567"><ele>10.0</ele><time>2026-04-04T10:26:41.793Z</time></trkpt><trkpt lat="42.4011086" lon="11.1994891"><ele>10.0</ele><time>2026-04-04T10:26:42.796Z</time></trkpt><trkpt lat="42.401176" lon="11.1994552"><ele>10.0</ele><time>2026-04-04T10:26:43.79Z</time></trkpt><trkpt lat="42.4012532" lon="11.1994534"><ele>10.0</ele><time>2026-04-04T10:26:44.793Z</time></trkpt><trkpt lat="42.401334" lon="11.1994482"><ele>10.0</ele><time>2026-04-04T10:26:45.796Z</time></trkpt><trkpt lat="42.4014109" lon="11.1994254"><ele>10.0</ele><time>2026-04-04T10:26:46.79Z</time></trkpt><trkpt lat="42.4015013" lon="11.199377"><ele>10.0</ele><time>2026-04-04T10:26:47.799Z</time></trkpt><trkpt lat="42.4015961" lon="11.1993598"><ele>9.6</ele><time>2026-04-04T10:26:48.792Z</time></trkpt><trkpt lat="42.4016953" lon="11.1993729"><ele>9.2</ele><time>2026-04-04T10:26:49.803Z</time></trkpt><trkpt lat="42.4018005" lon="11.1993969"><ele>8.8</ele><time>2026-04-04T10:26:50.799Z</time></trkpt><trkpt lat="42.4019048" lon="11.1994248"><ele>8.4</ele><time>2026-04-04T10:26:51.8Z</time></trkpt><trkpt lat="42.4020082" lon="11.1994622"><ele>8.0</ele><time>2026-04-04T10:26:52.817Z</time></trkpt><trkpt lat="42.4021126" lon="11.199509"><ele>7.75</ele><time>2026-04-04T10:26:53.807Z</time></trkpt><trkpt lat="42.402224" lon="11.1995593"><ele>7.5</ele><time>2026-04-04T10:26:54.799Z</time></trkpt><trkpt lat="42.402335" lon="11.1996171"><ele>7.25</ele><time>2026-04-04T10:26:55.801Z</time></trkpt><trkpt lat="42.4024485" lon="11.199677"><ele>7.0</ele><time>2026-04-04T10:26:56.795Z</time></trkpt><trkpt lat="42.4025666" lon="11.1997379"><ele>7.0</ele><time>2026-04-04T10:26:57.8Z</time></trkpt><trkpt lat="42.4027002" lon="11.1998006"><ele>7.0</ele><time>2026-04-04T10:26:58.795Z</time></trkpt><trkpt lat="42.4028488" lon="11.1998751"><ele>7.0</ele><time>2026-04-04T10:26:59.795Z</time></trkpt><trkpt lat="42.4029933" lon="11.1999631"><ele>7.0</ele><time>2026-04-04T10:27:00.789Z</time></trkpt><trkpt lat="42.4031408" lon="11.2000432"><ele>7.0</ele><time>2026-04-04T10:27:01.799Z</time></trkpt><trkpt lat="42.4032722" lon="11.2001193"><ele>7.0</ele><time>2026-04-04T10:27:02.803Z</time></trkpt><trkpt lat="42.4033895" lon="11.2001901"><ele>7.0</ele><time>2026-04-04T10:27:03.794Z</time></trkpt><trkpt lat="42.4034957" lon="11.2002595"><ele>7.000000000000001</ele><time>2026-04-04T10:27:04.798Z</time></trkpt><trkpt lat="42.403587" lon="11.2003458"><ele>7.0</ele><time>2026-04-04T10:27:05.789Z</time></trkpt><trkpt lat="42.4036513" lon="11.2004299"><ele>7.0</ele><time>2026-04-04T10:27:06.804Z</time></trkpt><trkpt lat="42.4036972" lon="11.2005287"><ele>7.0</ele><time>2026-04-04T10:27:07.797Z</time></trkpt><trkpt lat="42.4037188" lon="11.2006276"><ele>7.000000000000001</ele><time>2026-04-04T10:27:08.79Z</time></trkpt><trkpt lat="42.4037316" lon="11.2007305"><ele>7.0</ele><time>2026-04-04T10:27:09.811Z</time></trkpt><trkpt lat="42.4037236" lon="11.200831"><ele>6.6</ele><time>2026-04-04T10:27:10.798Z</time></trkpt><trkpt lat="42.4036971" lon="11.2009354"><ele>6.199999999999999</ele><time>2026-04-04T10:27:11.804Z</time></trkpt><trkpt lat="42.4036497" lon="11.2010359"><ele>5.8</ele><time>2026-04-04T10:27:12.794Z</time></trkpt><trkpt lat="42.4035927" lon="11.2011351"><ele>5.4</ele><time>2026-04-04T10:27:13.804Z</time></trkpt><trkpt lat="42.4035301" lon="11.2012356"><ele>5.0</ele><time>2026-04-04T10:27:14.793Z</time></trkpt><trkpt lat="42.403463" lon="11.2013373"><ele>5.0</ele><time>2026-04-04T10:27:15.815Z</time></trkpt><trkpt lat="42.4033875" lon="11.2014681"><ele>5.0</ele><time>2026-04-04T10:27:16.788Z</time></trkpt><trkpt lat="42.4033033" lon="11.2016304"><ele>5.0</ele><time>2026-04-04T10:27:17.806Z</time></trkpt><trkpt lat="42.403222" lon="11.2018141"><ele>5.0</ele><time>2026-04-04T10:27:18.797Z</time></trkpt><trkpt lat="42.4031508" lon="11.2020028"><ele>5.0</ele><time>2026-04-04T10:27:19.791Z</time></trkpt><trkpt lat="42.4030936" lon="11.2021879"><ele>5.0</ele><time>2026-04-04T10:27:20.785Z</time></trkpt><trkpt lat="42.4030435" lon="11.2023735"><ele>5.0</ele><time>2026-04-04T10:27:21.819Z</time></trkpt><trkpt lat="42.4030114" lon="11.2025462"><ele>5.0</ele><time>2026-04-04T10:27:22.805Z</time></trkpt><trkpt lat="42.4029762" lon="11.2027023"><ele>4.8</ele><time>2026-04-04T10:27:23.815Z</time></trkpt><trkpt lat="42.402945" lon="11.202843"><ele>4.6</ele><time>2026-04-04T10:27:24.799Z</time></trkpt><trkpt lat="42.4029168" lon="11.2029785"><ele>4.4</ele><time>2026-04-04T10:27:25.787Z</time></trkpt><trkpt lat="42.4028901" lon="11.2030993"><ele>4.2</ele><time>2026-04-04T10:27:26.811Z</time></trkpt><trkpt lat="42.402867" lon="11.2032053"><ele>4.0</ele><time>2026-04-04T10:27:27.816Z</time></trkpt><trkpt lat="42.4028468" lon="11.2033001"><ele>3.8000000000000003</ele><time>2026-04-04T10:27:28.799Z</time></trkpt><trkpt lat="42.4028305" lon="11.2033839"><ele>3.6000000000000005</ele><time>2026-04-04T10:27:29.792Z</time></trkpt><trkpt lat="42.4028113" lon="11.2034977"><ele>3.4</ele><time>2026-04-04T10:27:31.792Z</time></trkpt><trkpt lat="42.4029091" lon="11.2035721"><ele>3.2</ele><time>2026-04-04T10:27:35.799Z</time></trkpt><trkpt lat="42.4029988" lon="11.203611"><ele>3.0</ele><time>2026-04-04T10:27:36.807Z</time></trkpt><trkpt lat="42.4031315" lon="11.2036527"><ele>3.0</ele><time>2026-04-04T10:27:37.798Z</time></trkpt><trkpt lat="42.4032959" lon="11.2037068"><ele>3.0</ele><time>2026-04-04T10:27:38.803Z</time></trkpt><trkpt lat="42.4034482" lon="11.2037526"><ele>3.0</ele><time>2026-04-04T10:27:39.786Z</time></trkpt><trkpt lat="42.4035682" lon="11.2037903"><ele>3.0</ele><time>2026-04-04T10:27:40.798Z</time></trkpt><trkpt lat="42.4036754" lon="11.2038305"><ele>3.0</ele><time>2026-04-04T10:27:41.799Z</time></trkpt><trkpt lat="42.4037469" lon="11.2038535"><ele>3.0</ele><time>2026-04-04T10:27:42.792Z</time></trkpt><trkpt lat="42.4038375" lon="11.2039453"><ele>3.0</ele><time>2026-04-04T10:27:44.807Z</time></trkpt><trkpt lat="42.4038337" lon="11.20405"><ele>3.0</ele><time>2026-04-04T10:27:45.794Z</time></trkpt><trkpt lat="42.4038256" lon="11.2041688"><ele>3.0</ele><time>2026-04-04T10:27:46.793Z</time></trkpt><trkpt lat="42.4037962" lon="11.2043154"><ele>3.0</ele><time>2026-04-04T10:27:47.794Z</time></trkpt><trkpt lat="42.4037577" lon="11.2044801"><ele>3.0</ele><time>2026-04-04T10:27:48.817Z</time></trkpt><trkpt lat="42.4037224" lon="11.2046557"><ele>3.0</ele><time>2026-04-04T10:27:49.792Z</time></trkpt><trkpt lat="42.4036909" lon="11.2048298"><ele>3.0</ele><time>2026-04-04T10:27:50.8Z</time></trkpt><trkpt lat="42.4036625" lon="11.20498"><ele>3.0</ele><time>2026-04-04T10:27:51.796Z</time></trkpt><trkpt lat="42.4036425" lon="11.2051208"><ele>3.0</ele><time>2026-04-04T10:27:52.813Z</time></trkpt><trkpt lat="42.4036288" lon="11.2052385"><ele>3.0</ele><time>2026-04-04T10:27:53.803Z</time></trkpt><trkpt lat="42.403621" lon="11.2053369"><ele>3.0</ele><time>2026-04-04T10:27:54.803Z</time></trkpt><trkpt lat="42.4036148" lon="11.2054312"><ele>3.0</ele><time>2026-04-04T10:27:55.796Z</time></trkpt><trkpt lat="42.4036021" lon="11.2055347"><ele>3.0</ele><time>2026-04-04T10:27:56.809Z</time></trkpt><trkpt lat="42.4035824" lon="11.2056335"><ele>2.6666666666666665</ele><time>2026-04-04T10:27:57.794Z</time></trkpt><trkpt lat="42.403547" lon="11.2057413"><ele>2.3333333333333335</ele><time>2026-04-04T10:27:58.807Z</time></trkpt><trkpt lat="42.4035153" lon="11.2058489"><ele>2.0</ele><time>2026-04-04T10:27:59.801Z</time></trkpt><trkpt lat="42.4034914" lon="11.2059445"><ele>1.6666666666666665</ele><time>2026-04-04T10:28:00.804Z</time></trkpt><trkpt lat="42.4034737" lon="11.2060272"><ele>1.3333333333333333</ele><time>2026-04-04T10:28:01.801Z</time></trkpt><trkpt lat="42.403456" lon="11.2061474"><ele>1.0</ele><time>2026-04-04T10:28:03.797Z</time></trkpt><trkpt lat="42.4034554" lon="11.2062683"><ele>0.9999999999999999</ele><time>2026-04-04T10:28:05.804Z</time></trkpt><trkpt lat="42.4034569" lon="11.2063786"><ele>1.0</ele><time>2026-04-04T10:28:07.806Z</time></trkpt><trkpt lat="42.4034697" lon="11.2064744"><ele>1.0</ele><time>2026-04-04T10:28:10.806Z</time></trkpt><trkpt lat="42.4035331" lon="11.2065082"><ele>1.0</ele><time>2026-04-04T10:28:13.803Z</time></trkpt><trkpt lat="42.4035907" lon="11.2064451"><ele>0.9999999999999999</ele><time>2026-04-04T10:28:16.806Z</time></trkpt><trkpt lat="42.4035607" lon="11.2063533"><ele>1.0</ele><time>2026-04-04T10:28:18.806Z</time></trkpt><trkpt lat="42.4035048" lon="11.2062629"><ele>0.9999999999999999</ele><time>2026-04-04T10:28:20.8Z</time></trkpt><trkpt lat="42.4034722" lon="11.2061544"><ele>1.0</ele><time>2026-04-04T10:28:23.814Z</time></trkpt><trkpt lat="42.4034737" lon="11.2060518"><ele>1.0</ele><time>2026-04-04T10:28:26.819Z</time></trkpt><trkpt lat="42.4034605" lon="11.2058927"><ele>1.0</ele><time>2026-04-04T10:28:52.81Z</time></trkpt><trkpt lat="42.4034785" lon="11.2057923"><ele>0.9999999999999999</ele><time>2026-04-04T10:28:55.81Z</time></trkpt><trkpt lat="42.4034558" lon="11.2058943"><ele>1.0</ele><time>2026-04-04T10:28:59.797Z</time></trkpt><trkpt lat="42.4034582" lon="11.2059803"><ele>0.9999999999999999</ele><time>2026-04-04T10:29:01.792Z</time></trkpt><trkpt lat="42.403454" lon="11.2061339"><ele>1.0</ele><time>2026-04-04T10:29:03.795Z</time></trkpt><trkpt lat="42.4034654" lon="11.2062588"><ele>1.0</ele><time>2026-04-04T10:29:04.796Z</time></trkpt><trkpt lat="42.4034696" lon="11.2063752"><ele>1.0</ele><time>2026-04-04T10:29:05.805Z</time></trkpt><trkpt lat="42.4034889" lon="11.2064581"><ele>0.9999999999999999</ele><time>2026-04-04T10:29:07.794Z</time></trkpt><trkpt lat="42.4035078" lon="11.2063564"><ele>1.0</ele><time>2026-04-04T10:29:10.807Z</time></trkpt><trkpt lat="42.4034706" lon="11.2062861"><ele>0.9999999999999999</ele><time>2026-04-04T10:29:11.813Z</time></trkpt><trkpt lat="42.4034571" lon="11.2061337"><ele>1.0</ele><time>2026-04-04T10:29:13.808Z</time></trkpt><trkpt lat="42.4034443" lon="11.2060445"><ele>1.0</ele><time>2026-04-04T10:29:34.799Z</time></trkpt><trkpt lat="42.4034571" lon="11.2059584"><ele>1.0</ele><time>2026-04-04T10:29:35.819Z</time></trkpt><trkpt lat="42.4034794" lon="11.2058596"><ele>0.9999999999999999</ele><time>2026-04-04T10:29:36.799Z</time></trkpt><trkpt lat="42.4034531" lon="11.2059405"><ele>1.0</ele><time>2026-04-04T10:29:50.799Z</time></trkpt><trkpt lat="42.4034427" lon="11.2060456"><ele>0.9999999999999999</ele><time>2026-04-04T10:29:53.788Z</time></trkpt><trkpt lat="42.4034408" lon="11.2061507"><ele>1.0</ele><time>2026-04-04T10:29:57.796Z</time></trkpt><trkpt lat="42.4034353" lon="11.2062517"><ele>1.0</ele><time>2026-04-04T10:30:02.814Z</time></trkpt><trkpt lat="42.403448" lon="11.2063378"><ele>1.0</ele><time>2026-04-04T10:30:05.792Z</time></trkpt><trkpt lat="42.4034726" lon="11.2064377"><ele>0.9999999999999999</ele><time>2026-04-04T10:30:25.801Z</time></trkpt><trkpt lat="42.4035344" lon="11.2064026"><ele>1.0</ele><time>2026-04-04T10:30:29.793Z</time></trkpt><trkpt lat="42.4034645" lon="11.206325"><ele>1.0</ele><time>2026-04-04T10:30:32.797Z</time></trkpt><trkpt lat="42.4034314" lon="11.2062414"><ele>0.9999999999999999</ele><time>2026-04-04T10:30:34.798Z</time></trkpt><trkpt lat="42.4034217" lon="11.2061538"><ele>1.0</ele><time>2026-04-04T10:30:36.808Z</time></trkpt><trkpt lat="42.4034363" lon="11.2060575"><ele>1.0</ele><time>2026-04-04T10:30:39.791Z</time></trkpt><trkpt lat="42.4034619" lon="11.2059485"><ele>0.9999999999999999</ele><time>2026-04-04T10:30:56.806Z</time></trkpt><trkpt lat="42.4034854" lon="11.2058604"><ele>1.0</ele><time>2026-04-04T10:30:57.798Z</time></trkpt><trkpt lat="42.4034591" lon="11.2059388"><ele>1.0</ele><time>2026-04-04T10:31:05.795Z</time></trkpt><trkpt lat="42.4034625" lon="11.2060386"><ele>0.9999999999999999</ele><time>2026-04-04T10:31:07.798Z</time></trkpt><trkpt lat="42.4034373" lon="11.2061603"><ele>1.0</ele><time>2026-04-04T10:31:11.81Z</time></trkpt><trkpt lat="42.4034386" lon="11.2062661"><ele>1.0</ele><time>2026-04-04T10:31:13.809Z</time></trkpt><trkpt lat="42.403453" lon="11.2063889"><ele>1.0</ele><time>2026-04-04T10:31:15.797Z</time></trkpt><trkpt lat="42.4034509" lon="11.2065248"><ele>0.9999999999999999</ele><time>2026-04-04T10:31:17.798Z</time></trkpt><trkpt lat="42.4034576" lon="11.2066112"><ele>1.0</ele><time>2026-04-04T10:31:19.802Z</time></trkpt><trkpt lat="42.4034575" lon="11.2067128"><ele>0.8333333333333333</ele><time>2026-04-04T10:31:22.815Z</time></trkpt><trkpt lat="42.4034317" lon="11.2068417"><ele>0.6666666666666666</ele><time>2026-04-04T10:31:25.81Z</time></trkpt><trkpt lat="42.4033952" lon="11.2069405"><ele>0.5</ele><time>2026-04-04T10:31:27.792Z</time></trkpt><trkpt lat="42.4033759" lon="11.2070351"><ele>0.3333333333333333</ele><time>2026-04-04T10:31:29.818Z</time></trkpt><trkpt lat="42.4033989" lon="11.2071461"><ele>0.16666666666666666</ele><time>2026-04-04T10:31:31.794Z</time></trkpt><trkpt lat="42.4034467" lon="11.2072472"><ele>0.0</ele><time>2026-04-04T10:31:32.781Z</time></trkpt><trkpt lat="42.4035154" lon="11.2073675"><ele>0.0</ele><time>2026-04-04T10:31:33.805Z</time></trkpt><trkpt lat="42.4035758" lon="11.2074696"><ele>0.0</ele><time>2026-04-04T10:31:34.813Z</time></trkpt><trkpt lat="42.4036329" lon="11.2076021"><ele>0.0</ele><time>2026-04-04T10:31:36.795Z</time></trkpt><trkpt lat="42.4036575" lon="11.2076835"><ele>0.0</ele><time>2026-04-04T10:31:37.793Z</time></trkpt><trkpt lat="42.4036895" lon="11.207758"><ele>0.0</ele><time>2026-04-04T10:31:38.806Z</time></trkpt><trkpt lat="42.403736" lon="11.2078912"><ele>0.0</ele><time>2026-04-04T10:31:40.802Z</time></trkpt><trkpt lat="42.4036814" lon="11.20777"><ele>0.0</ele><time>2026-04-04T10:31:45.801Z</time></trkpt><trkpt lat="42.4036205" lon="11.2076818"><ele>0.0</ele><time>2026-04-04T10:31:46.79Z</time></trkpt><trkpt lat="42.4035674" lon="11.2076056"><ele>0.0</ele><time>2026-04-04T10:31:48.789Z</time></trkpt><trkpt lat="42.4036374" lon="11.207555"><ele>0.0</ele><time>2026-04-04T10:31:51.801Z</time></trkpt><trkpt lat="42.4037661" lon="11.2076757"><ele>0.0</ele><time>2026-04-04T10:31:53.817Z</time></trkpt><trkpt lat="42.403851" lon="11.2077537"><ele>0.16666666666666666</ele><time>2026-04-04T10:31:54.808Z</time></trkpt><trkpt lat="42.4039289" lon="11.2077984"><ele>0.3333333333333333</ele><time>2026-04-04T10:31:55.799Z</time></trkpt><trkpt lat="42.4040105" lon="11.207839"><ele>0.5</ele><time>2026-04-04T10:31:57.805Z</time></trkpt><trkpt lat="42.4040853" lon="11.207877"><ele>0.6666666666666666</ele><time>2026-04-04T10:32:02.809Z</time></trkpt><trkpt lat="42.4041623" lon="11.2078755"><ele>0.8333333333333333</ele><time>2026-04-04T10:32:03.805Z</time></trkpt><trkpt lat="42.4042757" lon="11.2078569"><ele>1.0</ele><time>2026-04-04T10:32:05.787Z</time></trkpt><trkpt lat="42.404358" lon="11.2078668"><ele>0.9999999999999999</ele><time>2026-04-04T10:32:07.791Z</time></trkpt><trkpt lat="42.4044111" lon="11.2079153"><ele>1.0</ele><time>2026-04-04T10:32:09.807Z</time></trkpt><trkpt lat="42.404473" lon="11.207951"><ele>1.0</ele><time>2026-04-04T10:32:12.808Z</time></trkpt><trkpt lat="42.4045395" lon="11.2079812"><ele>1.0</ele><time>2026-04-04T10:32:15.81Z</time></trkpt><trkpt lat="42.4046175" lon="11.2079999"><ele>0.9999999999999999</ele><time>2026-04-04T10:32:18.816Z</time></trkpt><trkpt lat="42.4046982" lon="11.2079861"><ele>1.0</ele><time>2026-04-04T10:32:20.781Z</time></trkpt><trkpt lat="42.4047802" lon="11.2079196"><ele>3.666666666666667</ele><time>2026-04-04T10:32:22.786Z</time></trkpt><trkpt lat="42.404846" lon="11.2078218"><ele>6.333333333333334</ele><time>2026-04-04T10:32:24.804Z</time></trkpt><trkpt lat="42.4048823" lon="11.2076979"><ele>9.0</ele><time>2026-04-04T10:32:26.796Z</time></trkpt><trkpt lat="42.4049078" lon="11.2075945"><ele>11.666666666666668</ele><time>2026-04-04T10:32:28.824Z</time></trkpt><trkpt lat="42.4049341" lon="11.2075109"><ele>14.333333333333334</ele><time>2026-04-04T10:32:30.805Z</time></trkpt><trkpt lat="42.4049596" lon="11.2074241"><ele>17.0</ele><time>2026-04-04T10:32:33.803Z</time></trkpt><trkpt lat="42.4049739" lon="11.2073296"><ele>15.4</ele><time>2026-04-04T10:32:35.8Z</time></trkpt><trkpt lat="42.4049747" lon="11.2072382"><ele>13.799999999999999</ele><time>2026-04-04T10:32:37.794Z</time></trkpt><trkpt lat="42.4049543" lon="11.207155"><ele>12.2</ele><time>2026-04-04T10:32:44.788Z</time></trkpt><trkpt lat="42.4049017" lon="11.2070158"><ele>10.6</ele><time>2026-04-04T10:32:46.804Z</time></trkpt><trkpt lat="42.404864" lon="11.2069016"><ele>9.0</ele><time>2026-04-04T10:32:47.799Z</time></trkpt><trkpt lat="42.4048577" lon="11.2067396"><ele>9.0</ele><time>2026-04-04T10:32:49.786Z</time></trkpt><trkpt lat="42.4049036" lon="11.2065864"><ele>9.0</ele><time>2026-04-04T10:32:51.817Z</time></trkpt><trkpt lat="42.4049067" lon="11.2064414"><ele>9.0</ele><time>2026-04-04T10:32:53.787Z</time></trkpt><trkpt lat="42.4048119" lon="11.2063391"><ele>9.0</ele><time>2026-04-04T10:32:55.792Z</time></trkpt><trkpt lat="42.404716" lon="11.2062807"><ele>8.0</ele><time>2026-04-04T10:32:57.821Z</time></trkpt><trkpt lat="42.4046403" lon="11.2061684"><ele>7.0</ele><time>2026-04-04T10:32:59.793Z</time></trkpt><trkpt lat="42.4045555" lon="11.2061137"><ele>6.0</ele><time>2026-04-04T10:33:01.797Z</time></trkpt><trkpt lat="42.4044903" lon="11.206107"><ele>5.0</ele><time>2026-04-04T10:33:02.817Z</time></trkpt><trkpt lat="42.4044064" lon="11.2061321"><ele>4.0</ele><time>2026-04-04T10:33:04.782Z</time></trkpt><trkpt lat="42.4043459" lon="11.2061731"><ele>3.0</ele><time>2026-04-04T10:33:07.792Z</time></trkpt><trkpt lat="42.4042515" lon="11.2062224"><ele>3.0</ele><time>2026-04-04T10:33:10.801Z</time></trkpt><trkpt lat="42.404175" lon="11.2062507"><ele>3.0</ele><time>2026-04-04T10:33:12.8Z</time></trkpt><trkpt lat="42.4041132" lon="11.2062688"><ele>3.0</ele><time>2026-04-04T10:33:14.8Z</time></trkpt><trkpt lat="42.4040349" lon="11.2063006"><ele>3.0</ele><time>2026-04-04T10:33:16.798Z</time></trkpt><trkpt lat="42.4039428" lon="11.2063486"><ele>3.0</ele><time>2026-04-04T10:33:18.799Z</time></trkpt><trkpt lat="42.4038589" lon="11.2063868"><ele>3.0</ele><time>2026-04-04T10:33:20.783Z</time></trkpt><trkpt lat="42.4037813" lon="11.2064109"><ele>2.6666666666666665</ele><time>2026-04-04T10:33:22.809Z</time></trkpt><trkpt lat="42.4036968" lon="11.2064444"><ele>2.3333333333333335</ele><time>2026-04-04T10:33:24.808Z</time></trkpt><trkpt lat="42.4036132" lon="11.2064644"><ele>2.0</ele><time>2026-04-04T10:33:26.801Z</time></trkpt><trkpt lat="42.4035542" lon="11.206417"><ele>1.6666666666666665</ele><time>2026-04-04T10:33:28.803Z</time></trkpt><trkpt lat="42.4035187" lon="11.2065085"><ele>1.3333333333333333</ele><time>2026-04-04T10:33:32.801Z</time></trkpt><trkpt lat="42.4035788" lon="11.206554"><ele>1.0</ele><time>2026-04-04T10:33:35.8Z</time></trkpt><trkpt lat="42.4036097" lon="11.2064698"><ele>0.9999999999999999</ele><time>2026-04-04T10:33:38.79Z</time></trkpt><trkpt lat="42.4035669" lon="11.2063834"><ele>1.0</ele><time>2026-04-04T10:33:40.814Z</time></trkpt><trkpt lat="42.403485" lon="11.2063649"><ele>1.0</ele><time>2026-04-04T10:33:43.812Z</time></trkpt><trkpt lat="42.4034434" lon="11.2064486"><ele>1.0</ele><time>2026-04-04T10:35:45.803Z</time></trkpt><trkpt lat="42.4034615" lon="11.2065509"><ele>0.9999999999999999</ele><time>2026-04-04T10:35:47.798Z</time></trkpt><trkpt lat="42.4034731" lon="11.2066755"><ele>1.0</ele><time>2026-04-04T10:35:50.809Z</time></trkpt><trkpt lat="42.4034423" lon="11.2067933"><ele>0.8571428571428571</ele><time>2026-04-04T10:35:53.815Z</time></trkpt><trkpt lat="42.403423" lon="11.2068772"><ele>0.7142857142857142</ele><time>2026-04-04T10:35:55.811Z</time></trkpt><trkpt lat="42.4033913" lon="11.2069633"><ele>0.5714285714285714</ele><time>2026-04-04T10:35:57.802Z</time></trkpt><trkpt lat="42.4033837" lon="11.2070508"><ele>0.42857142857142855</ele><time>2026-04-04T10:35:59.805Z</time></trkpt><trkpt lat="42.4034084" lon="11.2071426"><ele>0.2857142857142857</ele><time>2026-04-04T10:36:01.79Z</time></trkpt><trkpt lat="42.4034568" lon="11.2072488"><ele>0.14285714285714285</ele><time>2026-04-04T10:36:03.803Z</time></trkpt><trkpt lat="42.4035007" lon="11.2073237"><ele>0.0</ele><time>2026-04-04T10:36:04.812Z</time></trkpt><trkpt lat="42.4035451" lon="11.2073926"><ele>0.0</ele><time>2026-04-04T10:36:05.803Z</time></trkpt><trkpt lat="42.4035995" lon="11.2075197"><ele>0.0</ele><time>2026-04-04T10:36:07.796Z</time></trkpt><trkpt lat="42.4035996" lon="11.2076421"><ele>0.0</ele><time>2026-04-04T10:36:09.806Z</time></trkpt><trkpt lat="42.4036182" lon="11.2077255"><ele>0.0</ele><time>2026-04-04T10:36:11.802Z</time></trkpt><trkpt lat="42.4036838" lon="11.2078166"><ele>0.0</ele><time>2026-04-04T10:36:13.792Z</time></trkpt><trkpt lat="42.403742" lon="11.2079108"><ele>0.0</ele><time>2026-04-04T10:36:15.788Z</time></trkpt><trkpt lat="42.4036963" lon="11.2077743"><ele>0.0</ele><time>2026-04-04T10:38:42.827Z</time></trkpt><trkpt lat="42.4036557" lon="11.2076514"><ele>0.0</ele><time>2026-04-04T10:38:44.804Z</time></trkpt><trkpt lat="42.403614" lon="11.2075105"><ele>0.0</ele><time>2026-04-04T10:38:46.8Z</time></trkpt><trkpt lat="42.4035796" lon="11.2074022"><ele>0.0</ele><time>2026-04-04T10:38:48.816Z</time></trkpt><trkpt lat="42.4035201" lon="11.2073244"><ele>0.0</ele><time>2026-04-04T10:38:51.8Z</time></trkpt><trkpt lat="42.4034472" lon="11.2073023"><ele>0.0</ele><time>2026-04-04T10:38:55.811Z</time></trkpt><trkpt lat="42.4034387" lon="11.2074227"><ele>0.0</ele><time>2026-04-04T10:39:00.804Z</time></trkpt><trkpt lat="42.4034664" lon="11.207565"><ele>0.0</ele><time>2026-04-04T10:39:02.8Z</time></trkpt><trkpt lat="42.403495" lon="11.2076457"><ele>0.0</ele><time>2026-04-04T10:39:04.803Z</time></trkpt><trkpt lat="42.4035825" lon="11.2076989"><ele>0.0</ele><time>2026-04-04T10:39:07.813Z</time></trkpt><trkpt lat="42.4036897" lon="11.2077949"><ele>0.0</ele><time>2026-04-04T10:39:10.802Z</time></trkpt><trkpt lat="42.4037074" lon="11.2078898"><ele>0.0</ele><time>2026-04-04T10:42:15.807Z</time></trkpt><trkpt lat="42.4037036" lon="11.2077998"><ele>0.0</ele><time>2026-04-04T10:42:22.796Z</time></trkpt><trkpt lat="42.4036232" lon="11.2077395"><ele>0.0</ele><time>2026-04-04T10:42:25.8Z</time></trkpt><trkpt lat="42.4036943" lon="11.2077664"><ele>0.0</ele><time>2026-04-04T10:49:41.794Z</time></trkpt><trkpt lat="42.4037322" lon="11.2078413"><ele>0.0</ele><time>2026-04-04T10:49:42.804Z</time></trkpt><trkpt lat="42.4037892" lon="11.2079279"><ele>0.0</ele><time>2026-04-04T10:49:44.802Z</time></trkpt><trkpt lat="42.4037274" lon="11.2078317"><ele>0.0</ele><time>2026-04-04T10:50:01.796Z</time></trkpt><trkpt lat="42.4036772" lon="11.2077508"><ele>0.0</ele><time>2026-04-04T10:50:02.797Z</time></trkpt><trkpt lat="42.4036308" lon="11.2076572"><ele>0.0</ele><time>2026-04-04T10:50:03.82Z</time></trkpt><trkpt lat="42.4035608" lon="11.2075283"><ele>0.0</ele><time>2026-04-04T10:50:05.794Z</time></trkpt><trkpt lat="42.4034782" lon="11.2073566"><ele>-0.5</ele><time>2026-04-04T10:50:07.806Z</time></trkpt><trkpt lat="42.4034346" lon="11.2072555"><ele>-1.0</ele><time>2026-04-04T10:50:08.804Z</time></trkpt><trkpt lat="42.403405" lon="11.2071749"><ele>-1.5</ele><time>2026-04-04T10:50:09.8Z</time></trkpt><trkpt lat="42.4033783" lon="11.2070455"><ele>-2.0</ele><time>2026-04-04T10:50:11.795Z</time></trkpt><trkpt lat="42.4033933" lon="11.2069422"><ele>-2.5</ele><time>2026-04-04T10:50:13.802Z</time></trkpt><trkpt lat="42.4034291" lon="11.2068446"><ele>-3.0</ele><time>2026-04-04T10:50:15.822Z</time></trkpt><trkpt lat="42.4034409" lon="11.206712"><ele>-3.0</ele><time>2026-04-04T10:50:18.812Z</time></trkpt><trkpt lat="42.4034536" lon="11.206611"><ele>-3.0</ele><time>2026-04-04T10:50:20.793Z</time></trkpt><trkpt lat="42.4034455" lon="11.2064889"><ele>-3.0</ele><time>2026-04-04T10:50:22.801Z</time></trkpt><trkpt lat="42.4034527" lon="11.2063632"><ele>-3.0</ele><time>2026-04-04T10:50:24.809Z</time></trkpt><trkpt lat="42.4034488" lon="11.2062533"><ele>-3.0</ele><time>2026-04-04T10:50:26.793Z</time></trkpt><trkpt lat="42.4034417" lon="11.2061392"><ele>-3.0</ele><time>2026-04-04T10:50:28.846Z</time></trkpt><trkpt lat="42.4034553" lon="11.2060043"><ele>-2.3333333333333335</ele><time>2026-04-04T10:50:30.888Z</time></trkpt><trkpt lat="42.4034774" lon="11.2058969"><ele>-1.6666666666666667</ele><time>2026-04-04T10:50:32.843Z</time></trkpt><trkpt lat="42.4034926" lon="11.2057902"><ele>-1.0</ele><time>2026-04-04T10:50:34.8Z</time></trkpt><trkpt lat="42.4035243" lon="11.205684"><ele>-0.33333333333333337</ele><time>2026-04-04T10:50:37.803Z</time></trkpt><trkpt lat="42.4035615" lon="11.2056084"><ele>0.33333333333333326</ele><time>2026-04-04T10:51:31.795Z</time></trkpt><trkpt lat="42.4035949" lon="11.2054771"><ele>1.0</ele><time>2026-04-04T10:51:33.807Z</time></trkpt><trkpt lat="42.4036164" lon="11.2052835"><ele>1.0</ele><time>2026-04-04T10:51:35.794Z</time></trkpt><trkpt lat="42.4036451" lon="11.2051249"><ele>1.0</ele><time>2026-04-04T10:51:36.807Z</time></trkpt><trkpt lat="42.4036766" lon="11.2049299"><ele>1.0</ele><time>2026-04-04T10:51:37.81Z</time></trkpt><trkpt lat="42.4037091" lon="11.2047103"><ele>1.0</ele><time>2026-04-04T10:51:38.801Z</time></trkpt><trkpt lat="42.4037598" lon="11.2044723"><ele>1.0</ele><time>2026-04-04T10:51:39.794Z</time></trkpt><trkpt lat="42.4038044" lon="11.2042459"><ele>1.0</ele><time>2026-04-04T10:51:40.803Z</time></trkpt><trkpt lat="42.4038325" lon="11.2041147"><ele>1.0</ele><time>2026-04-04T10:51:41.804Z</time></trkpt><trkpt lat="42.4038482" lon="11.2040082"><ele>1.0</ele><time>2026-04-04T10:51:42.794Z</time></trkpt><trkpt lat="42.4038186" lon="11.2038746"><ele>1.4</ele><time>2026-04-04T10:51:44.787Z</time></trkpt><trkpt lat="42.4037186" lon="11.2038093"><ele>1.8</ele><time>2026-04-04T10:51:46.805Z</time></trkpt><trkpt lat="42.403629" lon="11.2037796"><ele>2.1999999999999997</ele><time>2026-04-04T10:51:47.795Z</time></trkpt><trkpt lat="42.4035159" lon="11.2037451"><ele>2.6</ele><time>2026-04-04T10:51:48.803Z</time></trkpt><trkpt lat="42.4033949" lon="11.2037119"><ele>3.0</ele><time>2026-04-04T10:51:49.798Z</time></trkpt><trkpt lat="42.4032772" lon="11.20368"><ele>3.0</ele><time>2026-04-04T10:51:50.786Z</time></trkpt><trkpt lat="42.4031665" lon="11.2036446"><ele>3.0</ele><time>2026-04-04T10:51:51.804Z</time></trkpt><trkpt lat="42.403065" lon="11.2036141"><ele>3.0</ele><time>2026-04-04T10:51:52.793Z</time></trkpt><trkpt lat="42.402984" lon="11.2035978"><ele>3.0</ele><time>2026-04-04T10:51:53.795Z</time></trkpt><trkpt lat="42.4029161" lon="11.2035785"><ele>3.0</ele><time>2026-04-04T10:51:54.804Z</time></trkpt><trkpt lat="42.4028414" lon="11.2035427"><ele>3.0</ele><time>2026-04-04T10:51:56.81Z</time></trkpt><trkpt lat="42.4028386" lon="11.203452"><ele>3.0</ele><time>2026-04-04T10:51:58.801Z</time></trkpt><trkpt lat="42.4028512" lon="11.2033489"><ele>3.0</ele><time>2026-04-04T10:52:00.812Z</time></trkpt><trkpt lat="42.402887" lon="11.20321"><ele>3.0</ele><time>2026-04-04T10:52:02.801Z</time></trkpt><trkpt lat="42.4029178" lon="11.2030561"><ele>3.0</ele><time>2026-04-04T10:52:04.794Z</time></trkpt><trkpt lat="42.4029407" lon="11.2029634"><ele>3.0</ele><time>2026-04-04T10:52:05.793Z</time></trkpt><trkpt lat="42.4029608" lon="11.2028545"><ele>3.1666666666666665</ele><time>2026-04-04T10:52:06.818Z</time></trkpt><trkpt lat="42.402988" lon="11.2027438"><ele>3.333333333333333</ele><time>2026-04-04T10:52:07.804Z</time></trkpt><trkpt lat="42.4030151" lon="11.2026351"><ele>3.5</ele><time>2026-04-04T10:52:08.798Z</time></trkpt><trkpt lat="42.4030394" lon="11.202519"><ele>3.6666666666666665</ele><time>2026-04-04T10:52:09.799Z</time></trkpt><trkpt lat="42.403066" lon="11.2023985"><ele>3.833333333333333</ele><time>2026-04-04T10:52:10.807Z</time></trkpt><trkpt lat="42.4030934" lon="11.2022754"><ele>4.0</ele><time>2026-04-04T10:52:11.816Z</time></trkpt><trkpt lat="42.4031197" lon="11.2021426"><ele>4.2</ele><time>2026-04-04T10:52:12.807Z</time></trkpt><trkpt lat="42.4031518" lon="11.2020116"><ele>4.4</ele><time>2026-04-04T10:52:13.803Z</time></trkpt><trkpt lat="42.4031939" lon="11.2018815"><ele>4.6</ele><time>2026-04-04T10:52:14.804Z</time></trkpt><trkpt lat="42.4032442" lon="11.2017574"><ele>4.8</ele><time>2026-04-04T10:52:15.8Z</time></trkpt><trkpt lat="42.4032994" lon="11.201646"><ele>5.0</ele><time>2026-04-04T10:52:16.795Z</time></trkpt><trkpt lat="42.4033595" lon="11.201542"><ele>5.0</ele><time>2026-04-04T10:52:17.806Z</time></trkpt><trkpt lat="42.4034221" lon="11.2014325"><ele>5.0</ele><time>2026-04-04T10:52:18.791Z</time></trkpt><trkpt lat="42.4034845" lon="11.2013244"><ele>5.0</ele><time>2026-04-04T10:52:19.81Z</time></trkpt><trkpt lat="42.4035492" lon="11.2012244"><ele>5.0</ele><time>2026-04-04T10:52:20.806Z</time></trkpt><trkpt lat="42.4036187" lon="11.2011238"><ele>5.0</ele><time>2026-04-04T10:52:21.801Z</time></trkpt><trkpt lat="42.40369" lon="11.2010208"><ele>5.0</ele><time>2026-04-04T10:52:22.811Z</time></trkpt><trkpt lat="42.4037571" lon="11.2009183"><ele>5.0</ele><time>2026-04-04T10:52:23.792Z</time></trkpt><trkpt lat="42.4038201" lon="11.2008282"><ele>5.0</ele><time>2026-04-04T10:52:24.808Z</time></trkpt><trkpt lat="42.4038794" lon="11.2007568"><ele>5.0</ele><time>2026-04-04T10:52:25.805Z</time></trkpt><trkpt lat="42.4039337" lon="11.2006987"><ele>5.0</ele><time>2026-04-04T10:52:26.805Z</time></trkpt><trkpt lat="42.4040061" lon="11.2005839"><ele>5.333333333333334</ele><time>2026-04-04T10:52:28.795Z</time></trkpt><trkpt lat="42.4039888" lon="11.2004672"><ele>5.666666666666667</ele><time>2026-04-04T10:52:30.796Z</time></trkpt><trkpt lat="42.4039473" lon="11.2003986"><ele>6.0</ele><time>2026-04-04T10:52:31.792Z</time></trkpt><trkpt lat="42.4038795" lon="11.2003463"><ele>6.333333333333334</ele><time>2026-04-04T10:52:32.799Z</time></trkpt><trkpt lat="42.4037939" lon="11.2003068"><ele>6.666666666666667</ele><time>2026-04-04T10:52:33.791Z</time></trkpt><trkpt lat="42.4036957" lon="11.2002677"><ele>7.0</ele><time>2026-04-04T10:52:34.793Z</time></trkpt><trkpt lat="42.4035928" lon="11.2002216"><ele>7.0</ele><time>2026-04-04T10:52:35.794Z</time></trkpt><trkpt lat="42.403481" lon="11.2001755"><ele>7.0</ele><time>2026-04-04T10:52:36.807Z</time></trkpt><trkpt lat="42.4033574" lon="11.2001053"><ele>7.0</ele><time>2026-04-04T10:52:37.803Z</time></trkpt><trkpt lat="42.4032302" lon="11.2000429"><ele>7.0</ele><time>2026-04-04T10:52:38.799Z</time></trkpt><trkpt lat="42.4031073" lon="11.199974"><ele>7.0</ele><time>2026-04-04T10:52:39.792Z</time></trkpt><trkpt lat="42.4029827" lon="11.1999028"><ele>7.0</ele><time>2026-04-04T10:52:40.795Z</time></trkpt><trkpt lat="42.4028639" lon="11.1998301"><ele>7.0</ele><time>2026-04-04T10:52:41.795Z</time></trkpt><trkpt lat="42.4027473" lon="11.199767"><ele>7.0</ele><time>2026-04-04T10:52:42.799Z</time></trkpt><trkpt lat="42.4026347" lon="11.1997131"><ele>7.0</ele><time>2026-04-04T10:52:43.798Z</time></trkpt><trkpt lat="42.4025234" lon="11.1996559"><ele>7.0</ele><time>2026-04-04T10:52:44.794Z</time></trkpt><trkpt lat="42.4024133" lon="11.1995975"><ele>7.0</ele><time>2026-04-04T10:52:45.799Z</time></trkpt><trkpt lat="42.4023061" lon="11.1995368"><ele>7.0</ele><time>2026-04-04T10:52:46.807Z</time></trkpt><trkpt lat="42.4021986" lon="11.1994781"><ele>7.199999999999999</ele><time>2026-04-04T10:52:47.81Z</time></trkpt><trkpt lat="42.4020859" lon="11.1994285"><ele>7.3999999999999995</ele><time>2026-04-04T10:52:48.794Z</time></trkpt><trkpt lat="42.4019782" lon="11.1993876"><ele>7.6000000000000005</ele><time>2026-04-04T10:52:49.8Z</time></trkpt><trkpt lat="42.4018659" lon="11.1993527"><ele>7.800000000000001</ele><time>2026-04-04T10:52:50.804Z</time></trkpt><trkpt lat="42.4017689" lon="11.1993303"><ele>8.0</ele><time>2026-04-04T10:52:51.799Z</time></trkpt><trkpt lat="42.4016904" lon="11.1993078"><ele>7.999999999999999</ele><time>2026-04-04T10:52:52.814Z</time></trkpt><trkpt lat="42.4016148" lon="11.1992866"><ele>8.0</ele><time>2026-04-04T10:52:53.806Z</time></trkpt><trkpt lat="42.4015543" lon="11.1992532"><ele>8.0</ele><time>2026-04-04T10:52:54.8Z</time></trkpt><trkpt lat="42.4014975" lon="11.1992071"><ele>8.0</ele><time>2026-04-04T10:52:55.794Z</time></trkpt><trkpt lat="42.4014338" lon="11.1990786"><ele>7.999999999999999</ele><time>2026-04-04T10:52:57.79Z</time></trkpt><trkpt lat="42.4014624" lon="11.1989349"><ele>8.0</ele><time>2026-04-04T10:52:59.798Z</time></trkpt><trkpt lat="42.4014985" lon="11.1988468"><ele>8.4</ele><time>2026-04-04T10:53:00.799Z</time></trkpt><trkpt lat="42.4015467" lon="11.1987403"><ele>8.8</ele><time>2026-04-04T10:53:01.805Z</time></trkpt><trkpt lat="42.4016056" lon="11.1986072"><ele>9.2</ele><time>2026-04-04T10:53:02.802Z</time></trkpt><trkpt lat="42.4016679" lon="11.1984578"><ele>9.6</ele><time>2026-04-04T10:53:03.789Z</time></trkpt><trkpt lat="42.4017223" lon="11.198322"><ele>10.0</ele><time>2026-04-04T10:53:04.788Z</time></trkpt><trkpt lat="42.4017694" lon="11.1981761"><ele>10.75</ele><time>2026-04-04T10:53:05.8Z</time></trkpt><trkpt lat="42.4018086" lon="11.1980186"><ele>11.5</ele><time>2026-04-04T10:53:06.817Z</time></trkpt><trkpt lat="42.4018533" lon="11.1978666"><ele>12.25</ele><time>2026-04-04T10:53:07.815Z</time></trkpt><trkpt lat="42.4019012" lon="11.197706"><ele>13.0</ele><time>2026-04-04T10:53:08.8Z</time></trkpt><trkpt lat="42.4019496" lon="11.1975483"><ele>13.0</ele><time>2026-04-04T10:53:09.798Z</time></trkpt><trkpt lat="42.4019952" lon="11.1973962"><ele>13.0</ele><time>2026-04-04T10:53:10.813Z</time></trkpt><trkpt lat="42.4020457" lon="11.1972515"><ele>13.0</ele><time>2026-04-04T10:53:11.799Z</time></trkpt><trkpt lat="42.4020978" lon="11.1971078"><ele>13.0</ele><time>2026-04-04T10:53:12.798Z</time></trkpt><trkpt lat="42.4021638" lon="11.1969716"><ele>13.25</ele><time>2026-04-04T10:53:13.806Z</time></trkpt><trkpt lat="42.4022381" lon="11.1968397"><ele>13.5</ele><time>2026-04-04T10:53:14.792Z</time></trkpt><trkpt lat="42.4023109" lon="11.1967042"><ele>13.75</ele><time>2026-04-04T10:53:15.791Z</time></trkpt><trkpt lat="42.4023887" lon="11.1965791"><ele>14.0</ele><time>2026-04-04T10:53:16.793Z</time></trkpt><trkpt lat="42.402471" lon="11.1964671"><ele>15.0</ele><time>2026-04-04T10:53:17.794Z</time></trkpt><trkpt lat="42.4025573" lon="11.1963526"><ele>16.0</ele><time>2026-04-04T10:53:18.802Z</time></trkpt><trkpt lat="42.4026479" lon="11.1962351"><ele>17.0</ele><time>2026-04-04T10:53:19.813Z</time></trkpt><trkpt lat="42.4027316" lon="11.1961283"><ele>18.0</ele><time>2026-04-04T10:53:20.808Z</time></trkpt><trkpt lat="42.402808" lon="11.1960422"><ele>18.0</ele><time>2026-04-04T10:53:21.81Z</time></trkpt><trkpt lat="42.4028824" lon="11.1959625"><ele>18.0</ele><time>2026-04-04T10:53:22.815Z</time></trkpt><trkpt lat="42.4029593" lon="11.1958848"><ele>18.0</ele><time>2026-04-04T10:53:23.8Z</time></trkpt><trkpt lat="42.4030406" lon="11.1958076"><ele>18.0</ele><time>2026-04-04T10:53:24.796Z</time></trkpt><trkpt lat="42.4031387" lon="11.1957447"><ele>18.0</ele><time>2026-04-04T10:53:25.796Z</time></trkpt><trkpt lat="42.4032448" lon="11.1956988"><ele>18.166666666666668</ele><time>2026-04-04T10:53:26.808Z</time></trkpt><trkpt lat="42.4033502" lon="11.195668"><ele>18.333333333333332</ele><time>2026-04-04T10:53:27.797Z</time></trkpt><trkpt lat="42.4034422" lon="11.1956419"><ele>18.5</ele><time>2026-04-04T10:53:28.805Z</time></trkpt><trkpt lat="42.4035236" lon="11.1956085"><ele>18.666666666666664</ele><time>2026-04-04T10:53:29.807Z</time></trkpt><trkpt lat="42.4035813" lon="11.1955599"><ele>18.833333333333332</ele><time>2026-04-04T10:53:30.801Z</time></trkpt><trkpt lat="42.4036344" lon="11.1954956"><ele>19.0</ele><time>2026-04-04T10:53:31.81Z</time></trkpt><trkpt lat="42.4036656" lon="11.1954087"><ele>19.0</ele><time>2026-04-04T10:53:32.815Z</time></trkpt><trkpt lat="42.4036811" lon="11.1953026"><ele>19.0</ele><time>2026-04-04T10:53:33.792Z</time></trkpt><trkpt lat="42.4036828" lon="11.1951904"><ele>19.0</ele><time>2026-04-04T10:53:34.8Z</time></trkpt><trkpt lat="42.4036982" lon="11.1950731"><ele>19.0</ele><time>2026-04-04T10:53:35.799Z</time></trkpt><trkpt lat="42.4037122" lon="11.1949673"><ele>19.0</ele><time>2026-04-04T10:53:36.797Z</time></trkpt><trkpt lat="42.4037324" lon="11.1948669"><ele>19.0</ele><time>2026-04-04T10:53:37.807Z</time></trkpt><trkpt lat="42.4037681" lon="11.194774"><ele>19.5</ele><time>2026-04-04T10:53:38.808Z</time></trkpt><trkpt lat="42.4038091" lon="11.1946897"><ele>20.0</ele><time>2026-04-04T10:53:39.796Z</time></trkpt><trkpt lat="42.4038466" lon="11.194612"><ele>20.5</ele><time>2026-04-04T10:53:40.801Z</time></trkpt><trkpt lat="42.4038848" lon="11.1945274"><ele>21.0</ele><time>2026-04-04T10:53:41.812Z</time></trkpt><trkpt lat="42.4039222" lon="11.1944521"><ele>21.5</ele><time>2026-04-04T10:53:42.794Z</time></trkpt><trkpt lat="42.4040033" lon="11.1943945"><ele>22.0</ele><time>2026-04-04T10:53:44.803Z</time></trkpt><trkpt lat="42.4040822" lon="11.1943941"><ele>22.0</ele><time>2026-04-04T10:53:47.801Z</time></trkpt><trkpt lat="42.4041359" lon="11.1943334"><ele>22.0</ele><time>2026-04-04T10:53:49.807Z</time></trkpt><trkpt lat="42.4042004" lon="11.1941347"><ele>22.0</ele><time>2026-04-04T10:53:51.799Z</time></trkpt><trkpt lat="42.4042344" lon="11.19403"><ele>22.0</ele><time>2026-04-04T10:53:52.801Z</time></trkpt><trkpt lat="42.4042901" lon="11.193926"><ele>22.0</ele><time>2026-04-04T10:53:53.818Z</time></trkpt><trkpt lat="42.4043559" lon="11.1938266"><ele>22.5</ele><time>2026-04-04T10:53:54.811Z</time></trkpt><trkpt lat="42.4044184" lon="11.1937268"><ele>23.0</ele><time>2026-04-04T10:53:55.811Z</time></trkpt><trkpt lat="42.4044788" lon="11.1936455"><ele>23.5</ele><time>2026-04-04T10:53:56.797Z</time></trkpt><trkpt lat="42.4045405" lon="11.1935704"><ele>24.0</ele><time>2026-04-04T10:53:57.805Z</time></trkpt><trkpt lat="42.4046053" lon="11.1934886"><ele>24.500000000000004</ele><time>2026-04-04T10:53:58.817Z</time></trkpt><trkpt lat="42.4046639" lon="11.1934206"><ele>25.0</ele><time>2026-04-04T10:53:59.805Z</time></trkpt><trkpt lat="42.4047208" lon="11.1933585"><ele>26.0</ele><time>2026-04-04T10:54:00.792Z</time></trkpt><trkpt lat="42.4047813" lon="11.193295"><ele>27.0</ele><time>2026-04-04T10:54:01.817Z</time></trkpt><trkpt lat="42.4048375" lon="11.193231"><ele>28.0</ele><time>2026-04-04T10:54:02.808Z</time></trkpt><trkpt lat="42.4048993" lon="11.1931709"><ele>29.0</ele><time>2026-04-04T10:54:03.808Z</time></trkpt><trkpt lat="42.4049863" lon="11.1930559"><ele>30.0</ele><time>2026-04-04T10:54:05.798Z</time></trkpt><trkpt lat="42.4050592" lon="11.1929275"><ele>31.0</ele><time>2026-04-04T10:54:07.794Z</time></trkpt><trkpt lat="42.4051444" lon="11.1928323"><ele>32.0</ele><time>2026-04-04T10:54:09.795Z</time></trkpt><trkpt lat="42.405226" lon="11.1927538"><ele>33.0</ele><time>2026-04-04T10:54:11.797Z</time></trkpt><trkpt lat="42.4053066" lon="11.1927027"><ele>34.0</ele><time>2026-04-04T10:54:13.796Z</time></trkpt><trkpt lat="42.4054011" lon="11.1927328"><ele>35.0</ele><time>2026-04-04T10:54:15.798Z</time></trkpt><trkpt lat="42.4054512" lon="11.192798"><ele>35.666666666666664</ele><time>2026-04-04T10:54:16.792Z</time></trkpt><trkpt lat="42.4054967" lon="11.1928804"><ele>36.33333333333333</ele><time>2026-04-04T10:54:17.807Z</time></trkpt><trkpt lat="42.4055417" lon="11.1929623"><ele>37.0</ele><time>2026-04-04T10:54:18.797Z</time></trkpt><trkpt lat="42.4055776" lon="11.1930445"><ele>37.666666666666664</ele><time>2026-04-04T10:54:19.796Z</time></trkpt><trkpt lat="42.405611" lon="11.1931352"><ele>38.333333333333336</ele><time>2026-04-04T10:54:20.808Z</time></trkpt><trkpt lat="42.4056366" lon="11.1932157"><ele>39.0</ele><time>2026-04-04T10:54:21.806Z</time></trkpt><trkpt lat="42.4056943" lon="11.1933568"><ele>39.0</ele><time>2026-04-04T10:54:23.797Z</time></trkpt><trkpt lat="42.405733" lon="11.1934386"><ele>39.0</ele><time>2026-04-04T10:54:25.795Z</time></trkpt><trkpt lat="42.4057728" lon="11.1935118"><ele>39.0</ele><time>2026-04-04T10:54:27.808Z</time></trkpt><trkpt lat="42.4058255" lon="11.1935791"><ele>39.0</ele><time>2026-04-04T10:54:30.806Z</time></trkpt><trkpt lat="42.4059203" lon="11.1936179"><ele>39.0</ele><time>2026-04-04T10:54:32.803Z</time></trkpt><trkpt lat="42.4059708" lon="11.193527"><ele>39.0</ele><time>2026-04-04T10:54:34.795Z</time></trkpt><trkpt lat="42.4060035" lon="11.1934312"><ele>39.0</ele><time>2026-04-04T10:54:35.802Z</time></trkpt><trkpt lat="42.4060403" lon="11.1933424"><ele>39.0</ele><time>2026-04-04T10:54:36.788Z</time></trkpt><trkpt lat="42.4061023" lon="11.1932558"><ele>39.0</ele><time>2026-04-04T10:54:37.797Z</time></trkpt><trkpt lat="42.4061812" lon="11.1931472"><ele>39.0</ele><time>2026-04-04T10:54:38.806Z</time></trkpt><trkpt lat="42.4062579" lon="11.1930418"><ele>39.0</ele><time>2026-04-04T10:54:39.802Z</time></trkpt><trkpt lat="42.4063411" lon="11.1929277"><ele>45.33333333333333</ele><time>2026-04-04T10:54:40.808Z</time></trkpt><trkpt lat="42.4064207" lon="11.1928213"><ele>51.666666666666664</ele><time>2026-04-04T10:54:41.801Z</time></trkpt><trkpt lat="42.4065976" lon="11.1925752"><ele>58.0</ele><time>2026-04-04T10:54:43.801Z</time></trkpt><trkpt lat="42.4066795" lon="11.192465"><ele>58.0</ele><time>2026-04-04T10:54:44.803Z</time></trkpt><trkpt lat="42.4067481" lon="11.1923439"><ele>58.0</ele><time>2026-04-04T10:54:45.807Z</time></trkpt><trkpt lat="42.4068118" lon="11.192189"><ele>58.0</ele><time>2026-04-04T10:54:46.798Z</time></trkpt><trkpt lat="42.4068551" lon="11.192021"><ele>58.0</ele><time>2026-04-04T10:54:47.794Z</time></trkpt><trkpt lat="42.4068896" lon="11.191846"><ele>59.2</ele><time>2026-04-04T10:54:48.801Z</time></trkpt><trkpt lat="42.4069153" lon="11.1917136"><ele>60.4</ele><time>2026-04-04T10:54:49.812Z</time></trkpt><trkpt lat="42.4069485" lon="11.1915936"><ele>61.60000000000001</ele><time>2026-04-04T10:54:50.794Z</time></trkpt><trkpt lat="42.4069981" lon="11.1914535"><ele>62.800000000000004</ele><time>2026-04-04T10:54:51.809Z</time></trkpt><trkpt lat="42.4070417" lon="11.191329"><ele>64.0</ele><time>2026-04-04T10:54:52.8Z</time></trkpt><trkpt lat="42.4070833" lon="11.1912009"><ele>65.75</ele><time>2026-04-04T10:54:53.798Z</time></trkpt><trkpt lat="42.4071192" lon="11.191071"><ele>67.5</ele><time>2026-04-04T10:54:54.802Z</time></trkpt><trkpt lat="42.4071488" lon="11.1909305"><ele>69.25</ele><time>2026-04-04T10:54:55.808Z</time></trkpt><trkpt lat="42.4071778" lon="11.1907749"><ele>71.0</ele><time>2026-04-04T10:54:56.793Z</time></trkpt><trkpt lat="42.4072178" lon="11.190605"><ele>77.25</ele><time>2026-04-04T10:54:57.792Z</time></trkpt><trkpt lat="42.4072593" lon="11.1904348"><ele>83.5</ele><time>2026-04-04T10:54:58.796Z</time></trkpt><trkpt lat="42.4073013" lon="11.1902737"><ele>89.75</ele><time>2026-04-04T10:54:59.799Z</time></trkpt><trkpt lat="42.4073535" lon="11.190122"><ele>96.0</ele><time>2026-04-04T10:55:00.794Z</time></trkpt><trkpt lat="42.4074019" lon="11.1899872"><ele>96.0</ele><time>2026-04-04T10:55:01.796Z</time></trkpt><trkpt lat="42.4074435" lon="11.1898853"><ele>96.0</ele><time>2026-04-04T10:55:02.793Z</time></trkpt><trkpt lat="42.4074924" lon="11.1897897"><ele>96.0</ele><time>2026-04-04T10:55:03.796Z</time></trkpt><trkpt lat="42.4075421" lon="11.1897085"><ele>96.0</ele><time>2026-04-04T10:55:04.795Z</time></trkpt><trkpt lat="42.4076053" lon="11.1896258"><ele>96.0</ele><time>2026-04-04T10:55:05.789Z</time></trkpt><trkpt lat="42.4076797" lon="11.1895274"><ele>96.0</ele><time>2026-04-04T10:55:06.79Z</time></trkpt><trkpt lat="42.4077481" lon="11.1894216"><ele>96.83333333333333</ele><time>2026-04-04T10:55:07.798Z</time></trkpt><trkpt lat="42.4077945" lon="11.1893009"><ele>97.66666666666666</ele><time>2026-04-04T10:55:08.786Z</time></trkpt><trkpt lat="42.4078367" lon="11.1891776"><ele>98.5</ele><time>2026-04-04T10:55:09.79Z</time></trkpt><trkpt lat="42.4078811" lon="11.1890794"><ele>99.33333333333333</ele><time>2026-04-04T10:55:10.795Z</time></trkpt><trkpt lat="42.4079264" lon="11.1890073"><ele>100.16666666666666</ele><time>2026-04-04T10:55:11.793Z</time></trkpt><trkpt lat="42.4079903" lon="11.1889377"><ele>101.0</ele><time>2026-04-04T10:55:12.792Z</time></trkpt><trkpt lat="42.4080632" lon="11.1888634"><ele>104.0</ele><time>2026-04-04T10:55:13.791Z</time></trkpt><trkpt lat="42.4081391" lon="11.1887747"><ele>107.0</ele><time>2026-04-04T10:55:14.791Z</time></trkpt><trkpt lat="42.4082078" lon="11.1886764"><ele>110.0</ele><time>2026-04-04T10:55:15.796Z</time></trkpt><trkpt lat="42.4082708" lon="11.1885698"><ele>113.0</ele><time>2026-04-04T10:55:16.787Z</time></trkpt><trkpt lat="42.4083279" lon="11.1884542"><ele>116.0</ele><time>2026-04-04T10:55:17.789Z</time></trkpt><trkpt lat="42.4083824" lon="11.1883249"><ele>116.0</ele><time>2026-04-04T10:55:18.8Z</time></trkpt><trkpt lat="42.4084399" lon="11.1881872"><ele>116.0</ele><time>2026-04-04T10:55:19.791Z</time></trkpt><trkpt lat="42.4085064" lon="11.1880547"><ele>116.0</ele><time>2026-04-04T10:55:20.786Z</time></trkpt><trkpt lat="42.4085815" lon="11.1879354"><ele>116.0</ele><time>2026-04-04T10:55:21.795Z</time></trkpt><trkpt lat="42.4086586" lon="11.1878234"><ele>115.6</ele><time>2026-04-04T10:55:22.797Z</time></trkpt><trkpt lat="42.4087342" lon="11.1877283"><ele>115.19999999999999</ele><time>2026-04-04T10:55:23.795Z</time></trkpt><trkpt lat="42.4088174" lon="11.1876301"><ele>114.80000000000001</ele><time>2026-04-04T10:55:24.795Z</time></trkpt><trkpt lat="42.4089084" lon="11.1875507"><ele>114.4</ele><time>2026-04-04T10:55:25.787Z</time></trkpt><trkpt lat="42.4090099" lon="11.1874629"><ele>114.0</ele><time>2026-04-04T10:55:26.789Z</time></trkpt><trkpt lat="42.4091174" lon="11.1873611"><ele>115.66666666666666</ele><time>2026-04-04T10:55:27.792Z</time></trkpt><trkpt lat="42.4092437" lon="11.1872519"><ele>117.33333333333333</ele><time>2026-04-04T10:55:28.795Z</time></trkpt><trkpt lat="42.4093696" lon="11.1871385"><ele>119.0</ele><time>2026-04-04T10:55:29.792Z</time></trkpt><trkpt lat="42.4094999" lon="11.1870237"><ele>119.0</ele><time>2026-04-04T10:55:30.797Z</time></trkpt><trkpt lat="42.4096265" lon="11.1869052"><ele>119.0</ele><time>2026-04-04T10:55:31.797Z</time></trkpt><trkpt lat="42.4097385" lon="11.1867914"><ele>119.0</ele><time>2026-04-04T10:55:32.795Z</time></trkpt><trkpt lat="42.4098555" lon="11.1866766"><ele>119.0</ele><time>2026-04-04T10:55:33.793Z</time></trkpt><trkpt lat="42.4099679" lon="11.1865679"><ele>121.6</ele><time>2026-04-04T10:55:34.799Z</time></trkpt><trkpt lat="42.4100711" lon="11.1864699"><ele>124.2</ele><time>2026-04-04T10:55:35.806Z</time></trkpt><trkpt lat="42.410167" lon="11.1863576"><ele>126.79999999999998</ele><time>2026-04-04T10:55:36.789Z</time></trkpt><trkpt lat="42.4102478" lon="11.1862555"><ele>129.4</ele><time>2026-04-04T10:55:37.803Z</time></trkpt><trkpt lat="42.4103093" lon="11.1861981"><ele>132.0</ele><time>2026-04-04T10:55:38.792Z</time></trkpt><trkpt lat="42.4104212" lon="11.1861621"><ele>132.16666666666666</ele><time>2026-04-04T10:55:40.798Z</time></trkpt><trkpt lat="42.4105118" lon="11.1860975"><ele>132.33333333333334</ele><time>2026-04-04T10:55:42.803Z</time></trkpt><trkpt lat="42.4106105" lon="11.1859969"><ele>132.5</ele><time>2026-04-04T10:55:44.796Z</time></trkpt><trkpt lat="42.4106623" lon="11.1859411"><ele>132.66666666666669</ele><time>2026-04-04T10:55:45.793Z</time></trkpt><trkpt lat="42.4107185" lon="11.185889"><ele>132.83333333333334</ele><time>2026-04-04T10:55:46.792Z</time></trkpt><trkpt lat="42.4107772" lon="11.1858452"><ele>133.0</ele><time>2026-04-04T10:55:47.8Z</time></trkpt><trkpt lat="42.4108404" lon="11.1858085"><ele>133.0</ele><time>2026-04-04T10:55:48.802Z</time></trkpt><trkpt lat="42.4109064" lon="11.1857691"><ele>133.0</ele><time>2026-04-04T10:55:49.787Z</time></trkpt><trkpt lat="42.4109671" lon="11.1857342"><ele>133.0</ele><time>2026-04-04T10:55:50.783Z</time></trkpt><trkpt lat="42.4110773" lon="11.185658"><ele>133.0</ele><time>2026-04-04T10:55:52.795Z</time></trkpt><trkpt lat="42.4111321" lon="11.185607"><ele>133.0</ele><time>2026-04-04T10:55:53.796Z</time></trkpt><trkpt lat="42.4111818" lon="11.1855345"><ele>133.0</ele><time>2026-04-04T10:55:54.791Z</time></trkpt><trkpt lat="42.4112378" lon="11.1854272"><ele>133.8</ele><time>2026-04-04T10:55:55.805Z</time></trkpt><trkpt lat="42.4112987" lon="11.1853118"><ele>134.60000000000002</ele><time>2026-04-04T10:55:56.791Z</time></trkpt><trkpt lat="42.411362" lon="11.1852078"><ele>135.39999999999998</ele><time>2026-04-04T10:55:57.801Z</time></trkpt><trkpt lat="42.4114214" lon="11.1851029"><ele>136.2</ele><time>2026-04-04T10:55:58.82Z</time></trkpt><trkpt lat="42.4114626" lon="11.1850035"><ele>137.0</ele><time>2026-04-04T10:55:59.799Z</time></trkpt><trkpt lat="42.4114809" lon="11.1849025"><ele>127.33333333333333</ele><time>2026-04-04T10:56:00.911Z</time></trkpt><trkpt lat="42.4114982" lon="11.1846992"><ele>117.66666666666666</ele><time>2026-04-04T10:56:02.803Z</time></trkpt><trkpt lat="42.4115056" lon="11.1845579"><ele>108.0</ele><time>2026-04-04T10:56:03.83Z</time></trkpt><trkpt lat="42.4115018" lon="11.1842479"><ele>108.0</ele><time>2026-04-04T10:56:05.796Z</time></trkpt><trkpt lat="42.4115046" lon="11.1840955"><ele>108.00000000000001</ele><time>2026-04-04T10:56:06.788Z</time></trkpt><trkpt lat="42.4115112" lon="11.1839462"><ele>108.00000000000001</ele><time>2026-04-04T10:56:07.799Z</time></trkpt><trkpt lat="42.4115235" lon="11.1838109"><ele>108.0</ele><time>2026-04-04T10:56:08.788Z</time></trkpt><trkpt lat="42.4115508" lon="11.1836721"><ele>108.0</ele><time>2026-04-04T10:56:09.8Z</time></trkpt><trkpt lat="42.4116015" lon="11.183526"><ele>108.2</ele><time>2026-04-04T10:56:10.798Z</time></trkpt><trkpt lat="42.411651" lon="11.183382"><ele>108.4</ele><time>2026-04-04T10:56:11.783Z</time></trkpt><trkpt lat="42.4117041" lon="11.1832325"><ele>108.60000000000001</ele><time>2026-04-04T10:56:12.797Z</time></trkpt><trkpt lat="42.4117533" lon="11.1831065"><ele>108.80000000000001</ele><time>2026-04-04T10:56:13.794Z</time></trkpt><trkpt lat="42.4117989" lon="11.1830025"><ele>109.0</ele><time>2026-04-04T10:56:14.8Z</time></trkpt><trkpt lat="42.411851" lon="11.1829036"><ele>109.33333333333334</ele><time>2026-04-04T10:56:15.796Z</time></trkpt><trkpt lat="42.4119085" lon="11.1828123"><ele>109.66666666666667</ele><time>2026-04-04T10:56:16.807Z</time></trkpt><trkpt lat="42.4119656" lon="11.1827279"><ele>110.0</ele><time>2026-04-04T10:56:17.797Z</time></trkpt><trkpt lat="42.4120035" lon="11.1826408"><ele>110.33333333333334</ele><time>2026-04-04T10:56:18.799Z</time></trkpt><trkpt lat="42.4120374" lon="11.1825491"><ele>110.66666666666667</ele><time>2026-04-04T10:56:19.8Z</time></trkpt><trkpt lat="42.412065" lon="11.1824359"><ele>111.0</ele><time>2026-04-04T10:56:20.793Z</time></trkpt><trkpt lat="42.4120894" lon="11.1823095"><ele>111.0</ele><time>2026-04-04T10:56:21.811Z</time></trkpt><trkpt lat="42.4121098" lon="11.1821931"><ele>111.0</ele><time>2026-04-04T10:56:22.813Z</time></trkpt><trkpt lat="42.4121285" lon="11.1820848"><ele>111.0</ele><time>2026-04-04T10:56:23.798Z</time></trkpt><trkpt lat="42.4121354" lon="11.1819805"><ele>111.0</ele><time>2026-04-04T10:56:24.813Z</time></trkpt><trkpt lat="42.4121423" lon="11.1818773"><ele>111.0</ele><time>2026-04-04T10:56:25.798Z</time></trkpt><trkpt lat="42.4121503" lon="11.1817842"><ele>111.0</ele><time>2026-04-04T10:56:26.796Z</time></trkpt><trkpt lat="42.4121611" lon="11.181692"><ele>110.0</ele><time>2026-04-04T10:56:27.794Z</time></trkpt><trkpt lat="42.4121687" lon="11.181592"><ele>109.0</ele><time>2026-04-04T10:56:28.811Z</time></trkpt><trkpt lat="42.4121576" lon="11.1814905"><ele>108.0</ele><time>2026-04-04T10:56:29.79Z</time></trkpt><trkpt lat="42.4121477" lon="11.1813852"><ele>107.0</ele><time>2026-04-04T10:56:30.802Z</time></trkpt><trkpt lat="42.4121542" lon="11.1812681"><ele>106.0</ele><time>2026-04-04T10:56:31.793Z</time></trkpt><trkpt lat="42.4121601" lon="11.1811553"><ele>105.0</ele><time>2026-04-04T10:56:32.798Z</time></trkpt><trkpt lat="42.4121589" lon="11.1810452"><ele>105.0</ele><time>2026-04-04T10:56:33.796Z</time></trkpt><trkpt lat="42.4121453" lon="11.1809337"><ele>105.0</ele><time>2026-04-04T10:56:34.804Z</time></trkpt><trkpt lat="42.4121271" lon="11.1808261"><ele>105.0</ele><time>2026-04-04T10:56:35.8Z</time></trkpt><trkpt lat="42.4121002" lon="11.1807333"><ele>105.0</ele><time>2026-04-04T10:56:36.793Z</time></trkpt><trkpt lat="42.4120692" lon="11.1805738"><ele>105.0</ele><time>2026-04-04T10:56:38.796Z</time></trkpt><trkpt lat="42.4120882" lon="11.1804242"><ele>103.75</ele><time>2026-04-04T10:56:40.8Z</time></trkpt><trkpt lat="42.4121039" lon="11.1802675"><ele>102.5</ele><time>2026-04-04T10:56:42.806Z</time></trkpt><trkpt lat="42.4121291" lon="11.1801205"><ele>101.25</ele><time>2026-04-04T10:56:44.794Z</time></trkpt><trkpt lat="42.4121844" lon="11.1799786"><ele>100.0</ele><time>2026-04-04T10:56:46.8Z</time></trkpt><trkpt lat="42.4122615" lon="11.1798774"><ele>96.83333333333334</ele><time>2026-04-04T10:56:48.794Z</time></trkpt><trkpt lat="42.412336" lon="11.1798156"><ele>93.66666666666667</ele><time>2026-04-04T10:56:50.789Z</time></trkpt><trkpt lat="42.4124038" lon="11.179782"><ele>90.5</ele><time>2026-04-04T10:56:52.796Z</time></trkpt><trkpt lat="42.4124627" lon="11.1796998"><ele>87.33333333333334</ele><time>2026-04-04T10:56:54.802Z</time></trkpt><trkpt lat="42.4124827" lon="11.1796167"><ele>84.16666666666667</ele><time>2026-04-04T10:56:55.801Z</time></trkpt><trkpt lat="42.4124678" lon="11.1794691"><ele>81.0</ele><time>2026-04-04T10:56:57.799Z</time></trkpt><trkpt lat="42.4123644" lon="11.1793732"><ele>81.0</ele><time>2026-04-04T10:56:59.782Z</time></trkpt><trkpt lat="42.4122924" lon="11.1793368"><ele>81.0</ele><time>2026-04-04T10:57:00.796Z</time></trkpt><trkpt lat="42.4122077" lon="11.1793138"><ele>81.0</ele><time>2026-04-04T10:57:01.792Z</time></trkpt><trkpt lat="42.412116" lon="11.1792975"><ele>81.0</ele><time>2026-04-04T10:57:02.793Z</time></trkpt><trkpt lat="42.4120286" lon="11.1792968"><ele>81.0</ele><time>2026-04-04T10:57:03.791Z</time></trkpt><trkpt lat="42.411957" lon="11.1793004"><ele>81.0</ele><time>2026-04-04T10:57:04.795Z</time></trkpt><trkpt lat="42.4118772" lon="11.1793028"><ele>85.19999999999999</ele><time>2026-04-04T10:57:06.809Z</time></trkpt><trkpt lat="42.4118416" lon="11.1792051"><ele>89.39999999999999</ele><time>2026-04-04T10:57:09.787Z</time></trkpt><trkpt lat="42.4118632" lon="11.1791068"><ele>93.6</ele><time>2026-04-04T10:57:11.797Z</time></trkpt><trkpt lat="42.4119475" lon="11.1789297"><ele>97.8</ele><time>2026-04-04T10:57:13.798Z</time></trkpt><trkpt lat="42.4120349" lon="11.1788052"><ele>102.0</ele><time>2026-04-04T10:57:14.79Z</time></trkpt><trkpt lat="42.4121255" lon="11.1786798"><ele>102.0</ele><time>2026-04-04T10:57:15.796Z</time></trkpt><trkpt lat="42.4122217" lon="11.1785578"><ele>102.0</ele><time>2026-04-04T10:57:16.79Z</time></trkpt><trkpt lat="42.4123113" lon="11.1784353"><ele>102.0</ele><time>2026-04-04T10:57:17.799Z</time></trkpt><trkpt lat="42.4123865" lon="11.1783039"><ele>102.0</ele><time>2026-04-04T10:57:18.791Z</time></trkpt><trkpt lat="42.4124653" lon="11.1781839"><ele>102.0</ele><time>2026-04-04T10:57:19.792Z</time></trkpt><trkpt lat="42.4125458" lon="11.1780607"><ele>102.0</ele><time>2026-04-04T10:57:20.792Z</time></trkpt><trkpt lat="42.4126093" lon="11.1779546"><ele>102.0</ele><time>2026-04-04T10:57:21.794Z</time></trkpt><trkpt lat="42.4126736" lon="11.1778608"><ele>102.0</ele><time>2026-04-04T10:57:22.806Z</time></trkpt><trkpt lat="42.412748" lon="11.1777769"><ele>102.0</ele><time>2026-04-04T10:57:23.803Z</time></trkpt><trkpt lat="42.4128307" lon="11.1776985"><ele>102.0</ele><time>2026-04-04T10:57:24.795Z</time></trkpt><trkpt lat="42.4129048" lon="11.1776346"><ele>102.0</ele><time>2026-04-04T10:57:25.794Z</time></trkpt><trkpt lat="42.4129737" lon="11.177575"><ele>102.0</ele><time>2026-04-04T10:57:26.796Z</time></trkpt><trkpt lat="42.413041" lon="11.1775037"><ele>102.0</ele><time>2026-04-04T10:57:27.817Z</time></trkpt><trkpt lat="42.4130976" lon="11.1774248"><ele>102.0</ele><time>2026-04-04T10:57:28.792Z</time></trkpt><trkpt lat="42.4131408" lon="11.1772753"><ele>100.83333333333333</ele><time>2026-04-04T10:57:30.795Z</time></trkpt><trkpt lat="42.4131196" lon="11.1771804"><ele>99.66666666666667</ele><time>2026-04-04T10:57:31.793Z</time></trkpt><trkpt lat="42.4130775" lon="11.1770897"><ele>98.5</ele><time>2026-04-04T10:57:32.792Z</time></trkpt><trkpt lat="42.4130202" lon="11.1769996"><ele>97.33333333333334</ele><time>2026-04-04T10:57:33.797Z</time></trkpt><trkpt lat="42.4129606" lon="11.1769262"><ele>96.16666666666667</ele><time>2026-04-04T10:57:34.795Z</time></trkpt><trkpt lat="42.4128932" lon="11.1768865"><ele>95.0</ele><time>2026-04-04T10:57:35.795Z</time></trkpt><trkpt lat="42.4128031" lon="11.1768531"><ele>95.0</ele><time>2026-04-04T10:57:36.795Z</time></trkpt><trkpt lat="42.4127092" lon="11.1767974"><ele>95.0</ele><time>2026-04-04T10:57:37.8Z</time></trkpt><trkpt lat="42.4125908" lon="11.1767224"><ele>95.0</ele><time>2026-04-04T10:57:38.796Z</time></trkpt><trkpt lat="42.4124432" lon="11.1766274"><ele>95.0</ele><time>2026-04-04T10:57:39.795Z</time></trkpt><trkpt lat="42.4122913" lon="11.1765359"><ele>95.5</ele><time>2026-04-04T10:57:40.791Z</time></trkpt><trkpt lat="42.4121466" lon="11.1764437"><ele>96.0</ele><time>2026-04-04T10:57:41.791Z</time></trkpt><trkpt lat="42.4120239" lon="11.1763589"><ele>96.5</ele><time>2026-04-04T10:57:42.8Z</time></trkpt><trkpt lat="42.4119184" lon="11.1762969"><ele>97.0</ele><time>2026-04-04T10:57:43.806Z</time></trkpt><trkpt lat="42.4118196" lon="11.176241"><ele>97.00000000000001</ele><time>2026-04-04T10:57:44.787Z</time></trkpt><trkpt lat="42.4117293" lon="11.1761849"><ele>97.0</ele><time>2026-04-04T10:57:45.793Z</time></trkpt><trkpt lat="42.4116603" lon="11.1761308"><ele>97.0</ele><time>2026-04-04T10:57:46.795Z</time></trkpt><trkpt lat="42.4115668" lon="11.1760842"><ele>97.0</ele><time>2026-04-04T10:57:48.793Z</time></trkpt><trkpt lat="42.4115038" lon="11.1760593"><ele>97.00000000000001</ele><time>2026-04-04T10:57:49.785Z</time></trkpt><trkpt lat="42.4114323" lon="11.1760311"><ele>97.0</ele><time>2026-04-04T10:57:50.791Z</time></trkpt><trkpt lat="42.4113629" lon="11.1760144"><ele>99.66666666666667</ele><time>2026-04-04T10:57:51.785Z</time></trkpt><trkpt lat="42.4112831" lon="11.1759845"><ele>102.33333333333334</ele><time>2026-04-04T10:57:52.785Z</time></trkpt><trkpt lat="42.4112037" lon="11.1759459"><ele>105.0</ele><time>2026-04-04T10:57:53.781Z</time></trkpt><trkpt lat="42.4111427" lon="11.1759145"><ele>107.66666666666666</ele><time>2026-04-04T10:57:54.792Z</time></trkpt><trkpt lat="42.4110563" lon="11.1758536"><ele>110.33333333333333</ele><time>2026-04-04T10:57:56.795Z</time></trkpt><trkpt lat="42.411018" lon="11.175759"><ele>113.0</ele><time>2026-04-04T10:57:59.79Z</time></trkpt><trkpt lat="42.411065" lon="11.1756522"><ele>113.83333333333333</ele><time>2026-04-04T10:58:01.785Z</time></trkpt><trkpt lat="42.4111174" lon="11.1755741"><ele>114.66666666666666</ele><time>2026-04-04T10:58:02.786Z</time></trkpt><trkpt lat="42.4111763" lon="11.1754845"><ele>115.5</ele><time>2026-04-04T10:58:03.788Z</time></trkpt><trkpt lat="42.4112354" lon="11.1753851"><ele>116.33333333333334</ele><time>2026-04-04T10:58:04.79Z</time></trkpt><trkpt lat="42.4112909" lon="11.1752914"><ele>117.16666666666667</ele><time>2026-04-04T10:58:05.786Z</time></trkpt><trkpt lat="42.4113372" lon="11.1752128"><ele>118.0</ele><time>2026-04-04T10:58:06.793Z</time></trkpt><trkpt lat="42.4113829" lon="11.1751324"><ele>117.00000000000001</ele><time>2026-04-04T10:58:07.786Z</time></trkpt><trkpt lat="42.4114039" lon="11.1750513"><ele>116.0</ele><time>2026-04-04T10:58:08.792Z</time></trkpt><trkpt lat="42.4114053" lon="11.1748859"><ele>115.0</ele><time>2026-04-04T10:58:10.795Z</time></trkpt><trkpt lat="42.4113852" lon="11.1747907"><ele>114.0</ele><time>2026-04-04T10:58:11.789Z</time></trkpt><trkpt lat="42.4113599" lon="11.1746928"><ele>113.00000000000001</ele><time>2026-04-04T10:58:12.789Z</time></trkpt><trkpt lat="42.4113231" lon="11.17456"><ele>112.0</ele><time>2026-04-04T10:58:14.791Z</time></trkpt><trkpt lat="42.4113452" lon="11.1744474"><ele>112.00000000000001</ele><time>2026-04-04T10:58:17.79Z</time></trkpt><trkpt lat="42.4114259" lon="11.174403"><ele>112.0</ele><time>2026-04-04T10:58:23.792Z</time></trkpt><trkpt lat="42.4115026" lon="11.174367"><ele>112.0</ele><time>2026-04-04T10:58:25.793Z</time></trkpt><trkpt lat="42.4115626" lon="11.1743385"><ele>112.0</ele><time>2026-04-04T10:58:28.783Z</time></trkpt><trkpt lat="42.411626" lon="11.1743177"><ele>112.00000000000001</ele><time>2026-04-04T10:58:43.787Z</time></trkpt><trkpt lat="42.4117475" lon="11.1742607"><ele>112.0</ele><time>2026-04-04T10:58:45.787Z</time></trkpt><trkpt lat="42.4118214" lon="11.1742315"><ele>112.00000000000001</ele><time>2026-04-04T10:58:46.789Z</time></trkpt><trkpt lat="42.4118886" lon="11.1742065"><ele>112.0</ele><time>2026-04-04T10:58:47.786Z</time></trkpt><trkpt lat="42.4119543" lon="11.1742004"><ele>112.0</ele><time>2026-04-04T10:58:48.784Z</time></trkpt><trkpt lat="42.4120291" lon="11.1742076"><ele>112.0</ele><time>2026-04-04T10:58:49.793Z</time></trkpt><trkpt lat="42.4121086" lon="11.1742286"><ele>112.00000000000001</ele><time>2026-04-04T10:58:50.789Z</time></trkpt><trkpt lat="42.4121979" lon="11.1742605"><ele>112.0</ele><time>2026-04-04T10:58:51.793Z</time></trkpt><trkpt lat="42.4122887" lon="11.1743101"><ele>113.0</ele><time>2026-04-04T10:58:52.783Z</time></trkpt><trkpt lat="42.4123855" lon="11.1743807"><ele>113.99999999999999</ele><time>2026-04-04T10:58:53.797Z</time></trkpt><trkpt lat="42.4124878" lon="11.1744438"><ele>114.99999999999999</ele><time>2026-04-04T10:58:54.784Z</time></trkpt><trkpt lat="42.4125796" lon="11.1744975"><ele>116.0</ele><time>2026-04-04T10:58:55.793Z</time></trkpt><trkpt lat="42.4126732" lon="11.1745322"><ele>117.0</ele><time>2026-04-04T10:58:56.79Z</time></trkpt><trkpt lat="42.4127631" lon="11.1745451"><ele>117.0</ele><time>2026-04-04T10:58:57.789Z</time></trkpt><trkpt lat="42.4128655" lon="11.1745483"><ele>116.99999999999999</ele><time>2026-04-04T10:58:58.794Z</time></trkpt><trkpt lat="42.4129757" lon="11.1745401"><ele>116.99999999999999</ele><time>2026-04-04T10:58:59.79Z</time></trkpt><trkpt lat="42.4130822" lon="11.1745252"><ele>117.0</ele><time>2026-04-04T10:59:00.789Z</time></trkpt><trkpt lat="42.413153" lon="11.1745059"><ele>117.0</ele><time>2026-04-04T10:59:01.798Z</time></trkpt><trkpt lat="42.4132182" lon="11.1744825"><ele>115.14285714285715</ele><time>2026-04-04T10:59:02.792Z</time></trkpt><trkpt lat="42.4132726" lon="11.1744357"><ele>113.2857142857143</ele><time>2026-04-04T10:59:03.788Z</time></trkpt><trkpt lat="42.4133132" lon="11.1743568"><ele>111.42857142857143</ele><time>2026-04-04T10:59:04.784Z</time></trkpt><trkpt lat="42.413342" lon="11.1742138"><ele>109.57142857142858</ele><time>2026-04-04T10:59:06.795Z</time></trkpt><trkpt lat="42.4133213" lon="11.1741297"><ele>107.71428571428572</ele><time>2026-04-04T10:59:07.784Z</time></trkpt><trkpt lat="42.4132886" lon="11.1740543"><ele>105.85714285714286</ele><time>2026-04-04T10:59:08.785Z</time></trkpt><trkpt lat="42.4132507" lon="11.1739716"><ele>104.0</ele><time>2026-04-04T10:59:09.786Z</time></trkpt><trkpt lat="42.4132169" lon="11.1738862"><ele>104.0</ele><time>2026-04-04T10:59:10.794Z</time></trkpt><trkpt lat="42.413165" lon="11.1737554"><ele>104.0</ele><time>2026-04-04T10:59:11.783Z</time></trkpt><trkpt lat="42.4131057" lon="11.1736192"><ele>104.0</ele><time>2026-04-04T10:59:12.79Z</time></trkpt><trkpt lat="42.4130435" lon="11.1734907"><ele>104.0</ele><time>2026-04-04T10:59:13.786Z</time></trkpt><trkpt lat="42.4129846" lon="11.173355"><ele>110.5</ele><time>2026-04-04T10:59:14.788Z</time></trkpt><trkpt lat="42.4129239" lon="11.173192"><ele>117.0</ele><time>2026-04-04T10:59:15.789Z</time></trkpt><trkpt lat="42.4128654" lon="11.1730367"><ele>123.5</ele><time>2026-04-04T10:59:16.789Z</time></trkpt><trkpt lat="42.4128096" lon="11.1728901"><ele>130.0</ele><time>2026-04-04T10:59:17.79Z</time></trkpt><trkpt lat="42.4127663" lon="11.172751"><ele>131.6</ele><time>2026-04-04T10:59:18.792Z</time></trkpt><trkpt lat="42.4127266" lon="11.1726047"><ele>133.2</ele><time>2026-04-04T10:59:19.789Z</time></trkpt><trkpt lat="42.4127025" lon="11.1724614"><ele>134.8</ele><time>2026-04-04T10:59:20.786Z</time></trkpt><trkpt lat="42.4126914" lon="11.1723399"><ele>136.4</ele><time>2026-04-04T10:59:21.781Z</time></trkpt><trkpt lat="42.4126964" lon="11.1722327"><ele>138.0</ele><time>2026-04-04T10:59:22.793Z</time></trkpt><trkpt lat="42.4127106" lon="11.1721349"><ele>140.16666666666666</ele><time>2026-04-04T10:59:23.792Z</time></trkpt><trkpt lat="42.4127411" lon="11.1720208"><ele>142.33333333333334</ele><time>2026-04-04T10:59:24.785Z</time></trkpt><trkpt lat="42.412776" lon="11.1719065"><ele>144.5</ele><time>2026-04-04T10:59:25.787Z</time></trkpt><trkpt lat="42.4128207" lon="11.1718129"><ele>146.66666666666669</ele><time>2026-04-04T10:59:26.796Z</time></trkpt><trkpt lat="42.4128504" lon="11.1717331"><ele>148.83333333333334</ele><time>2026-04-04T10:59:27.784Z</time></trkpt><trkpt lat="42.4128946" lon="11.1716597"><ele>151.0</ele><time>2026-04-04T10:59:28.78Z</time></trkpt><trkpt lat="42.4129403" lon="11.1715861"><ele>147.83333333333334</ele><time>2026-04-04T10:59:30.784Z</time></trkpt><trkpt lat="42.4130133" lon="11.1715537"><ele>144.66666666666669</ele><time>2026-04-04T10:59:33.787Z</time></trkpt><trkpt lat="42.4131186" lon="11.1715954"><ele>141.5</ele><time>2026-04-04T10:59:35.787Z</time></trkpt><trkpt lat="42.4131945" lon="11.1716253"><ele>138.33333333333334</ele><time>2026-04-04T10:59:36.786Z</time></trkpt><trkpt lat="42.413271" lon="11.1716507"><ele>135.16666666666666</ele><time>2026-04-04T10:59:37.783Z</time></trkpt><trkpt lat="42.4133486" lon="11.1716803"><ele>132.0</ele><time>2026-04-04T10:59:38.79Z</time></trkpt><trkpt lat="42.4134184" lon="11.1716975"><ele>132.0</ele><time>2026-04-04T10:59:39.788Z</time></trkpt><trkpt lat="42.4134855" lon="11.1717093"><ele>132.0</ele><time>2026-04-04T10:59:40.779Z</time></trkpt><trkpt lat="42.413551" lon="11.1717004"><ele>132.0</ele><time>2026-04-04T10:59:41.784Z</time></trkpt><trkpt lat="42.4136637" lon="11.1716207"><ele>132.0</ele><time>2026-04-04T10:59:43.796Z</time></trkpt><trkpt lat="42.4138117" lon="11.1714964"><ele>132.0</ele><time>2026-04-04T10:59:45.784Z</time></trkpt><trkpt lat="42.4139168" lon="11.1714001"><ele>134.2</ele><time>2026-04-04T10:59:46.792Z</time></trkpt><trkpt lat="42.4140198" lon="11.1712938"><ele>136.39999999999998</ele><time>2026-04-04T10:59:47.786Z</time></trkpt><trkpt lat="42.4141025" lon="11.1711976"><ele>138.60000000000002</ele><time>2026-04-04T10:59:48.792Z</time></trkpt><trkpt lat="42.4141696" lon="11.1711129"><ele>140.8</ele><time>2026-04-04T10:59:49.8Z</time></trkpt><trkpt lat="42.4142393" lon="11.1710425"><ele>143.0</ele><time>2026-04-04T10:59:50.788Z</time></trkpt><trkpt lat="42.4143001" lon="11.1709804"><ele>143.0</ele><time>2026-04-04T10:59:51.791Z</time></trkpt><trkpt lat="42.414367" lon="11.1709169"><ele>143.0</ele><time>2026-04-04T10:59:54.786Z</time></trkpt><trkpt lat="42.4144342" lon="11.1709018"><ele>143.0</ele><time>2026-04-04T11:00:02.786Z</time></trkpt><trkpt lat="42.4145129" lon="11.1708691"><ele>143.0</ele><time>2026-04-04T11:00:10.785Z</time></trkpt><trkpt lat="42.4145909" lon="11.1708505"><ele>143.0</ele><time>2026-04-04T11:00:11.787Z</time></trkpt><trkpt lat="42.4146684" lon="11.1708367"><ele>143.0</ele><time>2026-04-04T11:00:12.788Z</time></trkpt><trkpt lat="42.4147468" lon="11.1708036"><ele>143.33333333333331</ele><time>2026-04-04T11:00:13.785Z</time></trkpt><trkpt lat="42.4148192" lon="11.1707512"><ele>143.66666666666666</ele><time>2026-04-04T11:00:14.78Z</time></trkpt><trkpt lat="42.4148927" lon="11.1706878"><ele>144.0</ele><time>2026-04-04T11:00:15.798Z</time></trkpt><trkpt lat="42.4149626" lon="11.1706095"><ele>144.33333333333334</ele><time>2026-04-04T11:00:16.79Z</time></trkpt><trkpt lat="42.4150281" lon="11.1705047"><ele>144.66666666666669</ele><time>2026-04-04T11:00:17.79Z</time></trkpt><trkpt lat="42.4150645" lon="11.1704282"><ele>145.0</ele><time>2026-04-04T11:00:18.787Z</time></trkpt><trkpt lat="42.4150854" lon="11.1703365"><ele>145.0</ele><time>2026-04-04T11:00:19.787Z</time></trkpt><trkpt lat="42.4150934" lon="11.1702361"><ele>145.0</ele><time>2026-04-04T11:00:20.79Z</time></trkpt><trkpt lat="42.4151102" lon="11.1701119"><ele>145.0</ele><time>2026-04-04T11:00:21.785Z</time></trkpt><trkpt lat="42.4151269" lon="11.1699527"><ele>145.0</ele><time>2026-04-04T11:00:22.801Z</time></trkpt><trkpt lat="42.4151475" lon="11.1697874"><ele>145.0</ele><time>2026-04-04T11:00:23.787Z</time></trkpt><trkpt lat="42.415168" lon="11.1696495"><ele>146.2</ele><time>2026-04-04T11:00:24.795Z</time></trkpt><trkpt lat="42.4151835" lon="11.1695273"><ele>147.4</ele><time>2026-04-04T11:00:25.785Z</time></trkpt><trkpt lat="42.4151901" lon="11.1694098"><ele>148.6</ele><time>2026-04-04T11:00:26.793Z</time></trkpt><trkpt lat="42.4151863" lon="11.1693033"><ele>149.8</ele><time>2026-04-04T11:00:27.792Z</time></trkpt><trkpt lat="42.4151702" lon="11.1691731"><ele>151.0</ele><time>2026-04-04T11:00:28.785Z</time></trkpt><trkpt lat="42.4151502" lon="11.1690207"><ele>152.4</ele><time>2026-04-04T11:00:29.787Z</time></trkpt><trkpt lat="42.4151295" lon="11.1688431"><ele>153.8</ele><time>2026-04-04T11:00:30.788Z</time></trkpt><trkpt lat="42.4151115" lon="11.1687145"><ele>155.20000000000002</ele><time>2026-04-04T11:00:31.782Z</time></trkpt><trkpt lat="42.4150987" lon="11.1686075"><ele>156.6</ele><time>2026-04-04T11:00:32.792Z</time></trkpt><trkpt lat="42.4151005" lon="11.1684938"><ele>158.0</ele><time>2026-04-04T11:00:33.785Z</time></trkpt><trkpt lat="42.4151133" lon="11.1683968"><ele>158.0</ele><time>2026-04-04T11:00:34.789Z</time></trkpt><trkpt lat="42.4151351" lon="11.1683002"><ele>158.0</ele><time>2026-04-04T11:00:35.785Z</time></trkpt><trkpt lat="42.4151761" lon="11.1682047"><ele>158.0</ele><time>2026-04-04T11:00:36.796Z</time></trkpt><trkpt lat="42.4152075" lon="11.1681024"><ele>158.0</ele><time>2026-04-04T11:00:37.785Z</time></trkpt><trkpt lat="42.4152405" lon="11.1679925"><ele>158.0</ele><time>2026-04-04T11:00:38.792Z</time></trkpt><trkpt lat="42.4152694" lon="11.1679052"><ele>158.0</ele><time>2026-04-04T11:00:39.787Z</time></trkpt><trkpt lat="42.4153208" lon="11.1678124"><ele>157.66666666666666</ele><time>2026-04-04T11:00:40.789Z</time></trkpt><trkpt lat="42.4153656" lon="11.1677257"><ele>157.33333333333331</ele><time>2026-04-04T11:00:41.784Z</time></trkpt><trkpt lat="42.4154003" lon="11.1676486"><ele>157.0</ele><time>2026-04-04T11:00:42.792Z</time></trkpt><trkpt lat="42.4154509" lon="11.167491"><ele>156.66666666666666</ele><time>2026-04-04T11:00:44.79Z</time></trkpt><trkpt lat="42.4154814" lon="11.1674005"><ele>156.33333333333334</ele><time>2026-04-04T11:00:45.786Z</time></trkpt><trkpt lat="42.4155127" lon="11.1672976"><ele>156.0</ele><time>2026-04-04T11:00:46.795Z</time></trkpt><trkpt lat="42.4155322" lon="11.1671975"><ele>156.0</ele><time>2026-04-04T11:00:47.789Z</time></trkpt><trkpt lat="42.4155577" lon="11.1670981"><ele>156.0</ele><time>2026-04-04T11:00:48.794Z</time></trkpt><trkpt lat="42.415595" lon="11.1670001"><ele>156.0</ele><time>2026-04-04T11:00:49.781Z</time></trkpt><trkpt lat="42.4156539" lon="11.1669061"><ele>156.0</ele><time>2026-04-04T11:00:50.789Z</time></trkpt><trkpt lat="42.4157109" lon="11.1668258"><ele>156.0</ele><time>2026-04-04T11:00:51.784Z</time></trkpt><trkpt lat="42.4157616" lon="11.1667532"><ele>156.0</ele><time>2026-04-04T11:00:52.792Z</time></trkpt><trkpt lat="42.4157946" lon="11.1666623"><ele>156.0</ele><time>2026-04-04T11:00:53.782Z</time></trkpt><trkpt lat="42.4158206" lon="11.1665578"><ele>156.0</ele><time>2026-04-04T11:00:54.79Z</time></trkpt><trkpt lat="42.4158469" lon="11.1664522"><ele>156.0</ele><time>2026-04-04T11:00:55.789Z</time></trkpt><trkpt lat="42.4158682" lon="11.166365"><ele>156.0</ele><time>2026-04-04T11:00:56.787Z</time></trkpt><trkpt lat="42.41586" lon="11.1662618"><ele>156.0</ele><time>2026-04-04T11:00:58.787Z</time></trkpt><trkpt lat="42.4157958" lon="11.1661702"><ele>156.0</ele><time>2026-04-04T11:01:00.786Z</time></trkpt><trkpt lat="42.415727" lon="11.1661085"><ele>156.2</ele><time>2026-04-04T11:01:01.79Z</time></trkpt><trkpt lat="42.4156658" lon="11.1660555"><ele>156.39999999999998</ele><time>2026-04-04T11:01:02.788Z</time></trkpt><trkpt lat="42.4155594" lon="11.1659901"><ele>156.6</ele><time>2026-04-04T11:01:04.786Z</time></trkpt><trkpt lat="42.4154974" lon="11.1659594"><ele>156.79999999999998</ele><time>2026-04-04T11:01:05.793Z</time></trkpt><trkpt lat="42.4154182" lon="11.1658813"><ele>157.0</ele><time>2026-04-04T11:01:06.799Z</time></trkpt><trkpt lat="42.4153201" lon="11.16577"><ele>160.0</ele><time>2026-04-04T11:01:07.791Z</time></trkpt><trkpt lat="42.4152363" lon="11.1656736"><ele>163.0</ele><time>2026-04-04T11:01:08.786Z</time></trkpt><trkpt lat="42.4151683" lon="11.1656006"><ele>166.0</ele><time>2026-04-04T11:01:09.795Z</time></trkpt><trkpt lat="42.4151073" lon="11.1655441"><ele>169.0</ele><time>2026-04-04T11:01:10.784Z</time></trkpt><trkpt lat="42.4150032" lon="11.1654393"><ele>172.0</ele><time>2026-04-04T11:01:12.786Z</time></trkpt><trkpt lat="42.4149134" lon="11.1653575"><ele>172.0</ele><time>2026-04-04T11:01:13.789Z</time></trkpt><trkpt lat="42.4147885" lon="11.165253"><ele>172.0</ele><time>2026-04-04T11:01:14.785Z</time></trkpt><trkpt lat="42.4146717" lon="11.1651414"><ele>172.0</ele><time>2026-04-04T11:01:15.786Z</time></trkpt><trkpt lat="42.4145821" lon="11.16506"><ele>172.0</ele><time>2026-04-04T11:01:16.781Z</time></trkpt><trkpt lat="42.4145045" lon="11.164985"><ele>178.2</ele><time>2026-04-04T11:01:17.783Z</time></trkpt><trkpt lat="42.4144277" lon="11.1649026"><ele>184.39999999999998</ele><time>2026-04-04T11:01:18.788Z</time></trkpt><trkpt lat="42.4143586" lon="11.1648234"><ele>190.60000000000002</ele><time>2026-04-04T11:01:19.788Z</time></trkpt><trkpt lat="42.4143019" lon="11.1647254"><ele>196.8</ele><time>2026-04-04T11:01:20.787Z</time></trkpt><trkpt lat="42.4142552" lon="11.1646107"><ele>203.0</ele><time>2026-04-04T11:01:21.787Z</time></trkpt><trkpt lat="42.4142143" lon="11.1644663"><ele>203.00000000000003</ele><time>2026-04-04T11:01:22.786Z</time></trkpt><trkpt lat="42.4141583" lon="11.1643252"><ele>203.0</ele><time>2026-04-04T11:01:23.788Z</time></trkpt><trkpt lat="42.4141111" lon="11.1642111"><ele>203.0</ele><time>2026-04-04T11:01:24.785Z</time></trkpt><trkpt lat="42.4140774" lon="11.1641276"><ele>203.0</ele><time>2026-04-04T11:01:25.785Z</time></trkpt><trkpt lat="42.4140575" lon="11.1640336"><ele>203.00000000000003</ele><time>2026-04-04T11:01:26.783Z</time></trkpt><trkpt lat="42.4140328" lon="11.1639492"><ele>203.0</ele><time>2026-04-04T11:01:27.787Z</time></trkpt><trkpt lat="42.4140093" lon="11.163812"><ele>205.16666666666669</ele><time>2026-04-04T11:01:29.787Z</time></trkpt><trkpt lat="42.414051" lon="11.1637361"><ele>207.33333333333334</ele><time>2026-04-04T11:01:31.784Z</time></trkpt><trkpt lat="42.4141244" lon="11.1636592"><ele>209.5</ele><time>2026-04-04T11:01:33.782Z</time></trkpt><trkpt lat="42.4141932" lon="11.1636199"><ele>211.66666666666669</ele><time>2026-04-04T11:01:34.784Z</time></trkpt><trkpt lat="42.4142536" lon="11.1635907"><ele>213.83333333333334</ele><time>2026-04-04T11:01:35.786Z</time></trkpt><trkpt lat="42.4143859" lon="11.1636268"><ele>216.0</ele><time>2026-04-04T11:01:37.79Z</time></trkpt><trkpt lat="42.4144928" lon="11.1636927"><ele>216.0</ele><time>2026-04-04T11:01:38.788Z</time></trkpt><trkpt lat="42.4146041" lon="11.1637594"><ele>216.00000000000003</ele><time>2026-04-04T11:01:39.791Z</time></trkpt><trkpt lat="42.4146973" lon="11.1638138"><ele>216.00000000000003</ele><time>2026-04-04T11:01:40.79Z</time></trkpt><trkpt lat="42.4147749" lon="11.1638473"><ele>216.0</ele><time>2026-04-04T11:01:41.784Z</time></trkpt><trkpt lat="42.4148421" lon="11.1638729"><ele>216.0</ele><time>2026-04-04T11:01:42.793Z</time></trkpt><trkpt lat="42.4149566" lon="11.1638787"><ele>215.20000000000002</ele><time>2026-04-04T11:01:44.781Z</time></trkpt><trkpt lat="42.4150367" lon="11.1638744"><ele>214.40000000000003</ele><time>2026-04-04T11:01:45.789Z</time></trkpt><trkpt lat="42.4151129" lon="11.1638594"><ele>213.6</ele><time>2026-04-04T11:01:46.786Z</time></trkpt><trkpt lat="42.4151742" lon="11.1638292"><ele>212.8</ele><time>2026-04-04T11:01:47.793Z</time></trkpt><trkpt lat="42.4152714" lon="11.1637155"><ele>212.0</ele><time>2026-04-04T11:01:49.783Z</time></trkpt><trkpt lat="42.4153448" lon="11.1636139"><ele>212.0</ele><time>2026-04-04T11:01:50.789Z</time></trkpt><trkpt lat="42.4154283" lon="11.1635141"><ele>212.0</ele><time>2026-04-04T11:01:51.787Z</time></trkpt><trkpt lat="42.4155067" lon="11.1634375"><ele>212.0</ele><time>2026-04-04T11:01:52.789Z</time></trkpt><trkpt lat="42.4155655" lon="11.1633794"><ele>212.0</ele><time>2026-04-04T11:01:53.787Z</time></trkpt><trkpt lat="42.4156404" lon="11.1632632"><ele>212.0</ele><time>2026-04-04T11:01:55.788Z</time></trkpt><trkpt lat="42.4156708" lon="11.1631526"><ele>210.66666666666669</ele><time>2026-04-04T11:01:57.784Z</time></trkpt><trkpt lat="42.4156336" lon="11.1629992"><ele>209.33333333333334</ele><time>2026-04-04T11:01:59.79Z</time></trkpt><trkpt lat="42.4155953" lon="11.1628896"><ele>208.0</ele><time>2026-04-04T11:02:00.786Z</time></trkpt><trkpt lat="42.4155684" lon="11.1627873"><ele>206.66666666666669</ele><time>2026-04-04T11:02:01.789Z</time></trkpt><trkpt lat="42.4155544" lon="11.1626883"><ele>205.33333333333334</ele><time>2026-04-04T11:02:02.789Z</time></trkpt><trkpt lat="42.41555" lon="11.1625855"><ele>204.0</ele><time>2026-04-04T11:02:03.785Z</time></trkpt><trkpt lat="42.4155523" lon="11.1624752"><ele>204.0</ele><time>2026-04-04T11:02:04.788Z</time></trkpt><trkpt lat="42.4155461" lon="11.1623709"><ele>204.0</ele><time>2026-04-04T11:02:05.782Z</time></trkpt><trkpt lat="42.41554" lon="11.162283"><ele>204.0</ele><time>2026-04-04T11:02:06.789Z</time></trkpt><trkpt lat="42.4155283" lon="11.1621989"><ele>204.0</ele><time>2026-04-04T11:02:07.793Z</time></trkpt><trkpt lat="42.4154645" lon="11.1620518"><ele>204.0</ele><time>2026-04-04T11:02:09.792Z</time></trkpt><trkpt lat="42.4154127" lon="11.1619698"><ele>204.0</ele><time>2026-04-04T11:02:10.786Z</time></trkpt><trkpt lat="42.415352" lon="11.1618998"><ele>207.57142857142858</ele><time>2026-04-04T11:02:11.797Z</time></trkpt><trkpt lat="42.4153031" lon="11.1618438"><ele>211.14285714285717</ele><time>2026-04-04T11:02:12.786Z</time></trkpt><trkpt lat="42.4152452" lon="11.1617894"><ele>214.71428571428572</ele><time>2026-04-04T11:02:14.785Z</time></trkpt><trkpt lat="42.4151631" lon="11.1617226"><ele>218.28571428571428</ele><time>2026-04-04T11:02:16.79Z</time></trkpt><trkpt lat="42.4151094" lon="11.1616762"><ele>221.85714285714286</ele><time>2026-04-04T11:02:17.783Z</time></trkpt><trkpt lat="42.4150571" lon="11.161616"><ele>225.42857142857142</ele><time>2026-04-04T11:02:18.785Z</time></trkpt><trkpt lat="42.4150304" lon="11.1615283"><ele>229.0</ele><time>2026-04-04T11:02:19.786Z</time></trkpt><trkpt lat="42.4150246" lon="11.1614133"><ele>229.66666666666666</ele><time>2026-04-04T11:02:20.781Z</time></trkpt><trkpt lat="42.4150258" lon="11.1612876"><ele>230.33333333333331</ele><time>2026-04-04T11:02:21.789Z</time></trkpt><trkpt lat="42.4150459" lon="11.1611663"><ele>231.0</ele><time>2026-04-04T11:02:22.781Z</time></trkpt><trkpt lat="42.4150689" lon="11.1610516"><ele>231.66666666666669</ele><time>2026-04-04T11:02:23.79Z</time></trkpt><trkpt lat="42.4150861" lon="11.1609671"><ele>232.33333333333334</ele><time>2026-04-04T11:02:24.785Z</time></trkpt><trkpt lat="42.4151264" lon="11.1608295"><ele>233.0</ele><time>2026-04-04T11:02:26.786Z</time></trkpt><trkpt lat="42.4151662" lon="11.16072"><ele>235.60000000000002</ele><time>2026-04-04T11:02:28.786Z</time></trkpt><trkpt lat="42.4152068" lon="11.160625"><ele>238.20000000000002</ele><time>2026-04-04T11:02:30.787Z</time></trkpt><trkpt lat="42.4152444" lon="11.1605224"><ele>240.8</ele><time>2026-04-04T11:02:32.786Z</time></trkpt><trkpt lat="42.4152821" lon="11.1603992"><ele>243.4</ele><time>2026-04-04T11:02:34.786Z</time></trkpt><trkpt lat="42.4153539" lon="11.1602364"><ele>246.0</ele><time>2026-04-04T11:02:36.793Z</time></trkpt><trkpt lat="42.4153982" lon="11.1601443"><ele>246.0</ele><time>2026-04-04T11:02:37.795Z</time></trkpt><trkpt lat="42.415449" lon="11.1600342"><ele>246.00000000000003</ele><time>2026-04-04T11:02:38.788Z</time></trkpt><trkpt lat="42.4154978" lon="11.1599245"><ele>246.00000000000003</ele><time>2026-04-04T11:02:39.784Z</time></trkpt><trkpt lat="42.4155517" lon="11.1598228"><ele>246.0</ele><time>2026-04-04T11:02:40.786Z</time></trkpt><trkpt lat="42.4155997" lon="11.1597478"><ele>246.0</ele><time>2026-04-04T11:02:41.788Z</time></trkpt><trkpt lat="42.4156628" lon="11.159645"><ele>247.5</ele><time>2026-04-04T11:02:43.792Z</time></trkpt><trkpt lat="42.4157177" lon="11.1595696"><ele>249.0</ele><time>2026-04-04T11:02:49.781Z</time></trkpt><trkpt lat="42.4157525" lon="11.1594907"><ele>250.5</ele><time>2026-04-04T11:02:51.793Z</time></trkpt><trkpt lat="42.41577" lon="11.1593958"><ele>252.0</ele><time>2026-04-04T11:02:53.789Z</time></trkpt><trkpt lat="42.4157307" lon="11.1593102"><ele>253.5</ele><time>2026-04-04T11:02:55.783Z</time></trkpt><trkpt lat="42.4155999" lon="11.1592092"><ele>255.0</ele><time>2026-04-04T11:02:57.783Z</time></trkpt><trkpt lat="42.4154813" lon="11.15915"><ele>257.0</ele><time>2026-04-04T11:02:58.795Z</time></trkpt><trkpt lat="42.4153438" lon="11.1590859"><ele>259.0</ele><time>2026-04-04T11:02:59.784Z</time></trkpt><trkpt lat="42.4152325" lon="11.1590293"><ele>261.0</ele><time>2026-04-04T11:03:00.789Z</time></trkpt><trkpt lat="42.4151396" lon="11.1589645"><ele>263.0</ele><time>2026-04-04T11:03:02.795Z</time></trkpt><trkpt lat="42.4152247" lon="11.1589308"><ele>267.4</ele><time>2026-04-04T11:03:11.785Z</time></trkpt><trkpt lat="42.4153082" lon="11.1589431"><ele>271.8</ele><time>2026-04-04T11:03:12.785Z</time></trkpt><trkpt lat="42.4153996" lon="11.1589258"><ele>276.2</ele><time>2026-04-04T11:03:13.789Z</time></trkpt><trkpt lat="42.4155109" lon="11.1588927"><ele>280.6</ele><time>2026-04-04T11:03:14.798Z</time></trkpt><trkpt lat="42.4156258" lon="11.1588463"><ele>285.0</ele><time>2026-04-04T11:03:15.793Z</time></trkpt><trkpt lat="42.4157387" lon="11.1588086"><ele>285.0</ele><time>2026-04-04T11:03:16.791Z</time></trkpt><trkpt lat="42.4158524" lon="11.1587703"><ele>285.0</ele><time>2026-04-04T11:03:17.788Z</time></trkpt><trkpt lat="42.4159623" lon="11.1587557"><ele>285.0</ele><time>2026-04-04T11:03:18.796Z</time></trkpt><trkpt lat="42.4160686" lon="11.1587307"><ele>285.0</ele><time>2026-04-04T11:03:19.79Z</time></trkpt><trkpt lat="42.4161665" lon="11.1587211"><ele>285.0</ele><time>2026-04-04T11:03:20.79Z</time></trkpt><trkpt lat="42.4162656" lon="11.1587124"><ele>285.4</ele><time>2026-04-04T11:03:21.784Z</time></trkpt><trkpt lat="42.4163543" lon="11.158703"><ele>285.8</ele><time>2026-04-04T11:03:22.791Z</time></trkpt><trkpt lat="42.4164332" lon="11.1587155"><ele>286.2</ele><time>2026-04-04T11:03:23.79Z</time></trkpt><trkpt lat="42.4165255" lon="11.1587635"><ele>286.6</ele><time>2026-04-04T11:03:24.789Z</time></trkpt><trkpt lat="42.416632" lon="11.1588336"><ele>287.0</ele><time>2026-04-04T11:03:25.785Z</time></trkpt><trkpt lat="42.4167524" lon="11.1589215"><ele>287.0</ele><time>2026-04-04T11:03:26.788Z</time></trkpt><trkpt lat="42.4168859" lon="11.1590025"><ele>287.0</ele><time>2026-04-04T11:03:27.791Z</time></trkpt><trkpt lat="42.4170065" lon="11.1590987"><ele>287.0</ele><time>2026-04-04T11:03:28.787Z</time></trkpt><trkpt lat="42.4171263" lon="11.1591822"><ele>287.0</ele><time>2026-04-04T11:03:29.786Z</time></trkpt><trkpt lat="42.4172383" lon="11.1592548"><ele>283.1666666666667</ele><time>2026-04-04T11:03:30.786Z</time></trkpt><trkpt lat="42.4173412" lon="11.1593155"><ele>279.33333333333337</ele><time>2026-04-04T11:03:31.788Z</time></trkpt><trkpt lat="42.4174364" lon="11.1593658"><ele>275.5</ele><time>2026-04-04T11:03:32.782Z</time></trkpt><trkpt lat="42.4175175" lon="11.1594065"><ele>271.6666666666667</ele><time>2026-04-04T11:03:33.79Z</time></trkpt><trkpt lat="42.4175898" lon="11.1594479"><ele>267.8333333333333</ele><time>2026-04-04T11:03:34.799Z</time></trkpt><trkpt lat="42.4176459" lon="11.159498"><ele>264.0</ele><time>2026-04-04T11:03:35.79Z</time></trkpt><trkpt lat="42.4177232" lon="11.1595955"><ele>264.0</ele><time>2026-04-04T11:03:37.796Z</time></trkpt><trkpt lat="42.4177996" lon="11.1597088"><ele>264.0</ele><time>2026-04-04T11:03:39.784Z</time></trkpt><trkpt lat="42.4178767" lon="11.1598312"><ele>264.0</ele><time>2026-04-04T11:03:41.795Z</time></trkpt><trkpt lat="42.4179072" lon="11.1599065"><ele>264.0</ele><time>2026-04-04T11:03:42.792Z</time></trkpt><trkpt lat="42.4179575" lon="11.1600193"><ele>264.0</ele><time>2026-04-04T11:03:44.786Z</time></trkpt><trkpt lat="42.4179342" lon="11.1599258"><ele>264.0</ele><time>2026-04-04T11:04:02.787Z</time></trkpt><trkpt lat="42.4179002" lon="11.1598534"><ele>264.0</ele><time>2026-04-04T11:04:03.787Z</time></trkpt><trkpt lat="42.4178417" lon="11.1597569"><ele>264.0</ele><time>2026-04-04T11:04:04.78Z</time></trkpt><trkpt lat="42.4177717" lon="11.1596497"><ele>264.0</ele><time>2026-04-04T11:04:05.788Z</time></trkpt><trkpt lat="42.4177028" lon="11.1595676"><ele>264.0</ele><time>2026-04-04T11:04:06.79Z</time></trkpt><trkpt lat="42.4176563" lon="11.1595077"><ele>264.0</ele><time>2026-04-04T11:04:07.797Z</time></trkpt><trkpt lat="42.4176612" lon="11.1593969"><ele>264.0</ele><time>2026-04-04T11:04:10.795Z</time></trkpt><trkpt lat="42.4177227" lon="11.1593074"><ele>264.0</ele><time>2026-04-04T11:04:12.789Z</time></trkpt><trkpt lat="42.4178147" lon="11.1592547"><ele>264.0</ele><time>2026-04-04T11:04:14.782Z</time></trkpt><trkpt lat="42.4179429" lon="11.1592465"><ele>264.0</ele><time>2026-04-04T11:04:16.797Z</time></trkpt><trkpt lat="42.4180243" lon="11.1592558"><ele>264.0</ele><time>2026-04-04T11:04:17.792Z</time></trkpt><trkpt lat="42.4181189" lon="11.1592474"><ele>263.0</ele><time>2026-04-04T11:04:18.789Z</time></trkpt><trkpt lat="42.418235" lon="11.1592382"><ele>262.0</ele><time>2026-04-04T11:04:19.793Z</time></trkpt><trkpt lat="42.4183419" lon="11.1592169"><ele>261.0</ele><time>2026-04-04T11:04:20.79Z</time></trkpt><trkpt lat="42.4184335" lon="11.1592072"><ele>260.0</ele><time>2026-04-04T11:04:21.786Z</time></trkpt><trkpt lat="42.4185169" lon="11.1592037"><ele>259.0</ele><time>2026-04-04T11:04:22.791Z</time></trkpt><trkpt lat="42.4185912" lon="11.1592023"><ele>259.0</ele><time>2026-04-04T11:04:23.792Z</time></trkpt><trkpt lat="42.4186692" lon="11.1592077"><ele>259.0</ele><time>2026-04-04T11:04:24.791Z</time></trkpt><trkpt lat="42.4187538" lon="11.1592055"><ele>259.0</ele><time>2026-04-04T11:04:25.793Z</time></trkpt><trkpt lat="42.4188484" lon="11.1592089"><ele>259.0</ele><time>2026-04-04T11:04:26.791Z</time></trkpt><trkpt lat="42.4189352" lon="11.1592165"><ele>259.0</ele><time>2026-04-04T11:04:27.788Z</time></trkpt><trkpt lat="42.4190024" lon="11.1592199"><ele>259.0</ele><time>2026-04-04T11:04:28.8Z</time></trkpt><trkpt lat="42.4191017" lon="11.1592423"><ele>258.2</ele><time>2026-04-04T11:04:30.793Z</time></trkpt><trkpt lat="42.4192271" lon="11.1592586"><ele>257.4</ele><time>2026-04-04T11:04:32.79Z</time></trkpt><trkpt lat="42.4193006" lon="11.1592682"><ele>256.6</ele><time>2026-04-04T11:04:33.79Z</time></trkpt><trkpt lat="42.4193881" lon="11.159259"><ele>255.8</ele><time>2026-04-04T11:04:34.789Z</time></trkpt><trkpt lat="42.4194994" lon="11.159234"><ele>255.0</ele><time>2026-04-04T11:04:35.783Z</time></trkpt><trkpt lat="42.4196007" lon="11.1592047"><ele>253.4</ele><time>2026-04-04T11:04:36.805Z</time></trkpt><trkpt lat="42.4196969" lon="11.1591732"><ele>251.8</ele><time>2026-04-04T11:04:37.789Z</time></trkpt><trkpt lat="42.4197796" lon="11.1591454"><ele>250.2</ele><time>2026-04-04T11:04:38.798Z</time></trkpt><trkpt lat="42.4198489" lon="11.1591167"><ele>248.6</ele><time>2026-04-04T11:04:39.783Z</time></trkpt><trkpt lat="42.4199691" lon="11.1590678"><ele>247.0</ele><time>2026-04-04T11:04:41.791Z</time></trkpt><trkpt lat="42.4200485" lon="11.1590151"><ele>246.6</ele><time>2026-04-04T11:04:43.795Z</time></trkpt><trkpt lat="42.4201236" lon="11.1588945"><ele>246.2</ele><time>2026-04-04T11:04:45.796Z</time></trkpt><trkpt lat="42.4201794" lon="11.1587621"><ele>245.8</ele><time>2026-04-04T11:04:47.8Z</time></trkpt><trkpt lat="42.4201901" lon="11.1586342"><ele>245.4</ele><time>2026-04-04T11:04:49.798Z</time></trkpt><trkpt lat="42.4201797" lon="11.1585244"><ele>245.0</ele><time>2026-04-04T11:04:51.784Z</time></trkpt><trkpt lat="42.4201387" lon="11.1583959"><ele>245.0</ele><time>2026-04-04T11:04:53.79Z</time></trkpt><trkpt lat="42.4200751" lon="11.1582547"><ele>245.0</ele><time>2026-04-04T11:04:55.782Z</time></trkpt><trkpt lat="42.4200124" lon="11.1581307"><ele>245.0</ele><time>2026-04-04T11:04:57.792Z</time></trkpt><trkpt lat="42.4199585" lon="11.1580203"><ele>245.0</ele><time>2026-04-04T11:04:59.783Z</time></trkpt><trkpt lat="42.4199174" lon="11.1578794"><ele>245.0</ele><time>2026-04-04T11:05:01.789Z</time></trkpt><trkpt lat="42.4198912" lon="11.1577419"><ele>244.6</ele><time>2026-04-04T11:05:03.806Z</time></trkpt><trkpt lat="42.4198865" lon="11.1576368"><ele>244.2</ele><time>2026-04-04T11:05:05.788Z</time></trkpt><trkpt lat="42.4199234" lon="11.1575644"><ele>243.8</ele><time>2026-04-04T11:05:07.789Z</time></trkpt><trkpt lat="42.4200345" lon="11.1574816"><ele>243.4</ele><time>2026-04-04T11:05:09.815Z</time></trkpt><trkpt lat="42.4201308" lon="11.157451"><ele>243.0</ele><time>2026-04-04T11:05:10.786Z</time></trkpt><trkpt lat="42.4202394" lon="11.1574067"><ele>243.2</ele><time>2026-04-04T11:05:11.787Z</time></trkpt><trkpt lat="42.4203504" lon="11.1573553"><ele>243.4</ele><time>2026-04-04T11:05:12.787Z</time></trkpt><trkpt lat="42.4204541" lon="11.1573066"><ele>243.59999999999997</ele><time>2026-04-04T11:05:13.789Z</time></trkpt><trkpt lat="42.4205408" lon="11.1572581"><ele>243.79999999999998</ele><time>2026-04-04T11:05:14.779Z</time></trkpt><trkpt lat="42.4206289" lon="11.1572009"><ele>244.0</ele><time>2026-04-04T11:05:15.792Z</time></trkpt><trkpt lat="42.4207161" lon="11.1571423"><ele>243.99999999999997</ele><time>2026-04-04T11:05:16.79Z</time></trkpt><trkpt lat="42.420792" lon="11.1570834"><ele>244.0</ele><time>2026-04-04T11:05:17.788Z</time></trkpt><trkpt lat="42.4208605" lon="11.1570406"><ele>244.0</ele><time>2026-04-04T11:05:18.785Z</time></trkpt><trkpt lat="42.4209284" lon="11.1569917"><ele>244.0</ele><time>2026-04-04T11:05:19.784Z</time></trkpt><trkpt lat="42.4209854" lon="11.1569353"><ele>243.99999999999997</ele><time>2026-04-04T11:05:20.788Z</time></trkpt><trkpt lat="42.4210427" lon="11.1568763"><ele>244.0</ele><time>2026-04-04T11:05:21.794Z</time></trkpt><trkpt lat="42.4210958" lon="11.1568077"><ele>244.0</ele><time>2026-04-04T11:05:22.786Z</time></trkpt><trkpt lat="42.4211575" lon="11.1567227"><ele>243.99999999999997</ele><time>2026-04-04T11:05:23.79Z</time></trkpt><trkpt lat="42.4212181" lon="11.1566083"><ele>243.99999999999997</ele><time>2026-04-04T11:05:25.79Z</time></trkpt><trkpt lat="42.42128" lon="11.1564423"><ele>244.0</ele><time>2026-04-04T11:05:27.784Z</time></trkpt><trkpt lat="42.4213235" lon="11.1563358"><ele>244.0</ele><time>2026-04-04T11:05:28.793Z</time></trkpt><trkpt lat="42.4213592" lon="11.1562306"><ele>241.0</ele><time>2026-04-04T11:05:29.782Z</time></trkpt><trkpt lat="42.4214005" lon="11.1561167"><ele>237.99999999999997</ele><time>2026-04-04T11:05:30.792Z</time></trkpt><trkpt lat="42.4214325" lon="11.1559938"><ele>234.99999999999997</ele><time>2026-04-04T11:05:31.785Z</time></trkpt><trkpt lat="42.4214463" lon="11.1559042"><ele>232.0</ele><time>2026-04-04T11:05:32.793Z</time></trkpt><trkpt lat="42.4214601" lon="11.155749"><ele>229.0</ele><time>2026-04-04T11:05:34.795Z</time></trkpt><trkpt lat="42.4214658" lon="11.1555766"><ele>228.99999999999997</ele><time>2026-04-04T11:05:36.806Z</time></trkpt><trkpt lat="42.421465" lon="11.1554787"><ele>229.0</ele><time>2026-04-04T11:05:37.789Z</time></trkpt><trkpt lat="42.4214653" lon="11.1553727"><ele>229.0</ele><time>2026-04-04T11:05:38.795Z</time></trkpt><trkpt lat="42.4214634" lon="11.1552718"><ele>229.0</ele><time>2026-04-04T11:05:39.784Z</time></trkpt><trkpt lat="42.4214733" lon="11.1551682"><ele>228.99999999999997</ele><time>2026-04-04T11:05:40.788Z</time></trkpt><trkpt lat="42.4214874" lon="11.155065"><ele>229.0</ele><time>2026-04-04T11:05:41.791Z</time></trkpt><trkpt lat="42.4215166" lon="11.1549543"><ele>229.83333333333331</ele><time>2026-04-04T11:05:42.8Z</time></trkpt><trkpt lat="42.4215486" lon="11.1548574"><ele>230.66666666666666</ele><time>2026-04-04T11:05:43.782Z</time></trkpt><trkpt lat="42.4215802" lon="11.1547656"><ele>231.5</ele><time>2026-04-04T11:05:44.795Z</time></trkpt><trkpt lat="42.4216077" lon="11.1546818"><ele>232.33333333333331</ele><time>2026-04-04T11:05:45.787Z</time></trkpt><trkpt lat="42.421637" lon="11.1545872"><ele>233.16666666666666</ele><time>2026-04-04T11:05:46.796Z</time></trkpt><trkpt lat="42.4216591" lon="11.1544818"><ele>234.0</ele><time>2026-04-04T11:05:47.795Z</time></trkpt><trkpt lat="42.4216796" lon="11.1543795"><ele>234.0</ele><time>2026-04-04T11:05:48.794Z</time></trkpt><trkpt lat="42.4216923" lon="11.1542751"><ele>233.99999999999997</ele><time>2026-04-04T11:05:49.795Z</time></trkpt><trkpt lat="42.4216986" lon="11.1541612"><ele>233.99999999999997</ele><time>2026-04-04T11:05:50.791Z</time></trkpt><trkpt lat="42.4217058" lon="11.1540526"><ele>234.0</ele><time>2026-04-04T11:05:51.795Z</time></trkpt><trkpt lat="42.4217168" lon="11.1538996"><ele>234.0</ele><time>2026-04-04T11:05:53.782Z</time></trkpt><trkpt lat="42.4217049" lon="11.1537493"><ele>232.14285714285717</ele><time>2026-04-04T11:05:55.8Z</time></trkpt><trkpt lat="42.4216791" lon="11.1536473"><ele>230.2857142857143</ele><time>2026-04-04T11:05:56.789Z</time></trkpt><trkpt lat="42.4216549" lon="11.1535483"><ele>228.42857142857144</ele><time>2026-04-04T11:05:57.791Z</time></trkpt><trkpt lat="42.4216354" lon="11.153465"><ele>226.57142857142858</ele><time>2026-04-04T11:05:58.782Z</time></trkpt><trkpt lat="42.4216053" lon="11.1533787"><ele>224.71428571428572</ele><time>2026-04-04T11:05:59.795Z</time></trkpt><trkpt lat="42.4215746" lon="11.1532901"><ele>222.8571428571429</ele><time>2026-04-04T11:06:00.799Z</time></trkpt><trkpt lat="42.4215419" lon="11.1532126"><ele>221.0</ele><time>2026-04-04T11:06:01.784Z</time></trkpt><trkpt lat="42.4214622" lon="11.1531013"><ele>220.20000000000002</ele><time>2026-04-04T11:06:03.789Z</time></trkpt><trkpt lat="42.4213609" lon="11.1529894"><ele>219.40000000000003</ele><time>2026-04-04T11:06:05.781Z</time></trkpt><trkpt lat="42.4213044" lon="11.1529271"><ele>218.6</ele><time>2026-04-04T11:06:06.791Z</time></trkpt><trkpt lat="42.421221" lon="11.1528299"><ele>217.8</ele><time>2026-04-04T11:06:08.791Z</time></trkpt><trkpt lat="42.421131" lon="11.1527437"><ele>217.0</ele><time>2026-04-04T11:06:10.785Z</time></trkpt><trkpt lat="42.4210584" lon="11.1526712"><ele>216.99999999999997</ele><time>2026-04-04T11:06:12.783Z</time></trkpt><trkpt lat="42.4209609" lon="11.1526075"><ele>217.0</ele><time>2026-04-04T11:10:40.79Z</time></trkpt><trkpt lat="42.4208929" lon="11.1526008"><ele>217.0</ele><time>2026-04-04T11:10:45.787Z</time></trkpt><trkpt lat="42.4208234" lon="11.1525926"><ele>217.0</ele><time>2026-04-04T11:10:49.788Z</time></trkpt><trkpt lat="42.4207471" lon="11.1525649"><ele>216.99999999999997</ele><time>2026-04-04T11:10:52.785Z</time></trkpt><trkpt lat="42.4206816" lon="11.1525255"><ele>217.0</ele><time>2026-04-04T11:10:56.794Z</time></trkpt><trkpt lat="42.4206172" lon="11.1524892"><ele>216.99999999999997</ele><time>2026-04-04T11:11:06.783Z</time></trkpt><trkpt lat="42.4205522" lon="11.1524465"><ele>217.0</ele><time>2026-04-04T11:11:11.784Z</time></trkpt><trkpt lat="42.4204765" lon="11.1523936"><ele>217.0</ele><time>2026-04-04T11:11:15.787Z</time></trkpt><trkpt lat="42.4204106" lon="11.1523224"><ele>217.0</ele><time>2026-04-04T11:11:23.782Z</time></trkpt><trkpt lat="42.4204833" lon="11.1522863"><ele>216.99999999999997</ele><time>2026-04-04T11:11:53.778Z</time></trkpt><trkpt lat="42.4205519" lon="11.1522666"><ele>217.0</ele><time>2026-04-04T11:12:00.787Z</time></trkpt><trkpt lat="42.4206263" lon="11.1522855"><ele>217.57142857142858</ele><time>2026-04-04T11:12:05.785Z</time></trkpt><trkpt lat="42.4207015" lon="11.1522739"><ele>218.14285714285714</ele><time>2026-04-04T11:12:10.792Z</time></trkpt><trkpt lat="42.4207761" lon="11.1522558"><ele>218.71428571428572</ele><time>2026-04-04T11:12:15.78Z</time></trkpt><trkpt lat="42.4208393" lon="11.1522114"><ele>219.28571428571428</ele><time>2026-04-04T11:12:33.788Z</time></trkpt><trkpt lat="42.4209034" lon="11.1521811"><ele>219.85714285714286</ele><time>2026-04-04T11:12:40.785Z</time></trkpt><trkpt lat="42.4209674" lon="11.1521357"><ele>220.42857142857144</ele><time>2026-04-04T11:12:45.788Z</time></trkpt><trkpt lat="42.4210246" lon="11.152095"><ele>221.0</ele><time>2026-04-04T11:12:48.782Z</time></trkpt><trkpt lat="42.4210921" lon="11.1520855"><ele>221.00000000000003</ele><time>2026-04-04T11:12:52.788Z</time></trkpt><trkpt lat="42.421157" lon="11.1520592"><ele>221.0</ele><time>2026-04-04T11:12:58.78Z</time></trkpt><trkpt lat="42.4212293" lon="11.1520374"><ele>221.0</ele><time>2026-04-04T11:13:03.783Z</time></trkpt><trkpt lat="42.4212976" lon="11.1520412"><ele>221.0</ele><time>2026-04-04T11:13:08.784Z</time></trkpt><trkpt lat="42.421367" lon="11.1520249"><ele>221.0</ele><time>2026-04-04T11:13:12.784Z</time></trkpt><trkpt lat="42.4214305" lon="11.1520172"><ele>221.00000000000003</ele><time>2026-04-04T11:13:23.794Z</time></trkpt><trkpt lat="42.4215025" lon="11.1519866"><ele>221.0</ele><time>2026-04-04T11:13:28.788Z</time></trkpt><trkpt lat="42.4215951" lon="11.1519776"><ele>216.83333333333334</ele><time>2026-04-04T11:13:35.789Z</time></trkpt><trkpt lat="42.4216897" lon="11.1519456"><ele>212.66666666666669</ele><time>2026-04-04T11:13:44.786Z</time></trkpt><trkpt lat="42.4217484" lon="11.1518907"><ele>208.5</ele><time>2026-04-04T11:13:49.786Z</time></trkpt><trkpt lat="42.4218096" lon="11.1518541"><ele>204.33333333333331</ele><time>2026-04-04T11:13:54.788Z</time></trkpt><trkpt lat="42.4218806" lon="11.1518582"><ele>200.16666666666666</ele><time>2026-04-04T11:14:00.789Z</time></trkpt><trkpt lat="42.4219579" lon="11.1518433"><ele>196.0</ele><time>2026-04-04T11:14:04.782Z</time></trkpt><trkpt lat="42.42204" lon="11.1518655"><ele>196.0</ele><time>2026-04-04T11:14:07.784Z</time></trkpt><trkpt lat="42.4221062" lon="11.1518806"><ele>196.0</ele><time>2026-04-04T11:14:10.787Z</time></trkpt><trkpt lat="42.4221785" lon="11.1519175"><ele>196.0</ele><time>2026-04-04T11:14:19.781Z</time></trkpt><trkpt lat="42.4222414" lon="11.1519508"><ele>196.0</ele><time>2026-04-04T11:14:23.788Z</time></trkpt><trkpt lat="42.4223085" lon="11.1519901"><ele>196.0</ele><time>2026-04-04T11:14:27.789Z</time></trkpt><trkpt lat="42.4223541" lon="11.1520535"><ele>196.0</ele><time>2026-04-04T11:14:38.778Z</time></trkpt><trkpt lat="42.422382" lon="11.152163"><ele>196.0</ele><time>2026-04-04T11:14:45.785Z</time></trkpt><trkpt lat="42.4224312" lon="11.1522197"><ele>193.71428571428572</ele><time>2026-04-04T11:14:49.789Z</time></trkpt><trkpt lat="42.4224797" lon="11.152288"><ele>191.42857142857144</ele><time>2026-04-04T11:14:52.788Z</time></trkpt><trkpt lat="42.4225314" lon="11.1523777"><ele>189.14285714285714</ele><time>2026-04-04T11:14:56.792Z</time></trkpt><trkpt lat="42.4226002" lon="11.1523861"><ele>186.85714285714286</ele><time>2026-04-04T11:15:00.781Z</time></trkpt><trkpt lat="42.4226657" lon="11.1524162"><ele>184.57142857142858</ele><time>2026-04-04T11:15:09.79Z</time></trkpt><trkpt lat="42.4227304" lon="11.1524639"><ele>182.28571428571428</ele><time>2026-04-04T11:15:13.786Z</time></trkpt><trkpt lat="42.4227903" lon="11.1525186"><ele>180.0</ele><time>2026-04-04T11:15:17.787Z</time></trkpt><trkpt lat="42.4228654" lon="11.1525711"><ele>178.14285714285714</ele><time>2026-04-04T11:15:21.785Z</time></trkpt><trkpt lat="42.4229232" lon="11.1526246"><ele>176.2857142857143</ele><time>2026-04-04T11:15:29.781Z</time></trkpt><trkpt lat="42.4229822" lon="11.1526683"><ele>174.42857142857144</ele><time>2026-04-04T11:15:33.79Z</time></trkpt><trkpt lat="42.4230477" lon="11.1527254"><ele>172.57142857142856</ele><time>2026-04-04T11:15:37.785Z</time></trkpt><trkpt lat="42.4231021" lon="11.1527754"><ele>170.71428571428572</ele><time>2026-04-04T11:15:41.782Z</time></trkpt><trkpt lat="42.4231819" lon="11.1528021"><ele>168.85714285714286</ele><time>2026-04-04T11:15:45.787Z</time></trkpt><trkpt lat="42.4232537" lon="11.1528108"><ele>167.0</ele><time>2026-04-04T11:15:52.785Z</time></trkpt><trkpt lat="42.4233184" lon="11.1528105"><ele>164.5</ele><time>2026-04-04T11:15:56.78Z</time></trkpt><trkpt lat="42.4233948" lon="11.1528177"><ele>162.0</ele><time>2026-04-04T11:16:00.82Z</time></trkpt><trkpt lat="42.4234567" lon="11.1528353"><ele>159.5</ele><time>2026-04-04T11:16:03.802Z</time></trkpt><trkpt lat="42.4235381" lon="11.1528595"><ele>157.0</ele><time>2026-04-04T11:16:43.783Z</time></trkpt><trkpt lat="42.4236338" lon="11.1529119"><ele>154.5</ele><time>2026-04-04T11:18:50.78Z</time></trkpt><trkpt lat="42.4236697" lon="11.1529872"><ele>152.0</ele><time>2026-04-04T11:18:58.78Z</time></trkpt><trkpt lat="42.4236831" lon="11.1530804"><ele>152.0</ele><time>2026-04-04T11:19:03.776Z</time></trkpt><trkpt lat="42.4237077" lon="11.1531671"><ele>152.0</ele><time>2026-04-04T11:19:09.784Z</time></trkpt><trkpt lat="42.4237221" lon="11.1532545"><ele>152.0</ele><time>2026-04-04T11:19:14.781Z</time></trkpt><trkpt lat="42.4237524" lon="11.153338"><ele>152.0</ele><time>2026-04-04T11:19:20.781Z</time></trkpt><trkpt lat="42.4238145" lon="11.1533692"><ele>152.0</ele><time>2026-04-04T11:19:33.784Z</time></trkpt><trkpt lat="42.4238778" lon="11.153379"><ele>152.0</ele><time>2026-04-04T11:19:40.783Z</time></trkpt><trkpt lat="42.423934" lon="11.1534326"><ele>152.0</ele><time>2026-04-04T11:19:53.785Z</time></trkpt><trkpt lat="42.4239951" lon="11.1534653"><ele>147.85714285714286</ele><time>2026-04-04T11:19:58.781Z</time></trkpt><trkpt lat="42.4240324" lon="11.1535368"><ele>143.71428571428572</ele><time>2026-04-04T11:20:16.788Z</time></trkpt><trkpt lat="42.4240866" lon="11.1536149"><ele>139.57142857142858</ele><time>2026-04-04T11:20:20.789Z</time></trkpt><trkpt lat="42.4241381" lon="11.1536993"><ele>135.42857142857144</ele><time>2026-04-04T11:20:23.788Z</time></trkpt><trkpt lat="42.4241693" lon="11.1537739"><ele>131.28571428571428</ele><time>2026-04-04T11:20:27.785Z</time></trkpt><trkpt lat="42.4242152" lon="11.1538507"><ele>127.14285714285717</ele><time>2026-04-04T11:20:32.789Z</time></trkpt><trkpt lat="42.424279" lon="11.1538955"><ele>123.00000000000001</ele><time>2026-04-04T11:20:35.79Z</time></trkpt><trkpt lat="42.4243494" lon="11.1539059"><ele>123.0</ele><time>2026-04-04T11:20:42.788Z</time></trkpt><trkpt lat="42.4244256" lon="11.1539302"><ele>123.0</ele><time>2026-04-04T11:20:46.786Z</time></trkpt><trkpt lat="42.4244972" lon="11.1539775"><ele>123.0</ele><time>2026-04-04T11:20:49.787Z</time></trkpt><trkpt lat="42.4245742" lon="11.1540353"><ele>123.0</ele><time>2026-04-04T11:20:52.788Z</time></trkpt><trkpt lat="42.424636" lon="11.1540946"><ele>123.0</ele><time>2026-04-04T11:20:55.789Z</time></trkpt><trkpt lat="42.4246993" lon="11.1541135"><ele>123.0</ele><time>2026-04-04T11:21:03.789Z</time></trkpt><trkpt lat="42.4247765" lon="11.1541294"><ele>118.85714285714288</ele><time>2026-04-04T11:21:14.783Z</time></trkpt><trkpt lat="42.4248327" lon="11.1541837"><ele>114.71428571428572</ele><time>2026-04-04T11:21:20.789Z</time></trkpt><trkpt lat="42.424883" lon="11.154236"><ele>110.57142857142858</ele><time>2026-04-04T11:21:26.789Z</time></trkpt><trkpt lat="42.4249446" lon="11.154259"><ele>106.42857142857144</ele><time>2026-04-04T11:21:31.786Z</time></trkpt><trkpt lat="42.4250135" lon="11.1543005"><ele>102.28571428571428</ele><time>2026-04-04T11:21:35.788Z</time></trkpt><trkpt lat="42.4250751" lon="11.1543357"><ele>98.14285714285714</ele><time>2026-04-04T11:21:39.794Z</time></trkpt><trkpt lat="42.4251444" lon="11.1543427"><ele>94.0</ele><time>2026-04-04T11:21:43.791Z</time></trkpt><trkpt lat="42.4252164" lon="11.1543596"><ele>94.0</ele><time>2026-04-04T11:21:46.786Z</time></trkpt><trkpt lat="42.4252964" lon="11.1543841"><ele>94.0</ele><time>2026-04-04T11:21:49.781Z</time></trkpt><trkpt lat="42.4253882" lon="11.1543954"><ele>94.0</ele><time>2026-04-04T11:21:52.783Z</time></trkpt><trkpt lat="42.4254595" lon="11.1543888"><ele>94.0</ele><time>2026-04-04T11:21:54.788Z</time></trkpt><trkpt lat="42.4255318" lon="11.1543962"><ele>94.0</ele><time>2026-04-04T11:21:57.789Z</time></trkpt><trkpt lat="42.4256017" lon="11.1543938"><ele>94.0</ele><time>2026-04-04T11:22:01.779Z</time></trkpt><trkpt lat="42.4256695" lon="11.1544429"><ele>92.16666666666666</ele><time>2026-04-04T11:22:05.793Z</time></trkpt><trkpt lat="42.4257473" lon="11.1545086"><ele>90.33333333333333</ele><time>2026-04-04T11:22:08.789Z</time></trkpt><trkpt lat="42.4258321" lon="11.1545465"><ele>88.5</ele><time>2026-04-04T11:22:11.787Z</time></trkpt><trkpt lat="42.4257688" lon="11.1545048"><ele>86.66666666666667</ele><time>2026-04-04T11:22:52.785Z</time></trkpt><trkpt lat="42.4257064" lon="11.1544461"><ele>84.83333333333334</ele><time>2026-04-04T11:22:55.781Z</time></trkpt><trkpt lat="42.4256373" lon="11.1544268"><ele>83.0</ele><time>2026-04-04T11:22:58.788Z</time></trkpt><trkpt lat="42.4255721" lon="11.1544423"><ele>83.0</ele><time>2026-04-04T11:23:00.799Z</time></trkpt><trkpt lat="42.4254877" lon="11.1544283"><ele>83.0</ele><time>2026-04-04T11:23:07.79Z</time></trkpt><trkpt lat="42.4253894" lon="11.1544106"><ele>83.0</ele><time>2026-04-04T11:23:10.787Z</time></trkpt><trkpt lat="42.4253127" lon="11.1543804"><ele>83.0</ele><time>2026-04-04T11:23:12.795Z</time></trkpt><trkpt lat="42.4251959" lon="11.154336"><ele>83.0</ele><time>2026-04-04T11:23:16.78Z</time></trkpt><trkpt lat="42.4251285" lon="11.1543187"><ele>84.57142857142857</ele><time>2026-04-04T11:23:19.793Z</time></trkpt><trkpt lat="42.4250717" lon="11.1542628"><ele>86.14285714285715</ele><time>2026-04-04T11:23:36.796Z</time></trkpt><trkpt lat="42.4250001" lon="11.154257"><ele>87.71428571428572</ele><time>2026-04-04T11:23:38.773Z</time></trkpt><trkpt lat="42.4249408" lon="11.1542219"><ele>89.28571428571428</ele><time>2026-04-04T11:23:40.789Z</time></trkpt><trkpt lat="42.4248693" lon="11.1541642"><ele>90.85714285714286</ele><time>2026-04-04T11:23:43.779Z</time></trkpt><trkpt lat="42.424814" lon="11.1541053"><ele>92.42857142857143</ele><time>2026-04-04T11:24:12.787Z</time></trkpt><trkpt lat="42.4247716" lon="11.1541724"><ele>94.0</ele><time>2026-04-04T11:24:56.78Z</time></trkpt><trkpt lat="42.4248193" lon="11.1542622"><ele>94.0</ele><time>2026-04-04T11:24:59.787Z</time></trkpt><trkpt lat="42.4248556" lon="11.1543356"><ele>94.0</ele><time>2026-04-04T11:25:01.789Z</time></trkpt><trkpt lat="42.4249339" lon="11.1543863"><ele>94.0</ele><time>2026-04-04T11:25:04.78Z</time></trkpt><trkpt lat="42.425004" lon="11.1544176"><ele>94.0</ele><time>2026-04-04T11:25:07.786Z</time></trkpt><trkpt lat="42.4250639" lon="11.1544446"><ele>94.0</ele><time>2026-04-04T11:25:10.786Z</time></trkpt><trkpt lat="42.4251126" lon="11.1545148"><ele>94.0</ele><time>2026-04-04T11:25:13.792Z</time></trkpt><trkpt lat="42.4251628" lon="11.1545913"><ele>94.0</ele><time>2026-04-04T11:25:15.78Z</time></trkpt><trkpt lat="42.4252217" lon="11.1546342"><ele>94.0</ele><time>2026-04-04T11:25:17.692Z</time></trkpt><trkpt lat="42.425307" lon="11.1546604"><ele>94.0</ele><time>2026-04-04T11:25:19.781Z</time></trkpt><trkpt lat="42.4253867" lon="11.1546326"><ele>94.0</ele><time>2026-04-04T11:25:22.791Z</time></trkpt><trkpt lat="42.4254356" lon="11.1545699"><ele>94.0</ele><time>2026-04-04T11:25:25.776Z</time></trkpt><trkpt lat="42.4255077" lon="11.1544806"><ele>94.0</ele><time>2026-04-04T11:25:27.786Z</time></trkpt><trkpt lat="42.4255658" lon="11.154402"><ele>94.0</ele><time>2026-04-04T11:25:29.799Z</time></trkpt><trkpt lat="42.4256294" lon="11.1544015"><ele>92.16666666666666</ele><time>2026-04-04T11:25:33.789Z</time></trkpt><trkpt lat="42.4256916" lon="11.1544526"><ele>90.33333333333333</ele><time>2026-04-04T11:25:41.786Z</time></trkpt><trkpt lat="42.4257226" lon="11.1545318"><ele>88.5</ele><time>2026-04-04T11:25:44.733Z</time></trkpt><trkpt lat="42.4257918" lon="11.1545926"><ele>86.66666666666667</ele><time>2026-04-04T11:25:47.792Z</time></trkpt><trkpt lat="42.4258794" lon="11.1546003"><ele>84.83333333333334</ele><time>2026-04-04T11:25:50.774Z</time></trkpt><trkpt lat="42.4259196" lon="11.1546929"><ele>83.0</ele><time>2026-04-04T11:25:54.784Z</time></trkpt><trkpt lat="42.4259782" lon="11.1547769"><ele>83.0</ele><time>2026-04-04T11:25:57.788Z</time></trkpt><trkpt lat="42.426047" lon="11.1548063"><ele>83.0</ele><time>2026-04-04T11:26:00.781Z</time></trkpt><trkpt lat="42.4261237" lon="11.1548617"><ele>83.0</ele><time>2026-04-04T11:26:03.793Z</time></trkpt><trkpt lat="42.4261924" lon="11.1548638"><ele>83.0</ele><time>2026-04-04T11:26:08.783Z</time></trkpt><trkpt lat="42.4262558" lon="11.1548804"><ele>83.0</ele><time>2026-04-04T11:26:12.788Z</time></trkpt><trkpt lat="42.4263247" lon="11.1548968"><ele>83.0</ele><time>2026-04-04T11:26:17.784Z</time></trkpt><trkpt lat="42.4263838" lon="11.1549632"><ele>83.0</ele><time>2026-04-04T11:26:20.782Z</time></trkpt><trkpt lat="42.4264093" lon="11.1550735"><ele>77.2</ele><time>2026-04-04T11:26:23.712Z</time></trkpt><trkpt lat="42.42648" lon="11.1551532"><ele>71.4</ele><time>2026-04-04T11:26:25.881Z</time></trkpt><trkpt lat="42.4265735" lon="11.1551693"><ele>65.60000000000001</ele><time>2026-04-04T11:26:27.784Z</time></trkpt><trkpt lat="42.4266675" lon="11.1551944"><ele>59.800000000000004</ele><time>2026-04-04T11:26:29.791Z</time></trkpt><trkpt lat="42.4267523" lon="11.155183"><ele>54.0</ele><time>2026-04-04T11:26:31.781Z</time></trkpt><trkpt lat="42.426814" lon="11.1550919"><ele>54.0</ele><time>2026-04-04T11:26:33.793Z</time></trkpt><trkpt lat="42.4268561" lon="11.1550035"><ele>54.0</ele><time>2026-04-04T11:26:34.787Z</time></trkpt><trkpt lat="42.4268938" lon="11.1549336"><ele>54.0</ele><time>2026-04-04T11:26:35.783Z</time></trkpt><trkpt lat="42.4269729" lon="11.154908"><ele>54.0</ele><time>2026-04-04T11:26:37.788Z</time></trkpt><trkpt lat="42.4270871" lon="11.1549396"><ele>54.0</ele><time>2026-04-04T11:26:39.786Z</time></trkpt><trkpt lat="42.4271512" lon="11.1549781"><ele>54.0</ele><time>2026-04-04T11:26:40.792Z</time></trkpt><trkpt lat="42.4272183" lon="11.1550199"><ele>53.166666666666664</ele><time>2026-04-04T11:26:42.79Z</time></trkpt><trkpt lat="42.427293" lon="11.1550684"><ele>52.33333333333333</ele><time>2026-04-04T11:26:44.784Z</time></trkpt><trkpt lat="42.4273534" lon="11.1551051"><ele>51.5</ele><time>2026-04-04T11:26:45.786Z</time></trkpt><trkpt lat="42.427462" lon="11.1551551"><ele>50.666666666666664</ele><time>2026-04-04T11:26:47.783Z</time></trkpt><trkpt lat="42.427551" lon="11.1552108"><ele>49.83333333333333</ele><time>2026-04-04T11:26:49.777Z</time></trkpt><trkpt lat="42.4276128" lon="11.1552389"><ele>49.0</ele><time>2026-04-04T11:26:51.785Z</time></trkpt><trkpt lat="42.4277242" lon="11.1552856"><ele>48.99999999999999</ele><time>2026-04-04T11:27:12.786Z</time></trkpt><trkpt lat="42.4278165" lon="11.1553628"><ele>49.0</ele><time>2026-04-04T11:27:14.787Z</time></trkpt><trkpt lat="42.4278924" lon="11.1554005"><ele>49.0</ele><time>2026-04-04T11:27:17.785Z</time></trkpt><trkpt lat="42.4279891" lon="11.1554423"><ele>49.0</ele><time>2026-04-04T11:27:19.78Z</time></trkpt><trkpt lat="42.4280554" lon="11.1554512"><ele>48.99999999999999</ele><time>2026-04-04T11:27:21.787Z</time></trkpt><trkpt lat="42.4281179" lon="11.1554326"><ele>49.0</ele><time>2026-04-04T11:27:28.786Z</time></trkpt><trkpt lat="42.4282244" lon="11.1554679"><ele>49.142857142857146</ele><time>2026-04-04T11:27:31.782Z</time></trkpt><trkpt lat="42.4282959" lon="11.1554867"><ele>49.285714285714285</ele><time>2026-04-04T11:27:33.786Z</time></trkpt><trkpt lat="42.428356" lon="11.1555372"><ele>49.42857142857143</ele><time>2026-04-04T11:27:35.787Z</time></trkpt><trkpt lat="42.4284122" lon="11.1555785"><ele>49.57142857142857</ele><time>2026-04-04T11:27:37.785Z</time></trkpt><trkpt lat="42.4284765" lon="11.1556038"><ele>49.714285714285715</ele><time>2026-04-04T11:27:39.786Z</time></trkpt><trkpt lat="42.4285544" lon="11.1556422"><ele>49.85714285714286</ele><time>2026-04-04T11:27:42.784Z</time></trkpt><trkpt lat="42.4286207" lon="11.1556698"><ele>50.0</ele><time>2026-04-04T11:27:45.785Z</time></trkpt><trkpt lat="42.4286903" lon="11.1556825"><ele>46.0</ele><time>2026-04-04T11:27:48.779Z</time></trkpt><trkpt lat="42.4287731" lon="11.1557309"><ele>42.0</ele><time>2026-04-04T11:27:52.785Z</time></trkpt><trkpt lat="42.4288656" lon="11.1557632"><ele>38.0</ele><time>2026-04-04T11:27:54.783Z</time></trkpt><trkpt lat="42.4289563" lon="11.1558012"><ele>34.0</ele><time>2026-04-04T11:27:56.784Z</time></trkpt><trkpt lat="42.4290395" lon="11.1558214"><ele>30.0</ele><time>2026-04-04T11:27:58.784Z</time></trkpt><trkpt lat="42.42914" lon="11.1558235"><ele>29.166666666666668</ele><time>2026-04-04T11:28:00.786Z</time></trkpt><trkpt lat="42.4292452" lon="11.1558019"><ele>28.333333333333336</ele><time>2026-04-04T11:28:02.783Z</time></trkpt><trkpt lat="42.4293248" lon="11.155787"><ele>27.5</ele><time>2026-04-04T11:28:04.787Z</time></trkpt><trkpt lat="42.429386" lon="11.1557385"><ele>26.666666666666668</ele><time>2026-04-04T11:28:08.791Z</time></trkpt><trkpt lat="42.4294394" lon="11.1557993"><ele>25.833333333333336</ele><time>2026-04-04T11:28:11.782Z</time></trkpt><trkpt lat="42.4295199" lon="11.155887"><ele>25.0</ele><time>2026-04-04T11:28:24.78Z</time></trkpt><trkpt lat="42.4296019" lon="11.1559434"><ele>25.500000000000004</ele><time>2026-04-04T11:28:25.787Z</time></trkpt><trkpt lat="42.4296694" lon="11.155974"><ele>26.0</ele><time>2026-04-04T11:28:26.79Z</time></trkpt><trkpt lat="42.4297556" lon="11.1560113"><ele>26.5</ele><time>2026-04-04T11:28:28.79Z</time></trkpt><trkpt lat="42.4298615" lon="11.1560716"><ele>27.0</ele><time>2026-04-04T11:28:31.784Z</time></trkpt><trkpt lat="42.4299263" lon="11.1561053"><ele>27.500000000000004</ele><time>2026-04-04T11:28:32.785Z</time></trkpt><trkpt lat="42.4300102" lon="11.1561638"><ele>28.0</ele><time>2026-04-04T11:28:34.783Z</time></trkpt><trkpt lat="42.4300748" lon="11.1562139"><ele>28.000000000000004</ele><time>2026-04-04T11:28:36.788Z</time></trkpt><trkpt lat="42.4301356" lon="11.1562628"><ele>28.0</ele><time>2026-04-04T11:28:37.785Z</time></trkpt><trkpt lat="42.4301963" lon="11.156313"><ele>28.0</ele><time>2026-04-04T11:28:38.786Z</time></trkpt><trkpt lat="42.4302978" lon="11.1563799"><ele>28.0</ele><time>2026-04-04T11:28:40.785Z</time></trkpt><trkpt lat="42.4303828" lon="11.1564322"><ele>28.000000000000004</ele><time>2026-04-04T11:28:42.787Z</time></trkpt><trkpt lat="42.4304369" lon="11.1564874"><ele>28.0</ele><time>2026-04-04T11:28:44.785Z</time></trkpt><trkpt lat="42.430505" lon="11.1565254"><ele>25.333333333333336</ele><time>2026-04-04T11:28:46.788Z</time></trkpt><trkpt lat="42.4306174" lon="11.156579"><ele>22.666666666666668</ele><time>2026-04-04T11:28:48.779Z</time></trkpt><trkpt lat="42.4306929" lon="11.1566234"><ele>20.0</ele><time>2026-04-04T11:28:49.787Z</time></trkpt><trkpt lat="42.4307712" lon="11.156664"><ele>17.333333333333336</ele><time>2026-04-04T11:28:50.785Z</time></trkpt><trkpt lat="42.4308379" lon="11.1567032"><ele>14.666666666666668</ele><time>2026-04-04T11:28:51.786Z</time></trkpt><trkpt lat="42.430903" lon="11.1567339"><ele>12.0</ele><time>2026-04-04T11:28:52.788Z</time></trkpt><trkpt lat="42.4309657" lon="11.1567665"><ele>12.0</ele><time>2026-04-04T11:28:53.787Z</time></trkpt><trkpt lat="42.4310323" lon="11.1567935"><ele>12.0</ele><time>2026-04-04T11:28:54.786Z</time></trkpt><trkpt lat="42.4310972" lon="11.1568201"><ele>12.0</ele><time>2026-04-04T11:28:55.791Z</time></trkpt><trkpt lat="42.4311589" lon="11.1568507"><ele>12.0</ele><time>2026-04-04T11:28:56.787Z</time></trkpt><trkpt lat="42.4312439" lon="11.1568881"><ele>12.0</ele><time>2026-04-04T11:28:58.788Z</time></trkpt><trkpt lat="42.4313434" lon="11.1568728"><ele>12.0</ele><time>2026-04-04T11:29:06.791Z</time></trkpt><trkpt lat="42.4314174" lon="11.1568599"><ele>11.8</ele><time>2026-04-04T11:29:08.788Z</time></trkpt><trkpt lat="42.4314851" lon="11.1568247"><ele>11.6</ele><time>2026-04-04T11:29:10.788Z</time></trkpt><trkpt lat="42.4315928" lon="11.156734"><ele>11.4</ele><time>2026-04-04T11:29:12.793Z</time></trkpt><trkpt lat="42.4316856" lon="11.1566652"><ele>11.200000000000001</ele><time>2026-04-04T11:29:14.788Z</time></trkpt><trkpt lat="42.4317637" lon="11.1566425"><ele>11.0</ele><time>2026-04-04T11:29:16.787Z</time></trkpt><trkpt lat="42.4318278" lon="11.156688"><ele>11.0</ele><time>2026-04-04T11:29:22.785Z</time></trkpt><trkpt lat="42.4318586" lon="11.1568136"><ele>11.0</ele><time>2026-04-04T11:29:25.792Z</time></trkpt><trkpt lat="42.4318225" lon="11.1569514"><ele>11.0</ele><time>2026-04-04T11:29:27.785Z</time></trkpt><trkpt lat="42.4317949" lon="11.1570982"><ele>11.0</ele><time>2026-04-04T11:29:29.798Z</time></trkpt><trkpt lat="42.4317694" lon="11.1572687"><ele>11.0</ele><time>2026-04-04T11:29:31.8Z</time></trkpt><trkpt lat="42.4317219" lon="11.1574006"><ele>9.600000000000001</ele><time>2026-04-04T11:29:33.789Z</time></trkpt><trkpt lat="42.4316502" lon="11.1575391"><ele>8.200000000000001</ele><time>2026-04-04T11:29:35.79Z</time></trkpt><trkpt lat="42.4315875" lon="11.1576864"><ele>6.800000000000001</ele><time>2026-04-04T11:29:37.784Z</time></trkpt><trkpt lat="42.4315563" lon="11.1577743"><ele>5.4</ele><time>2026-04-04T11:29:38.787Z</time></trkpt><trkpt lat="42.4315158" lon="11.1579139"><ele>4.0</ele><time>2026-04-04T11:29:40.785Z</time></trkpt><trkpt lat="42.431499" lon="11.1580098"><ele>4.0</ele><time>2026-04-04T11:29:42.785Z</time></trkpt><trkpt lat="42.4315513" lon="11.1580779"><ele>4.0</ele><time>2026-04-04T11:30:34.787Z</time></trkpt><trkpt lat="42.4316391" lon="11.1580212"><ele>4.0</ele><time>2026-04-04T11:30:37.786Z</time></trkpt><trkpt lat="42.4317422" lon="11.1578916"><ele>4.0</ele><time>2026-04-04T11:30:39.787Z</time></trkpt><trkpt lat="42.431815" lon="11.1578154"><ele>4.0</ele><time>2026-04-04T11:30:40.791Z</time></trkpt><trkpt lat="42.4318967" lon="11.1577389"><ele>4.0</ele><time>2026-04-04T11:30:41.787Z</time></trkpt><trkpt lat="42.4319823" lon="11.1576711"><ele>4.0</ele><time>2026-04-04T11:30:42.788Z</time></trkpt><trkpt lat="42.4320742" lon="11.1576121"><ele>4.0</ele><time>2026-04-04T11:30:43.788Z</time></trkpt><trkpt lat="42.4321763" lon="11.1575694"><ele>4.0</ele><time>2026-04-04T11:30:44.788Z</time></trkpt><trkpt lat="42.4322802" lon="11.1575444"><ele>4.0</ele><time>2026-04-04T11:30:45.785Z</time></trkpt><trkpt lat="42.4323825" lon="11.1575301"><ele>4.0</ele><time>2026-04-04T11:30:46.798Z</time></trkpt><trkpt lat="42.4324871" lon="11.1575296"><ele>4.0</ele><time>2026-04-04T11:30:47.789Z</time></trkpt><trkpt lat="42.4325847" lon="11.1575338"><ele>4.0</ele><time>2026-04-04T11:30:48.801Z</time></trkpt><trkpt lat="42.4326836" lon="11.1575484"><ele>4.0</ele><time>2026-04-04T11:30:49.793Z</time></trkpt><trkpt lat="42.4327815" lon="11.1575804"><ele>4.0</ele><time>2026-04-04T11:30:50.79Z</time></trkpt><trkpt lat="42.4328711" lon="11.1576063"><ele>4.0</ele><time>2026-04-04T11:30:51.828Z</time></trkpt><trkpt lat="42.4329655" lon="11.1576329"><ele>4.0</ele><time>2026-04-04T11:30:52.786Z</time></trkpt><trkpt lat="42.4330627" lon="11.157651"><ele>4.0</ele><time>2026-04-04T11:30:53.789Z</time></trkpt><trkpt lat="42.4331559" lon="11.1576671"><ele>4.0</ele><time>2026-04-04T11:30:54.789Z</time></trkpt><trkpt lat="42.4332536" lon="11.1576759"><ele>4.0</ele><time>2026-04-04T11:30:55.786Z</time></trkpt><trkpt lat="42.4333522" lon="11.1576617"><ele>4.2</ele><time>2026-04-04T11:30:56.785Z</time></trkpt><trkpt lat="42.4334416" lon="11.1576232"><ele>4.4</ele><time>2026-04-04T11:30:57.787Z</time></trkpt><trkpt lat="42.4335181" lon="11.1575496"><ele>4.6</ele><time>2026-04-04T11:30:58.787Z</time></trkpt><trkpt lat="42.4335874" lon="11.1574598"><ele>4.8</ele><time>2026-04-04T11:30:59.783Z</time></trkpt><trkpt lat="42.4336506" lon="11.1573292"><ele>5.0</ele><time>2026-04-04T11:31:00.783Z</time></trkpt><trkpt lat="42.4337139" lon="11.1571863"><ele>4.75</ele><time>2026-04-04T11:31:01.787Z</time></trkpt><trkpt lat="42.4337767" lon="11.157023"><ele>4.5</ele><time>2026-04-04T11:31:02.791Z</time></trkpt><trkpt lat="42.4338518" lon="11.1568596"><ele>4.25</ele><time>2026-04-04T11:31:03.787Z</time></trkpt><trkpt lat="42.4339181" lon="11.1566941"><ele>4.0</ele><time>2026-04-04T11:31:04.786Z</time></trkpt><trkpt lat="42.4339855" lon="11.1565243"><ele>5.75</ele><time>2026-04-04T11:31:05.79Z</time></trkpt><trkpt lat="42.43405" lon="11.1563518"><ele>7.5</ele><time>2026-04-04T11:31:06.784Z</time></trkpt><trkpt lat="42.4341136" lon="11.1561655"><ele>9.25</ele><time>2026-04-04T11:31:07.786Z</time></trkpt><trkpt lat="42.4341765" lon="11.1559785"><ele>11.0</ele><time>2026-04-04T11:31:08.785Z</time></trkpt><trkpt lat="42.4342363" lon="11.1557869"><ele>13.333333333333332</ele><time>2026-04-04T11:31:09.792Z</time></trkpt><trkpt lat="42.4343007" lon="11.155598"><ele>15.666666666666666</ele><time>2026-04-04T11:31:10.786Z</time></trkpt><trkpt lat="42.434367" lon="11.1554036"><ele>18.0</ele><time>2026-04-04T11:31:11.791Z</time></trkpt><trkpt lat="42.4344348" lon="11.1552206"><ele>18.0</ele><time>2026-04-04T11:31:12.788Z</time></trkpt><trkpt lat="42.4345091" lon="11.1550541"><ele>18.0</ele><time>2026-04-04T11:31:13.791Z</time></trkpt><trkpt lat="42.4345693" lon="11.1548973"><ele>18.0</ele><time>2026-04-04T11:31:14.788Z</time></trkpt><trkpt lat="42.4346195" lon="11.1547418"><ele>18.0</ele><time>2026-04-04T11:31:15.79Z</time></trkpt><trkpt lat="42.4346553" lon="11.1545771"><ele>15.25</ele><time>2026-04-04T11:31:16.79Z</time></trkpt><trkpt lat="42.4346775" lon="11.1544133"><ele>12.5</ele><time>2026-04-04T11:31:17.788Z</time></trkpt><trkpt lat="42.4346826" lon="11.154239"><ele>9.75</ele><time>2026-04-04T11:31:18.795Z</time></trkpt><trkpt lat="42.4346897" lon="11.1540596"><ele>7.0</ele><time>2026-04-04T11:31:19.787Z</time></trkpt><trkpt lat="42.4347013" lon="11.1538754"><ele>7.0</ele><time>2026-04-04T11:31:20.786Z</time></trkpt><trkpt lat="42.4347174" lon="11.1536836"><ele>7.0</ele><time>2026-04-04T11:31:21.79Z</time></trkpt><trkpt lat="42.43473" lon="11.1534872"><ele>7.0</ele><time>2026-04-04T11:31:22.783Z</time></trkpt><trkpt lat="42.4347412" lon="11.1532913"><ele>7.0</ele><time>2026-04-04T11:31:23.787Z</time></trkpt><trkpt lat="42.4347468" lon="11.1530963"><ele>7.5</ele><time>2026-04-04T11:31:24.785Z</time></trkpt><trkpt lat="42.4347472" lon="11.1529091"><ele>8.0</ele><time>2026-04-04T11:31:25.785Z</time></trkpt><trkpt lat="42.4347494" lon="11.1527193"><ele>8.5</ele><time>2026-04-04T11:31:26.788Z</time></trkpt><trkpt lat="42.434751" lon="11.1525439"><ele>9.0</ele><time>2026-04-04T11:31:27.786Z</time></trkpt><trkpt lat="42.4347529" lon="11.1523759"><ele>10.5</ele><time>2026-04-04T11:31:28.785Z</time></trkpt><trkpt lat="42.4347579" lon="11.1522155"><ele>12.0</ele><time>2026-04-04T11:31:29.786Z</time></trkpt><trkpt lat="42.4347781" lon="11.1520591"><ele>13.5</ele><time>2026-04-04T11:31:30.787Z</time></trkpt><trkpt lat="42.4348164" lon="11.1519203"><ele>15.0</ele><time>2026-04-04T11:31:31.778Z</time></trkpt><trkpt lat="42.4348721" lon="11.1517898"><ele>15.0</ele><time>2026-04-04T11:31:32.786Z</time></trkpt><trkpt lat="42.4349382" lon="11.1516748"><ele>15.0</ele><time>2026-04-04T11:31:33.801Z</time></trkpt><trkpt lat="42.4350238" lon="11.1515919"><ele>15.0</ele><time>2026-04-04T11:31:34.799Z</time></trkpt><trkpt lat="42.4351199" lon="11.15153"><ele>15.0</ele><time>2026-04-04T11:31:35.785Z</time></trkpt><trkpt lat="42.4352188" lon="11.1514624"><ele>15.0</ele><time>2026-04-04T11:31:36.784Z</time></trkpt><trkpt lat="42.4353206" lon="11.1513974"><ele>15.25</ele><time>2026-04-04T11:31:37.788Z</time></trkpt><trkpt lat="42.4354168" lon="11.1513024"><ele>15.5</ele><time>2026-04-04T11:31:38.787Z</time></trkpt><trkpt lat="42.4355132" lon="11.1511919"><ele>15.75</ele><time>2026-04-04T11:31:39.785Z</time></trkpt><trkpt lat="42.4355976" lon="11.1510587"><ele>16.0</ele><time>2026-04-04T11:31:40.794Z</time></trkpt><trkpt lat="42.4356739" lon="11.1509231"><ele>16.0</ele><time>2026-04-04T11:31:41.786Z</time></trkpt><trkpt lat="42.4357449" lon="11.1507802"><ele>16.0</ele><time>2026-04-04T11:31:42.787Z</time></trkpt><trkpt lat="42.4358125" lon="11.1506418"><ele>16.0</ele><time>2026-04-04T11:31:43.786Z</time></trkpt><trkpt lat="42.4358787" lon="11.1504983"><ele>16.0</ele><time>2026-04-04T11:31:44.788Z</time></trkpt><trkpt lat="42.4359436" lon="11.1503582"><ele>18.25</ele><time>2026-04-04T11:31:45.788Z</time></trkpt><trkpt lat="42.4360094" lon="11.1502159"><ele>20.5</ele><time>2026-04-04T11:31:46.788Z</time></trkpt><trkpt lat="42.4360775" lon="11.1500781"><ele>22.75</ele><time>2026-04-04T11:31:47.782Z</time></trkpt><trkpt lat="42.4361475" lon="11.1499318"><ele>25.0</ele><time>2026-04-04T11:31:48.784Z</time></trkpt><trkpt lat="42.4362263" lon="11.149781"><ele>21.75</ele><time>2026-04-04T11:31:49.787Z</time></trkpt><trkpt lat="42.436311" lon="11.1496202"><ele>18.5</ele><time>2026-04-04T11:31:50.788Z</time></trkpt><trkpt lat="42.4363896" lon="11.149468"><ele>15.25</ele><time>2026-04-04T11:31:51.788Z</time></trkpt><trkpt lat="42.436463" lon="11.1493278"><ele>12.0</ele><time>2026-04-04T11:31:52.792Z</time></trkpt><trkpt lat="42.4365175" lon="11.1491933"><ele>12.0</ele><time>2026-04-04T11:31:53.79Z</time></trkpt><trkpt lat="42.4365408" lon="11.1490582"><ele>12.0</ele><time>2026-04-04T11:31:54.789Z</time></trkpt><trkpt lat="42.4365221" lon="11.1489261"><ele>12.0</ele><time>2026-04-04T11:31:55.793Z</time></trkpt><trkpt lat="42.4364556" lon="11.1487853"><ele>12.0</ele><time>2026-04-04T11:31:56.795Z</time></trkpt><trkpt lat="42.4363664" lon="11.1486625"><ele>13.666666666666668</ele><time>2026-04-04T11:31:57.783Z</time></trkpt><trkpt lat="42.4362646" lon="11.1485296"><ele>15.333333333333334</ele><time>2026-04-04T11:31:58.785Z</time></trkpt><trkpt lat="42.436134" lon="11.1484201"><ele>17.0</ele><time>2026-04-04T11:31:59.785Z</time></trkpt><trkpt lat="42.4359921" lon="11.148328"><ele>17.0</ele><time>2026-04-04T11:32:00.789Z</time></trkpt><trkpt lat="42.4358428" lon="11.1482572"><ele>17.0</ele><time>2026-04-04T11:32:01.787Z</time></trkpt><trkpt lat="42.4357006" lon="11.1481844"><ele>17.0</ele><time>2026-04-04T11:32:02.783Z</time></trkpt><trkpt lat="42.435558" lon="11.1481243"><ele>13.75</ele><time>2026-04-04T11:32:03.787Z</time></trkpt><trkpt lat="42.4354237" lon="11.148073"><ele>10.5</ele><time>2026-04-04T11:32:04.786Z</time></trkpt><trkpt lat="42.4353007" lon="11.1480265"><ele>7.25</ele><time>2026-04-04T11:32:05.784Z</time></trkpt><trkpt lat="42.435188" lon="11.1479946"><ele>4.0</ele><time>2026-04-04T11:32:06.797Z</time></trkpt><trkpt lat="42.435072" lon="11.1480005"><ele>4.0</ele><time>2026-04-04T11:32:07.784Z</time></trkpt><trkpt lat="42.4349578" lon="11.1480298"><ele>4.0</ele><time>2026-04-04T11:32:08.787Z</time></trkpt><trkpt lat="42.4348424" lon="11.148062"><ele>4.0</ele><time>2026-04-04T11:32:09.785Z</time></trkpt><trkpt lat="42.4347296" lon="11.1480954"><ele>4.0</ele><time>2026-04-04T11:32:10.79Z</time></trkpt><trkpt lat="42.4346272" lon="11.1481289"><ele>4.166666666666666</ele><time>2026-04-04T11:32:11.788Z</time></trkpt><trkpt lat="42.4345422" lon="11.148153"><ele>4.333333333333333</ele><time>2026-04-04T11:32:12.787Z</time></trkpt><trkpt lat="42.4344811" lon="11.1481784"><ele>4.5</ele><time>2026-04-04T11:32:13.79Z</time></trkpt><trkpt lat="42.4343995" lon="11.1482065"><ele>4.666666666666667</ele><time>2026-04-04T11:32:15.785Z</time></trkpt><trkpt lat="42.4343457" lon="11.1481545"><ele>4.833333333333334</ele><time>2026-04-04T11:32:30.794Z</time></trkpt><trkpt lat="42.4342613" lon="11.1480187"><ele>5.0</ele><time>2026-04-04T11:32:32.794Z</time></trkpt><trkpt lat="42.4342034" lon="11.1479114"><ele>5.0</ele><time>2026-04-04T11:32:33.788Z</time></trkpt><trkpt lat="42.4341357" lon="11.1477817"><ele>5.0</ele><time>2026-04-04T11:32:34.792Z</time></trkpt><trkpt lat="42.4340717" lon="11.1476361"><ele>5.0</ele><time>2026-04-04T11:32:35.787Z</time></trkpt><trkpt lat="42.4340093" lon="11.147479"><ele>5.0</ele><time>2026-04-04T11:32:36.79Z</time></trkpt><trkpt lat="42.4339539" lon="11.1473197"><ele>4.5</ele><time>2026-04-04T11:32:37.793Z</time></trkpt><trkpt lat="42.4339079" lon="11.147155"><ele>4.0</ele><time>2026-04-04T11:32:38.786Z</time></trkpt><trkpt lat="42.4338847" lon="11.1469979"><ele>3.5</ele><time>2026-04-04T11:32:39.792Z</time></trkpt><trkpt lat="42.4338683" lon="11.1468315"><ele>3.0</ele><time>2026-04-04T11:32:40.788Z</time></trkpt><trkpt lat="42.4338559" lon="11.1466677"><ele>3.0</ele><time>2026-04-04T11:32:41.786Z</time></trkpt><trkpt lat="42.4338451" lon="11.1465038"><ele>3.0</ele><time>2026-04-04T11:32:42.786Z</time></trkpt><trkpt lat="42.4338331" lon="11.1463338"><ele>3.0</ele><time>2026-04-04T11:32:43.791Z</time></trkpt><trkpt lat="42.4338216" lon="11.1461494"><ele>3.0</ele><time>2026-04-04T11:32:44.789Z</time></trkpt><trkpt lat="42.4338082" lon="11.1459653"><ele>5.25</ele><time>2026-04-04T11:32:45.795Z</time></trkpt><trkpt lat="42.4338015" lon="11.1457873"><ele>7.5</ele><time>2026-04-04T11:32:46.798Z</time></trkpt><trkpt lat="42.4337951" lon="11.1456122"><ele>9.75</ele><time>2026-04-04T11:32:47.788Z</time></trkpt><trkpt lat="42.4337889" lon="11.145448"><ele>12.0</ele><time>2026-04-04T11:32:48.791Z</time></trkpt><trkpt lat="42.4337839" lon="11.1452949"><ele>12.5</ele><time>2026-04-04T11:32:49.79Z</time></trkpt><trkpt lat="42.4337997" lon="11.1451404"><ele>13.0</ele><time>2026-04-04T11:32:50.796Z</time></trkpt><trkpt lat="42.4338553" lon="11.1449976"><ele>13.5</ele><time>2026-04-04T11:32:51.793Z</time></trkpt><trkpt lat="42.4339351" lon="11.1448472"><ele>14.0</ele><time>2026-04-04T11:32:52.786Z</time></trkpt><trkpt lat="42.4340287" lon="11.1447156"><ele>14.0</ele><time>2026-04-04T11:32:53.799Z</time></trkpt><trkpt lat="42.434126" lon="11.1445817"><ele>14.0</ele><time>2026-04-04T11:32:54.785Z</time></trkpt><trkpt lat="42.4342316" lon="11.1444454"><ele>14.0</ele><time>2026-04-04T11:32:55.792Z</time></trkpt><trkpt lat="42.4343328" lon="11.1443091"><ele>14.0</ele><time>2026-04-04T11:32:56.79Z</time></trkpt><trkpt lat="42.4344229" lon="11.1441789"><ele>14.0</ele><time>2026-04-04T11:32:57.792Z</time></trkpt><trkpt lat="42.4344937" lon="11.1440636"><ele>13.999999999999998</ele><time>2026-04-04T11:32:58.791Z</time></trkpt><trkpt lat="42.434541" lon="11.1439366"><ele>13.999999999999998</ele><time>2026-04-04T11:32:59.79Z</time></trkpt><trkpt lat="42.434554" lon="11.1437952"><ele>14.0</ele><time>2026-04-04T11:33:00.798Z</time></trkpt><trkpt lat="42.4345324" lon="11.143673"><ele>14.0</ele><time>2026-04-04T11:33:01.794Z</time></trkpt><trkpt lat="42.4344798" lon="11.1435647"><ele>12.5</ele><time>2026-04-04T11:33:02.793Z</time></trkpt><trkpt lat="42.4344014" lon="11.14347"><ele>11.0</ele><time>2026-04-04T11:33:03.785Z</time></trkpt><trkpt lat="42.4342929" lon="11.1433803"><ele>9.5</ele><time>2026-04-04T11:33:04.78Z</time></trkpt><trkpt lat="42.4341703" lon="11.1432955"><ele>8.0</ele><time>2026-04-04T11:33:05.794Z</time></trkpt><trkpt lat="42.4340544" lon="11.1431975"><ele>9.25</ele><time>2026-04-04T11:33:06.784Z</time></trkpt><trkpt lat="42.4339404" lon="11.143101"><ele>10.5</ele><time>2026-04-04T11:33:07.783Z</time></trkpt><trkpt lat="42.4338366" lon="11.1429904"><ele>11.75</ele><time>2026-04-04T11:33:08.786Z</time></trkpt><trkpt lat="42.4337617" lon="11.1428585"><ele>13.0</ele><time>2026-04-04T11:33:09.784Z</time></trkpt><trkpt lat="42.4337147" lon="11.1427017"><ele>13.0</ele><time>2026-04-04T11:33:10.789Z</time></trkpt><trkpt lat="42.4336924" lon="11.1425256"><ele>13.0</ele><time>2026-04-04T11:33:11.791Z</time></trkpt><trkpt lat="42.4336881" lon="11.1423459"><ele>13.0</ele><time>2026-04-04T11:33:12.793Z</time></trkpt><trkpt lat="42.4336972" lon="11.1421718"><ele>13.0</ele><time>2026-04-04T11:33:13.789Z</time></trkpt><trkpt lat="42.4337126" lon="11.1420046"><ele>11.5</ele><time>2026-04-04T11:33:14.789Z</time></trkpt><trkpt lat="42.433733" lon="11.1418329"><ele>10.0</ele><time>2026-04-04T11:33:15.786Z</time></trkpt><trkpt lat="42.4337493" lon="11.1416639"><ele>8.5</ele><time>2026-04-04T11:33:16.789Z</time></trkpt><trkpt lat="42.4337651" lon="11.1415023"><ele>7.0</ele><time>2026-04-04T11:33:17.79Z</time></trkpt><trkpt lat="42.4337783" lon="11.1413355"><ele>6.75</ele><time>2026-04-04T11:33:18.785Z</time></trkpt><trkpt lat="42.4337907" lon="11.1411682"><ele>6.5</ele><time>2026-04-04T11:33:19.796Z</time></trkpt><trkpt lat="42.4338009" lon="11.1410058"><ele>6.25</ele><time>2026-04-04T11:33:20.792Z</time></trkpt><trkpt lat="42.4338112" lon="11.1408561"><ele>6.0</ele><time>2026-04-04T11:33:21.794Z</time></trkpt><trkpt lat="42.4338219" lon="11.1407127"><ele>5.8</ele><time>2026-04-04T11:33:22.79Z</time></trkpt><trkpt lat="42.4338262" lon="11.1405809"><ele>5.6</ele><time>2026-04-04T11:33:23.788Z</time></trkpt><trkpt lat="42.4338269" lon="11.1404738"><ele>5.4</ele><time>2026-04-04T11:33:24.783Z</time></trkpt><trkpt lat="42.4337948" lon="11.1403545"><ele>5.2</ele><time>2026-04-04T11:33:26.793Z</time></trkpt><trkpt lat="42.4337142" lon="11.1403251"><ele>5.0</ele><time>2026-04-04T11:33:28.79Z</time></trkpt><trkpt lat="42.4335835" lon="11.1402923"><ele>5.0</ele><time>2026-04-04T11:33:30.778Z</time></trkpt><trkpt lat="42.4335029" lon="11.1402692"><ele>5.0</ele><time>2026-04-04T11:33:31.783Z</time></trkpt><trkpt lat="42.433416" lon="11.1402375"><ele>5.0</ele><time>2026-04-04T11:33:32.79Z</time></trkpt><trkpt lat="42.4333264" lon="11.140205"><ele>5.0</ele><time>2026-04-04T11:33:33.791Z</time></trkpt><trkpt lat="42.4332425" lon="11.1401723"><ele>5.0</ele><time>2026-04-04T11:33:34.785Z</time></trkpt><trkpt lat="42.4331546" lon="11.1401414"><ele>5.0</ele><time>2026-04-04T11:33:35.795Z</time></trkpt><trkpt lat="42.4330597" lon="11.1401066"><ele>5.6</ele><time>2026-04-04T11:33:36.792Z</time></trkpt><trkpt lat="42.4329671" lon="11.1400748"><ele>6.2</ele><time>2026-04-04T11:33:37.787Z</time></trkpt><trkpt lat="42.4328596" lon="11.1400417"><ele>6.800000000000001</ele><time>2026-04-04T11:33:38.787Z</time></trkpt><trkpt lat="42.4327522" lon="11.1400066"><ele>7.4</ele><time>2026-04-04T11:33:39.789Z</time></trkpt><trkpt lat="42.4326468" lon="11.139963"><ele>8.0</ele><time>2026-04-04T11:33:40.795Z</time></trkpt><trkpt lat="42.4325428" lon="11.1399223"><ele>8.0</ele><time>2026-04-04T11:33:41.785Z</time></trkpt><trkpt lat="42.4324421" lon="11.139887"><ele>8.0</ele><time>2026-04-04T11:33:42.8Z</time></trkpt><trkpt lat="42.4323528" lon="11.1398494"><ele>8.0</ele><time>2026-04-04T11:33:43.787Z</time></trkpt><trkpt lat="42.4322652" lon="11.1398114"><ele>8.0</ele><time>2026-04-04T11:33:44.797Z</time></trkpt><trkpt lat="42.4321696" lon="11.1397745"><ele>8.0</ele><time>2026-04-04T11:33:45.795Z</time></trkpt><trkpt lat="42.432083" lon="11.1397381"><ele>8.600000000000001</ele><time>2026-04-04T11:33:46.788Z</time></trkpt><trkpt lat="42.4320106" lon="11.1397107"><ele>9.200000000000001</ele><time>2026-04-04T11:33:47.789Z</time></trkpt><trkpt lat="42.4319487" lon="11.1396901"><ele>9.8</ele><time>2026-04-04T11:33:48.789Z</time></trkpt><trkpt lat="42.4318668" lon="11.1396517"><ele>10.4</ele><time>2026-04-04T11:33:50.795Z</time></trkpt><trkpt lat="42.4318209" lon="11.1397109"><ele>11.0</ele><time>2026-04-04T11:38:22.798Z</time></trkpt><trkpt lat="42.4316138" lon="11.1395954"><ele>14.0</ele><time>2026-04-04T11:39:02.823Z</time></trkpt><trkpt lat="42.4310267" lon="11.1395289"><ele>18.0</ele><time>2026-04-04T11:39:11.853Z</time></trkpt><trkpt lat="42.4302795" lon="11.1392519"><ele>16.0</ele><time>2026-04-04T11:39:23.206Z</time></trkpt><trkpt lat="42.4307131" lon="11.1391388"><ele>14.0</ele><time>2026-04-04T11:39:32.062Z</time></trkpt><trkpt lat="42.4306002" lon="11.1377664"><ele>16.0</ele><time>2026-04-04T11:39:41.007Z</time></trkpt><trkpt lat="42.4309833" lon="11.1384268"><ele>8.0</ele><time>2026-04-04T11:39:59.428Z</time></trkpt><trkpt lat="42.432292" lon="11.1399935"><ele>16.0</ele><time>2026-04-04T11:40:21.505Z</time></trkpt><trkpt lat="42.4310847" lon="11.1388708"><ele>37.0</ele><time>2026-04-04T11:40:51.573Z</time></trkpt><trkpt lat="42.4258669" lon="11.1344594"><ele>35.0</ele><time>2026-04-04T11:43:08.405Z</time></trkpt><trkpt lat="42.432433" lon="11.1254321"><ele>35.0</ele><time>2026-04-04T11:47:54.875Z</time></trkpt><trkpt lat="42.4327635" lon="11.1253856"><ele>35.0</ele><time>2026-04-04T11:48:03.787Z</time></trkpt><trkpt lat="42.4334599" lon="11.1250318"><ele>11.0</ele><time>2026-04-04T11:48:12.595Z</time></trkpt><trkpt lat="42.4338006" lon="11.1228545"><ele>14.0</ele><time>2026-04-04T11:48:21.684Z</time></trkpt><trkpt lat="42.4367219" lon="11.1205354"><ele>4.0</ele><time>2026-04-04T11:48:30.577Z</time></trkpt><trkpt lat="42.4358253" lon="11.1212248"><ele>4.0</ele><time>2026-04-04T11:48:39.223Z</time></trkpt><trkpt lat="42.4358088" lon="11.1213979"><ele>4.0</ele><time>2026-04-04T11:48:48.154Z</time></trkpt><trkpt lat="42.4342256" lon="11.1243656"><ele>6.0</ele><time>2026-04-04T11:48:56.971Z</time></trkpt><trkpt lat="42.4342915" lon="11.1227608"><ele>2.0</ele><time>2026-04-04T11:49:06.168Z</time></trkpt><trkpt lat="42.4346982" lon="11.1216435"><ele>7.0</ele><time>2026-04-04T11:49:15.287Z</time></trkpt><trkpt lat="42.4353432" lon="11.121027"><ele>7.0</ele><time>2026-04-04T11:49:24.376Z</time></trkpt><trkpt lat="42.4349383" lon="11.1207425"><ele>18.0</ele><time>2026-04-04T11:49:33.62Z</time></trkpt><trkpt lat="42.4344186" lon="11.1205009"><ele>55.0</ele><time>2026-04-04T11:49:42.615Z</time></trkpt><trkpt lat="42.4376552" lon="11.1168938"><ele>66.0</ele><time>2026-04-04T11:50:37.102Z</time></trkpt><trkpt lat="42.4375922" lon="11.1142123"><ele>10.0</ele><time>2026-04-04T11:50:58.068Z</time></trkpt><trkpt lat="42.437582" lon="11.1201974"><ele>153.0</ele><time>2026-04-04T11:52:05.038Z</time></trkpt><trkpt lat="42.4348679" lon="11.1064474"><ele>178.0</ele><time>2026-04-04T11:52:58.204Z</time></trkpt><trkpt lat="42.4305808" lon="11.1039838"><ele>178.0</ele><time>2026-04-04T11:57:26.014Z</time></trkpt></trkseg></trk></gpx>